<?xml version="1.0" encoding="UTF-8" standalone="no" ?>
<gpx xmlns="http://www.topografix.com/GPX/1/1" xmlns:xsi="http://www.w3.org/2001/XMLSchema-instance" xsi:schemaLocation="http://www.topografix.com/GPX/1/1 http://www.topografix.com/GPX/1/1/gpx.xsd" version="1.1" creator="VisuGPX - https://www.visugpx.com">
  <metadata>
    <name>Rando VTT Olima/Dounoux/Arche/épinal/Olima</name>
    <desc><![CDATA[Difficile....]]></desc>
  </metadata>
  <trk>
    <name><![CDATA[RANDO Olima Dounoux Arche Olima 47kms/D+1750]]></name>
    <trkseg>
      <trkpt lat="48.16894" lon="6.41923">
        <ele>363.52</ele>
        <time>2012-04-15T06:40:40Z</time>
      </trkpt>
      <trkpt lat="48.16893" lon="6.41938">
        <ele>364</ele>
        <time>2012-04-15T06:40:42Z</time>
      </trkpt>
      <trkpt lat="48.16893" lon="6.41945">
        <ele>364</ele>
        <time>2012-04-15T06:40:43Z</time>
      </trkpt>
      <trkpt lat="48.16893" lon="6.41952">
        <ele>364.48</ele>
        <time>2012-04-15T06:40:44Z</time>
      </trkpt>
      <trkpt lat="48.16891" lon="6.41959">
        <ele>364.48</ele>
        <time>2012-04-15T06:40:45Z</time>
      </trkpt>
      <trkpt lat="48.16889" lon="6.41963">
        <ele>364.96</ele>
        <time>2012-04-15T06:40:46Z</time>
      </trkpt>
      <trkpt lat="48.16886" lon="6.41967">
        <ele>364.96</ele>
        <time>2012-04-15T06:40:47Z</time>
      </trkpt>
      <trkpt lat="48.16883" lon="6.41969">
        <ele>365.44</ele>
        <time>2012-04-15T06:40:48Z</time>
      </trkpt>
      <trkpt lat="48.1688" lon="6.41971">
        <ele>365.44</ele>
        <time>2012-04-15T06:40:49Z</time>
      </trkpt>
      <trkpt lat="48.16877" lon="6.4197">
        <ele>365.44</ele>
        <time>2012-04-15T06:40:50Z</time>
      </trkpt>
      <trkpt lat="48.16874" lon="6.41967">
        <ele>365.44</ele>
        <time>2012-04-15T06:40:51Z</time>
      </trkpt>
      <trkpt lat="48.16872" lon="6.41963">
        <ele>365.44</ele>
        <time>2012-04-15T06:40:52Z</time>
      </trkpt>
      <trkpt lat="48.16852" lon="6.41935">
        <ele>365.92</ele>
        <time>2012-04-15T06:41:01Z</time>
      </trkpt>
      <trkpt lat="48.16842" lon="6.41906">
        <ele>362.55</ele>
        <time>2012-04-15T06:41:10Z</time>
      </trkpt>
      <trkpt lat="48.16817" lon="6.41865">
        <ele>359.67</ele>
        <time>2012-04-15T06:41:22Z</time>
      </trkpt>
      <trkpt lat="48.16787" lon="6.41832">
        <ele>360.15</ele>
        <time>2012-04-15T06:41:33Z</time>
      </trkpt>
      <trkpt lat="48.16767" lon="6.4181">
        <ele>360.63</ele>
        <time>2012-04-15T06:41:40Z</time>
      </trkpt>
      <trkpt lat="48.16741" lon="6.41763">
        <ele>361.59</ele>
        <time>2012-04-15T06:41:51Z</time>
      </trkpt>
      <trkpt lat="48.16709" lon="6.41715">
        <ele>362.55</ele>
        <time>2012-04-15T06:42:03Z</time>
      </trkpt>
      <trkpt lat="48.16671" lon="6.41675">
        <ele>363.52</ele>
        <time>2012-04-15T06:42:14Z</time>
      </trkpt>
      <trkpt lat="48.1665" lon="6.41644">
        <ele>364.48</ele>
        <time>2012-04-15T06:42:24Z</time>
      </trkpt>
      <trkpt lat="48.16636" lon="6.41629">
        <ele>364.48</ele>
        <time>2012-04-15T06:42:31Z</time>
      </trkpt>
      <trkpt lat="48.16634" lon="6.41625">
        <ele>364.48</ele>
        <time>2012-04-15T06:42:32Z</time>
      </trkpt>
      <trkpt lat="48.16614" lon="6.41615">
        <ele>364.96</ele>
        <time>2012-04-15T06:42:43Z</time>
      </trkpt>
      <trkpt lat="48.16605" lon="6.41604">
        <ele>364.48</ele>
        <time>2012-04-15T06:42:47Z</time>
      </trkpt>
      <trkpt lat="48.16603" lon="6.416">
        <ele>364.48</ele>
        <time>2012-04-15T06:42:48Z</time>
      </trkpt>
      <trkpt lat="48.166" lon="6.41595">
        <ele>364.48</ele>
        <time>2012-04-15T06:42:49Z</time>
      </trkpt>
      <trkpt lat="48.16597" lon="6.41592">
        <ele>364.48</ele>
        <time>2012-04-15T06:42:50Z</time>
      </trkpt>
      <trkpt lat="48.16594" lon="6.41588">
        <ele>364.48</ele>
        <time>2012-04-15T06:42:51Z</time>
      </trkpt>
      <trkpt lat="48.1659" lon="6.41585">
        <ele>364.48</ele>
        <time>2012-04-15T06:42:52Z</time>
      </trkpt>
      <trkpt lat="48.16586" lon="6.41583">
        <ele>364.48</ele>
        <time>2012-04-15T06:42:53Z</time>
      </trkpt>
      <trkpt lat="48.16552" lon="6.41549">
        <ele>364.96</ele>
        <time>2012-04-15T06:43:03Z</time>
      </trkpt>
      <trkpt lat="48.16529" lon="6.41522">
        <ele>365.44</ele>
        <time>2012-04-15T06:43:10Z</time>
      </trkpt>
      <trkpt lat="48.16525" lon="6.41517">
        <ele>365.44</ele>
        <time>2012-04-15T06:43:11Z</time>
      </trkpt>
      <trkpt lat="48.16481" lon="6.4148">
        <ele>366.88</ele>
        <time>2012-04-15T06:43:24Z</time>
      </trkpt>
      <trkpt lat="48.16449" lon="6.41456">
        <ele>366.88</ele>
        <time>2012-04-15T06:43:35Z</time>
      </trkpt>
      <trkpt lat="48.16424" lon="6.41445">
        <ele>367.84</ele>
        <time>2012-04-15T06:43:46Z</time>
      </trkpt>
      <trkpt lat="48.16386" lon="6.41448">
        <ele>368.8</ele>
        <time>2012-04-15T06:43:57Z</time>
      </trkpt>
      <trkpt lat="48.16341" lon="6.41468">
        <ele>369.76</ele>
        <time>2012-04-15T06:44:09Z</time>
      </trkpt>
      <trkpt lat="48.16302" lon="6.41485">
        <ele>370.73</ele>
        <time>2012-04-15T06:44:17Z</time>
      </trkpt>
      <trkpt lat="48.1629" lon="6.4149">
        <ele>370.73</ele>
        <time>2012-04-15T06:44:19Z</time>
      </trkpt>
      <trkpt lat="48.16279" lon="6.41496">
        <ele>370.73</ele>
        <time>2012-04-15T06:44:21Z</time>
      </trkpt>
      <trkpt lat="48.16274" lon="6.415">
        <ele>370.73</ele>
        <time>2012-04-15T06:44:22Z</time>
      </trkpt>
      <trkpt lat="48.1621" lon="6.41549">
        <ele>372.65</ele>
        <time>2012-04-15T06:44:36Z</time>
      </trkpt>
      <trkpt lat="48.16188" lon="6.41574">
        <ele>373.13</ele>
        <time>2012-04-15T06:44:47Z</time>
      </trkpt>
      <trkpt lat="48.16187" lon="6.41566">
        <ele>373.13</ele>
        <time>2012-04-15T06:44:49Z</time>
      </trkpt>
      <trkpt lat="48.16188" lon="6.41561">
        <ele>373.13</ele>
        <time>2012-04-15T06:44:50Z</time>
      </trkpt>
      <trkpt lat="48.16188" lon="6.41556">
        <ele>373.13</ele>
        <time>2012-04-15T06:44:51Z</time>
      </trkpt>
      <trkpt lat="48.16189" lon="6.41552">
        <ele>373.61</ele>
        <time>2012-04-15T06:44:52Z</time>
      </trkpt>
      <trkpt lat="48.1619" lon="6.41548">
        <ele>373.61</ele>
        <time>2012-04-15T06:44:53Z</time>
      </trkpt>
      <trkpt lat="48.1619" lon="6.41544">
        <ele>373.61</ele>
        <time>2012-04-15T06:44:54Z</time>
      </trkpt>
      <trkpt lat="48.16191" lon="6.4154">
        <ele>373.61</ele>
        <time>2012-04-15T06:44:55Z</time>
      </trkpt>
      <trkpt lat="48.16204" lon="6.41519">
        <ele>374.09</ele>
        <time>2012-04-15T06:45:01Z</time>
      </trkpt>
      <trkpt lat="48.16217" lon="6.41502">
        <ele>374.57</ele>
        <time>2012-04-15T06:45:05Z</time>
      </trkpt>
      <trkpt lat="48.16223" lon="6.41491">
        <ele>374.57</ele>
        <time>2012-04-15T06:45:07Z</time>
      </trkpt>
      <trkpt lat="48.16225" lon="6.41486">
        <ele>374.57</ele>
        <time>2012-04-15T06:45:08Z</time>
      </trkpt>
      <trkpt lat="48.16246" lon="6.41438">
        <ele>375.53</ele>
        <time>2012-04-15T06:45:18Z</time>
      </trkpt>
      <trkpt lat="48.16249" lon="6.41433">
        <ele>375.53</ele>
        <time>2012-04-15T06:45:19Z</time>
      </trkpt>
      <trkpt lat="48.16251" lon="6.41428">
        <ele>375.53</ele>
        <time>2012-04-15T06:45:20Z</time>
      </trkpt>
      <trkpt lat="48.16254" lon="6.41424">
        <ele>375.53</ele>
        <time>2012-04-15T06:45:21Z</time>
      </trkpt>
      <trkpt lat="48.16257" lon="6.4142">
        <ele>375.53</ele>
        <time>2012-04-15T06:45:22Z</time>
      </trkpt>
      <trkpt lat="48.1626" lon="6.41416">
        <ele>375.53</ele>
        <time>2012-04-15T06:45:23Z</time>
      </trkpt>
      <trkpt lat="48.16307" lon="6.41372">
        <ele>377.45</ele>
        <time>2012-04-15T06:45:37Z</time>
      </trkpt>
      <trkpt lat="48.16316" lon="6.41368">
        <ele>376.97</ele>
        <time>2012-04-15T06:45:39Z</time>
      </trkpt>
      <trkpt lat="48.16336" lon="6.41364">
        <ele>375.05</ele>
        <time>2012-04-15T06:45:43Z</time>
      </trkpt>
      <trkpt lat="48.16364" lon="6.41325">
        <ele>376.01</ele>
        <time>2012-04-15T06:45:53Z</time>
      </trkpt>
      <trkpt lat="48.16364" lon="6.4132">
        <ele>376.01</ele>
        <time>2012-04-15T06:45:54Z</time>
      </trkpt>
      <trkpt lat="48.16364" lon="6.41315">
        <ele>376.01</ele>
        <time>2012-04-15T06:45:55Z</time>
      </trkpt>
      <trkpt lat="48.16363" lon="6.41311">
        <ele>376.01</ele>
        <time>2012-04-15T06:45:56Z</time>
      </trkpt>
      <trkpt lat="48.16362" lon="6.41305">
        <ele>376.01</ele>
        <time>2012-04-15T06:45:57Z</time>
      </trkpt>
      <trkpt lat="48.1636" lon="6.41299">
        <ele>376.01</ele>
        <time>2012-04-15T06:45:58Z</time>
      </trkpt>
      <trkpt lat="48.16358" lon="6.41293">
        <ele>376.01</ele>
        <time>2012-04-15T06:45:59Z</time>
      </trkpt>
      <trkpt lat="48.16319" lon="6.41222">
        <ele>373.13</ele>
        <time>2012-04-15T06:46:10Z</time>
      </trkpt>
      <trkpt lat="48.16316" lon="6.41217">
        <ele>372.65</ele>
        <time>2012-04-15T06:46:11Z</time>
      </trkpt>
      <trkpt lat="48.16312" lon="6.41213">
        <ele>372.17</ele>
        <time>2012-04-15T06:46:12Z</time>
      </trkpt>
      <trkpt lat="48.16308" lon="6.4121">
        <ele>371.69</ele>
        <time>2012-04-15T06:46:13Z</time>
      </trkpt>
      <trkpt lat="48.16303" lon="6.41206">
        <ele>371.69</ele>
        <time>2012-04-15T06:46:14Z</time>
      </trkpt>
      <trkpt lat="48.16299" lon="6.41201">
        <ele>371.21</ele>
        <time>2012-04-15T06:46:15Z</time>
      </trkpt>
      <trkpt lat="48.16274" lon="6.41179">
        <ele>368.8</ele>
        <time>2012-04-15T06:46:21Z</time>
      </trkpt>
      <trkpt lat="48.1627" lon="6.41175">
        <ele>368.32</ele>
        <time>2012-04-15T06:46:22Z</time>
      </trkpt>
      <trkpt lat="48.16266" lon="6.41173">
        <ele>367.84</ele>
        <time>2012-04-15T06:46:23Z</time>
      </trkpt>
      <trkpt lat="48.16262" lon="6.41171">
        <ele>367.36</ele>
        <time>2012-04-15T06:46:24Z</time>
      </trkpt>
      <trkpt lat="48.16257" lon="6.41171">
        <ele>366.88</ele>
        <time>2012-04-15T06:46:25Z</time>
      </trkpt>
      <trkpt lat="48.16253" lon="6.41171">
        <ele>366.88</ele>
        <time>2012-04-15T06:46:26Z</time>
      </trkpt>
      <trkpt lat="48.16244" lon="6.41172">
        <ele>366.4</ele>
        <time>2012-04-15T06:46:28Z</time>
      </trkpt>
      <trkpt lat="48.16239" lon="6.41173">
        <ele>365.92</ele>
        <time>2012-04-15T06:46:29Z</time>
      </trkpt>
      <trkpt lat="48.16219" lon="6.41174">
        <ele>364.48</ele>
        <time>2012-04-15T06:46:33Z</time>
      </trkpt>
      <trkpt lat="48.16214" lon="6.41173">
        <ele>364</ele>
        <time>2012-04-15T06:46:34Z</time>
      </trkpt>
      <trkpt lat="48.16209" lon="6.41172">
        <ele>363.52</ele>
        <time>2012-04-15T06:46:35Z</time>
      </trkpt>
      <trkpt lat="48.16204" lon="6.41172">
        <ele>363.04</ele>
        <time>2012-04-15T06:46:36Z</time>
      </trkpt>
      <trkpt lat="48.16198" lon="6.4117">
        <ele>362.55</ele>
        <time>2012-04-15T06:46:37Z</time>
      </trkpt>
      <trkpt lat="48.16195" lon="6.41166">
        <ele>362.07</ele>
        <time>2012-04-15T06:46:38Z</time>
      </trkpt>
      <trkpt lat="48.16193" lon="6.4116">
        <ele>361.59</ele>
        <time>2012-04-15T06:46:39Z</time>
      </trkpt>
      <trkpt lat="48.16193" lon="6.41152">
        <ele>361.59</ele>
        <time>2012-04-15T06:46:40Z</time>
      </trkpt>
      <trkpt lat="48.16194" lon="6.41146">
        <ele>361.59</ele>
        <time>2012-04-15T06:46:41Z</time>
      </trkpt>
      <trkpt lat="48.16196" lon="6.4114">
        <ele>361.59</ele>
        <time>2012-04-15T06:46:42Z</time>
      </trkpt>
      <trkpt lat="48.16198" lon="6.41135">
        <ele>362.07</ele>
        <time>2012-04-15T06:46:43Z</time>
      </trkpt>
      <trkpt lat="48.16203" lon="6.41123">
        <ele>363.04</ele>
        <time>2012-04-15T06:46:45Z</time>
      </trkpt>
      <trkpt lat="48.16204" lon="6.41117">
        <ele>363.52</ele>
        <time>2012-04-15T06:46:46Z</time>
      </trkpt>
      <trkpt lat="48.16206" lon="6.4111">
        <ele>363.52</ele>
        <time>2012-04-15T06:46:47Z</time>
      </trkpt>
      <trkpt lat="48.16206" lon="6.41104">
        <ele>364</ele>
        <time>2012-04-15T06:46:48Z</time>
      </trkpt>
      <trkpt lat="48.16207" lon="6.41097">
        <ele>364</ele>
        <time>2012-04-15T06:46:49Z</time>
      </trkpt>
      <trkpt lat="48.16208" lon="6.41074">
        <ele>364</ele>
        <time>2012-04-15T06:46:52Z</time>
      </trkpt>
      <trkpt lat="48.16208" lon="6.41067">
        <ele>364</ele>
        <time>2012-04-15T06:46:53Z</time>
      </trkpt>
      <trkpt lat="48.16207" lon="6.41059">
        <ele>364</ele>
        <time>2012-04-15T06:46:54Z</time>
      </trkpt>
      <trkpt lat="48.16204" lon="6.41052">
        <ele>364</ele>
        <time>2012-04-15T06:46:55Z</time>
      </trkpt>
      <trkpt lat="48.16202" lon="6.41044">
        <ele>364.48</ele>
        <time>2012-04-15T06:46:56Z</time>
      </trkpt>
      <trkpt lat="48.16178" lon="6.40984">
        <ele>367.84</ele>
        <time>2012-04-15T06:47:04Z</time>
      </trkpt>
      <trkpt lat="48.16148" lon="6.40904">
        <ele>370.24</ele>
        <time>2012-04-15T06:47:15Z</time>
      </trkpt>
      <trkpt lat="48.16124" lon="6.40844">
        <ele>373.61</ele>
        <time>2012-04-15T06:47:24Z</time>
      </trkpt>
      <trkpt lat="48.1612" lon="6.40831">
        <ele>374.09</ele>
        <time>2012-04-15T06:47:26Z</time>
      </trkpt>
      <trkpt lat="48.16104" lon="6.40763">
        <ele>375.53</ele>
        <time>2012-04-15T06:47:37Z</time>
      </trkpt>
      <trkpt lat="48.16103" lon="6.40755">
        <ele>375.53</ele>
        <time>2012-04-15T06:47:38Z</time>
      </trkpt>
      <trkpt lat="48.16103" lon="6.40746">
        <ele>375.53</ele>
        <time>2012-04-15T06:47:39Z</time>
      </trkpt>
      <trkpt lat="48.161" lon="6.40661">
        <ele>377.45</ele>
        <time>2012-04-15T06:47:49Z</time>
      </trkpt>
      <trkpt lat="48.16099" lon="6.40653">
        <ele>377.45</ele>
        <time>2012-04-15T06:47:50Z</time>
      </trkpt>
      <trkpt lat="48.16098" lon="6.40646">
        <ele>377.45</ele>
        <time>2012-04-15T06:47:51Z</time>
      </trkpt>
      <trkpt lat="48.16093" lon="6.40601">
        <ele>378.42</ele>
        <time>2012-04-15T06:48:01Z</time>
      </trkpt>
      <trkpt lat="48.16092" lon="6.40596">
        <ele>378.42</ele>
        <time>2012-04-15T06:48:03Z</time>
      </trkpt>
      <trkpt lat="48.16091" lon="6.40594">
        <ele>378.42</ele>
        <time>2012-04-15T06:48:04Z</time>
      </trkpt>
      <trkpt lat="48.1609" lon="6.40591">
        <ele>378.42</ele>
        <time>2012-04-15T06:48:05Z</time>
      </trkpt>
      <trkpt lat="48.16088" lon="6.40586">
        <ele>380.82</ele>
        <time>2012-04-15T06:48:16Z</time>
      </trkpt>
      <trkpt lat="48.16083" lon="6.40571">
        <ele>384.18</ele>
        <time>2012-04-15T06:48:27Z</time>
      </trkpt>
      <trkpt lat="48.16074" lon="6.40545">
        <ele>387.07</ele>
        <time>2012-04-15T06:48:36Z</time>
      </trkpt>
      <trkpt lat="48.16065" lon="6.40521">
        <ele>387.07</ele>
        <time>2012-04-15T06:48:45Z</time>
      </trkpt>
      <trkpt lat="48.16062" lon="6.40521">
        <ele>387.07</ele>
        <time>2012-04-15T06:48:46Z</time>
      </trkpt>
      <trkpt lat="48.16057" lon="6.40525">
        <ele>387.55</ele>
        <time>2012-04-15T06:48:49Z</time>
      </trkpt>
      <trkpt lat="48.16057" lon="6.40528">
        <ele>387.55</ele>
        <time>2012-04-15T06:48:50Z</time>
      </trkpt>
      <trkpt lat="48.16057" lon="6.40531">
        <ele>387.55</ele>
        <time>2012-04-15T06:48:51Z</time>
      </trkpt>
      <trkpt lat="48.16057" lon="6.40535">
        <ele>387.55</ele>
        <time>2012-04-15T06:48:52Z</time>
      </trkpt>
      <trkpt lat="48.16057" lon="6.40538">
        <ele>388.03</ele>
        <time>2012-04-15T06:48:53Z</time>
      </trkpt>
      <trkpt lat="48.16056" lon="6.40541">
        <ele>388.03</ele>
        <time>2012-04-15T06:48:54Z</time>
      </trkpt>
      <trkpt lat="48.16052" lon="6.40593">
        <ele>389.47</ele>
        <time>2012-04-15T06:49:06Z</time>
      </trkpt>
      <trkpt lat="48.16051" lon="6.40595">
        <ele>389.47</ele>
        <time>2012-04-15T06:49:07Z</time>
      </trkpt>
      <trkpt lat="48.16048" lon="6.40597">
        <ele>389.47</ele>
        <time>2012-04-15T06:49:08Z</time>
      </trkpt>
      <trkpt lat="48.16043" lon="6.40605">
        <ele>390.43</ele>
        <time>2012-04-15T06:49:12Z</time>
      </trkpt>
      <trkpt lat="48.16042" lon="6.40607">
        <ele>390.43</ele>
        <time>2012-04-15T06:49:13Z</time>
      </trkpt>
      <trkpt lat="48.16041" lon="6.4061">
        <ele>390.91</ele>
        <time>2012-04-15T06:49:15Z</time>
      </trkpt>
      <trkpt lat="48.16039" lon="6.40614">
        <ele>391.87</ele>
        <time>2012-04-15T06:49:18Z</time>
      </trkpt>
      <trkpt lat="48.16038" lon="6.40616">
        <ele>392.36</ele>
        <time>2012-04-15T06:49:19Z</time>
      </trkpt>
      <trkpt lat="48.16038" lon="6.40623">
        <ele>393.8</ele>
        <time>2012-04-15T06:49:22Z</time>
      </trkpt>
      <trkpt lat="48.16037" lon="6.40627">
        <ele>395.24</ele>
        <time>2012-04-15T06:49:25Z</time>
      </trkpt>
      <trkpt lat="48.16035" lon="6.40628">
        <ele>395.24</ele>
        <time>2012-04-15T06:49:26Z</time>
      </trkpt>
      <trkpt lat="48.16034" lon="6.40631">
        <ele>395.72</ele>
        <time>2012-04-15T06:49:27Z</time>
      </trkpt>
      <trkpt lat="48.16033" lon="6.40633">
        <ele>396.2</ele>
        <time>2012-04-15T06:49:28Z</time>
      </trkpt>
      <trkpt lat="48.16032" lon="6.40636">
        <ele>396.68</ele>
        <time>2012-04-15T06:49:29Z</time>
      </trkpt>
      <trkpt lat="48.16032" lon="6.4064">
        <ele>397.16</ele>
        <time>2012-04-15T06:49:30Z</time>
      </trkpt>
      <trkpt lat="48.16033" lon="6.40644">
        <ele>397.64</ele>
        <time>2012-04-15T06:49:31Z</time>
      </trkpt>
      <trkpt lat="48.16034" lon="6.40648">
        <ele>398.12</ele>
        <time>2012-04-15T06:49:32Z</time>
      </trkpt>
      <trkpt lat="48.16043" lon="6.40695">
        <ele>403.41</ele>
        <time>2012-04-15T06:49:44Z</time>
      </trkpt>
      <trkpt lat="48.16051" lon="6.40753">
        <ele>412.54</ele>
        <time>2012-04-15T06:49:57Z</time>
      </trkpt>
      <trkpt lat="48.16052" lon="6.40803">
        <ele>415.43</ele>
        <time>2012-04-15T06:50:08Z</time>
      </trkpt>
      <trkpt lat="48.16045" lon="6.40848">
        <ele>416.39</ele>
        <time>2012-04-15T06:50:18Z</time>
      </trkpt>
      <trkpt lat="48.16045" lon="6.40895">
        <ele>417.83</ele>
        <time>2012-04-15T06:50:29Z</time>
      </trkpt>
      <trkpt lat="48.16027" lon="6.40932">
        <ele>417.35</ele>
        <time>2012-04-15T06:50:39Z</time>
      </trkpt>
      <trkpt lat="48.15998" lon="6.40963">
        <ele>416.39</ele>
        <time>2012-04-15T06:50:50Z</time>
      </trkpt>
      <trkpt lat="48.15969" lon="6.40985">
        <ele>415.91</ele>
        <time>2012-04-15T06:51:02Z</time>
      </trkpt>
      <trkpt lat="48.15944" lon="6.41004">
        <ele>414.95</ele>
        <time>2012-04-15T06:51:11Z</time>
      </trkpt>
      <trkpt lat="48.15911" lon="6.41023">
        <ele>415.43</ele>
        <time>2012-04-15T06:51:22Z</time>
      </trkpt>
      <trkpt lat="48.15879" lon="6.41039">
        <ele>415.43</ele>
        <time>2012-04-15T06:51:35Z</time>
      </trkpt>
      <trkpt lat="48.15835" lon="6.41058">
        <ele>414.95</ele>
        <time>2012-04-15T06:51:47Z</time>
      </trkpt>
      <trkpt lat="48.15796" lon="6.41058">
        <ele>416.39</ele>
        <time>2012-04-15T06:52:00Z</time>
      </trkpt>
      <trkpt lat="48.1576" lon="6.41066">
        <ele>416.87</ele>
        <time>2012-04-15T06:52:11Z</time>
      </trkpt>
      <trkpt lat="48.15715" lon="6.41082">
        <ele>417.83</ele>
        <time>2012-04-15T06:52:22Z</time>
      </trkpt>
      <trkpt lat="48.15675" lon="6.41098">
        <ele>420.23</ele>
        <time>2012-04-15T06:52:33Z</time>
      </trkpt>
      <trkpt lat="48.15637" lon="6.41116">
        <ele>421.19</ele>
        <time>2012-04-15T06:52:44Z</time>
      </trkpt>
      <trkpt lat="48.15597" lon="6.41131">
        <ele>422.64</ele>
        <time>2012-04-15T06:52:55Z</time>
      </trkpt>
      <trkpt lat="48.15564" lon="6.41145">
        <ele>424.08</ele>
        <time>2012-04-15T06:53:05Z</time>
      </trkpt>
      <trkpt lat="48.15549" lon="6.41164">
        <ele>425.04</ele>
        <time>2012-04-15T06:53:11Z</time>
      </trkpt>
      <trkpt lat="48.1555" lon="6.4117">
        <ele>425.52</ele>
        <time>2012-04-15T06:53:12Z</time>
      </trkpt>
      <trkpt lat="48.15552" lon="6.41176">
        <ele>425.52</ele>
        <time>2012-04-15T06:53:13Z</time>
      </trkpt>
      <trkpt lat="48.15554" lon="6.41182">
        <ele>425.52</ele>
        <time>2012-04-15T06:53:14Z</time>
      </trkpt>
      <trkpt lat="48.15558" lon="6.41186">
        <ele>426</ele>
        <time>2012-04-15T06:53:15Z</time>
      </trkpt>
      <trkpt lat="48.15561" lon="6.41189">
        <ele>426</ele>
        <time>2012-04-15T06:53:16Z</time>
      </trkpt>
      <trkpt lat="48.15606" lon="6.41213">
        <ele>426.96</ele>
        <time>2012-04-15T06:53:29Z</time>
      </trkpt>
      <trkpt lat="48.15655" lon="6.41232">
        <ele>428.4</ele>
        <time>2012-04-15T06:53:44Z</time>
      </trkpt>
      <trkpt lat="48.15697" lon="6.41243">
        <ele>433.21</ele>
        <time>2012-04-15T06:53:56Z</time>
      </trkpt>
      <trkpt lat="48.15739" lon="6.41255">
        <ele>438.5</ele>
        <time>2012-04-15T06:54:08Z</time>
      </trkpt>
      <trkpt lat="48.15789" lon="6.41271">
        <ele>440.9</ele>
        <time>2012-04-15T06:54:22Z</time>
      </trkpt>
      <trkpt lat="48.1581" lon="6.41314">
        <ele>446.19</ele>
        <time>2012-04-15T06:54:34Z</time>
      </trkpt>
      <trkpt lat="48.15785" lon="6.41347">
        <ele>451.96</ele>
        <time>2012-04-15T06:54:45Z</time>
      </trkpt>
      <trkpt lat="48.15748" lon="6.41374">
        <ele>459.17</ele>
        <time>2012-04-15T06:54:57Z</time>
      </trkpt>
      <trkpt lat="48.15705" lon="6.41391">
        <ele>460.61</ele>
        <time>2012-04-15T06:55:10Z</time>
      </trkpt>
      <trkpt lat="48.15667" lon="6.41401">
        <ele>462.53</ele>
        <time>2012-04-15T06:55:21Z</time>
      </trkpt>
      <trkpt lat="48.15627" lon="6.41406">
        <ele>463.01</ele>
        <time>2012-04-15T06:55:33Z</time>
      </trkpt>
      <trkpt lat="48.1559" lon="6.41399">
        <ele>463.49</ele>
        <time>2012-04-15T06:55:44Z</time>
      </trkpt>
      <trkpt lat="48.15564" lon="6.41381">
        <ele>464.93</ele>
        <time>2012-04-15T06:55:55Z</time>
      </trkpt>
      <trkpt lat="48.15548" lon="6.41374">
        <ele>465.9</ele>
        <time>2012-04-15T06:56:01Z</time>
      </trkpt>
      <trkpt lat="48.15545" lon="6.41374">
        <ele>465.9</ele>
        <time>2012-04-15T06:56:02Z</time>
      </trkpt>
      <trkpt lat="48.15541" lon="6.41374">
        <ele>465.9</ele>
        <time>2012-04-15T06:56:03Z</time>
      </trkpt>
      <trkpt lat="48.15536" lon="6.41376">
        <ele>466.38</ele>
        <time>2012-04-15T06:56:04Z</time>
      </trkpt>
      <trkpt lat="48.1553" lon="6.41377">
        <ele>466.86</ele>
        <time>2012-04-15T06:56:05Z</time>
      </trkpt>
      <trkpt lat="48.15482" lon="6.41406">
        <ele>468.78</ele>
        <time>2012-04-15T06:56:16Z</time>
      </trkpt>
      <trkpt lat="48.15476" lon="6.41408">
        <ele>468.78</ele>
        <time>2012-04-15T06:56:18Z</time>
      </trkpt>
      <trkpt lat="48.15473" lon="6.41407">
        <ele>468.78</ele>
        <time>2012-04-15T06:56:19Z</time>
      </trkpt>
      <trkpt lat="48.15471" lon="6.41405">
        <ele>468.78</ele>
        <time>2012-04-15T06:56:20Z</time>
      </trkpt>
      <trkpt lat="48.15458" lon="6.41363">
        <ele>469.26</ele>
        <time>2012-04-15T06:56:28Z</time>
      </trkpt>
      <trkpt lat="48.15443" lon="6.41322">
        <ele>469.26</ele>
        <time>2012-04-15T06:56:35Z</time>
      </trkpt>
      <trkpt lat="48.15441" lon="6.41317">
        <ele>469.26</ele>
        <time>2012-04-15T06:56:36Z</time>
      </trkpt>
      <trkpt lat="48.15435" lon="6.41306">
        <ele>468.78</ele>
        <time>2012-04-15T06:56:38Z</time>
      </trkpt>
      <trkpt lat="48.15433" lon="6.413">
        <ele>468.78</ele>
        <time>2012-04-15T06:56:39Z</time>
      </trkpt>
      <trkpt lat="48.15431" lon="6.41294">
        <ele>468.3</ele>
        <time>2012-04-15T06:56:40Z</time>
      </trkpt>
      <trkpt lat="48.15426" lon="6.41277">
        <ele>468.3</ele>
        <time>2012-04-15T06:56:43Z</time>
      </trkpt>
      <trkpt lat="48.15423" lon="6.41272">
        <ele>468.3</ele>
        <time>2012-04-15T06:56:44Z</time>
      </trkpt>
      <trkpt lat="48.15404" lon="6.41219">
        <ele>467.34</ele>
        <time>2012-04-15T06:56:53Z</time>
      </trkpt>
      <trkpt lat="48.15401" lon="6.41214">
        <ele>467.34</ele>
        <time>2012-04-15T06:56:54Z</time>
      </trkpt>
      <trkpt lat="48.15398" lon="6.41209">
        <ele>467.34</ele>
        <time>2012-04-15T06:56:55Z</time>
      </trkpt>
      <trkpt lat="48.15395" lon="6.41203">
        <ele>467.34</ele>
        <time>2012-04-15T06:56:56Z</time>
      </trkpt>
      <trkpt lat="48.15392" lon="6.41197">
        <ele>467.34</ele>
        <time>2012-04-15T06:56:57Z</time>
      </trkpt>
      <trkpt lat="48.15388" lon="6.41191">
        <ele>467.34</ele>
        <time>2012-04-15T06:56:58Z</time>
      </trkpt>
      <trkpt lat="48.1537" lon="6.41156">
        <ele>466.86</ele>
        <time>2012-04-15T06:57:04Z</time>
      </trkpt>
      <trkpt lat="48.15366" lon="6.41142">
        <ele>467.34</ele>
        <time>2012-04-15T06:57:06Z</time>
      </trkpt>
      <trkpt lat="48.15364" lon="6.41135">
        <ele>467.34</ele>
        <time>2012-04-15T06:57:07Z</time>
      </trkpt>
      <trkpt lat="48.15359" lon="6.41114">
        <ele>467.34</ele>
        <time>2012-04-15T06:57:10Z</time>
      </trkpt>
      <trkpt lat="48.15358" lon="6.41107">
        <ele>467.34</ele>
        <time>2012-04-15T06:57:11Z</time>
      </trkpt>
      <trkpt lat="48.15352" lon="6.4101">
        <ele>466.86</ele>
        <time>2012-04-15T06:57:25Z</time>
      </trkpt>
      <trkpt lat="48.15349" lon="6.40962">
        <ele>464.93</ele>
        <time>2012-04-15T06:57:32Z</time>
      </trkpt>
      <trkpt lat="48.15345" lon="6.40927">
        <ele>463.97</ele>
        <time>2012-04-15T06:57:37Z</time>
      </trkpt>
      <trkpt lat="48.15343" lon="6.40919">
        <ele>463.49</ele>
        <time>2012-04-15T06:57:38Z</time>
      </trkpt>
      <trkpt lat="48.1534" lon="6.40902">
        <ele>463.01</ele>
        <time>2012-04-15T06:57:40Z</time>
      </trkpt>
      <trkpt lat="48.15338" lon="6.40893">
        <ele>463.01</ele>
        <time>2012-04-15T06:57:41Z</time>
      </trkpt>
      <trkpt lat="48.15336" lon="6.40883">
        <ele>462.53</ele>
        <time>2012-04-15T06:57:42Z</time>
      </trkpt>
      <trkpt lat="48.15333" lon="6.40874">
        <ele>462.05</ele>
        <time>2012-04-15T06:57:43Z</time>
      </trkpt>
      <trkpt lat="48.15329" lon="6.40865">
        <ele>462.05</ele>
        <time>2012-04-15T06:57:44Z</time>
      </trkpt>
      <trkpt lat="48.15325" lon="6.40856">
        <ele>461.57</ele>
        <time>2012-04-15T06:57:45Z</time>
      </trkpt>
      <trkpt lat="48.15266" lon="6.40757">
        <ele>458.21</ele>
        <time>2012-04-15T06:57:57Z</time>
      </trkpt>
      <trkpt lat="48.15262" lon="6.40749">
        <ele>458.21</ele>
        <time>2012-04-15T06:57:58Z</time>
      </trkpt>
      <trkpt lat="48.1526" lon="6.4074">
        <ele>457.72</ele>
        <time>2012-04-15T06:57:59Z</time>
      </trkpt>
      <trkpt lat="48.15258" lon="6.40731">
        <ele>457.72</ele>
        <time>2012-04-15T06:58:00Z</time>
      </trkpt>
      <trkpt lat="48.15257" lon="6.40722">
        <ele>457.72</ele>
        <time>2012-04-15T06:58:01Z</time>
      </trkpt>
      <trkpt lat="48.15256" lon="6.40713">
        <ele>457.72</ele>
        <time>2012-04-15T06:58:02Z</time>
      </trkpt>
      <trkpt lat="48.15254" lon="6.4067">
        <ele>458.69</ele>
        <time>2012-04-15T06:58:08Z</time>
      </trkpt>
      <trkpt lat="48.15253" lon="6.40663">
        <ele>459.17</ele>
        <time>2012-04-15T06:58:09Z</time>
      </trkpt>
      <trkpt lat="48.15253" lon="6.40656">
        <ele>459.65</ele>
        <time>2012-04-15T06:58:10Z</time>
      </trkpt>
      <trkpt lat="48.15252" lon="6.40651">
        <ele>460.13</ele>
        <time>2012-04-15T06:58:11Z</time>
      </trkpt>
      <trkpt lat="48.15251" lon="6.40646">
        <ele>460.13</ele>
        <time>2012-04-15T06:58:12Z</time>
      </trkpt>
      <trkpt lat="48.1525" lon="6.40642">
        <ele>460.61</ele>
        <time>2012-04-15T06:58:13Z</time>
      </trkpt>
      <trkpt lat="48.15249" lon="6.40639">
        <ele>460.61</ele>
        <time>2012-04-15T06:58:14Z</time>
      </trkpt>
      <trkpt lat="48.15248" lon="6.40637">
        <ele>460.61</ele>
        <time>2012-04-15T06:58:15Z</time>
      </trkpt>
      <trkpt lat="48.15242" lon="6.40654">
        <ele>461.57</ele>
        <time>2012-04-15T06:58:21Z</time>
      </trkpt>
      <trkpt lat="48.15239" lon="6.40655">
        <ele>462.05</ele>
        <time>2012-04-15T06:58:22Z</time>
      </trkpt>
      <trkpt lat="48.15226" lon="6.4067">
        <ele>463.97</ele>
        <time>2012-04-15T06:58:31Z</time>
      </trkpt>
      <trkpt lat="48.15203" lon="6.40704">
        <ele>471.66</ele>
        <time>2012-04-15T06:58:44Z</time>
      </trkpt>
      <trkpt lat="48.15186" lon="6.40731">
        <ele>479.35</ele>
        <time>2012-04-15T06:58:53Z</time>
      </trkpt>
      <trkpt lat="48.15175" lon="6.40777">
        <ele>489.45</ele>
        <time>2012-04-15T06:59:04Z</time>
      </trkpt>
      <trkpt lat="48.15175" lon="6.4078">
        <ele>489.93</ele>
        <time>2012-04-15T06:59:05Z</time>
      </trkpt>
      <trkpt lat="48.1516" lon="6.40818">
        <ele>501.46</ele>
        <time>2012-04-15T06:59:18Z</time>
      </trkpt>
      <trkpt lat="48.15155" lon="6.40844">
        <ele>506.27</ele>
        <time>2012-04-15T06:59:26Z</time>
      </trkpt>
      <trkpt lat="48.15155" lon="6.40863">
        <ele>509.16</ele>
        <time>2012-04-15T06:59:31Z</time>
      </trkpt>
      <trkpt lat="48.15154" lon="6.40868">
        <ele>510.12</ele>
        <time>2012-04-15T06:59:33Z</time>
      </trkpt>
      <trkpt lat="48.15142" lon="6.40853">
        <ele>512.52</ele>
        <time>2012-04-15T06:59:40Z</time>
      </trkpt>
      <trkpt lat="48.1514" lon="6.40849">
        <ele>513</ele>
        <time>2012-04-15T06:59:41Z</time>
      </trkpt>
      <trkpt lat="48.1513" lon="6.4084">
        <ele>513.48</ele>
        <time>2012-04-15T06:59:44Z</time>
      </trkpt>
      <trkpt lat="48.15126" lon="6.40837">
        <ele>513.96</ele>
        <time>2012-04-15T06:59:45Z</time>
      </trkpt>
      <trkpt lat="48.15104" lon="6.4083">
        <ele>515.88</ele>
        <time>2012-04-15T06:59:50Z</time>
      </trkpt>
      <trkpt lat="48.15096" lon="6.40826">
        <ele>515.88</ele>
        <time>2012-04-15T06:59:52Z</time>
      </trkpt>
      <trkpt lat="48.15083" lon="6.40813">
        <ele>513.96</ele>
        <time>2012-04-15T06:59:58Z</time>
      </trkpt>
      <trkpt lat="48.15071" lon="6.40792">
        <ele>509.16</ele>
        <time>2012-04-15T07:00:05Z</time>
      </trkpt>
      <trkpt lat="48.1505" lon="6.40739">
        <ele>503.87</ele>
        <time>2012-04-15T07:00:18Z</time>
      </trkpt>
      <trkpt lat="48.15036" lon="6.4072">
        <ele>500.98</ele>
        <time>2012-04-15T07:00:26Z</time>
      </trkpt>
      <trkpt lat="48.15016" lon="6.40683">
        <ele>500.02</ele>
        <time>2012-04-15T07:00:33Z</time>
      </trkpt>
      <trkpt lat="48.14996" lon="6.40646">
        <ele>500.02</ele>
        <time>2012-04-15T07:00:38Z</time>
      </trkpt>
      <trkpt lat="48.14963" lon="6.40553">
        <ele>495.7</ele>
        <time>2012-04-15T07:00:49Z</time>
      </trkpt>
      <trkpt lat="48.14948" lon="6.4052">
        <ele>490.41</ele>
        <time>2012-04-15T07:00:55Z</time>
      </trkpt>
      <trkpt lat="48.14945" lon="6.40515">
        <ele>489.45</ele>
        <time>2012-04-15T07:00:56Z</time>
      </trkpt>
      <trkpt lat="48.14942" lon="6.40508">
        <ele>488.97</ele>
        <time>2012-04-15T07:00:57Z</time>
      </trkpt>
      <trkpt lat="48.14939" lon="6.40504">
        <ele>488.49</ele>
        <time>2012-04-15T07:00:58Z</time>
      </trkpt>
      <trkpt lat="48.14935" lon="6.40501">
        <ele>487.53</ele>
        <time>2012-04-15T07:00:59Z</time>
      </trkpt>
      <trkpt lat="48.14931" lon="6.40498">
        <ele>487.05</ele>
        <time>2012-04-15T07:01:00Z</time>
      </trkpt>
      <trkpt lat="48.14926" lon="6.40496">
        <ele>486.56</ele>
        <time>2012-04-15T07:01:01Z</time>
      </trkpt>
      <trkpt lat="48.14921" lon="6.40494">
        <ele>486.08</ele>
        <time>2012-04-15T07:01:02Z</time>
      </trkpt>
      <trkpt lat="48.14917" lon="6.4049">
        <ele>485.6</ele>
        <time>2012-04-15T07:01:03Z</time>
      </trkpt>
      <trkpt lat="48.14913" lon="6.40486">
        <ele>485.12</ele>
        <time>2012-04-15T07:01:04Z</time>
      </trkpt>
      <trkpt lat="48.1491" lon="6.40481">
        <ele>484.64</ele>
        <time>2012-04-15T07:01:05Z</time>
      </trkpt>
      <trkpt lat="48.14907" lon="6.40476">
        <ele>484.16</ele>
        <time>2012-04-15T07:01:06Z</time>
      </trkpt>
      <trkpt lat="48.14905" lon="6.4047">
        <ele>483.68</ele>
        <time>2012-04-15T07:01:07Z</time>
      </trkpt>
      <trkpt lat="48.14894" lon="6.40441">
        <ele>481.76</ele>
        <time>2012-04-15T07:01:11Z</time>
      </trkpt>
      <trkpt lat="48.1489" lon="6.40434">
        <ele>481.76</ele>
        <time>2012-04-15T07:01:12Z</time>
      </trkpt>
      <trkpt lat="48.1488" lon="6.40421">
        <ele>480.32</ele>
        <time>2012-04-15T07:01:14Z</time>
      </trkpt>
      <trkpt lat="48.14861" lon="6.40401">
        <ele>479.35</ele>
        <time>2012-04-15T07:01:18Z</time>
      </trkpt>
      <trkpt lat="48.14843" lon="6.40369">
        <ele>476.95</ele>
        <time>2012-04-15T07:01:22Z</time>
      </trkpt>
      <trkpt lat="48.14833" lon="6.40345">
        <ele>473.59</ele>
        <time>2012-04-15T07:01:26Z</time>
      </trkpt>
      <trkpt lat="48.14828" lon="6.40345">
        <ele>473.11</ele>
        <time>2012-04-15T07:01:27Z</time>
      </trkpt>
      <trkpt lat="48.14823" lon="6.40345">
        <ele>472.63</ele>
        <time>2012-04-15T07:01:28Z</time>
      </trkpt>
      <trkpt lat="48.14806" lon="6.4035">
        <ele>471.66</ele>
        <time>2012-04-15T07:01:32Z</time>
      </trkpt>
      <trkpt lat="48.14756" lon="6.40372">
        <ele>472.63</ele>
        <time>2012-04-15T07:01:46Z</time>
      </trkpt>
      <trkpt lat="48.1471" lon="6.40399">
        <ele>473.11</ele>
        <time>2012-04-15T07:02:01Z</time>
      </trkpt>
      <trkpt lat="48.14681" lon="6.40447">
        <ele>468.78</ele>
        <time>2012-04-15T07:02:15Z</time>
      </trkpt>
      <trkpt lat="48.14679" lon="6.40453">
        <ele>468.78</ele>
        <time>2012-04-15T07:02:16Z</time>
      </trkpt>
      <trkpt lat="48.14678" lon="6.4046">
        <ele>468.78</ele>
        <time>2012-04-15T07:02:17Z</time>
      </trkpt>
      <trkpt lat="48.14673" lon="6.4048">
        <ele>469.26</ele>
        <time>2012-04-15T07:02:20Z</time>
      </trkpt>
      <trkpt lat="48.14671" lon="6.40487">
        <ele>469.26</ele>
        <time>2012-04-15T07:02:21Z</time>
      </trkpt>
      <trkpt lat="48.14666" lon="6.405">
        <ele>468.78</ele>
        <time>2012-04-15T07:02:23Z</time>
      </trkpt>
      <trkpt lat="48.1466" lon="6.40524">
        <ele>468.3</ele>
        <time>2012-04-15T07:02:27Z</time>
      </trkpt>
      <trkpt lat="48.1466" lon="6.4053">
        <ele>467.82</ele>
        <time>2012-04-15T07:02:28Z</time>
      </trkpt>
      <trkpt lat="48.14661" lon="6.40533">
        <ele>467.34</ele>
        <time>2012-04-15T07:02:29Z</time>
      </trkpt>
      <trkpt lat="48.14662" lon="6.40535">
        <ele>466.86</ele>
        <time>2012-04-15T07:02:30Z</time>
      </trkpt>
      <trkpt lat="48.14662" lon="6.40538">
        <ele>466.86</ele>
        <time>2012-04-15T07:02:31Z</time>
      </trkpt>
      <trkpt lat="48.14663" lon="6.40541">
        <ele>466.38</ele>
        <time>2012-04-15T07:02:32Z</time>
      </trkpt>
      <trkpt lat="48.14663" lon="6.40598">
        <ele>462.53</ele>
        <time>2012-04-15T07:02:44Z</time>
      </trkpt>
      <trkpt lat="48.14659" lon="6.40638">
        <ele>461.57</ele>
        <time>2012-04-15T07:02:51Z</time>
      </trkpt>
      <trkpt lat="48.14658" lon="6.40651">
        <ele>461.09</ele>
        <time>2012-04-15T07:02:53Z</time>
      </trkpt>
      <trkpt lat="48.14659" lon="6.40658">
        <ele>460.61</ele>
        <time>2012-04-15T07:02:54Z</time>
      </trkpt>
      <trkpt lat="48.14659" lon="6.40664">
        <ele>460.13</ele>
        <time>2012-04-15T07:02:55Z</time>
      </trkpt>
      <trkpt lat="48.14661" lon="6.40669">
        <ele>460.13</ele>
        <time>2012-04-15T07:02:56Z</time>
      </trkpt>
      <trkpt lat="48.14663" lon="6.40674">
        <ele>459.65</ele>
        <time>2012-04-15T07:02:57Z</time>
      </trkpt>
      <trkpt lat="48.14664" lon="6.40679">
        <ele>459.65</ele>
        <time>2012-04-15T07:02:58Z</time>
      </trkpt>
      <trkpt lat="48.14665" lon="6.40685">
        <ele>459.17</ele>
        <time>2012-04-15T07:02:59Z</time>
      </trkpt>
      <trkpt lat="48.14665" lon="6.40691">
        <ele>458.69</ele>
        <time>2012-04-15T07:03:00Z</time>
      </trkpt>
      <trkpt lat="48.14666" lon="6.40698">
        <ele>458.69</ele>
        <time>2012-04-15T07:03:01Z</time>
      </trkpt>
      <trkpt lat="48.14666" lon="6.40704">
        <ele>458.69</ele>
        <time>2012-04-15T07:03:02Z</time>
      </trkpt>
      <trkpt lat="48.14667" lon="6.40718">
        <ele>458.21</ele>
        <time>2012-04-15T07:03:04Z</time>
      </trkpt>
      <trkpt lat="48.14668" lon="6.40725">
        <ele>458.21</ele>
        <time>2012-04-15T07:03:05Z</time>
      </trkpt>
      <trkpt lat="48.14669" lon="6.4073">
        <ele>457.72</ele>
        <time>2012-04-15T07:03:06Z</time>
      </trkpt>
      <trkpt lat="48.14669" lon="6.40735">
        <ele>457.24</ele>
        <time>2012-04-15T07:03:07Z</time>
      </trkpt>
      <trkpt lat="48.14668" lon="6.4074">
        <ele>456.76</ele>
        <time>2012-04-15T07:03:08Z</time>
      </trkpt>
      <trkpt lat="48.14666" lon="6.40745">
        <ele>456.76</ele>
        <time>2012-04-15T07:03:09Z</time>
      </trkpt>
      <trkpt lat="48.14665" lon="6.40751">
        <ele>456.28</ele>
        <time>2012-04-15T07:03:10Z</time>
      </trkpt>
      <trkpt lat="48.14664" lon="6.40758">
        <ele>455.8</ele>
        <time>2012-04-15T07:03:11Z</time>
      </trkpt>
      <trkpt lat="48.14664" lon="6.40765">
        <ele>455.32</ele>
        <time>2012-04-15T07:03:12Z</time>
      </trkpt>
      <trkpt lat="48.14664" lon="6.40771">
        <ele>454.84</ele>
        <time>2012-04-15T07:03:13Z</time>
      </trkpt>
      <trkpt lat="48.14662" lon="6.40778">
        <ele>454.36</ele>
        <time>2012-04-15T07:03:14Z</time>
      </trkpt>
      <trkpt lat="48.14661" lon="6.40784">
        <ele>453.88</ele>
        <time>2012-04-15T07:03:15Z</time>
      </trkpt>
      <trkpt lat="48.14659" lon="6.4079">
        <ele>453.4</ele>
        <time>2012-04-15T07:03:16Z</time>
      </trkpt>
      <trkpt lat="48.14657" lon="6.40796">
        <ele>452.44</ele>
        <time>2012-04-15T07:03:17Z</time>
      </trkpt>
      <trkpt lat="48.14654" lon="6.40801">
        <ele>451.96</ele>
        <time>2012-04-15T07:03:18Z</time>
      </trkpt>
      <trkpt lat="48.1465" lon="6.40805">
        <ele>451</ele>
        <time>2012-04-15T07:03:19Z</time>
      </trkpt>
      <trkpt lat="48.14646" lon="6.4081">
        <ele>450.52</ele>
        <time>2012-04-15T07:03:20Z</time>
      </trkpt>
      <trkpt lat="48.14642" lon="6.40814">
        <ele>450.03</ele>
        <time>2012-04-15T07:03:21Z</time>
      </trkpt>
      <trkpt lat="48.14638" lon="6.40818">
        <ele>449.55</ele>
        <time>2012-04-15T07:03:22Z</time>
      </trkpt>
      <trkpt lat="48.14634" lon="6.40823">
        <ele>448.59</ele>
        <time>2012-04-15T07:03:23Z</time>
      </trkpt>
      <trkpt lat="48.14631" lon="6.40829">
        <ele>447.63</ele>
        <time>2012-04-15T07:03:24Z</time>
      </trkpt>
      <trkpt lat="48.14628" lon="6.40835">
        <ele>447.15</ele>
        <time>2012-04-15T07:03:25Z</time>
      </trkpt>
      <trkpt lat="48.14624" lon="6.40842">
        <ele>447.15</ele>
        <time>2012-04-15T07:03:26Z</time>
      </trkpt>
      <trkpt lat="48.14623" lon="6.40849">
        <ele>446.67</ele>
        <time>2012-04-15T07:03:27Z</time>
      </trkpt>
      <trkpt lat="48.14623" lon="6.40857">
        <ele>446.19</ele>
        <time>2012-04-15T07:03:28Z</time>
      </trkpt>
      <trkpt lat="48.14624" lon="6.40865">
        <ele>446.19</ele>
        <time>2012-04-15T07:03:29Z</time>
      </trkpt>
      <trkpt lat="48.14624" lon="6.40874">
        <ele>446.19</ele>
        <time>2012-04-15T07:03:30Z</time>
      </trkpt>
      <trkpt lat="48.14625" lon="6.40882">
        <ele>446.19</ele>
        <time>2012-04-15T07:03:31Z</time>
      </trkpt>
      <trkpt lat="48.14625" lon="6.4089">
        <ele>446.19</ele>
        <time>2012-04-15T07:03:32Z</time>
      </trkpt>
      <trkpt lat="48.14625" lon="6.40897">
        <ele>446.19</ele>
        <time>2012-04-15T07:03:33Z</time>
      </trkpt>
      <trkpt lat="48.14624" lon="6.40905">
        <ele>446.19</ele>
        <time>2012-04-15T07:03:34Z</time>
      </trkpt>
      <trkpt lat="48.14622" lon="6.40925">
        <ele>445.71</ele>
        <time>2012-04-15T07:03:37Z</time>
      </trkpt>
      <trkpt lat="48.14621" lon="6.40931">
        <ele>445.71</ele>
        <time>2012-04-15T07:03:38Z</time>
      </trkpt>
      <trkpt lat="48.1462" lon="6.40936">
        <ele>445.71</ele>
        <time>2012-04-15T07:03:39Z</time>
      </trkpt>
      <trkpt lat="48.14619" lon="6.4094">
        <ele>445.71</ele>
        <time>2012-04-15T07:03:40Z</time>
      </trkpt>
      <trkpt lat="48.14618" lon="6.40944">
        <ele>445.71</ele>
        <time>2012-04-15T07:03:41Z</time>
      </trkpt>
      <trkpt lat="48.14617" lon="6.40948">
        <ele>445.71</ele>
        <time>2012-04-15T07:03:42Z</time>
      </trkpt>
      <trkpt lat="48.14615" lon="6.40952">
        <ele>445.71</ele>
        <time>2012-04-15T07:03:43Z</time>
      </trkpt>
      <trkpt lat="48.14613" lon="6.40958">
        <ele>445.71</ele>
        <time>2012-04-15T07:03:44Z</time>
      </trkpt>
      <trkpt lat="48.14586" lon="6.41013">
        <ele>449.07</ele>
        <time>2012-04-15T07:03:54Z</time>
      </trkpt>
      <trkpt lat="48.14581" lon="6.41028">
        <ele>449.55</ele>
        <time>2012-04-15T07:03:56Z</time>
      </trkpt>
      <trkpt lat="48.14579" lon="6.41034">
        <ele>450.03</ele>
        <time>2012-04-15T07:03:57Z</time>
      </trkpt>
      <trkpt lat="48.14577" lon="6.4104">
        <ele>450.03</ele>
        <time>2012-04-15T07:03:58Z</time>
      </trkpt>
      <trkpt lat="48.14565" lon="6.41103">
        <ele>451.48</ele>
        <time>2012-04-15T07:04:06Z</time>
      </trkpt>
      <trkpt lat="48.14563" lon="6.41119">
        <ele>451.48</ele>
        <time>2012-04-15T07:04:08Z</time>
      </trkpt>
      <trkpt lat="48.14563" lon="6.41126">
        <ele>451.48</ele>
        <time>2012-04-15T07:04:09Z</time>
      </trkpt>
      <trkpt lat="48.14562" lon="6.41133">
        <ele>451.48</ele>
        <time>2012-04-15T07:04:10Z</time>
      </trkpt>
      <trkpt lat="48.14561" lon="6.41139">
        <ele>451.96</ele>
        <time>2012-04-15T07:04:11Z</time>
      </trkpt>
      <trkpt lat="48.1456" lon="6.41144">
        <ele>451.96</ele>
        <time>2012-04-15T07:04:12Z</time>
      </trkpt>
      <trkpt lat="48.14551" lon="6.41189">
        <ele>452.44</ele>
        <time>2012-04-15T07:04:21Z</time>
      </trkpt>
      <trkpt lat="48.14549" lon="6.41192">
        <ele>452.92</ele>
        <time>2012-04-15T07:04:22Z</time>
      </trkpt>
      <trkpt lat="48.14548" lon="6.41193">
        <ele>452.92</ele>
        <time>2012-04-15T07:04:23Z</time>
      </trkpt>
      <trkpt lat="48.14548" lon="6.41194">
        <ele>453.88</ele>
        <time>2012-04-15T07:04:24Z</time>
      </trkpt>
      <trkpt lat="48.14548" lon="6.41194">
        <ele>453.88</ele>
        <time>2012-04-15T07:04:25Z</time>
      </trkpt>
      <trkpt lat="48.14548" lon="6.41192">
        <ele>453.88</ele>
        <time>2012-04-15T07:04:26Z</time>
      </trkpt>
      <trkpt lat="48.14548" lon="6.41189">
        <ele>454.36</ele>
        <time>2012-04-15T07:04:27Z</time>
      </trkpt>
      <trkpt lat="48.14547" lon="6.41185">
        <ele>454.36</ele>
        <time>2012-04-15T07:04:28Z</time>
      </trkpt>
      <trkpt lat="48.14546" lon="6.41182">
        <ele>454.36</ele>
        <time>2012-04-15T07:04:29Z</time>
      </trkpt>
      <trkpt lat="48.14545" lon="6.41178">
        <ele>454.84</ele>
        <time>2012-04-15T07:04:30Z</time>
      </trkpt>
      <trkpt lat="48.14544" lon="6.41173">
        <ele>454.36</ele>
        <time>2012-04-15T07:04:31Z</time>
      </trkpt>
      <trkpt lat="48.14542" lon="6.41168">
        <ele>454.36</ele>
        <time>2012-04-15T07:04:32Z</time>
      </trkpt>
      <trkpt lat="48.14526" lon="6.41127">
        <ele>454.36</ele>
        <time>2012-04-15T07:04:39Z</time>
      </trkpt>
      <trkpt lat="48.14523" lon="6.41119">
        <ele>454.36</ele>
        <time>2012-04-15T07:04:40Z</time>
      </trkpt>
      <trkpt lat="48.1452" lon="6.41112">
        <ele>454.36</ele>
        <time>2012-04-15T07:04:41Z</time>
      </trkpt>
      <trkpt lat="48.14514" lon="6.411">
        <ele>454.36</ele>
        <time>2012-04-15T07:04:46Z</time>
      </trkpt>
      <trkpt lat="48.14506" lon="6.41105">
        <ele>453.4</ele>
        <time>2012-04-15T07:04:50Z</time>
      </trkpt>
      <trkpt lat="48.14464" lon="6.41125">
        <ele>448.11</ele>
        <time>2012-04-15T07:04:59Z</time>
      </trkpt>
      <trkpt lat="48.1443" lon="6.41138">
        <ele>444.75</ele>
        <time>2012-04-15T07:05:06Z</time>
      </trkpt>
      <trkpt lat="48.14393" lon="6.41153">
        <ele>441.86</ele>
        <time>2012-04-15T07:05:12Z</time>
      </trkpt>
      <trkpt lat="48.14351" lon="6.41175">
        <ele>433.69</ele>
        <time>2012-04-15T07:05:22Z</time>
      </trkpt>
      <trkpt lat="48.14349" lon="6.41176">
        <ele>432.73</ele>
        <time>2012-04-15T07:05:23Z</time>
      </trkpt>
      <trkpt lat="48.14342" lon="6.41168">
        <ele>429.37</ele>
        <time>2012-04-15T07:05:27Z</time>
      </trkpt>
      <trkpt lat="48.14339" lon="6.41135">
        <ele>424.56</ele>
        <time>2012-04-15T07:05:32Z</time>
      </trkpt>
      <trkpt lat="48.14338" lon="6.41128">
        <ele>423.6</ele>
        <time>2012-04-15T07:05:33Z</time>
      </trkpt>
      <trkpt lat="48.14337" lon="6.4112">
        <ele>422.64</ele>
        <time>2012-04-15T07:05:34Z</time>
      </trkpt>
      <trkpt lat="48.14336" lon="6.4109">
        <ele>418.79</ele>
        <time>2012-04-15T07:05:38Z</time>
      </trkpt>
      <trkpt lat="48.14335" lon="6.41083">
        <ele>417.35</ele>
        <time>2012-04-15T07:05:39Z</time>
      </trkpt>
      <trkpt lat="48.14334" lon="6.41077">
        <ele>416.39</ele>
        <time>2012-04-15T07:05:40Z</time>
      </trkpt>
      <trkpt lat="48.14325" lon="6.41019">
        <ele>406.77</ele>
        <time>2012-04-15T07:05:52Z</time>
      </trkpt>
      <trkpt lat="48.14311" lon="6.40957">
        <ele>402.45</ele>
        <time>2012-04-15T07:06:06Z</time>
      </trkpt>
      <trkpt lat="48.14305" lon="6.40929">
        <ele>401.49</ele>
        <time>2012-04-15T07:06:13Z</time>
      </trkpt>
      <trkpt lat="48.14302" lon="6.40928">
        <ele>401.97</ele>
        <time>2012-04-15T07:06:14Z</time>
      </trkpt>
      <trkpt lat="48.143" lon="6.40928">
        <ele>402.45</ele>
        <time>2012-04-15T07:06:15Z</time>
      </trkpt>
      <trkpt lat="48.14296" lon="6.40929">
        <ele>402.45</ele>
        <time>2012-04-15T07:06:16Z</time>
      </trkpt>
      <trkpt lat="48.14293" lon="6.40931">
        <ele>403.41</ele>
        <time>2012-04-15T07:06:17Z</time>
      </trkpt>
      <trkpt lat="48.1429" lon="6.40932">
        <ele>403.89</ele>
        <time>2012-04-15T07:06:18Z</time>
      </trkpt>
      <trkpt lat="48.14287" lon="6.40934">
        <ele>403.89</ele>
        <time>2012-04-15T07:06:19Z</time>
      </trkpt>
      <trkpt lat="48.14277" lon="6.40936">
        <ele>406.77</ele>
        <time>2012-04-15T07:06:28Z</time>
      </trkpt>
      <trkpt lat="48.14264" lon="6.40939">
        <ele>411.1</ele>
        <time>2012-04-15T07:06:37Z</time>
      </trkpt>
      <trkpt lat="48.14259" lon="6.4094">
        <ele>413.98</ele>
        <time>2012-04-15T07:06:40Z</time>
      </trkpt>
      <trkpt lat="48.14253" lon="6.40943">
        <ele>415.43</ele>
        <time>2012-04-15T07:06:43Z</time>
      </trkpt>
      <trkpt lat="48.14237" lon="6.40952">
        <ele>423.6</ele>
        <time>2012-04-15T07:06:54Z</time>
      </trkpt>
      <trkpt lat="48.14217" lon="6.40956">
        <ele>431.29</ele>
        <time>2012-04-15T07:07:06Z</time>
      </trkpt>
      <trkpt lat="48.14186" lon="6.40958">
        <ele>435.13</ele>
        <time>2012-04-15T07:07:19Z</time>
      </trkpt>
      <trkpt lat="48.14173" lon="6.40961">
        <ele>435.13</ele>
        <time>2012-04-15T07:07:24Z</time>
      </trkpt>
      <trkpt lat="48.14171" lon="6.40961">
        <ele>434.65</ele>
        <time>2012-04-15T07:07:25Z</time>
      </trkpt>
      <trkpt lat="48.14169" lon="6.40962">
        <ele>434.65</ele>
        <time>2012-04-15T07:07:26Z</time>
      </trkpt>
      <trkpt lat="48.14167" lon="6.40964">
        <ele>434.65</ele>
        <time>2012-04-15T07:07:27Z</time>
      </trkpt>
      <trkpt lat="48.14164" lon="6.40966">
        <ele>435.13</ele>
        <time>2012-04-15T07:07:28Z</time>
      </trkpt>
      <trkpt lat="48.14161" lon="6.40968">
        <ele>435.61</ele>
        <time>2012-04-15T07:07:29Z</time>
      </trkpt>
      <trkpt lat="48.14158" lon="6.40969">
        <ele>435.61</ele>
        <time>2012-04-15T07:07:30Z</time>
      </trkpt>
      <trkpt lat="48.14156" lon="6.4097">
        <ele>435.61</ele>
        <time>2012-04-15T07:07:31Z</time>
      </trkpt>
      <trkpt lat="48.14139" lon="6.40981">
        <ele>436.1</ele>
        <time>2012-04-15T07:07:38Z</time>
      </trkpt>
      <trkpt lat="48.14129" lon="6.40989">
        <ele>436.58</ele>
        <time>2012-04-15T07:07:44Z</time>
      </trkpt>
      <trkpt lat="48.14126" lon="6.40991">
        <ele>437.06</ele>
        <time>2012-04-15T07:07:45Z</time>
      </trkpt>
      <trkpt lat="48.14124" lon="6.40992">
        <ele>437.06</ele>
        <time>2012-04-15T07:07:46Z</time>
      </trkpt>
      <trkpt lat="48.14106" lon="6.41017">
        <ele>437.54</ele>
        <time>2012-04-15T07:07:58Z</time>
      </trkpt>
      <trkpt lat="48.14082" lon="6.4104">
        <ele>436.58</ele>
        <time>2012-04-15T07:08:10Z</time>
      </trkpt>
      <trkpt lat="48.14077" lon="6.41047">
        <ele>436.58</ele>
        <time>2012-04-15T07:08:13Z</time>
      </trkpt>
      <trkpt lat="48.14075" lon="6.41049">
        <ele>436.1</ele>
        <time>2012-04-15T07:08:14Z</time>
      </trkpt>
      <trkpt lat="48.14072" lon="6.41051">
        <ele>436.1</ele>
        <time>2012-04-15T07:08:15Z</time>
      </trkpt>
      <trkpt lat="48.1406" lon="6.41062">
        <ele>437.54</ele>
        <time>2012-04-15T07:08:22Z</time>
      </trkpt>
      <trkpt lat="48.14058" lon="6.41065">
        <ele>437.06</ele>
        <time>2012-04-15T07:08:24Z</time>
      </trkpt>
      <trkpt lat="48.14057" lon="6.41067">
        <ele>437.06</ele>
        <time>2012-04-15T07:08:25Z</time>
      </trkpt>
      <trkpt lat="48.14042" lon="6.41086">
        <ele>441.86</ele>
        <time>2012-04-15T07:08:37Z</time>
      </trkpt>
      <trkpt lat="48.1404" lon="6.41088">
        <ele>442.34</ele>
        <time>2012-04-15T07:08:38Z</time>
      </trkpt>
      <trkpt lat="48.14039" lon="6.41089">
        <ele>442.82</ele>
        <time>2012-04-15T07:08:39Z</time>
      </trkpt>
      <trkpt lat="48.14021" lon="6.41105">
        <ele>450.03</ele>
        <time>2012-04-15T07:08:53Z</time>
      </trkpt>
      <trkpt lat="48.13998" lon="6.41132">
        <ele>454.36</ele>
        <time>2012-04-15T07:09:05Z</time>
      </trkpt>
      <trkpt lat="48.1397" lon="6.41171">
        <ele>454.36</ele>
        <time>2012-04-15T07:09:15Z</time>
      </trkpt>
      <trkpt lat="48.13955" lon="6.41187">
        <ele>453.4</ele>
        <time>2012-04-15T07:09:19Z</time>
      </trkpt>
      <trkpt lat="48.13938" lon="6.41211">
        <ele>451.96</ele>
        <time>2012-04-15T07:09:23Z</time>
      </trkpt>
      <trkpt lat="48.13928" lon="6.41221">
        <ele>451</ele>
        <time>2012-04-15T07:09:25Z</time>
      </trkpt>
      <trkpt lat="48.13924" lon="6.41225">
        <ele>450.52</ele>
        <time>2012-04-15T07:09:26Z</time>
      </trkpt>
      <trkpt lat="48.1392" lon="6.41231">
        <ele>450.52</ele>
        <time>2012-04-15T07:09:27Z</time>
      </trkpt>
      <trkpt lat="48.13918" lon="6.41238">
        <ele>450.03</ele>
        <time>2012-04-15T07:09:28Z</time>
      </trkpt>
      <trkpt lat="48.13918" lon="6.41246">
        <ele>449.55</ele>
        <time>2012-04-15T07:09:29Z</time>
      </trkpt>
      <trkpt lat="48.13919" lon="6.41253">
        <ele>449.55</ele>
        <time>2012-04-15T07:09:30Z</time>
      </trkpt>
      <trkpt lat="48.1392" lon="6.41259">
        <ele>449.07</ele>
        <time>2012-04-15T07:09:31Z</time>
      </trkpt>
      <trkpt lat="48.13922" lon="6.41265">
        <ele>449.07</ele>
        <time>2012-04-15T07:09:32Z</time>
      </trkpt>
      <trkpt lat="48.13924" lon="6.4127">
        <ele>448.59</ele>
        <time>2012-04-15T07:09:33Z</time>
      </trkpt>
      <trkpt lat="48.13925" lon="6.41276">
        <ele>448.11</ele>
        <time>2012-04-15T07:09:34Z</time>
      </trkpt>
      <trkpt lat="48.13926" lon="6.4128">
        <ele>448.11</ele>
        <time>2012-04-15T07:09:35Z</time>
      </trkpt>
      <trkpt lat="48.13927" lon="6.41284">
        <ele>448.11</ele>
        <time>2012-04-15T07:09:36Z</time>
      </trkpt>
      <trkpt lat="48.13943" lon="6.41334">
        <ele>447.63</ele>
        <time>2012-04-15T07:09:48Z</time>
      </trkpt>
      <trkpt lat="48.13959" lon="6.41386">
        <ele>451</ele>
        <time>2012-04-15T07:10:01Z</time>
      </trkpt>
      <trkpt lat="48.13976" lon="6.41441">
        <ele>453.88</ele>
        <time>2012-04-15T07:10:14Z</time>
      </trkpt>
      <trkpt lat="48.13995" lon="6.41503">
        <ele>456.76</ele>
        <time>2012-04-15T07:10:28Z</time>
      </trkpt>
      <trkpt lat="48.14002" lon="6.41523">
        <ele>456.76</ele>
        <time>2012-04-15T07:10:32Z</time>
      </trkpt>
      <trkpt lat="48.14003" lon="6.41528">
        <ele>456.76</ele>
        <time>2012-04-15T07:10:33Z</time>
      </trkpt>
      <trkpt lat="48.14004" lon="6.41533">
        <ele>456.76</ele>
        <time>2012-04-15T07:10:34Z</time>
      </trkpt>
      <trkpt lat="48.14006" lon="6.41537">
        <ele>456.76</ele>
        <time>2012-04-15T07:10:35Z</time>
      </trkpt>
      <trkpt lat="48.14008" lon="6.41542">
        <ele>456.76</ele>
        <time>2012-04-15T07:10:36Z</time>
      </trkpt>
      <trkpt lat="48.14026" lon="6.41598">
        <ele>460.13</ele>
        <time>2012-04-15T07:10:48Z</time>
      </trkpt>
      <trkpt lat="48.14038" lon="6.41645">
        <ele>465.42</ele>
        <time>2012-04-15T07:10:59Z</time>
      </trkpt>
      <trkpt lat="48.14037" lon="6.41651">
        <ele>466.38</ele>
        <time>2012-04-15T07:11:01Z</time>
      </trkpt>
      <trkpt lat="48.14035" lon="6.41653">
        <ele>466.86</ele>
        <time>2012-04-15T07:11:02Z</time>
      </trkpt>
      <trkpt lat="48.14033" lon="6.41656">
        <ele>466.86</ele>
        <time>2012-04-15T07:11:03Z</time>
      </trkpt>
      <trkpt lat="48.1403" lon="6.41659">
        <ele>467.34</ele>
        <time>2012-04-15T07:11:04Z</time>
      </trkpt>
      <trkpt lat="48.14027" lon="6.41661">
        <ele>467.34</ele>
        <time>2012-04-15T07:11:05Z</time>
      </trkpt>
      <trkpt lat="48.13989" lon="6.4169">
        <ele>465.9</ele>
        <time>2012-04-15T07:11:17Z</time>
      </trkpt>
      <trkpt lat="48.13958" lon="6.41733">
        <ele>464.93</ele>
        <time>2012-04-15T07:11:26Z</time>
      </trkpt>
      <trkpt lat="48.13951" lon="6.41746">
        <ele>463.97</ele>
        <time>2012-04-15T07:11:28Z</time>
      </trkpt>
      <trkpt lat="48.13947" lon="6.41753">
        <ele>463.49</ele>
        <time>2012-04-15T07:11:29Z</time>
      </trkpt>
      <trkpt lat="48.13943" lon="6.41759">
        <ele>463.49</ele>
        <time>2012-04-15T07:11:30Z</time>
      </trkpt>
      <trkpt lat="48.13931" lon="6.41783">
        <ele>463.01</ele>
        <time>2012-04-15T07:11:33Z</time>
      </trkpt>
      <trkpt lat="48.13918" lon="6.41823">
        <ele>462.05</ele>
        <time>2012-04-15T07:11:37Z</time>
      </trkpt>
      <trkpt lat="48.13916" lon="6.41835">
        <ele>461.57</ele>
        <time>2012-04-15T07:11:38Z</time>
      </trkpt>
      <trkpt lat="48.13915" lon="6.41847">
        <ele>461.09</ele>
        <time>2012-04-15T07:11:39Z</time>
      </trkpt>
      <trkpt lat="48.13916" lon="6.41913">
        <ele>459.65</ele>
        <time>2012-04-15T07:11:44Z</time>
      </trkpt>
      <trkpt lat="48.13922" lon="6.4195">
        <ele>458.69</ele>
        <time>2012-04-15T07:11:47Z</time>
      </trkpt>
      <trkpt lat="48.13935" lon="6.42022">
        <ele>455.8</ele>
        <time>2012-04-15T07:11:53Z</time>
      </trkpt>
      <trkpt lat="48.13962" lon="6.42108">
        <ele>447.15</ele>
        <time>2012-04-15T07:12:03Z</time>
      </trkpt>
      <trkpt lat="48.13966" lon="6.42114">
        <ele>446.67</ele>
        <time>2012-04-15T07:12:04Z</time>
      </trkpt>
      <trkpt lat="48.1397" lon="6.42119">
        <ele>445.71</ele>
        <time>2012-04-15T07:12:05Z</time>
      </trkpt>
      <trkpt lat="48.13974" lon="6.42123">
        <ele>445.23</ele>
        <time>2012-04-15T07:12:06Z</time>
      </trkpt>
      <trkpt lat="48.13978" lon="6.42127">
        <ele>444.75</ele>
        <time>2012-04-15T07:12:07Z</time>
      </trkpt>
      <trkpt lat="48.1398" lon="6.42129">
        <ele>444.27</ele>
        <time>2012-04-15T07:12:08Z</time>
      </trkpt>
      <trkpt lat="48.13982" lon="6.42132">
        <ele>444.27</ele>
        <time>2012-04-15T07:12:09Z</time>
      </trkpt>
      <trkpt lat="48.13983" lon="6.42134">
        <ele>444.27</ele>
        <time>2012-04-15T07:12:10Z</time>
      </trkpt>
      <trkpt lat="48.13984" lon="6.42136">
        <ele>444.27</ele>
        <time>2012-04-15T07:12:11Z</time>
      </trkpt>
      <trkpt lat="48.13985" lon="6.42138">
        <ele>444.27</ele>
        <time>2012-04-15T07:12:12Z</time>
      </trkpt>
      <trkpt lat="48.13986" lon="6.4214">
        <ele>444.27</ele>
        <time>2012-04-15T07:12:13Z</time>
      </trkpt>
      <trkpt lat="48.13989" lon="6.42142">
        <ele>444.27</ele>
        <time>2012-04-15T07:12:14Z</time>
      </trkpt>
      <trkpt lat="48.13991" lon="6.42145">
        <ele>444.27</ele>
        <time>2012-04-15T07:12:15Z</time>
      </trkpt>
      <trkpt lat="48.13993" lon="6.42148">
        <ele>444.75</ele>
        <time>2012-04-15T07:12:16Z</time>
      </trkpt>
      <trkpt lat="48.13996" lon="6.42153">
        <ele>444.75</ele>
        <time>2012-04-15T07:12:17Z</time>
      </trkpt>
      <trkpt lat="48.13999" lon="6.42158">
        <ele>444.75</ele>
        <time>2012-04-15T07:12:18Z</time>
      </trkpt>
      <trkpt lat="48.14022" lon="6.42186">
        <ele>446.19</ele>
        <time>2012-04-15T07:12:27Z</time>
      </trkpt>
      <trkpt lat="48.14034" lon="6.42197">
        <ele>446.67</ele>
        <time>2012-04-15T07:12:33Z</time>
      </trkpt>
      <trkpt lat="48.14037" lon="6.42198">
        <ele>446.67</ele>
        <time>2012-04-15T07:12:34Z</time>
      </trkpt>
      <trkpt lat="48.14039" lon="6.422">
        <ele>446.19</ele>
        <time>2012-04-15T07:12:35Z</time>
      </trkpt>
      <trkpt lat="48.14041" lon="6.42201">
        <ele>446.19</ele>
        <time>2012-04-15T07:12:36Z</time>
      </trkpt>
      <trkpt lat="48.1406" lon="6.42214">
        <ele>445.71</ele>
        <time>2012-04-15T07:12:45Z</time>
      </trkpt>
      <trkpt lat="48.14075" lon="6.42222">
        <ele>444.75</ele>
        <time>2012-04-15T07:12:52Z</time>
      </trkpt>
      <trkpt lat="48.14101" lon="6.42236">
        <ele>443.31</ele>
        <time>2012-04-15T07:13:03Z</time>
      </trkpt>
      <trkpt lat="48.14119" lon="6.42255">
        <ele>445.23</ele>
        <time>2012-04-15T07:13:13Z</time>
      </trkpt>
      <trkpt lat="48.14137" lon="6.42283">
        <ele>444.27</ele>
        <time>2012-04-15T07:13:22Z</time>
      </trkpt>
      <trkpt lat="48.14147" lon="6.423">
        <ele>443.31</ele>
        <time>2012-04-15T07:13:27Z</time>
      </trkpt>
      <trkpt lat="48.14151" lon="6.42308">
        <ele>442.82</ele>
        <time>2012-04-15T07:13:29Z</time>
      </trkpt>
      <trkpt lat="48.14157" lon="6.4234">
        <ele>440.42</ele>
        <time>2012-04-15T07:13:33Z</time>
      </trkpt>
      <trkpt lat="48.14159" lon="6.42372">
        <ele>437.54</ele>
        <time>2012-04-15T07:13:36Z</time>
      </trkpt>
      <trkpt lat="48.14155" lon="6.42411">
        <ele>434.65</ele>
        <time>2012-04-15T07:13:40Z</time>
      </trkpt>
      <trkpt lat="48.14159" lon="6.4246">
        <ele>430.81</ele>
        <time>2012-04-15T07:13:45Z</time>
      </trkpt>
      <trkpt lat="48.14169" lon="6.42504">
        <ele>426.96</ele>
        <time>2012-04-15T07:13:49Z</time>
      </trkpt>
      <trkpt lat="48.14196" lon="6.42581">
        <ele>420.71</ele>
        <time>2012-04-15T07:13:59Z</time>
      </trkpt>
      <trkpt lat="48.14201" lon="6.42606">
        <ele>420.71</ele>
        <time>2012-04-15T07:14:04Z</time>
      </trkpt>
      <trkpt lat="48.14223" lon="6.4268">
        <ele>417.83</ele>
        <time>2012-04-15T07:14:16Z</time>
      </trkpt>
      <trkpt lat="48.14233" lon="6.42713">
        <ele>415.43</ele>
        <time>2012-04-15T07:14:20Z</time>
      </trkpt>
      <trkpt lat="48.14249" lon="6.4275">
        <ele>412.54</ele>
        <time>2012-04-15T07:14:24Z</time>
      </trkpt>
      <trkpt lat="48.14275" lon="6.42819">
        <ele>406.77</ele>
        <time>2012-04-15T07:14:31Z</time>
      </trkpt>
      <trkpt lat="48.1428" lon="6.42829">
        <ele>405.81</ele>
        <time>2012-04-15T07:14:32Z</time>
      </trkpt>
      <trkpt lat="48.14299" lon="6.42867">
        <ele>401.49</ele>
        <time>2012-04-15T07:14:36Z</time>
      </trkpt>
      <trkpt lat="48.14302" lon="6.42878">
        <ele>401.01</ele>
        <time>2012-04-15T07:14:37Z</time>
      </trkpt>
      <trkpt lat="48.14309" lon="6.42901">
        <ele>399.08</ele>
        <time>2012-04-15T07:14:39Z</time>
      </trkpt>
      <trkpt lat="48.1432" lon="6.42932">
        <ele>395.24</ele>
        <time>2012-04-15T07:14:42Z</time>
      </trkpt>
      <trkpt lat="48.14334" lon="6.42973">
        <ele>389.47</ele>
        <time>2012-04-15T07:14:46Z</time>
      </trkpt>
      <trkpt lat="48.14338" lon="6.42983">
        <ele>388.03</ele>
        <time>2012-04-15T07:14:47Z</time>
      </trkpt>
      <trkpt lat="48.14341" lon="6.42993">
        <ele>386.59</ele>
        <time>2012-04-15T07:14:48Z</time>
      </trkpt>
      <trkpt lat="48.14342" lon="6.43003">
        <ele>385.15</ele>
        <time>2012-04-15T07:14:49Z</time>
      </trkpt>
      <trkpt lat="48.14342" lon="6.43009">
        <ele>384.18</ele>
        <time>2012-04-15T07:14:50Z</time>
      </trkpt>
      <trkpt lat="48.14334" lon="6.43012">
        <ele>381.3</ele>
        <time>2012-04-15T07:14:53Z</time>
      </trkpt>
      <trkpt lat="48.14331" lon="6.43009">
        <ele>380.82</ele>
        <time>2012-04-15T07:14:54Z</time>
      </trkpt>
      <trkpt lat="48.14327" lon="6.43005">
        <ele>380.82</ele>
        <time>2012-04-15T07:14:55Z</time>
      </trkpt>
      <trkpt lat="48.14324" lon="6.43">
        <ele>380.82</ele>
        <time>2012-04-15T07:14:56Z</time>
      </trkpt>
      <trkpt lat="48.1432" lon="6.42994">
        <ele>380.82</ele>
        <time>2012-04-15T07:14:57Z</time>
      </trkpt>
      <trkpt lat="48.14317" lon="6.42988">
        <ele>380.82</ele>
        <time>2012-04-15T07:14:58Z</time>
      </trkpt>
      <trkpt lat="48.14293" lon="6.42939">
        <ele>384.18</ele>
        <time>2012-04-15T07:15:09Z</time>
      </trkpt>
      <trkpt lat="48.14291" lon="6.42942">
        <ele>387.07</ele>
        <time>2012-04-15T07:15:19Z</time>
      </trkpt>
      <trkpt lat="48.14292" lon="6.42941">
        <ele>386.11</ele>
        <time>2012-04-15T07:15:41Z</time>
      </trkpt>
      <trkpt lat="48.14291" lon="6.4294">
        <ele>386.59</ele>
        <time>2012-04-15T07:15:43Z</time>
      </trkpt>
      <trkpt lat="48.14273" lon="6.42913">
        <ele>391.87</ele>
        <time>2012-04-15T07:15:54Z</time>
      </trkpt>
      <trkpt lat="48.14251" lon="6.42861">
        <ele>395.72</ele>
        <time>2012-04-15T07:16:07Z</time>
      </trkpt>
      <trkpt lat="48.14219" lon="6.42826">
        <ele>400.05</ele>
        <time>2012-04-15T07:16:20Z</time>
      </trkpt>
      <trkpt lat="48.14186" lon="6.42796">
        <ele>401.01</ele>
        <time>2012-04-15T07:16:33Z</time>
      </trkpt>
      <trkpt lat="48.14142" lon="6.42765">
        <ele>401.49</ele>
        <time>2012-04-15T07:16:47Z</time>
      </trkpt>
      <trkpt lat="48.14099" lon="6.42736">
        <ele>401.49</ele>
        <time>2012-04-15T07:17:00Z</time>
      </trkpt>
      <trkpt lat="48.14088" lon="6.42734">
        <ele>401.49</ele>
        <time>2012-04-15T07:17:04Z</time>
      </trkpt>
      <trkpt lat="48.14052" lon="6.42712">
        <ele>401.97</ele>
        <time>2012-04-15T07:17:17Z</time>
      </trkpt>
      <trkpt lat="48.14012" lon="6.42685">
        <ele>409.18</ele>
        <time>2012-04-15T07:17:32Z</time>
      </trkpt>
      <trkpt lat="48.13982" lon="6.42646">
        <ele>411.1</ele>
        <time>2012-04-15T07:17:44Z</time>
      </trkpt>
      <trkpt lat="48.13951" lon="6.42606">
        <ele>410.62</ele>
        <time>2012-04-15T07:17:56Z</time>
      </trkpt>
      <trkpt lat="48.13918" lon="6.42573">
        <ele>411.58</ele>
        <time>2012-04-15T07:18:07Z</time>
      </trkpt>
      <trkpt lat="48.13886" lon="6.4256">
        <ele>413.02</ele>
        <time>2012-04-15T07:18:17Z</time>
      </trkpt>
      <trkpt lat="48.13857" lon="6.4253">
        <ele>413.5</ele>
        <time>2012-04-15T07:18:29Z</time>
      </trkpt>
      <trkpt lat="48.13848" lon="6.42471">
        <ele>413.02</ele>
        <time>2012-04-15T07:18:42Z</time>
      </trkpt>
      <trkpt lat="48.13835" lon="6.42419">
        <ele>414.95</ele>
        <time>2012-04-15T07:18:54Z</time>
      </trkpt>
      <trkpt lat="48.13819" lon="6.42369">
        <ele>417.83</ele>
        <time>2012-04-15T07:19:06Z</time>
      </trkpt>
      <trkpt lat="48.13799" lon="6.42317">
        <ele>423.6</ele>
        <time>2012-04-15T07:19:19Z</time>
      </trkpt>
      <trkpt lat="48.13775" lon="6.42274">
        <ele>428.4</ele>
        <time>2012-04-15T07:19:31Z</time>
      </trkpt>
      <trkpt lat="48.13739" lon="6.42244">
        <ele>431.29</ele>
        <time>2012-04-15T07:19:43Z</time>
      </trkpt>
      <trkpt lat="48.13701" lon="6.42233">
        <ele>436.1</ele>
        <time>2012-04-15T07:19:56Z</time>
      </trkpt>
      <trkpt lat="48.13664" lon="6.42234">
        <ele>437.54</ele>
        <time>2012-04-15T07:20:08Z</time>
      </trkpt>
      <trkpt lat="48.13644" lon="6.42239">
        <ele>437.54</ele>
        <time>2012-04-15T07:20:14Z</time>
      </trkpt>
      <trkpt lat="48.13642" lon="6.4224">
        <ele>437.54</ele>
        <time>2012-04-15T07:20:15Z</time>
      </trkpt>
      <trkpt lat="48.13639" lon="6.42241">
        <ele>437.54</ele>
        <time>2012-04-15T07:20:16Z</time>
      </trkpt>
      <trkpt lat="48.13636" lon="6.42241">
        <ele>437.06</ele>
        <time>2012-04-15T07:20:17Z</time>
      </trkpt>
      <trkpt lat="48.13632" lon="6.4224">
        <ele>437.06</ele>
        <time>2012-04-15T07:20:18Z</time>
      </trkpt>
      <trkpt lat="48.13629" lon="6.4224">
        <ele>437.06</ele>
        <time>2012-04-15T07:20:19Z</time>
      </trkpt>
      <trkpt lat="48.13625" lon="6.42241">
        <ele>436.58</ele>
        <time>2012-04-15T07:20:20Z</time>
      </trkpt>
      <trkpt lat="48.13622" lon="6.42241">
        <ele>436.58</ele>
        <time>2012-04-15T07:20:21Z</time>
      </trkpt>
      <trkpt lat="48.13618" lon="6.42241">
        <ele>436.58</ele>
        <time>2012-04-15T07:20:22Z</time>
      </trkpt>
      <trkpt lat="48.13615" lon="6.42242">
        <ele>436.1</ele>
        <time>2012-04-15T07:20:23Z</time>
      </trkpt>
      <trkpt lat="48.13611" lon="6.42243">
        <ele>436.1</ele>
        <time>2012-04-15T07:20:24Z</time>
      </trkpt>
      <trkpt lat="48.13608" lon="6.42243">
        <ele>436.1</ele>
        <time>2012-04-15T07:20:25Z</time>
      </trkpt>
      <trkpt lat="48.13605" lon="6.42243">
        <ele>435.61</ele>
        <time>2012-04-15T07:20:26Z</time>
      </trkpt>
      <trkpt lat="48.13602" lon="6.42243">
        <ele>435.61</ele>
        <time>2012-04-15T07:20:27Z</time>
      </trkpt>
      <trkpt lat="48.13556" lon="6.42248">
        <ele>431.77</ele>
        <time>2012-04-15T07:20:41Z</time>
      </trkpt>
      <trkpt lat="48.13526" lon="6.42255">
        <ele>432.25</ele>
        <time>2012-04-15T07:20:51Z</time>
      </trkpt>
      <trkpt lat="48.13497" lon="6.42273">
        <ele>435.61</ele>
        <time>2012-04-15T07:21:01Z</time>
      </trkpt>
      <trkpt lat="48.13467" lon="6.42287">
        <ele>438.5</ele>
        <time>2012-04-15T07:21:12Z</time>
      </trkpt>
      <trkpt lat="48.13431" lon="6.42304">
        <ele>443.79</ele>
        <time>2012-04-15T07:21:24Z</time>
      </trkpt>
      <trkpt lat="48.13398" lon="6.42341">
        <ele>446.67</ele>
        <time>2012-04-15T07:21:37Z</time>
      </trkpt>
      <trkpt lat="48.13379" lon="6.42377">
        <ele>451.48</ele>
        <time>2012-04-15T07:21:49Z</time>
      </trkpt>
      <trkpt lat="48.13368" lon="6.42402">
        <ele>452.44</ele>
        <time>2012-04-15T07:21:57Z</time>
      </trkpt>
      <trkpt lat="48.13367" lon="6.42406">
        <ele>452.44</ele>
        <time>2012-04-15T07:21:58Z</time>
      </trkpt>
      <trkpt lat="48.13366" lon="6.4241">
        <ele>452.44</ele>
        <time>2012-04-15T07:21:59Z</time>
      </trkpt>
      <trkpt lat="48.13361" lon="6.42437">
        <ele>453.4</ele>
        <time>2012-04-15T07:22:06Z</time>
      </trkpt>
      <trkpt lat="48.13347" lon="6.42486">
        <ele>457.24</ele>
        <time>2012-04-15T07:22:19Z</time>
      </trkpt>
      <trkpt lat="48.13345" lon="6.42503">
        <ele>459.17</ele>
        <time>2012-04-15T07:22:24Z</time>
      </trkpt>
      <trkpt lat="48.13344" lon="6.42507">
        <ele>459.17</ele>
        <time>2012-04-15T07:22:25Z</time>
      </trkpt>
      <trkpt lat="48.13343" lon="6.42543">
        <ele>462.53</ele>
        <time>2012-04-15T07:22:36Z</time>
      </trkpt>
      <trkpt lat="48.13342" lon="6.42545">
        <ele>463.01</ele>
        <time>2012-04-15T07:22:37Z</time>
      </trkpt>
      <trkpt lat="48.13342" lon="6.42547">
        <ele>463.97</ele>
        <time>2012-04-15T07:22:38Z</time>
      </trkpt>
      <trkpt lat="48.13341" lon="6.42556">
        <ele>465.9</ele>
        <time>2012-04-15T07:22:41Z</time>
      </trkpt>
      <trkpt lat="48.1334" lon="6.42558">
        <ele>466.86</ele>
        <time>2012-04-15T07:22:42Z</time>
      </trkpt>
      <trkpt lat="48.1334" lon="6.42561">
        <ele>467.34</ele>
        <time>2012-04-15T07:22:43Z</time>
      </trkpt>
      <trkpt lat="48.13339" lon="6.42564">
        <ele>467.82</ele>
        <time>2012-04-15T07:22:44Z</time>
      </trkpt>
      <trkpt lat="48.13338" lon="6.42567">
        <ele>468.3</ele>
        <time>2012-04-15T07:22:45Z</time>
      </trkpt>
      <trkpt lat="48.13337" lon="6.4257">
        <ele>469.26</ele>
        <time>2012-04-15T07:22:46Z</time>
      </trkpt>
      <trkpt lat="48.13336" lon="6.42574">
        <ele>469.74</ele>
        <time>2012-04-15T07:22:47Z</time>
      </trkpt>
      <trkpt lat="48.13323" lon="6.42606">
        <ele>475.99</ele>
        <time>2012-04-15T07:22:58Z</time>
      </trkpt>
      <trkpt lat="48.13319" lon="6.42634">
        <ele>478.87</ele>
        <time>2012-04-15T07:23:06Z</time>
      </trkpt>
      <trkpt lat="48.13308" lon="6.42665">
        <ele>482.24</ele>
        <time>2012-04-15T07:23:15Z</time>
      </trkpt>
      <trkpt lat="48.13275" lon="6.42701">
        <ele>490.89</ele>
        <time>2012-04-15T07:23:28Z</time>
      </trkpt>
      <trkpt lat="48.13266" lon="6.42708">
        <ele>491.85</ele>
        <time>2012-04-15T07:23:30Z</time>
      </trkpt>
      <trkpt lat="48.13259" lon="6.42717">
        <ele>492.81</ele>
        <time>2012-04-15T07:23:32Z</time>
      </trkpt>
      <trkpt lat="48.13255" lon="6.42722">
        <ele>493.29</ele>
        <time>2012-04-15T07:23:33Z</time>
      </trkpt>
      <trkpt lat="48.13224" lon="6.42763">
        <ele>493.29</ele>
        <time>2012-04-15T07:23:40Z</time>
      </trkpt>
      <trkpt lat="48.13221" lon="6.42772">
        <ele>493.29</ele>
        <time>2012-04-15T07:23:41Z</time>
      </trkpt>
      <trkpt lat="48.1321" lon="6.42812">
        <ele>492.33</ele>
        <time>2012-04-15T07:23:45Z</time>
      </trkpt>
      <trkpt lat="48.13209" lon="6.42821">
        <ele>491.85</ele>
        <time>2012-04-15T07:23:46Z</time>
      </trkpt>
      <trkpt lat="48.13211" lon="6.42845">
        <ele>491.37</ele>
        <time>2012-04-15T07:23:49Z</time>
      </trkpt>
      <trkpt lat="48.13223" lon="6.42914">
        <ele>483.2</ele>
        <time>2012-04-15T07:23:59Z</time>
      </trkpt>
      <trkpt lat="48.13228" lon="6.42927">
        <ele>483.2</ele>
        <time>2012-04-15T07:24:01Z</time>
      </trkpt>
      <trkpt lat="48.13231" lon="6.42933">
        <ele>482.72</ele>
        <time>2012-04-15T07:24:02Z</time>
      </trkpt>
      <trkpt lat="48.13233" lon="6.42939">
        <ele>482.72</ele>
        <time>2012-04-15T07:24:03Z</time>
      </trkpt>
      <trkpt lat="48.13236" lon="6.42945">
        <ele>481.76</ele>
        <time>2012-04-15T07:24:04Z</time>
      </trkpt>
      <trkpt lat="48.13238" lon="6.4295">
        <ele>481.28</ele>
        <time>2012-04-15T07:24:05Z</time>
      </trkpt>
      <trkpt lat="48.13241" lon="6.42956">
        <ele>480.8</ele>
        <time>2012-04-15T07:24:06Z</time>
      </trkpt>
      <trkpt lat="48.13247" lon="6.42968">
        <ele>479.84</ele>
        <time>2012-04-15T07:24:08Z</time>
      </trkpt>
      <trkpt lat="48.13255" lon="6.42977">
        <ele>478.87</ele>
        <time>2012-04-15T07:24:10Z</time>
      </trkpt>
      <trkpt lat="48.13258" lon="6.42981">
        <ele>478.39</ele>
        <time>2012-04-15T07:24:11Z</time>
      </trkpt>
      <trkpt lat="48.13272" lon="6.42997">
        <ele>475.99</ele>
        <time>2012-04-15T07:24:15Z</time>
      </trkpt>
      <trkpt lat="48.13276" lon="6.43">
        <ele>475.51</ele>
        <time>2012-04-15T07:24:16Z</time>
      </trkpt>
      <trkpt lat="48.13295" lon="6.43018">
        <ele>473.11</ele>
        <time>2012-04-15T07:24:21Z</time>
      </trkpt>
      <trkpt lat="48.13299" lon="6.43019">
        <ele>472.63</ele>
        <time>2012-04-15T07:24:22Z</time>
      </trkpt>
      <trkpt lat="48.13303" lon="6.4302">
        <ele>472.14</ele>
        <time>2012-04-15T07:24:23Z</time>
      </trkpt>
      <trkpt lat="48.13306" lon="6.4302">
        <ele>471.66</ele>
        <time>2012-04-15T07:24:24Z</time>
      </trkpt>
      <trkpt lat="48.1331" lon="6.43019">
        <ele>471.18</ele>
        <time>2012-04-15T07:24:25Z</time>
      </trkpt>
      <trkpt lat="48.1334" lon="6.42981">
        <ele>467.34</ele>
        <time>2012-04-15T07:24:36Z</time>
      </trkpt>
      <trkpt lat="48.13372" lon="6.42963">
        <ele>467.82</ele>
        <time>2012-04-15T07:24:47Z</time>
      </trkpt>
      <trkpt lat="48.13392" lon="6.42966">
        <ele>467.34</ele>
        <time>2012-04-15T07:24:56Z</time>
      </trkpt>
      <trkpt lat="48.13394" lon="6.42967">
        <ele>467.34</ele>
        <time>2012-04-15T07:25:00Z</time>
      </trkpt>
      <trkpt lat="48.13395" lon="6.4297">
        <ele>466.86</ele>
        <time>2012-04-15T07:25:01Z</time>
      </trkpt>
      <trkpt lat="48.13409" lon="6.42994">
        <ele>465.9</ele>
        <time>2012-04-15T07:25:06Z</time>
      </trkpt>
      <trkpt lat="48.13424" lon="6.43026">
        <ele>464.45</ele>
        <time>2012-04-15T07:25:11Z</time>
      </trkpt>
      <trkpt lat="48.13431" lon="6.43044">
        <ele>463.97</ele>
        <time>2012-04-15T07:25:13Z</time>
      </trkpt>
      <trkpt lat="48.13444" lon="6.43071">
        <ele>463.01</ele>
        <time>2012-04-15T07:25:16Z</time>
      </trkpt>
      <trkpt lat="48.13454" lon="6.43087">
        <ele>463.01</ele>
        <time>2012-04-15T07:25:18Z</time>
      </trkpt>
      <trkpt lat="48.13459" lon="6.43097">
        <ele>462.53</ele>
        <time>2012-04-15T07:25:19Z</time>
      </trkpt>
      <trkpt lat="48.13464" lon="6.43107">
        <ele>462.05</ele>
        <time>2012-04-15T07:25:20Z</time>
      </trkpt>
      <trkpt lat="48.13482" lon="6.4314">
        <ele>461.09</ele>
        <time>2012-04-15T07:25:23Z</time>
      </trkpt>
      <trkpt lat="48.13486" lon="6.43152">
        <ele>461.09</ele>
        <time>2012-04-15T07:25:24Z</time>
      </trkpt>
      <trkpt lat="48.13489" lon="6.43164">
        <ele>460.61</ele>
        <time>2012-04-15T07:25:25Z</time>
      </trkpt>
      <trkpt lat="48.1349" lon="6.43178">
        <ele>460.13</ele>
        <time>2012-04-15T07:25:26Z</time>
      </trkpt>
      <trkpt lat="48.13489" lon="6.43191">
        <ele>459.65</ele>
        <time>2012-04-15T07:25:27Z</time>
      </trkpt>
      <trkpt lat="48.13488" lon="6.43202">
        <ele>459.17</ele>
        <time>2012-04-15T07:25:28Z</time>
      </trkpt>
      <trkpt lat="48.13487" lon="6.43213">
        <ele>459.17</ele>
        <time>2012-04-15T07:25:29Z</time>
      </trkpt>
      <trkpt lat="48.13487" lon="6.43223">
        <ele>458.69</ele>
        <time>2012-04-15T07:25:30Z</time>
      </trkpt>
      <trkpt lat="48.13487" lon="6.43231">
        <ele>458.69</ele>
        <time>2012-04-15T07:25:31Z</time>
      </trkpt>
      <trkpt lat="48.13487" lon="6.43239">
        <ele>458.69</ele>
        <time>2012-04-15T07:25:32Z</time>
      </trkpt>
      <trkpt lat="48.13487" lon="6.43246">
        <ele>458.69</ele>
        <time>2012-04-15T07:25:33Z</time>
      </trkpt>
      <trkpt lat="48.13487" lon="6.43254">
        <ele>458.69</ele>
        <time>2012-04-15T07:25:34Z</time>
      </trkpt>
      <trkpt lat="48.13488" lon="6.43263">
        <ele>459.17</ele>
        <time>2012-04-15T07:25:35Z</time>
      </trkpt>
      <trkpt lat="48.13488" lon="6.43272">
        <ele>459.17</ele>
        <time>2012-04-15T07:25:36Z</time>
      </trkpt>
      <trkpt lat="48.13489" lon="6.43282">
        <ele>458.69</ele>
        <time>2012-04-15T07:25:37Z</time>
      </trkpt>
      <trkpt lat="48.13489" lon="6.43291">
        <ele>458.69</ele>
        <time>2012-04-15T07:25:38Z</time>
      </trkpt>
      <trkpt lat="48.13488" lon="6.43333">
        <ele>457.72</ele>
        <time>2012-04-15T07:25:42Z</time>
      </trkpt>
      <trkpt lat="48.13488" lon="6.43345">
        <ele>457.24</ele>
        <time>2012-04-15T07:25:43Z</time>
      </trkpt>
      <trkpt lat="48.13492" lon="6.4337">
        <ele>456.76</ele>
        <time>2012-04-15T07:25:45Z</time>
      </trkpt>
      <trkpt lat="48.13495" lon="6.43382">
        <ele>456.76</ele>
        <time>2012-04-15T07:25:46Z</time>
      </trkpt>
      <trkpt lat="48.13499" lon="6.43393">
        <ele>456.28</ele>
        <time>2012-04-15T07:25:47Z</time>
      </trkpt>
      <trkpt lat="48.13503" lon="6.43402">
        <ele>455.8</ele>
        <time>2012-04-15T07:25:48Z</time>
      </trkpt>
      <trkpt lat="48.13508" lon="6.43409">
        <ele>455.8</ele>
        <time>2012-04-15T07:25:49Z</time>
      </trkpt>
      <trkpt lat="48.13513" lon="6.43414">
        <ele>455.32</ele>
        <time>2012-04-15T07:25:50Z</time>
      </trkpt>
      <trkpt lat="48.13517" lon="6.43418">
        <ele>455.32</ele>
        <time>2012-04-15T07:25:51Z</time>
      </trkpt>
      <trkpt lat="48.13521" lon="6.43421">
        <ele>455.32</ele>
        <time>2012-04-15T07:25:52Z</time>
      </trkpt>
      <trkpt lat="48.13529" lon="6.43424">
        <ele>455.32</ele>
        <time>2012-04-15T07:25:58Z</time>
      </trkpt>
      <trkpt lat="48.13541" lon="6.43427">
        <ele>455.8</ele>
        <time>2012-04-15T07:26:06Z</time>
      </trkpt>
      <trkpt lat="48.13547" lon="6.43427">
        <ele>456.76</ele>
        <time>2012-04-15T07:26:10Z</time>
      </trkpt>
      <trkpt lat="48.13553" lon="6.4343">
        <ele>456.76</ele>
        <time>2012-04-15T07:26:15Z</time>
      </trkpt>
      <trkpt lat="48.13566" lon="6.43435">
        <ele>458.21</ele>
        <time>2012-04-15T07:26:27Z</time>
      </trkpt>
      <trkpt lat="48.13564" lon="6.43448">
        <ele>458.21</ele>
        <time>2012-04-15T07:26:31Z</time>
      </trkpt>
      <trkpt lat="48.13555" lon="6.43479">
        <ele>457.24</ele>
        <time>2012-04-15T07:26:35Z</time>
      </trkpt>
      <trkpt lat="48.1355" lon="6.43493">
        <ele>456.76</ele>
        <time>2012-04-15T07:26:37Z</time>
      </trkpt>
      <trkpt lat="48.13539" lon="6.43518">
        <ele>455.32</ele>
        <time>2012-04-15T07:26:43Z</time>
      </trkpt>
      <trkpt lat="48.13511" lon="6.43529">
        <ele>447.63</ele>
        <time>2012-04-15T07:26:54Z</time>
      </trkpt>
      <trkpt lat="48.13508" lon="6.43532">
        <ele>447.15</ele>
        <time>2012-04-15T07:26:55Z</time>
      </trkpt>
      <trkpt lat="48.13505" lon="6.43535">
        <ele>446.19</ele>
        <time>2012-04-15T07:26:56Z</time>
      </trkpt>
      <trkpt lat="48.13501" lon="6.43537">
        <ele>445.23</ele>
        <time>2012-04-15T07:26:57Z</time>
      </trkpt>
      <trkpt lat="48.13457" lon="6.43559">
        <ele>438.98</ele>
        <time>2012-04-15T07:27:07Z</time>
      </trkpt>
      <trkpt lat="48.13453" lon="6.43561">
        <ele>438.02</ele>
        <time>2012-04-15T07:27:08Z</time>
      </trkpt>
      <trkpt lat="48.13451" lon="6.43564">
        <ele>436.58</ele>
        <time>2012-04-15T07:27:09Z</time>
      </trkpt>
      <trkpt lat="48.13443" lon="6.43572">
        <ele>434.65</ele>
        <time>2012-04-15T07:27:11Z</time>
      </trkpt>
      <trkpt lat="48.13432" lon="6.43584">
        <ele>430.33</ele>
        <time>2012-04-15T07:27:14Z</time>
      </trkpt>
      <trkpt lat="48.13427" lon="6.43588">
        <ele>426.48</ele>
        <time>2012-04-15T07:27:18Z</time>
      </trkpt>
      <trkpt lat="48.13423" lon="6.43588">
        <ele>425.04</ele>
        <time>2012-04-15T07:27:19Z</time>
      </trkpt>
      <trkpt lat="48.13417" lon="6.43591">
        <ele>423.6</ele>
        <time>2012-04-15T07:27:20Z</time>
      </trkpt>
      <trkpt lat="48.13411" lon="6.43597">
        <ele>422.16</ele>
        <time>2012-04-15T07:27:21Z</time>
      </trkpt>
      <trkpt lat="48.13405" lon="6.43605">
        <ele>420.71</ele>
        <time>2012-04-15T07:27:22Z</time>
      </trkpt>
      <trkpt lat="48.134" lon="6.43614">
        <ele>419.27</ele>
        <time>2012-04-15T07:27:23Z</time>
      </trkpt>
      <trkpt lat="48.13389" lon="6.43632">
        <ele>416.39</ele>
        <time>2012-04-15T07:27:25Z</time>
      </trkpt>
      <trkpt lat="48.13382" lon="6.43639">
        <ele>415.43</ele>
        <time>2012-04-15T07:27:26Z</time>
      </trkpt>
      <trkpt lat="48.13375" lon="6.43644">
        <ele>414.47</ele>
        <time>2012-04-15T07:27:27Z</time>
      </trkpt>
      <trkpt lat="48.13356" lon="6.43655">
        <ele>412.06</ele>
        <time>2012-04-15T07:27:30Z</time>
      </trkpt>
      <trkpt lat="48.1334" lon="6.43662">
        <ele>410.14</ele>
        <time>2012-04-15T07:27:35Z</time>
      </trkpt>
      <trkpt lat="48.13338" lon="6.43661">
        <ele>409.66</ele>
        <time>2012-04-15T07:27:36Z</time>
      </trkpt>
      <trkpt lat="48.13337" lon="6.4366">
        <ele>409.66</ele>
        <time>2012-04-15T07:27:37Z</time>
      </trkpt>
      <trkpt lat="48.13335" lon="6.43657">
        <ele>409.66</ele>
        <time>2012-04-15T07:27:38Z</time>
      </trkpt>
      <trkpt lat="48.13334" lon="6.43655">
        <ele>409.18</ele>
        <time>2012-04-15T07:27:39Z</time>
      </trkpt>
      <trkpt lat="48.13332" lon="6.43652">
        <ele>409.18</ele>
        <time>2012-04-15T07:27:40Z</time>
      </trkpt>
      <trkpt lat="48.13316" lon="6.43625">
        <ele>409.66</ele>
        <time>2012-04-15T07:27:50Z</time>
      </trkpt>
      <trkpt lat="48.13314" lon="6.43627">
        <ele>409.66</ele>
        <time>2012-04-15T07:27:51Z</time>
      </trkpt>
      <trkpt lat="48.13311" lon="6.43631">
        <ele>410.14</ele>
        <time>2012-04-15T07:27:52Z</time>
      </trkpt>
      <trkpt lat="48.1331" lon="6.43635">
        <ele>410.62</ele>
        <time>2012-04-15T07:27:53Z</time>
      </trkpt>
      <trkpt lat="48.13309" lon="6.4364">
        <ele>410.62</ele>
        <time>2012-04-15T07:27:54Z</time>
      </trkpt>
      <trkpt lat="48.13309" lon="6.43643">
        <ele>411.1</ele>
        <time>2012-04-15T07:27:55Z</time>
      </trkpt>
      <trkpt lat="48.1331" lon="6.43648">
        <ele>411.58</ele>
        <time>2012-04-15T07:27:56Z</time>
      </trkpt>
      <trkpt lat="48.13311" lon="6.43652">
        <ele>411.58</ele>
        <time>2012-04-15T07:27:57Z</time>
      </trkpt>
      <trkpt lat="48.13321" lon="6.43721">
        <ele>413.98</ele>
        <time>2012-04-15T07:28:12Z</time>
      </trkpt>
      <trkpt lat="48.13305" lon="6.43769">
        <ele>413.98</ele>
        <time>2012-04-15T07:28:23Z</time>
      </trkpt>
      <trkpt lat="48.13296" lon="6.4383">
        <ele>416.39</ele>
        <time>2012-04-15T07:28:36Z</time>
      </trkpt>
      <trkpt lat="48.13288" lon="6.43881">
        <ele>416.39</ele>
        <time>2012-04-15T07:28:48Z</time>
      </trkpt>
      <trkpt lat="48.13285" lon="6.43936">
        <ele>416.39</ele>
        <time>2012-04-15T07:28:58Z</time>
      </trkpt>
      <trkpt lat="48.13285" lon="6.43959">
        <ele>416.39</ele>
        <time>2012-04-15T07:29:02Z</time>
      </trkpt>
      <trkpt lat="48.13284" lon="6.43966">
        <ele>416.39</ele>
        <time>2012-04-15T07:29:03Z</time>
      </trkpt>
      <trkpt lat="48.13284" lon="6.43973">
        <ele>416.39</ele>
        <time>2012-04-15T07:29:04Z</time>
      </trkpt>
      <trkpt lat="48.13282" lon="6.44082">
        <ele>415.43</ele>
        <time>2012-04-15T07:29:20Z</time>
      </trkpt>
      <trkpt lat="48.13288" lon="6.44133">
        <ele>415.43</ele>
        <time>2012-04-15T07:29:28Z</time>
      </trkpt>
      <trkpt lat="48.13288" lon="6.44139">
        <ele>414.95</ele>
        <time>2012-04-15T07:29:29Z</time>
      </trkpt>
      <trkpt lat="48.13304" lon="6.44222">
        <ele>414.47</ele>
        <time>2012-04-15T07:29:44Z</time>
      </trkpt>
      <trkpt lat="48.13303" lon="6.44227">
        <ele>414.47</ele>
        <time>2012-04-15T07:29:45Z</time>
      </trkpt>
      <trkpt lat="48.13301" lon="6.44231">
        <ele>414.47</ele>
        <time>2012-04-15T07:29:46Z</time>
      </trkpt>
      <trkpt lat="48.13297" lon="6.44232">
        <ele>414.47</ele>
        <time>2012-04-15T07:29:47Z</time>
      </trkpt>
      <trkpt lat="48.13294" lon="6.44233">
        <ele>414.47</ele>
        <time>2012-04-15T07:29:48Z</time>
      </trkpt>
      <trkpt lat="48.1329" lon="6.44235">
        <ele>414.47</ele>
        <time>2012-04-15T07:29:49Z</time>
      </trkpt>
      <trkpt lat="48.13287" lon="6.44236">
        <ele>414.47</ele>
        <time>2012-04-15T07:29:50Z</time>
      </trkpt>
      <trkpt lat="48.1326" lon="6.44239">
        <ele>414.95</ele>
        <time>2012-04-15T07:29:57Z</time>
      </trkpt>
      <trkpt lat="48.13194" lon="6.4423">
        <ele>418.31</ele>
        <time>2012-04-15T07:30:15Z</time>
      </trkpt>
      <trkpt lat="48.13153" lon="6.44255">
        <ele>418.79</ele>
        <time>2012-04-15T07:30:27Z</time>
      </trkpt>
      <trkpt lat="48.13131" lon="6.44261">
        <ele>418.31</ele>
        <time>2012-04-15T07:30:32Z</time>
      </trkpt>
      <trkpt lat="48.13124" lon="6.44261">
        <ele>418.31</ele>
        <time>2012-04-15T07:30:33Z</time>
      </trkpt>
      <trkpt lat="48.13055" lon="6.44261">
        <ele>416.39</ele>
        <time>2012-04-15T07:30:43Z</time>
      </trkpt>
      <trkpt lat="48.12974" lon="6.44298">
        <ele>412.54</ele>
        <time>2012-04-15T07:30:54Z</time>
      </trkpt>
      <trkpt lat="48.12962" lon="6.44307">
        <ele>412.06</ele>
        <time>2012-04-15T07:30:56Z</time>
      </trkpt>
      <trkpt lat="48.12957" lon="6.44313">
        <ele>412.06</ele>
        <time>2012-04-15T07:30:57Z</time>
      </trkpt>
      <trkpt lat="48.12953" lon="6.44319">
        <ele>411.58</ele>
        <time>2012-04-15T07:30:58Z</time>
      </trkpt>
      <trkpt lat="48.12942" lon="6.44335">
        <ele>411.58</ele>
        <time>2012-04-15T07:31:01Z</time>
      </trkpt>
      <trkpt lat="48.12941" lon="6.4434">
        <ele>411.58</ele>
        <time>2012-04-15T07:31:02Z</time>
      </trkpt>
      <trkpt lat="48.12941" lon="6.44345">
        <ele>411.58</ele>
        <time>2012-04-15T07:31:03Z</time>
      </trkpt>
      <trkpt lat="48.12941" lon="6.44349">
        <ele>411.58</ele>
        <time>2012-04-15T07:31:04Z</time>
      </trkpt>
      <trkpt lat="48.12941" lon="6.44353">
        <ele>411.58</ele>
        <time>2012-04-15T07:31:05Z</time>
      </trkpt>
      <trkpt lat="48.12957" lon="6.44388">
        <ele>409.66</ele>
        <time>2012-04-15T07:31:15Z</time>
      </trkpt>
      <trkpt lat="48.12974" lon="6.44439">
        <ele>407.26</ele>
        <time>2012-04-15T07:31:27Z</time>
      </trkpt>
      <trkpt lat="48.12964" lon="6.44514">
        <ele>406.29</ele>
        <time>2012-04-15T07:31:42Z</time>
      </trkpt>
      <trkpt lat="48.12955" lon="6.44564">
        <ele>405.81</ele>
        <time>2012-04-15T07:31:53Z</time>
      </trkpt>
      <trkpt lat="48.1296" lon="6.44612">
        <ele>409.18</ele>
        <time>2012-04-15T07:32:05Z</time>
      </trkpt>
      <trkpt lat="48.1297" lon="6.44658">
        <ele>412.54</ele>
        <time>2012-04-15T07:32:18Z</time>
      </trkpt>
      <trkpt lat="48.12978" lon="6.44686">
        <ele>417.83</ele>
        <time>2012-04-15T07:32:29Z</time>
      </trkpt>
      <trkpt lat="48.1297" lon="6.44727">
        <ele>421.19</ele>
        <time>2012-04-15T07:32:44Z</time>
      </trkpt>
      <trkpt lat="48.12964" lon="6.44746">
        <ele>424.08</ele>
        <time>2012-04-15T07:32:52Z</time>
      </trkpt>
      <trkpt lat="48.12964" lon="6.44748">
        <ele>424.56</ele>
        <time>2012-04-15T07:32:53Z</time>
      </trkpt>
      <trkpt lat="48.12964" lon="6.4475">
        <ele>425.04</ele>
        <time>2012-04-15T07:32:54Z</time>
      </trkpt>
      <trkpt lat="48.12964" lon="6.44763">
        <ele>426.48</ele>
        <time>2012-04-15T07:33:08Z</time>
      </trkpt>
      <trkpt lat="48.12964" lon="6.44763">
        <ele>426.48</ele>
        <time>2012-04-15T07:33:28Z</time>
      </trkpt>
      <trkpt lat="48.12964" lon="6.44763">
        <ele>427.92</ele>
        <time>2012-04-15T07:33:50Z</time>
      </trkpt>
      <trkpt lat="48.12963" lon="6.44763">
        <ele>427.92</ele>
        <time>2012-04-15T07:33:51Z</time>
      </trkpt>
      <trkpt lat="48.12946" lon="6.44778">
        <ele>426.96</ele>
        <time>2012-04-15T07:34:02Z</time>
      </trkpt>
      <trkpt lat="48.12927" lon="6.44795">
        <ele>430.33</ele>
        <time>2012-04-15T07:34:16Z</time>
      </trkpt>
      <trkpt lat="48.12915" lon="6.44808">
        <ele>432.73</ele>
        <time>2012-04-15T07:34:26Z</time>
      </trkpt>
      <trkpt lat="48.12909" lon="6.44811">
        <ele>434.17</ele>
        <time>2012-04-15T07:34:31Z</time>
      </trkpt>
      <trkpt lat="48.12896" lon="6.4482">
        <ele>438.02</ele>
        <time>2012-04-15T07:34:43Z</time>
      </trkpt>
      <trkpt lat="48.12879" lon="6.44833">
        <ele>445.23</ele>
        <time>2012-04-15T07:34:55Z</time>
      </trkpt>
      <trkpt lat="48.12862" lon="6.44854">
        <ele>452.44</ele>
        <time>2012-04-15T07:35:09Z</time>
      </trkpt>
      <trkpt lat="48.12861" lon="6.44858">
        <ele>455.8</ele>
        <time>2012-04-15T07:35:24Z</time>
      </trkpt>
      <trkpt lat="48.12861" lon="6.44862">
        <ele>458.21</ele>
        <time>2012-04-15T07:35:49Z</time>
      </trkpt>
      <trkpt lat="48.12851" lon="6.44878">
        <ele>456.76</ele>
        <time>2012-04-15T07:35:59Z</time>
      </trkpt>
      <trkpt lat="48.12838" lon="6.44918">
        <ele>459.17</ele>
        <time>2012-04-15T07:36:11Z</time>
      </trkpt>
      <trkpt lat="48.12847" lon="6.4496">
        <ele>464.45</ele>
        <time>2012-04-15T07:36:23Z</time>
      </trkpt>
      <trkpt lat="48.1286" lon="6.44999">
        <ele>468.3</ele>
        <time>2012-04-15T07:36:37Z</time>
      </trkpt>
      <trkpt lat="48.12865" lon="6.45009">
        <ele>471.18</ele>
        <time>2012-04-15T07:36:42Z</time>
      </trkpt>
      <trkpt lat="48.12869" lon="6.45028">
        <ele>473.11</ele>
        <time>2012-04-15T07:36:49Z</time>
      </trkpt>
      <trkpt lat="48.1287" lon="6.4506">
        <ele>481.28</ele>
        <time>2012-04-15T07:37:04Z</time>
      </trkpt>
      <trkpt lat="48.12871" lon="6.45073">
        <ele>484.16</ele>
        <time>2012-04-15T07:37:11Z</time>
      </trkpt>
      <trkpt lat="48.12873" lon="6.45081">
        <ele>487.05</ele>
        <time>2012-04-15T07:37:27Z</time>
      </trkpt>
      <trkpt lat="48.12872" lon="6.45084">
        <ele>486.56</ele>
        <time>2012-04-15T07:37:44Z</time>
      </trkpt>
      <trkpt lat="48.12874" lon="6.45085">
        <ele>486.56</ele>
        <time>2012-04-15T07:37:46Z</time>
      </trkpt>
      <trkpt lat="48.12897" lon="6.45105">
        <ele>490.41</ele>
        <time>2012-04-15T07:38:00Z</time>
      </trkpt>
      <trkpt lat="48.12923" lon="6.45123">
        <ele>490.41</ele>
        <time>2012-04-15T07:38:12Z</time>
      </trkpt>
      <trkpt lat="48.12963" lon="6.45162">
        <ele>488.01</ele>
        <time>2012-04-15T07:38:26Z</time>
      </trkpt>
      <trkpt lat="48.12994" lon="6.45211">
        <ele>486.56</ele>
        <time>2012-04-15T07:38:38Z</time>
      </trkpt>
      <trkpt lat="48.13001" lon="6.45221">
        <ele>485.12</ele>
        <time>2012-04-15T07:38:41Z</time>
      </trkpt>
      <trkpt lat="48.13002" lon="6.45241">
        <ele>484.16</ele>
        <time>2012-04-15T07:38:48Z</time>
      </trkpt>
      <trkpt lat="48.12999" lon="6.45257">
        <ele>484.16</ele>
        <time>2012-04-15T07:38:53Z</time>
      </trkpt>
      <trkpt lat="48.12996" lon="6.4526">
        <ele>484.16</ele>
        <time>2012-04-15T07:38:58Z</time>
      </trkpt>
      <trkpt lat="48.12992" lon="6.45259">
        <ele>484.16</ele>
        <time>2012-04-15T07:39:02Z</time>
      </trkpt>
      <trkpt lat="48.12965" lon="6.45234">
        <ele>486.08</ele>
        <time>2012-04-15T07:39:17Z</time>
      </trkpt>
      <trkpt lat="48.12937" lon="6.45211">
        <ele>487.53</ele>
        <time>2012-04-15T07:39:29Z</time>
      </trkpt>
      <trkpt lat="48.12908" lon="6.4518">
        <ele>488.01</ele>
        <time>2012-04-15T07:39:41Z</time>
      </trkpt>
      <trkpt lat="48.12883" lon="6.45152">
        <ele>488.01</ele>
        <time>2012-04-15T07:39:52Z</time>
      </trkpt>
      <trkpt lat="48.12882" lon="6.45151">
        <ele>488.01</ele>
        <time>2012-04-15T07:39:53Z</time>
      </trkpt>
      <trkpt lat="48.12878" lon="6.45142">
        <ele>487.05</ele>
        <time>2012-04-15T07:39:57Z</time>
      </trkpt>
      <trkpt lat="48.12868" lon="6.45134">
        <ele>488.01</ele>
        <time>2012-04-15T07:40:02Z</time>
      </trkpt>
      <trkpt lat="48.12834" lon="6.45095">
        <ele>488.49</ele>
        <time>2012-04-15T07:40:15Z</time>
      </trkpt>
      <trkpt lat="48.12826" lon="6.45081">
        <ele>488.49</ele>
        <time>2012-04-15T07:40:20Z</time>
      </trkpt>
      <trkpt lat="48.12819" lon="6.45074">
        <ele>488.97</ele>
        <time>2012-04-15T07:40:24Z</time>
      </trkpt>
      <trkpt lat="48.12786" lon="6.45039">
        <ele>489.93</ele>
        <time>2012-04-15T07:40:36Z</time>
      </trkpt>
      <trkpt lat="48.12757" lon="6.44993">
        <ele>491.37</ele>
        <time>2012-04-15T07:40:49Z</time>
      </trkpt>
      <trkpt lat="48.12731" lon="6.4495">
        <ele>492.81</ele>
        <time>2012-04-15T07:41:01Z</time>
      </trkpt>
      <trkpt lat="48.12708" lon="6.44914">
        <ele>493.77</ele>
        <time>2012-04-15T07:41:11Z</time>
      </trkpt>
      <trkpt lat="48.12676" lon="6.44868">
        <ele>493.77</ele>
        <time>2012-04-15T07:41:24Z</time>
      </trkpt>
      <trkpt lat="48.12644" lon="6.44821">
        <ele>494.74</ele>
        <time>2012-04-15T07:41:37Z</time>
      </trkpt>
      <trkpt lat="48.12641" lon="6.44818">
        <ele>494.74</ele>
        <time>2012-04-15T07:41:38Z</time>
      </trkpt>
      <trkpt lat="48.12635" lon="6.4482">
        <ele>494.74</ele>
        <time>2012-04-15T07:41:42Z</time>
      </trkpt>
      <trkpt lat="48.12609" lon="6.44848">
        <ele>494.74</ele>
        <time>2012-04-15T07:41:55Z</time>
      </trkpt>
      <trkpt lat="48.12603" lon="6.44853">
        <ele>495.22</ele>
        <time>2012-04-15T07:41:57Z</time>
      </trkpt>
      <trkpt lat="48.1256" lon="6.44846">
        <ele>499.06</ele>
        <time>2012-04-15T07:42:10Z</time>
      </trkpt>
      <trkpt lat="48.12516" lon="6.4485">
        <ele>500.98</ele>
        <time>2012-04-15T07:42:22Z</time>
      </trkpt>
      <trkpt lat="48.12471" lon="6.44847">
        <ele>503.87</ele>
        <time>2012-04-15T07:42:35Z</time>
      </trkpt>
      <trkpt lat="48.12435" lon="6.44825">
        <ele>504.35</ele>
        <time>2012-04-15T07:42:47Z</time>
      </trkpt>
      <trkpt lat="48.12414" lon="6.44797">
        <ele>503.39</ele>
        <time>2012-04-15T07:42:58Z</time>
      </trkpt>
      <trkpt lat="48.124" lon="6.44766">
        <ele>509.16</ele>
        <time>2012-04-15T07:43:11Z</time>
      </trkpt>
      <trkpt lat="48.12367" lon="6.44746">
        <ele>513.96</ele>
        <time>2012-04-15T07:43:24Z</time>
      </trkpt>
      <trkpt lat="48.12339" lon="6.44734">
        <ele>517.81</ele>
        <time>2012-04-15T07:43:35Z</time>
      </trkpt>
      <trkpt lat="48.12309" lon="6.4473">
        <ele>519.25</ele>
        <time>2012-04-15T07:43:47Z</time>
      </trkpt>
      <trkpt lat="48.12304" lon="6.4473">
        <ele>519.73</ele>
        <time>2012-04-15T07:43:48Z</time>
      </trkpt>
      <trkpt lat="48.12299" lon="6.44731">
        <ele>519.73</ele>
        <time>2012-04-15T07:43:49Z</time>
      </trkpt>
      <trkpt lat="48.12295" lon="6.44734">
        <ele>520.21</ele>
        <time>2012-04-15T07:43:50Z</time>
      </trkpt>
      <trkpt lat="48.12291" lon="6.44738">
        <ele>520.69</ele>
        <time>2012-04-15T07:43:51Z</time>
      </trkpt>
      <trkpt lat="48.12286" lon="6.44742">
        <ele>520.69</ele>
        <time>2012-04-15T07:43:52Z</time>
      </trkpt>
      <trkpt lat="48.12241" lon="6.44768">
        <ele>522.13</ele>
        <time>2012-04-15T07:44:03Z</time>
      </trkpt>
      <trkpt lat="48.12235" lon="6.44769">
        <ele>521.65</ele>
        <time>2012-04-15T07:44:04Z</time>
      </trkpt>
      <trkpt lat="48.12206" lon="6.44774">
        <ele>517.33</ele>
        <time>2012-04-15T07:44:14Z</time>
      </trkpt>
      <trkpt lat="48.12193" lon="6.4478">
        <ele>512.04</ele>
        <time>2012-04-15T07:44:24Z</time>
      </trkpt>
      <trkpt lat="48.12162" lon="6.44779">
        <ele>511.56</ele>
        <time>2012-04-15T07:44:34Z</time>
      </trkpt>
      <trkpt lat="48.12115" lon="6.4476">
        <ele>511.08</ele>
        <time>2012-04-15T07:44:46Z</time>
      </trkpt>
      <trkpt lat="48.12081" lon="6.44736">
        <ele>508.67</ele>
        <time>2012-04-15T07:44:55Z</time>
      </trkpt>
      <trkpt lat="48.12076" lon="6.44733">
        <ele>508.19</ele>
        <time>2012-04-15T07:44:56Z</time>
      </trkpt>
      <trkpt lat="48.12072" lon="6.44731">
        <ele>507.71</ele>
        <time>2012-04-15T07:44:57Z</time>
      </trkpt>
      <trkpt lat="48.12031" lon="6.44705">
        <ele>505.31</ele>
        <time>2012-04-15T07:45:07Z</time>
      </trkpt>
      <trkpt lat="48.11981" lon="6.44668">
        <ele>497.14</ele>
        <time>2012-04-15T07:45:19Z</time>
      </trkpt>
      <trkpt lat="48.11977" lon="6.44665">
        <ele>496.66</ele>
        <time>2012-04-15T07:45:20Z</time>
      </trkpt>
      <trkpt lat="48.11973" lon="6.44661">
        <ele>496.18</ele>
        <time>2012-04-15T07:45:21Z</time>
      </trkpt>
      <trkpt lat="48.11931" lon="6.4463">
        <ele>487.05</ele>
        <time>2012-04-15T07:45:33Z</time>
      </trkpt>
      <trkpt lat="48.11927" lon="6.44627">
        <ele>486.56</ele>
        <time>2012-04-15T07:45:34Z</time>
      </trkpt>
      <trkpt lat="48.11923" lon="6.44623">
        <ele>486.08</ele>
        <time>2012-04-15T07:45:35Z</time>
      </trkpt>
      <trkpt lat="48.11918" lon="6.44619">
        <ele>485.6</ele>
        <time>2012-04-15T07:45:36Z</time>
      </trkpt>
      <trkpt lat="48.11914" lon="6.44615">
        <ele>485.12</ele>
        <time>2012-04-15T07:45:37Z</time>
      </trkpt>
      <trkpt lat="48.1191" lon="6.44611">
        <ele>484.64</ele>
        <time>2012-04-15T07:45:38Z</time>
      </trkpt>
      <trkpt lat="48.1189" lon="6.44597">
        <ele>482.24</ele>
        <time>2012-04-15T07:45:43Z</time>
      </trkpt>
      <trkpt lat="48.11885" lon="6.44594">
        <ele>482.24</ele>
        <time>2012-04-15T07:45:44Z</time>
      </trkpt>
      <trkpt lat="48.1188" lon="6.44593">
        <ele>482.24</ele>
        <time>2012-04-15T07:45:45Z</time>
      </trkpt>
      <trkpt lat="48.11875" lon="6.44591">
        <ele>481.76</ele>
        <time>2012-04-15T07:45:46Z</time>
      </trkpt>
      <trkpt lat="48.1187" lon="6.44589">
        <ele>481.28</ele>
        <time>2012-04-15T07:45:47Z</time>
      </trkpt>
      <trkpt lat="48.11866" lon="6.44587">
        <ele>480.32</ele>
        <time>2012-04-15T07:45:48Z</time>
      </trkpt>
      <trkpt lat="48.11861" lon="6.44585">
        <ele>479.84</ele>
        <time>2012-04-15T07:45:49Z</time>
      </trkpt>
      <trkpt lat="48.11856" lon="6.44583">
        <ele>479.35</ele>
        <time>2012-04-15T07:45:50Z</time>
      </trkpt>
      <trkpt lat="48.11849" lon="6.44582">
        <ele>478.87</ele>
        <time>2012-04-15T07:45:51Z</time>
      </trkpt>
      <trkpt lat="48.11837" lon="6.44579">
        <ele>476.95</ele>
        <time>2012-04-15T07:45:53Z</time>
      </trkpt>
      <trkpt lat="48.11832" lon="6.44576">
        <ele>475.99</ele>
        <time>2012-04-15T07:45:54Z</time>
      </trkpt>
      <trkpt lat="48.11828" lon="6.4457">
        <ele>475.51</ele>
        <time>2012-04-15T07:45:55Z</time>
      </trkpt>
      <trkpt lat="48.11825" lon="6.44561">
        <ele>474.55</ele>
        <time>2012-04-15T07:45:56Z</time>
      </trkpt>
      <trkpt lat="48.11822" lon="6.44552">
        <ele>473.59</ele>
        <time>2012-04-15T07:45:57Z</time>
      </trkpt>
      <trkpt lat="48.11819" lon="6.44542">
        <ele>473.11</ele>
        <time>2012-04-15T07:45:58Z</time>
      </trkpt>
      <trkpt lat="48.11817" lon="6.44532">
        <ele>472.14</ele>
        <time>2012-04-15T07:45:59Z</time>
      </trkpt>
      <trkpt lat="48.11815" lon="6.44522">
        <ele>471.66</ele>
        <time>2012-04-15T07:46:00Z</time>
      </trkpt>
      <trkpt lat="48.11813" lon="6.44511">
        <ele>470.7</ele>
        <time>2012-04-15T07:46:01Z</time>
      </trkpt>
      <trkpt lat="48.11803" lon="6.44396">
        <ele>464.93</ele>
        <time>2012-04-15T07:46:10Z</time>
      </trkpt>
      <trkpt lat="48.11808" lon="6.4433">
        <ele>463.01</ele>
        <time>2012-04-15T07:46:15Z</time>
      </trkpt>
      <trkpt lat="48.11807" lon="6.44305">
        <ele>462.05</ele>
        <time>2012-04-15T07:46:17Z</time>
      </trkpt>
      <trkpt lat="48.11805" lon="6.44293">
        <ele>462.05</ele>
        <time>2012-04-15T07:46:18Z</time>
      </trkpt>
      <trkpt lat="48.11799" lon="6.4427">
        <ele>461.57</ele>
        <time>2012-04-15T07:46:20Z</time>
      </trkpt>
      <trkpt lat="48.11795" lon="6.44259">
        <ele>461.09</ele>
        <time>2012-04-15T07:46:21Z</time>
      </trkpt>
      <trkpt lat="48.11783" lon="6.44235">
        <ele>460.61</ele>
        <time>2012-04-15T07:46:24Z</time>
      </trkpt>
      <trkpt lat="48.11779" lon="6.44232">
        <ele>460.13</ele>
        <time>2012-04-15T07:46:25Z</time>
      </trkpt>
      <trkpt lat="48.11775" lon="6.44232">
        <ele>460.61</ele>
        <time>2012-04-15T07:46:26Z</time>
      </trkpt>
      <trkpt lat="48.11772" lon="6.44232">
        <ele>460.13</ele>
        <time>2012-04-15T07:46:27Z</time>
      </trkpt>
      <trkpt lat="48.11768" lon="6.44235">
        <ele>460.61</ele>
        <time>2012-04-15T07:46:28Z</time>
      </trkpt>
      <trkpt lat="48.11764" lon="6.44239">
        <ele>460.61</ele>
        <time>2012-04-15T07:46:29Z</time>
      </trkpt>
      <trkpt lat="48.1176" lon="6.44244">
        <ele>461.09</ele>
        <time>2012-04-15T07:46:30Z</time>
      </trkpt>
      <trkpt lat="48.11718" lon="6.44302">
        <ele>465.9</ele>
        <time>2012-04-15T07:46:40Z</time>
      </trkpt>
      <trkpt lat="48.11706" lon="6.44323">
        <ele>466.38</ele>
        <time>2012-04-15T07:46:43Z</time>
      </trkpt>
      <trkpt lat="48.11653" lon="6.44422">
        <ele>462.05</ele>
        <time>2012-04-15T07:46:57Z</time>
      </trkpt>
      <trkpt lat="48.11646" lon="6.44437">
        <ele>461.57</ele>
        <time>2012-04-15T07:46:59Z</time>
      </trkpt>
      <trkpt lat="48.11594" lon="6.44569">
        <ele>451.48</ele>
        <time>2012-04-15T07:47:14Z</time>
      </trkpt>
      <trkpt lat="48.11552" lon="6.44704">
        <ele>447.15</ele>
        <time>2012-04-15T07:47:29Z</time>
      </trkpt>
      <trkpt lat="48.11544" lon="6.44746">
        <ele>445.71</ele>
        <time>2012-04-15T07:47:34Z</time>
      </trkpt>
      <trkpt lat="48.11543" lon="6.44754">
        <ele>445.71</ele>
        <time>2012-04-15T07:47:35Z</time>
      </trkpt>
      <trkpt lat="48.11543" lon="6.44762">
        <ele>445.71</ele>
        <time>2012-04-15T07:47:36Z</time>
      </trkpt>
      <trkpt lat="48.11543" lon="6.44769">
        <ele>445.23</ele>
        <time>2012-04-15T07:47:37Z</time>
      </trkpt>
      <trkpt lat="48.11544" lon="6.44777">
        <ele>445.23</ele>
        <time>2012-04-15T07:47:38Z</time>
      </trkpt>
      <trkpt lat="48.11544" lon="6.44782">
        <ele>445.23</ele>
        <time>2012-04-15T07:47:39Z</time>
      </trkpt>
      <trkpt lat="48.11543" lon="6.44807">
        <ele>444.75</ele>
        <time>2012-04-15T07:47:44Z</time>
      </trkpt>
      <trkpt lat="48.11543" lon="6.44829">
        <ele>445.71</ele>
        <time>2012-04-15T07:47:47Z</time>
      </trkpt>
      <trkpt lat="48.11542" lon="6.44855">
        <ele>446.67</ele>
        <time>2012-04-15T07:47:50Z</time>
      </trkpt>
      <trkpt lat="48.11541" lon="6.44863">
        <ele>447.15</ele>
        <time>2012-04-15T07:47:51Z</time>
      </trkpt>
      <trkpt lat="48.1154" lon="6.44872">
        <ele>447.15</ele>
        <time>2012-04-15T07:47:52Z</time>
      </trkpt>
      <trkpt lat="48.11539" lon="6.4488">
        <ele>447.63</ele>
        <time>2012-04-15T07:47:53Z</time>
      </trkpt>
      <trkpt lat="48.11539" lon="6.44889">
        <ele>447.63</ele>
        <time>2012-04-15T07:47:54Z</time>
      </trkpt>
      <trkpt lat="48.11539" lon="6.44898">
        <ele>448.11</ele>
        <time>2012-04-15T07:47:55Z</time>
      </trkpt>
      <trkpt lat="48.11542" lon="6.44943">
        <ele>448.59</ele>
        <time>2012-04-15T07:48:00Z</time>
      </trkpt>
      <trkpt lat="48.11562" lon="6.45026">
        <ele>448.59</ele>
        <time>2012-04-15T07:48:09Z</time>
      </trkpt>
      <trkpt lat="48.11586" lon="6.45091">
        <ele>448.11</ele>
        <time>2012-04-15T07:48:18Z</time>
      </trkpt>
      <trkpt lat="48.11588" lon="6.45097">
        <ele>448.11</ele>
        <time>2012-04-15T07:48:19Z</time>
      </trkpt>
      <trkpt lat="48.11591" lon="6.45104">
        <ele>448.11</ele>
        <time>2012-04-15T07:48:20Z</time>
      </trkpt>
      <trkpt lat="48.11608" lon="6.4514">
        <ele>448.11</ele>
        <time>2012-04-15T07:48:27Z</time>
      </trkpt>
      <trkpt lat="48.11611" lon="6.45146">
        <ele>448.11</ele>
        <time>2012-04-15T07:48:28Z</time>
      </trkpt>
      <trkpt lat="48.11613" lon="6.45153">
        <ele>447.63</ele>
        <time>2012-04-15T07:48:29Z</time>
      </trkpt>
      <trkpt lat="48.11619" lon="6.4517">
        <ele>446.67</ele>
        <time>2012-04-15T07:48:31Z</time>
      </trkpt>
      <trkpt lat="48.11623" lon="6.45178">
        <ele>446.19</ele>
        <time>2012-04-15T07:48:32Z</time>
      </trkpt>
      <trkpt lat="48.11628" lon="6.45185">
        <ele>445.71</ele>
        <time>2012-04-15T07:48:33Z</time>
      </trkpt>
      <trkpt lat="48.11634" lon="6.45191">
        <ele>445.23</ele>
        <time>2012-04-15T07:48:34Z</time>
      </trkpt>
      <trkpt lat="48.11642" lon="6.45198">
        <ele>444.27</ele>
        <time>2012-04-15T07:48:35Z</time>
      </trkpt>
      <trkpt lat="48.11649" lon="6.45204">
        <ele>443.31</ele>
        <time>2012-04-15T07:48:36Z</time>
      </trkpt>
      <trkpt lat="48.11706" lon="6.45239">
        <ele>434.17</ele>
        <time>2012-04-15T07:48:45Z</time>
      </trkpt>
      <trkpt lat="48.11708" lon="6.45239">
        <ele>433.69</ele>
        <time>2012-04-15T07:48:46Z</time>
      </trkpt>
      <trkpt lat="48.11726" lon="6.4523">
        <ele>432.25</ele>
        <time>2012-04-15T07:48:57Z</time>
      </trkpt>
      <trkpt lat="48.11728" lon="6.45228">
        <ele>432.73</ele>
        <time>2012-04-15T07:48:59Z</time>
      </trkpt>
      <trkpt lat="48.1173" lon="6.45228">
        <ele>432.73</ele>
        <time>2012-04-15T07:49:00Z</time>
      </trkpt>
      <trkpt lat="48.11732" lon="6.45228">
        <ele>433.21</ele>
        <time>2012-04-15T07:49:01Z</time>
      </trkpt>
      <trkpt lat="48.11733" lon="6.45228">
        <ele>433.69</ele>
        <time>2012-04-15T07:49:02Z</time>
      </trkpt>
      <trkpt lat="48.11735" lon="6.45227">
        <ele>434.17</ele>
        <time>2012-04-15T07:49:04Z</time>
      </trkpt>
      <trkpt lat="48.11737" lon="6.45225">
        <ele>435.13</ele>
        <time>2012-04-15T07:49:06Z</time>
      </trkpt>
      <trkpt lat="48.11739" lon="6.45224">
        <ele>435.13</ele>
        <time>2012-04-15T07:49:07Z</time>
      </trkpt>
      <trkpt lat="48.1174" lon="6.45223">
        <ele>435.61</ele>
        <time>2012-04-15T07:49:08Z</time>
      </trkpt>
      <trkpt lat="48.11742" lon="6.45222">
        <ele>436.1</ele>
        <time>2012-04-15T07:49:09Z</time>
      </trkpt>
      <trkpt lat="48.11744" lon="6.45221">
        <ele>436.58</ele>
        <time>2012-04-15T07:49:10Z</time>
      </trkpt>
      <trkpt lat="48.11745" lon="6.45221">
        <ele>437.06</ele>
        <time>2012-04-15T07:49:11Z</time>
      </trkpt>
      <trkpt lat="48.11747" lon="6.45221">
        <ele>437.54</ele>
        <time>2012-04-15T07:49:12Z</time>
      </trkpt>
      <trkpt lat="48.11749" lon="6.4522">
        <ele>438.02</ele>
        <time>2012-04-15T07:49:13Z</time>
      </trkpt>
      <trkpt lat="48.11774" lon="6.45211">
        <ele>444.27</ele>
        <time>2012-04-15T07:49:25Z</time>
      </trkpt>
      <trkpt lat="48.11803" lon="6.45199">
        <ele>449.55</ele>
        <time>2012-04-15T07:49:38Z</time>
      </trkpt>
      <trkpt lat="48.1183" lon="6.45181">
        <ele>449.07</ele>
        <time>2012-04-15T07:49:50Z</time>
      </trkpt>
      <trkpt lat="48.11833" lon="6.4518">
        <ele>449.55</ele>
        <time>2012-04-15T07:49:52Z</time>
      </trkpt>
      <trkpt lat="48.11849" lon="6.45175">
        <ele>452.44</ele>
        <time>2012-04-15T07:50:02Z</time>
      </trkpt>
      <trkpt lat="48.11863" lon="6.45178">
        <ele>456.76</ele>
        <time>2012-04-15T07:50:09Z</time>
      </trkpt>
      <trkpt lat="48.11879" lon="6.45186">
        <ele>462.05</ele>
        <time>2012-04-15T07:50:20Z</time>
      </trkpt>
      <trkpt lat="48.11882" lon="6.45187">
        <ele>462.53</ele>
        <time>2012-04-15T07:50:22Z</time>
      </trkpt>
      <trkpt lat="48.11897" lon="6.45162">
        <ele>465.9</ele>
        <time>2012-04-15T07:50:30Z</time>
      </trkpt>
      <trkpt lat="48.119" lon="6.45143">
        <ele>466.38</ele>
        <time>2012-04-15T07:50:36Z</time>
      </trkpt>
      <trkpt lat="48.11911" lon="6.45093">
        <ele>464.45</ele>
        <time>2012-04-15T07:50:46Z</time>
      </trkpt>
      <trkpt lat="48.11915" lon="6.4508">
        <ele>464.45</ele>
        <time>2012-04-15T07:50:50Z</time>
      </trkpt>
      <trkpt lat="48.1194" lon="6.45056">
        <ele>463.01</ele>
        <time>2012-04-15T07:51:01Z</time>
      </trkpt>
      <trkpt lat="48.11964" lon="6.45025">
        <ele>461.09</ele>
        <time>2012-04-15T07:51:12Z</time>
      </trkpt>
      <trkpt lat="48.11981" lon="6.45012">
        <ele>460.13</ele>
        <time>2012-04-15T07:51:22Z</time>
      </trkpt>
      <trkpt lat="48.11982" lon="6.45012">
        <ele>460.61</ele>
        <time>2012-04-15T07:51:23Z</time>
      </trkpt>
      <trkpt lat="48.11985" lon="6.45032">
        <ele>460.61</ele>
        <time>2012-04-15T07:51:28Z</time>
      </trkpt>
      <trkpt lat="48.11985" lon="6.45039">
        <ele>460.61</ele>
        <time>2012-04-15T07:51:29Z</time>
      </trkpt>
      <trkpt lat="48.11986" lon="6.45047">
        <ele>460.61</ele>
        <time>2012-04-15T07:51:30Z</time>
      </trkpt>
      <trkpt lat="48.11987" lon="6.45056">
        <ele>460.61</ele>
        <time>2012-04-15T07:51:31Z</time>
      </trkpt>
      <trkpt lat="48.11992" lon="6.45109">
        <ele>456.76</ele>
        <time>2012-04-15T07:51:37Z</time>
      </trkpt>
      <trkpt lat="48.1201" lon="6.45224">
        <ele>447.15</ele>
        <time>2012-04-15T07:51:48Z</time>
      </trkpt>
      <trkpt lat="48.12011" lon="6.45234">
        <ele>446.19</ele>
        <time>2012-04-15T07:51:49Z</time>
      </trkpt>
      <trkpt lat="48.12013" lon="6.45261">
        <ele>444.75</ele>
        <time>2012-04-15T07:51:52Z</time>
      </trkpt>
      <trkpt lat="48.12015" lon="6.45315">
        <ele>438.98</ele>
        <time>2012-04-15T07:52:00Z</time>
      </trkpt>
      <trkpt lat="48.12016" lon="6.45335">
        <ele>437.54</ele>
        <time>2012-04-15T07:52:03Z</time>
      </trkpt>
      <trkpt lat="48.12015" lon="6.45342">
        <ele>437.06</ele>
        <time>2012-04-15T07:52:04Z</time>
      </trkpt>
      <trkpt lat="48.12012" lon="6.45348">
        <ele>436.58</ele>
        <time>2012-04-15T07:52:05Z</time>
      </trkpt>
      <trkpt lat="48.12009" lon="6.45353">
        <ele>435.61</ele>
        <time>2012-04-15T07:52:06Z</time>
      </trkpt>
      <trkpt lat="48.12007" lon="6.45358">
        <ele>435.13</ele>
        <time>2012-04-15T07:52:07Z</time>
      </trkpt>
      <trkpt lat="48.12005" lon="6.45364">
        <ele>434.65</ele>
        <time>2012-04-15T07:52:08Z</time>
      </trkpt>
      <trkpt lat="48.12005" lon="6.4537">
        <ele>434.17</ele>
        <time>2012-04-15T07:52:09Z</time>
      </trkpt>
      <trkpt lat="48.12006" lon="6.45377">
        <ele>433.21</ele>
        <time>2012-04-15T07:52:10Z</time>
      </trkpt>
      <trkpt lat="48.12009" lon="6.45382">
        <ele>432.73</ele>
        <time>2012-04-15T07:52:11Z</time>
      </trkpt>
      <trkpt lat="48.12012" lon="6.45387">
        <ele>431.77</ele>
        <time>2012-04-15T07:52:12Z</time>
      </trkpt>
      <trkpt lat="48.12015" lon="6.45393">
        <ele>430.33</ele>
        <time>2012-04-15T07:52:13Z</time>
      </trkpt>
      <trkpt lat="48.12019" lon="6.45397">
        <ele>429.37</ele>
        <time>2012-04-15T07:52:14Z</time>
      </trkpt>
      <trkpt lat="48.12024" lon="6.454">
        <ele>428.89</ele>
        <time>2012-04-15T07:52:15Z</time>
      </trkpt>
      <trkpt lat="48.12029" lon="6.45402">
        <ele>427.92</ele>
        <time>2012-04-15T07:52:16Z</time>
      </trkpt>
      <trkpt lat="48.12046" lon="6.45411">
        <ele>424.56</ele>
        <time>2012-04-15T07:52:19Z</time>
      </trkpt>
      <trkpt lat="48.12051" lon="6.45414">
        <ele>423.6</ele>
        <time>2012-04-15T07:52:20Z</time>
      </trkpt>
      <trkpt lat="48.12055" lon="6.4542">
        <ele>421.68</ele>
        <time>2012-04-15T07:52:21Z</time>
      </trkpt>
      <trkpt lat="48.12058" lon="6.45426">
        <ele>420.71</ele>
        <time>2012-04-15T07:52:22Z</time>
      </trkpt>
      <trkpt lat="48.1206" lon="6.45432">
        <ele>419.27</ele>
        <time>2012-04-15T07:52:23Z</time>
      </trkpt>
      <trkpt lat="48.1206" lon="6.45438">
        <ele>418.31</ele>
        <time>2012-04-15T07:52:24Z</time>
      </trkpt>
      <trkpt lat="48.1206" lon="6.45445">
        <ele>417.83</ele>
        <time>2012-04-15T07:52:25Z</time>
      </trkpt>
      <trkpt lat="48.1206" lon="6.45449">
        <ele>416.39</ele>
        <time>2012-04-15T07:52:26Z</time>
      </trkpt>
      <trkpt lat="48.1206" lon="6.45453">
        <ele>415.43</ele>
        <time>2012-04-15T07:52:27Z</time>
      </trkpt>
      <trkpt lat="48.12059" lon="6.45463">
        <ele>413.5</ele>
        <time>2012-04-15T07:52:29Z</time>
      </trkpt>
      <trkpt lat="48.12059" lon="6.4547">
        <ele>413.02</ele>
        <time>2012-04-15T07:52:30Z</time>
      </trkpt>
      <trkpt lat="48.12061" lon="6.45485">
        <ele>411.58</ele>
        <time>2012-04-15T07:52:32Z</time>
      </trkpt>
      <trkpt lat="48.12062" lon="6.45493">
        <ele>411.1</ele>
        <time>2012-04-15T07:52:33Z</time>
      </trkpt>
      <trkpt lat="48.12064" lon="6.45501">
        <ele>410.14</ele>
        <time>2012-04-15T07:52:34Z</time>
      </trkpt>
      <trkpt lat="48.12102" lon="6.45597">
        <ele>404.37</ele>
        <time>2012-04-15T07:52:48Z</time>
      </trkpt>
      <trkpt lat="48.12111" lon="6.45618">
        <ele>405.81</ele>
        <time>2012-04-15T07:52:54Z</time>
      </trkpt>
      <trkpt lat="48.1211" lon="6.45622">
        <ele>405.81</ele>
        <time>2012-04-15T07:52:55Z</time>
      </trkpt>
      <trkpt lat="48.12109" lon="6.45626">
        <ele>405.81</ele>
        <time>2012-04-15T07:52:56Z</time>
      </trkpt>
      <trkpt lat="48.12107" lon="6.45631">
        <ele>405.81</ele>
        <time>2012-04-15T07:52:57Z</time>
      </trkpt>
      <trkpt lat="48.12104" lon="6.45634">
        <ele>406.29</ele>
        <time>2012-04-15T07:52:58Z</time>
      </trkpt>
      <trkpt lat="48.12101" lon="6.45637">
        <ele>406.77</ele>
        <time>2012-04-15T07:52:59Z</time>
      </trkpt>
      <trkpt lat="48.12062" lon="6.45652">
        <ele>409.18</ele>
        <time>2012-04-15T07:53:12Z</time>
      </trkpt>
      <trkpt lat="48.12027" lon="6.45648">
        <ele>408.7</ele>
        <time>2012-04-15T07:53:22Z</time>
      </trkpt>
      <trkpt lat="48.1199" lon="6.45644">
        <ele>407.74</ele>
        <time>2012-04-15T07:53:34Z</time>
      </trkpt>
      <trkpt lat="48.11987" lon="6.45645">
        <ele>407.74</ele>
        <time>2012-04-15T07:53:36Z</time>
      </trkpt>
      <trkpt lat="48.11993" lon="6.45665">
        <ele>410.62</ele>
        <time>2012-04-15T07:53:46Z</time>
      </trkpt>
      <trkpt lat="48.12011" lon="6.45688">
        <ele>413.02</ele>
        <time>2012-04-15T07:54:00Z</time>
      </trkpt>
      <trkpt lat="48.12023" lon="6.45705">
        <ele>415.43</ele>
        <time>2012-04-15T07:54:09Z</time>
      </trkpt>
      <trkpt lat="48.12036" lon="6.45725">
        <ele>418.79</ele>
        <time>2012-04-15T07:54:18Z</time>
      </trkpt>
      <trkpt lat="48.1206" lon="6.45745">
        <ele>422.16</ele>
        <time>2012-04-15T07:54:30Z</time>
      </trkpt>
      <trkpt lat="48.12072" lon="6.45746">
        <ele>423.6</ele>
        <time>2012-04-15T07:54:36Z</time>
      </trkpt>
      <trkpt lat="48.12102" lon="6.45728">
        <ele>426</ele>
        <time>2012-04-15T07:54:50Z</time>
      </trkpt>
      <trkpt lat="48.1214" lon="6.45714">
        <ele>423.12</ele>
        <time>2012-04-15T07:55:02Z</time>
      </trkpt>
      <trkpt lat="48.12175" lon="6.45708">
        <ele>423.12</ele>
        <time>2012-04-15T07:55:13Z</time>
      </trkpt>
      <trkpt lat="48.12204" lon="6.4571">
        <ele>424.08</ele>
        <time>2012-04-15T07:55:24Z</time>
      </trkpt>
      <trkpt lat="48.12238" lon="6.45719">
        <ele>423.6</ele>
        <time>2012-04-15T07:55:37Z</time>
      </trkpt>
      <trkpt lat="48.1225" lon="6.45717">
        <ele>423.12</ele>
        <time>2012-04-15T07:55:48Z</time>
      </trkpt>
      <trkpt lat="48.12254" lon="6.45717">
        <ele>421.68</ele>
        <time>2012-04-15T07:56:03Z</time>
      </trkpt>
      <trkpt lat="48.12255" lon="6.45717">
        <ele>421.68</ele>
        <time>2012-04-15T07:56:10Z</time>
      </trkpt>
      <trkpt lat="48.12248" lon="6.45715">
        <ele>425.04</ele>
        <time>2012-04-15T07:56:16Z</time>
      </trkpt>
      <trkpt lat="48.12219" lon="6.45704">
        <ele>435.61</ele>
        <time>2012-04-15T07:56:29Z</time>
      </trkpt>
      <trkpt lat="48.12197" lon="6.45701">
        <ele>444.27</ele>
        <time>2012-04-15T07:56:41Z</time>
      </trkpt>
      <trkpt lat="48.12188" lon="6.45701">
        <ele>447.15</ele>
        <time>2012-04-15T07:56:46Z</time>
      </trkpt>
      <trkpt lat="48.12161" lon="6.45701">
        <ele>453.88</ele>
        <time>2012-04-15T07:56:58Z</time>
      </trkpt>
      <trkpt lat="48.1215" lon="6.45702">
        <ele>453.88</ele>
        <time>2012-04-15T07:57:02Z</time>
      </trkpt>
      <trkpt lat="48.12116" lon="6.4571">
        <ele>454.36</ele>
        <time>2012-04-15T07:57:16Z</time>
      </trkpt>
      <trkpt lat="48.121" lon="6.45721">
        <ele>452.92</ele>
        <time>2012-04-15T07:57:24Z</time>
      </trkpt>
      <trkpt lat="48.12106" lon="6.45747">
        <ele>452.92</ele>
        <time>2012-04-15T07:57:36Z</time>
      </trkpt>
      <trkpt lat="48.12109" lon="6.45755">
        <ele>452.44</ele>
        <time>2012-04-15T07:57:40Z</time>
      </trkpt>
      <trkpt lat="48.12115" lon="6.45763">
        <ele>451.96</ele>
        <time>2012-04-15T07:57:46Z</time>
      </trkpt>
      <trkpt lat="48.12119" lon="6.4578">
        <ele>451.96</ele>
        <time>2012-04-15T07:57:56Z</time>
      </trkpt>
      <trkpt lat="48.12123" lon="6.45795">
        <ele>453.88</ele>
        <time>2012-04-15T07:58:04Z</time>
      </trkpt>
      <trkpt lat="48.12123" lon="6.458">
        <ele>454.36</ele>
        <time>2012-04-15T07:58:13Z</time>
      </trkpt>
      <trkpt lat="48.12123" lon="6.45805">
        <ele>453.88</ele>
        <time>2012-04-15T07:58:20Z</time>
      </trkpt>
      <trkpt lat="48.12127" lon="6.45818">
        <ele>457.24</ele>
        <time>2012-04-15T07:58:33Z</time>
      </trkpt>
      <trkpt lat="48.12132" lon="6.4583">
        <ele>460.61</ele>
        <time>2012-04-15T07:58:48Z</time>
      </trkpt>
      <trkpt lat="48.12138" lon="6.45842">
        <ele>466.38</ele>
        <time>2012-04-15T07:59:02Z</time>
      </trkpt>
      <trkpt lat="48.12139" lon="6.45843">
        <ele>466.86</ele>
        <time>2012-04-15T07:59:16Z</time>
      </trkpt>
      <trkpt lat="48.12144" lon="6.45842">
        <ele>470.7</ele>
        <time>2012-04-15T07:59:29Z</time>
      </trkpt>
      <trkpt lat="48.12145" lon="6.45854">
        <ele>468.78</ele>
        <time>2012-04-15T07:59:49Z</time>
      </trkpt>
      <trkpt lat="48.12147" lon="6.45857">
        <ele>466.38</ele>
        <time>2012-04-15T08:00:02Z</time>
      </trkpt>
      <trkpt lat="48.12163" lon="6.45866">
        <ele>463.01</ele>
        <time>2012-04-15T08:00:15Z</time>
      </trkpt>
      <trkpt lat="48.12171" lon="6.45871">
        <ele>463.49</ele>
        <time>2012-04-15T08:00:21Z</time>
      </trkpt>
      <trkpt lat="48.12178" lon="6.45879">
        <ele>464.93</ele>
        <time>2012-04-15T08:00:28Z</time>
      </trkpt>
      <trkpt lat="48.12209" lon="6.45894">
        <ele>467.34</ele>
        <time>2012-04-15T08:00:45Z</time>
      </trkpt>
      <trkpt lat="48.12209" lon="6.45894">
        <ele>467.34</ele>
        <time>2012-04-15T08:00:46Z</time>
      </trkpt>
      <trkpt lat="48.12193" lon="6.45894">
        <ele>474.55</ele>
        <time>2012-04-15T08:00:57Z</time>
      </trkpt>
      <trkpt lat="48.1217" lon="6.45903">
        <ele>483.2</ele>
        <time>2012-04-15T08:01:08Z</time>
      </trkpt>
      <trkpt lat="48.12143" lon="6.45914">
        <ele>492.81</ele>
        <time>2012-04-15T08:01:19Z</time>
      </trkpt>
      <trkpt lat="48.12112" lon="6.45923">
        <ele>503.87</ele>
        <time>2012-04-15T08:01:30Z</time>
      </trkpt>
      <trkpt lat="48.12067" lon="6.45913">
        <ele>509.16</ele>
        <time>2012-04-15T08:01:41Z</time>
      </trkpt>
      <trkpt lat="48.12058" lon="6.45909">
        <ele>509.64</ele>
        <time>2012-04-15T08:01:43Z</time>
      </trkpt>
      <trkpt lat="48.12046" lon="6.45902">
        <ele>510.6</ele>
        <time>2012-04-15T08:01:46Z</time>
      </trkpt>
      <trkpt lat="48.12041" lon="6.459">
        <ele>511.08</ele>
        <time>2012-04-15T08:01:47Z</time>
      </trkpt>
      <trkpt lat="48.11995" lon="6.45857">
        <ele>511.56</ele>
        <time>2012-04-15T08:02:00Z</time>
      </trkpt>
      <trkpt lat="48.11973" lon="6.45823">
        <ele>510.12</ele>
        <time>2012-04-15T08:02:07Z</time>
      </trkpt>
      <trkpt lat="48.1195" lon="6.45788">
        <ele>503.39</ele>
        <time>2012-04-15T08:02:15Z</time>
      </trkpt>
      <trkpt lat="48.11923" lon="6.45765">
        <ele>500.5</ele>
        <time>2012-04-15T08:02:21Z</time>
      </trkpt>
      <trkpt lat="48.11919" lon="6.45761">
        <ele>500.98</ele>
        <time>2012-04-15T08:02:22Z</time>
      </trkpt>
      <trkpt lat="48.11914" lon="6.45758">
        <ele>500.98</ele>
        <time>2012-04-15T08:02:23Z</time>
      </trkpt>
      <trkpt lat="48.119" lon="6.45748">
        <ele>500.98</ele>
        <time>2012-04-15T08:02:26Z</time>
      </trkpt>
      <trkpt lat="48.11896" lon="6.45746">
        <ele>500.5</ele>
        <time>2012-04-15T08:02:27Z</time>
      </trkpt>
      <trkpt lat="48.1184" lon="6.45725">
        <ele>502.43</ele>
        <time>2012-04-15T08:02:39Z</time>
      </trkpt>
      <trkpt lat="48.11781" lon="6.45699">
        <ele>498.1</ele>
        <time>2012-04-15T08:02:54Z</time>
      </trkpt>
      <trkpt lat="48.11739" lon="6.45682">
        <ele>495.22</ele>
        <time>2012-04-15T08:03:03Z</time>
      </trkpt>
      <trkpt lat="48.11706" lon="6.45676">
        <ele>492.33</ele>
        <time>2012-04-15T08:03:09Z</time>
      </trkpt>
      <trkpt lat="48.11693" lon="6.45678">
        <ele>490.89</ele>
        <time>2012-04-15T08:03:11Z</time>
      </trkpt>
      <trkpt lat="48.11686" lon="6.45681">
        <ele>489.93</ele>
        <time>2012-04-15T08:03:12Z</time>
      </trkpt>
      <trkpt lat="48.1168" lon="6.45684">
        <ele>488.01</ele>
        <time>2012-04-15T08:03:13Z</time>
      </trkpt>
      <trkpt lat="48.11674" lon="6.45689">
        <ele>487.05</ele>
        <time>2012-04-15T08:03:14Z</time>
      </trkpt>
      <trkpt lat="48.11668" lon="6.45694">
        <ele>486.08</ele>
        <time>2012-04-15T08:03:15Z</time>
      </trkpt>
      <trkpt lat="48.11663" lon="6.45701">
        <ele>485.12</ele>
        <time>2012-04-15T08:03:16Z</time>
      </trkpt>
      <trkpt lat="48.11658" lon="6.45708">
        <ele>484.64</ele>
        <time>2012-04-15T08:03:17Z</time>
      </trkpt>
      <trkpt lat="48.11655" lon="6.45716">
        <ele>483.68</ele>
        <time>2012-04-15T08:03:18Z</time>
      </trkpt>
      <trkpt lat="48.11652" lon="6.45724">
        <ele>483.2</ele>
        <time>2012-04-15T08:03:19Z</time>
      </trkpt>
      <trkpt lat="48.11649" lon="6.45732">
        <ele>482.24</ele>
        <time>2012-04-15T08:03:20Z</time>
      </trkpt>
      <trkpt lat="48.1164" lon="6.45763">
        <ele>479.35</ele>
        <time>2012-04-15T08:03:24Z</time>
      </trkpt>
      <trkpt lat="48.11621" lon="6.45863">
        <ele>471.66</ele>
        <time>2012-04-15T08:03:36Z</time>
      </trkpt>
      <trkpt lat="48.11616" lon="6.45901">
        <ele>470.22</ele>
        <time>2012-04-15T08:03:41Z</time>
      </trkpt>
      <trkpt lat="48.11616" lon="6.45909">
        <ele>470.22</ele>
        <time>2012-04-15T08:03:42Z</time>
      </trkpt>
      <trkpt lat="48.1162" lon="6.45953">
        <ele>466.38</ele>
        <time>2012-04-15T08:03:50Z</time>
      </trkpt>
      <trkpt lat="48.11619" lon="6.45956">
        <ele>466.38</ele>
        <time>2012-04-15T08:03:51Z</time>
      </trkpt>
      <trkpt lat="48.11619" lon="6.45961">
        <ele>465.9</ele>
        <time>2012-04-15T08:03:52Z</time>
      </trkpt>
      <trkpt lat="48.11627" lon="6.46021">
        <ele>460.61</ele>
        <time>2012-04-15T08:04:03Z</time>
      </trkpt>
      <trkpt lat="48.11646" lon="6.46085">
        <ele>458.69</ele>
        <time>2012-04-15T08:04:15Z</time>
      </trkpt>
      <trkpt lat="48.11664" lon="6.46135">
        <ele>457.24</ele>
        <time>2012-04-15T08:04:25Z</time>
      </trkpt>
      <trkpt lat="48.11666" lon="6.46136">
        <ele>457.24</ele>
        <time>2012-04-15T08:04:26Z</time>
      </trkpt>
      <trkpt lat="48.117" lon="6.46161">
        <ele>458.21</ele>
        <time>2012-04-15T08:04:40Z</time>
      </trkpt>
      <trkpt lat="48.11729" lon="6.46197">
        <ele>459.65</ele>
        <time>2012-04-15T08:04:54Z</time>
      </trkpt>
      <trkpt lat="48.11761" lon="6.46222">
        <ele>462.05</ele>
        <time>2012-04-15T08:05:08Z</time>
      </trkpt>
      <trkpt lat="48.11789" lon="6.4623">
        <ele>465.9</ele>
        <time>2012-04-15T08:05:20Z</time>
      </trkpt>
      <trkpt lat="48.11833" lon="6.46225">
        <ele>468.78</ele>
        <time>2012-04-15T08:05:37Z</time>
      </trkpt>
      <trkpt lat="48.1187" lon="6.46228">
        <ele>470.7</ele>
        <time>2012-04-15T08:05:50Z</time>
      </trkpt>
      <trkpt lat="48.11908" lon="6.46248">
        <ele>473.59</ele>
        <time>2012-04-15T08:06:03Z</time>
      </trkpt>
      <trkpt lat="48.11954" lon="6.46275">
        <ele>475.51</ele>
        <time>2012-04-15T08:06:16Z</time>
      </trkpt>
      <trkpt lat="48.11988" lon="6.4629">
        <ele>475.99</ele>
        <time>2012-04-15T08:06:25Z</time>
      </trkpt>
      <trkpt lat="48.12034" lon="6.46296">
        <ele>476.95</ele>
        <time>2012-04-15T08:06:37Z</time>
      </trkpt>
      <trkpt lat="48.12067" lon="6.46281">
        <ele>479.35</ele>
        <time>2012-04-15T08:06:48Z</time>
      </trkpt>
      <trkpt lat="48.12096" lon="6.46255">
        <ele>483.68</ele>
        <time>2012-04-15T08:06:58Z</time>
      </trkpt>
      <trkpt lat="48.12123" lon="6.4623">
        <ele>486.08</ele>
        <time>2012-04-15T08:07:07Z</time>
      </trkpt>
      <trkpt lat="48.12164" lon="6.46211">
        <ele>489.45</ele>
        <time>2012-04-15T08:07:18Z</time>
      </trkpt>
      <trkpt lat="48.12187" lon="6.46213">
        <ele>490.89</ele>
        <time>2012-04-15T08:07:23Z</time>
      </trkpt>
      <trkpt lat="48.12196" lon="6.46216">
        <ele>491.37</ele>
        <time>2012-04-15T08:07:25Z</time>
      </trkpt>
      <trkpt lat="48.12205" lon="6.46221">
        <ele>491.37</ele>
        <time>2012-04-15T08:07:27Z</time>
      </trkpt>
      <trkpt lat="48.12209" lon="6.46225">
        <ele>490.89</ele>
        <time>2012-04-15T08:07:28Z</time>
      </trkpt>
      <trkpt lat="48.12225" lon="6.46227">
        <ele>488.97</ele>
        <time>2012-04-15T08:07:30Z</time>
      </trkpt>
      <trkpt lat="48.12241" lon="6.4624">
        <ele>486.56</ele>
        <time>2012-04-15T08:07:33Z</time>
      </trkpt>
      <trkpt lat="48.12245" lon="6.46244">
        <ele>486.08</ele>
        <time>2012-04-15T08:07:34Z</time>
      </trkpt>
      <trkpt lat="48.12253" lon="6.46252">
        <ele>485.12</ele>
        <time>2012-04-15T08:07:36Z</time>
      </trkpt>
      <trkpt lat="48.12257" lon="6.46256">
        <ele>485.12</ele>
        <time>2012-04-15T08:07:37Z</time>
      </trkpt>
      <trkpt lat="48.12279" lon="6.46278">
        <ele>483.68</ele>
        <time>2012-04-15T08:07:42Z</time>
      </trkpt>
      <trkpt lat="48.12283" lon="6.46284">
        <ele>483.2</ele>
        <time>2012-04-15T08:07:43Z</time>
      </trkpt>
      <trkpt lat="48.12287" lon="6.46292">
        <ele>483.2</ele>
        <time>2012-04-15T08:07:44Z</time>
      </trkpt>
      <trkpt lat="48.1229" lon="6.463">
        <ele>482.72</ele>
        <time>2012-04-15T08:07:45Z</time>
      </trkpt>
      <trkpt lat="48.12295" lon="6.46307">
        <ele>482.24</ele>
        <time>2012-04-15T08:07:46Z</time>
      </trkpt>
      <trkpt lat="48.123" lon="6.46314">
        <ele>482.24</ele>
        <time>2012-04-15T08:07:47Z</time>
      </trkpt>
      <trkpt lat="48.12309" lon="6.46327">
        <ele>481.28</ele>
        <time>2012-04-15T08:07:49Z</time>
      </trkpt>
      <trkpt lat="48.1232" lon="6.46346">
        <ele>480.8</ele>
        <time>2012-04-15T08:07:52Z</time>
      </trkpt>
      <trkpt lat="48.12331" lon="6.46363">
        <ele>481.28</ele>
        <time>2012-04-15T08:07:55Z</time>
      </trkpt>
      <trkpt lat="48.12334" lon="6.4637">
        <ele>481.28</ele>
        <time>2012-04-15T08:07:56Z</time>
      </trkpt>
      <trkpt lat="48.12342" lon="6.46393">
        <ele>481.28</ele>
        <time>2012-04-15T08:07:59Z</time>
      </trkpt>
      <trkpt lat="48.1235" lon="6.46429">
        <ele>481.28</ele>
        <time>2012-04-15T08:08:03Z</time>
      </trkpt>
      <trkpt lat="48.12351" lon="6.46439">
        <ele>480.8</ele>
        <time>2012-04-15T08:08:04Z</time>
      </trkpt>
      <trkpt lat="48.12349" lon="6.46484">
        <ele>478.87</ele>
        <time>2012-04-15T08:08:08Z</time>
      </trkpt>
      <trkpt lat="48.12343" lon="6.46506">
        <ele>476.47</ele>
        <time>2012-04-15T08:08:10Z</time>
      </trkpt>
      <trkpt lat="48.1234" lon="6.46515">
        <ele>475.51</ele>
        <time>2012-04-15T08:08:11Z</time>
      </trkpt>
      <trkpt lat="48.12335" lon="6.46523">
        <ele>474.55</ele>
        <time>2012-04-15T08:08:12Z</time>
      </trkpt>
      <trkpt lat="48.1233" lon="6.46527">
        <ele>473.11</ele>
        <time>2012-04-15T08:08:13Z</time>
      </trkpt>
      <trkpt lat="48.12325" lon="6.46529">
        <ele>472.14</ele>
        <time>2012-04-15T08:08:14Z</time>
      </trkpt>
      <trkpt lat="48.12319" lon="6.46528">
        <ele>471.18</ele>
        <time>2012-04-15T08:08:15Z</time>
      </trkpt>
      <trkpt lat="48.12312" lon="6.46527">
        <ele>470.22</ele>
        <time>2012-04-15T08:08:16Z</time>
      </trkpt>
      <trkpt lat="48.12304" lon="6.46524">
        <ele>469.26</ele>
        <time>2012-04-15T08:08:17Z</time>
      </trkpt>
      <trkpt lat="48.12296" lon="6.46519">
        <ele>468.3</ele>
        <time>2012-04-15T08:08:18Z</time>
      </trkpt>
      <trkpt lat="48.12288" lon="6.46514">
        <ele>466.86</ele>
        <time>2012-04-15T08:08:19Z</time>
      </trkpt>
      <trkpt lat="48.12281" lon="6.46508">
        <ele>465.9</ele>
        <time>2012-04-15T08:08:20Z</time>
      </trkpt>
      <trkpt lat="48.12262" lon="6.46488">
        <ele>462.05</ele>
        <time>2012-04-15T08:08:23Z</time>
      </trkpt>
      <trkpt lat="48.12255" lon="6.46484">
        <ele>461.09</ele>
        <time>2012-04-15T08:08:24Z</time>
      </trkpt>
      <trkpt lat="48.12248" lon="6.46483">
        <ele>460.13</ele>
        <time>2012-04-15T08:08:25Z</time>
      </trkpt>
      <trkpt lat="48.1224" lon="6.46484">
        <ele>459.17</ele>
        <time>2012-04-15T08:08:26Z</time>
      </trkpt>
      <trkpt lat="48.12233" lon="6.46488">
        <ele>458.21</ele>
        <time>2012-04-15T08:08:27Z</time>
      </trkpt>
      <trkpt lat="48.12226" lon="6.46494">
        <ele>457.24</ele>
        <time>2012-04-15T08:08:28Z</time>
      </trkpt>
      <trkpt lat="48.1222" lon="6.46502">
        <ele>456.28</ele>
        <time>2012-04-15T08:08:29Z</time>
      </trkpt>
      <trkpt lat="48.12216" lon="6.46512">
        <ele>455.32</ele>
        <time>2012-04-15T08:08:30Z</time>
      </trkpt>
      <trkpt lat="48.12212" lon="6.46523">
        <ele>453.88</ele>
        <time>2012-04-15T08:08:31Z</time>
      </trkpt>
      <trkpt lat="48.12204" lon="6.46547">
        <ele>451.48</ele>
        <time>2012-04-15T08:08:33Z</time>
      </trkpt>
      <trkpt lat="48.12198" lon="6.46571">
        <ele>449.55</ele>
        <time>2012-04-15T08:08:35Z</time>
      </trkpt>
      <trkpt lat="48.12195" lon="6.46579">
        <ele>448.59</ele>
        <time>2012-04-15T08:08:36Z</time>
      </trkpt>
      <trkpt lat="48.1219" lon="6.46591">
        <ele>445.23</ele>
        <time>2012-04-15T08:08:42Z</time>
      </trkpt>
      <trkpt lat="48.12189" lon="6.46594">
        <ele>445.23</ele>
        <time>2012-04-15T08:08:49Z</time>
      </trkpt>
      <trkpt lat="48.12188" lon="6.46596">
        <ele>445.71</ele>
        <time>2012-04-15T08:08:50Z</time>
      </trkpt>
      <trkpt lat="48.12186" lon="6.46598">
        <ele>445.23</ele>
        <time>2012-04-15T08:08:51Z</time>
      </trkpt>
      <trkpt lat="48.12184" lon="6.466">
        <ele>445.71</ele>
        <time>2012-04-15T08:08:52Z</time>
      </trkpt>
      <trkpt lat="48.12182" lon="6.46604">
        <ele>445.71</ele>
        <time>2012-04-15T08:08:53Z</time>
      </trkpt>
      <trkpt lat="48.1218" lon="6.46609">
        <ele>446.19</ele>
        <time>2012-04-15T08:08:54Z</time>
      </trkpt>
      <trkpt lat="48.12178" lon="6.46615">
        <ele>446.19</ele>
        <time>2012-04-15T08:08:55Z</time>
      </trkpt>
      <trkpt lat="48.12176" lon="6.46621">
        <ele>446.67</ele>
        <time>2012-04-15T08:08:56Z</time>
      </trkpt>
      <trkpt lat="48.12173" lon="6.46626">
        <ele>447.15</ele>
        <time>2012-04-15T08:08:57Z</time>
      </trkpt>
      <trkpt lat="48.1217" lon="6.4663">
        <ele>447.63</ele>
        <time>2012-04-15T08:08:58Z</time>
      </trkpt>
      <trkpt lat="48.12168" lon="6.46637">
        <ele>447.63</ele>
        <time>2012-04-15T08:08:59Z</time>
      </trkpt>
      <trkpt lat="48.12169" lon="6.46645">
        <ele>447.15</ele>
        <time>2012-04-15T08:09:00Z</time>
      </trkpt>
      <trkpt lat="48.1217" lon="6.46651">
        <ele>447.15</ele>
        <time>2012-04-15T08:09:01Z</time>
      </trkpt>
      <trkpt lat="48.1217" lon="6.46657">
        <ele>446.67</ele>
        <time>2012-04-15T08:09:02Z</time>
      </trkpt>
      <trkpt lat="48.12169" lon="6.46664">
        <ele>445.71</ele>
        <time>2012-04-15T08:09:03Z</time>
      </trkpt>
      <trkpt lat="48.12167" lon="6.46672">
        <ele>444.75</ele>
        <time>2012-04-15T08:09:04Z</time>
      </trkpt>
      <trkpt lat="48.12164" lon="6.4669">
        <ele>441.86</ele>
        <time>2012-04-15T08:09:06Z</time>
      </trkpt>
      <trkpt lat="48.12163" lon="6.46698">
        <ele>440.9</ele>
        <time>2012-04-15T08:09:07Z</time>
      </trkpt>
      <trkpt lat="48.12164" lon="6.46704">
        <ele>439.46</ele>
        <time>2012-04-15T08:09:08Z</time>
      </trkpt>
      <trkpt lat="48.12165" lon="6.46709">
        <ele>438.02</ele>
        <time>2012-04-15T08:09:09Z</time>
      </trkpt>
      <trkpt lat="48.12164" lon="6.46716">
        <ele>433.21</ele>
        <time>2012-04-15T08:09:10Z</time>
      </trkpt>
      <trkpt lat="48.12165" lon="6.4672">
        <ele>431.77</ele>
        <time>2012-04-15T08:09:11Z</time>
      </trkpt>
      <trkpt lat="48.12167" lon="6.46724">
        <ele>430.33</ele>
        <time>2012-04-15T08:09:12Z</time>
      </trkpt>
      <trkpt lat="48.12169" lon="6.46728">
        <ele>428.4</ele>
        <time>2012-04-15T08:09:13Z</time>
      </trkpt>
      <trkpt lat="48.12171" lon="6.46733">
        <ele>426.96</ele>
        <time>2012-04-15T08:09:14Z</time>
      </trkpt>
      <trkpt lat="48.12226" lon="6.46786">
        <ele>419.75</ele>
        <time>2012-04-15T08:09:30Z</time>
      </trkpt>
      <trkpt lat="48.12271" lon="6.46819">
        <ele>422.16</ele>
        <time>2012-04-15T08:09:43Z</time>
      </trkpt>
      <trkpt lat="48.12279" lon="6.46825">
        <ele>423.12</ele>
        <time>2012-04-15T08:09:45Z</time>
      </trkpt>
      <trkpt lat="48.12283" lon="6.46827">
        <ele>423.6</ele>
        <time>2012-04-15T08:09:46Z</time>
      </trkpt>
      <trkpt lat="48.12287" lon="6.46831">
        <ele>424.08</ele>
        <time>2012-04-15T08:09:47Z</time>
      </trkpt>
      <trkpt lat="48.12301" lon="6.46839">
        <ele>424.56</ele>
        <time>2012-04-15T08:09:50Z</time>
      </trkpt>
      <trkpt lat="48.12321" lon="6.46855">
        <ele>424.56</ele>
        <time>2012-04-15T08:09:54Z</time>
      </trkpt>
      <trkpt lat="48.12326" lon="6.46859">
        <ele>424.08</ele>
        <time>2012-04-15T08:09:55Z</time>
      </trkpt>
      <trkpt lat="48.12399" lon="6.46894">
        <ele>422.16</ele>
        <time>2012-04-15T08:10:06Z</time>
      </trkpt>
      <trkpt lat="48.12405" lon="6.46899">
        <ele>421.68</ele>
        <time>2012-04-15T08:10:07Z</time>
      </trkpt>
      <trkpt lat="48.1241" lon="6.46906">
        <ele>421.68</ele>
        <time>2012-04-15T08:10:08Z</time>
      </trkpt>
      <trkpt lat="48.12414" lon="6.46913">
        <ele>421.68</ele>
        <time>2012-04-15T08:10:09Z</time>
      </trkpt>
      <trkpt lat="48.12418" lon="6.46921">
        <ele>421.68</ele>
        <time>2012-04-15T08:10:10Z</time>
      </trkpt>
      <trkpt lat="48.12422" lon="6.46928">
        <ele>420.23</ele>
        <time>2012-04-15T08:10:11Z</time>
      </trkpt>
      <trkpt lat="48.12426" lon="6.46935">
        <ele>418.31</ele>
        <time>2012-04-15T08:10:12Z</time>
      </trkpt>
      <trkpt lat="48.12444" lon="6.46986">
        <ele>412.06</ele>
        <time>2012-04-15T08:10:19Z</time>
      </trkpt>
      <trkpt lat="48.12448" lon="6.4699">
        <ele>411.1</ele>
        <time>2012-04-15T08:10:20Z</time>
      </trkpt>
      <trkpt lat="48.12452" lon="6.46993">
        <ele>410.14</ele>
        <time>2012-04-15T08:10:21Z</time>
      </trkpt>
      <trkpt lat="48.12456" lon="6.46994">
        <ele>408.7</ele>
        <time>2012-04-15T08:10:22Z</time>
      </trkpt>
      <trkpt lat="48.1246" lon="6.46992">
        <ele>408.22</ele>
        <time>2012-04-15T08:10:23Z</time>
      </trkpt>
      <trkpt lat="48.12464" lon="6.4699">
        <ele>407.74</ele>
        <time>2012-04-15T08:10:24Z</time>
      </trkpt>
      <trkpt lat="48.12468" lon="6.46988">
        <ele>407.26</ele>
        <time>2012-04-15T08:10:25Z</time>
      </trkpt>
      <trkpt lat="48.12486" lon="6.46977">
        <ele>405.81</ele>
        <time>2012-04-15T08:10:29Z</time>
      </trkpt>
      <trkpt lat="48.12569" lon="6.46954">
        <ele>397.64</ele>
        <time>2012-04-15T08:10:43Z</time>
      </trkpt>
      <trkpt lat="48.12661" lon="6.46959">
        <ele>392.36</ele>
        <time>2012-04-15T08:10:58Z</time>
      </trkpt>
      <trkpt lat="48.12754" lon="6.46989">
        <ele>389.95</ele>
        <time>2012-04-15T08:11:14Z</time>
      </trkpt>
      <trkpt lat="48.12773" lon="6.46991">
        <ele>389.95</ele>
        <time>2012-04-15T08:11:18Z</time>
      </trkpt>
      <trkpt lat="48.12777" lon="6.46994">
        <ele>389.95</ele>
        <time>2012-04-15T08:11:19Z</time>
      </trkpt>
      <trkpt lat="48.12779" lon="6.46998">
        <ele>389.95</ele>
        <time>2012-04-15T08:11:20Z</time>
      </trkpt>
      <trkpt lat="48.12781" lon="6.47004">
        <ele>389.95</ele>
        <time>2012-04-15T08:11:21Z</time>
      </trkpt>
      <trkpt lat="48.12782" lon="6.47009">
        <ele>389.95</ele>
        <time>2012-04-15T08:11:22Z</time>
      </trkpt>
      <trkpt lat="48.12782" lon="6.47014">
        <ele>389.95</ele>
        <time>2012-04-15T08:11:23Z</time>
      </trkpt>
      <trkpt lat="48.12782" lon="6.47019">
        <ele>390.43</ele>
        <time>2012-04-15T08:11:24Z</time>
      </trkpt>
      <trkpt lat="48.12786" lon="6.47076">
        <ele>393.8</ele>
        <time>2012-04-15T08:11:37Z</time>
      </trkpt>
      <trkpt lat="48.12795" lon="6.47126">
        <ele>396.68</ele>
        <time>2012-04-15T08:11:49Z</time>
      </trkpt>
      <trkpt lat="48.12807" lon="6.47166">
        <ele>397.64</ele>
        <time>2012-04-15T08:11:59Z</time>
      </trkpt>
      <trkpt lat="48.1281" lon="6.47177">
        <ele>397.64</ele>
        <time>2012-04-15T08:12:02Z</time>
      </trkpt>
      <trkpt lat="48.12811" lon="6.47182">
        <ele>398.12</ele>
        <time>2012-04-15T08:12:03Z</time>
      </trkpt>
      <trkpt lat="48.12811" lon="6.47185">
        <ele>398.12</ele>
        <time>2012-04-15T08:12:04Z</time>
      </trkpt>
      <trkpt lat="48.12813" lon="6.47182">
        <ele>449.55</ele>
        <time>2012-04-15T08:14:38Z</time>
      </trkpt>
      <trkpt lat="48.12814" lon="6.47175">
        <ele>449.55</ele>
        <time>2012-04-15T08:14:39Z</time>
      </trkpt>
      <trkpt lat="48.12817" lon="6.4717">
        <ele>449.55</ele>
        <time>2012-04-15T08:14:40Z</time>
      </trkpt>
      <trkpt lat="48.1282" lon="6.47166">
        <ele>450.03</ele>
        <time>2012-04-15T08:14:41Z</time>
      </trkpt>
      <trkpt lat="48.12824" lon="6.47164">
        <ele>450.03</ele>
        <time>2012-04-15T08:14:42Z</time>
      </trkpt>
      <trkpt lat="48.12829" lon="6.4716">
        <ele>450.03</ele>
        <time>2012-04-15T08:14:43Z</time>
      </trkpt>
      <trkpt lat="48.12834" lon="6.47158">
        <ele>449.55</ele>
        <time>2012-04-15T08:14:44Z</time>
      </trkpt>
      <trkpt lat="48.1284" lon="6.47154">
        <ele>448.59</ele>
        <time>2012-04-15T08:14:45Z</time>
      </trkpt>
      <trkpt lat="48.12844" lon="6.47152">
        <ele>448.59</ele>
        <time>2012-04-15T08:14:46Z</time>
      </trkpt>
      <trkpt lat="48.12848" lon="6.4715">
        <ele>448.11</ele>
        <time>2012-04-15T08:14:47Z</time>
      </trkpt>
      <trkpt lat="48.12865" lon="6.47142">
        <ele>445.71</ele>
        <time>2012-04-15T08:14:52Z</time>
      </trkpt>
      <trkpt lat="48.12875" lon="6.47144">
        <ele>441.86</ele>
        <time>2012-04-15T08:14:58Z</time>
      </trkpt>
      <trkpt lat="48.12887" lon="6.4715">
        <ele>439.46</ele>
        <time>2012-04-15T08:15:08Z</time>
      </trkpt>
      <trkpt lat="48.12886" lon="6.47147">
        <ele>438.02</ele>
        <time>2012-04-15T08:15:21Z</time>
      </trkpt>
      <trkpt lat="48.12891" lon="6.47144">
        <ele>433.69</ele>
        <time>2012-04-15T08:15:41Z</time>
      </trkpt>
      <trkpt lat="48.12893" lon="6.47143">
        <ele>430.81</ele>
        <time>2012-04-15T08:15:55Z</time>
      </trkpt>
      <trkpt lat="48.12892" lon="6.47143">
        <ele>428.89</ele>
        <time>2012-04-15T08:16:16Z</time>
      </trkpt>
      <trkpt lat="48.12893" lon="6.47143">
        <ele>426.96</ele>
        <time>2012-04-15T08:16:45Z</time>
      </trkpt>
      <trkpt lat="48.12893" lon="6.47142">
        <ele>425.52</ele>
        <time>2012-04-15T08:17:04Z</time>
      </trkpt>
      <trkpt lat="48.12893" lon="6.47142">
        <ele>424.56</ele>
        <time>2012-04-15T08:17:27Z</time>
      </trkpt>
      <trkpt lat="48.12893" lon="6.47142">
        <ele>424.56</ele>
        <time>2012-04-15T08:17:49Z</time>
      </trkpt>
      <trkpt lat="48.12893" lon="6.47142">
        <ele>424.56</ele>
        <time>2012-04-15T08:18:04Z</time>
      </trkpt>
      <trkpt lat="48.12915" lon="6.47147">
        <ele>426.96</ele>
        <time>2012-04-15T08:18:15Z</time>
      </trkpt>
      <trkpt lat="48.12947" lon="6.47158">
        <ele>433.69</ele>
        <time>2012-04-15T08:18:27Z</time>
      </trkpt>
      <trkpt lat="48.12983" lon="6.47168">
        <ele>436.58</ele>
        <time>2012-04-15T08:18:39Z</time>
      </trkpt>
      <trkpt lat="48.13015" lon="6.47186">
        <ele>439.46</ele>
        <time>2012-04-15T08:18:51Z</time>
      </trkpt>
      <trkpt lat="48.13037" lon="6.47206">
        <ele>441.86</ele>
        <time>2012-04-15T08:19:00Z</time>
      </trkpt>
      <trkpt lat="48.13063" lon="6.47244">
        <ele>440.42</ele>
        <time>2012-04-15T08:19:13Z</time>
      </trkpt>
      <trkpt lat="48.1307" lon="6.4728">
        <ele>438.02</ele>
        <time>2012-04-15T08:19:24Z</time>
      </trkpt>
      <trkpt lat="48.13066" lon="6.47301">
        <ele>439.94</ele>
        <time>2012-04-15T08:19:36Z</time>
      </trkpt>
      <trkpt lat="48.13066" lon="6.47303">
        <ele>440.42</ele>
        <time>2012-04-15T08:19:37Z</time>
      </trkpt>
      <trkpt lat="48.1306" lon="6.47324">
        <ele>443.31</ele>
        <time>2012-04-15T08:19:48Z</time>
      </trkpt>
      <trkpt lat="48.13059" lon="6.47326">
        <ele>443.79</ele>
        <time>2012-04-15T08:19:49Z</time>
      </trkpt>
      <trkpt lat="48.13054" lon="6.47342">
        <ele>445.71</ele>
        <time>2012-04-15T08:19:58Z</time>
      </trkpt>
      <trkpt lat="48.13053" lon="6.47351">
        <ele>448.11</ele>
        <time>2012-04-15T08:20:02Z</time>
      </trkpt>
      <trkpt lat="48.13048" lon="6.47369">
        <ele>450.52</ele>
        <time>2012-04-15T08:20:12Z</time>
      </trkpt>
      <trkpt lat="48.13044" lon="6.47381">
        <ele>452.44</ele>
        <time>2012-04-15T08:20:18Z</time>
      </trkpt>
      <trkpt lat="48.13038" lon="6.47402">
        <ele>454.36</ele>
        <time>2012-04-15T08:20:28Z</time>
      </trkpt>
      <trkpt lat="48.13031" lon="6.4742">
        <ele>454.84</ele>
        <time>2012-04-15T08:20:37Z</time>
      </trkpt>
      <trkpt lat="48.13023" lon="6.47451">
        <ele>455.32</ele>
        <time>2012-04-15T08:20:49Z</time>
      </trkpt>
      <trkpt lat="48.13014" lon="6.47483">
        <ele>456.28</ele>
        <time>2012-04-15T08:21:01Z</time>
      </trkpt>
      <trkpt lat="48.13004" lon="6.47514">
        <ele>458.21</ele>
        <time>2012-04-15T08:21:12Z</time>
      </trkpt>
      <trkpt lat="48.12991" lon="6.47548">
        <ele>459.65</ele>
        <time>2012-04-15T08:21:23Z</time>
      </trkpt>
      <trkpt lat="48.12976" lon="6.476">
        <ele>457.72</ele>
        <time>2012-04-15T08:21:38Z</time>
      </trkpt>
      <trkpt lat="48.12962" lon="6.47643">
        <ele>458.21</ele>
        <time>2012-04-15T08:21:51Z</time>
      </trkpt>
      <trkpt lat="48.12958" lon="6.47655">
        <ele>458.69</ele>
        <time>2012-04-15T08:21:55Z</time>
      </trkpt>
      <trkpt lat="48.1295" lon="6.47679">
        <ele>459.17</ele>
        <time>2012-04-15T08:22:03Z</time>
      </trkpt>
      <trkpt lat="48.12946" lon="6.47711">
        <ele>459.65</ele>
        <time>2012-04-15T08:22:13Z</time>
      </trkpt>
      <trkpt lat="48.12941" lon="6.47733">
        <ele>462.05</ele>
        <time>2012-04-15T08:22:21Z</time>
      </trkpt>
      <trkpt lat="48.12938" lon="6.47746">
        <ele>464.45</ele>
        <time>2012-04-15T08:22:26Z</time>
      </trkpt>
      <trkpt lat="48.1293" lon="6.47782">
        <ele>472.14</ele>
        <time>2012-04-15T08:22:40Z</time>
      </trkpt>
      <trkpt lat="48.12921" lon="6.47823">
        <ele>479.35</ele>
        <time>2012-04-15T08:22:56Z</time>
      </trkpt>
      <trkpt lat="48.12914" lon="6.47863">
        <ele>481.76</ele>
        <time>2012-04-15T08:23:09Z</time>
      </trkpt>
      <trkpt lat="48.12916" lon="6.47901">
        <ele>484.16</ele>
        <time>2012-04-15T08:23:21Z</time>
      </trkpt>
      <trkpt lat="48.12916" lon="6.47904">
        <ele>484.16</ele>
        <time>2012-04-15T08:23:31Z</time>
      </trkpt>
      <trkpt lat="48.12917" lon="6.47911">
        <ele>484.64</ele>
        <time>2012-04-15T08:23:43Z</time>
      </trkpt>
      <trkpt lat="48.12916" lon="6.47919">
        <ele>484.64</ele>
        <time>2012-04-15T08:23:55Z</time>
      </trkpt>
      <trkpt lat="48.12919" lon="6.47931">
        <ele>482.72</ele>
        <time>2012-04-15T08:24:07Z</time>
      </trkpt>
      <trkpt lat="48.12918" lon="6.47945">
        <ele>485.12</ele>
        <time>2012-04-15T08:24:14Z</time>
      </trkpt>
      <trkpt lat="48.12914" lon="6.47947">
        <ele>488.97</ele>
        <time>2012-04-15T08:24:26Z</time>
      </trkpt>
      <trkpt lat="48.12912" lon="6.47955">
        <ele>491.85</ele>
        <time>2012-04-15T08:24:39Z</time>
      </trkpt>
      <trkpt lat="48.12903" lon="6.47954">
        <ele>495.22</ele>
        <time>2012-04-15T08:24:50Z</time>
      </trkpt>
      <trkpt lat="48.12893" lon="6.47951">
        <ele>496.66</ele>
        <time>2012-04-15T08:25:02Z</time>
      </trkpt>
      <trkpt lat="48.12887" lon="6.47954">
        <ele>500.5</ele>
        <time>2012-04-15T08:25:11Z</time>
      </trkpt>
      <trkpt lat="48.12887" lon="6.47954">
        <ele>500.5</ele>
        <time>2012-04-15T08:25:16Z</time>
      </trkpt>
      <trkpt lat="48.12875" lon="6.47967">
        <ele>506.27</ele>
        <time>2012-04-15T08:25:29Z</time>
      </trkpt>
      <trkpt lat="48.12871" lon="6.47971">
        <ele>505.79</ele>
        <time>2012-04-15T08:25:42Z</time>
      </trkpt>
      <trkpt lat="48.12868" lon="6.47972">
        <ele>502.43</ele>
        <time>2012-04-15T08:25:55Z</time>
      </trkpt>
      <trkpt lat="48.12868" lon="6.47973">
        <ele>501.95</ele>
        <time>2012-04-15T08:25:56Z</time>
      </trkpt>
      <trkpt lat="48.12871" lon="6.4798">
        <ele>499.06</ele>
        <time>2012-04-15T08:26:00Z</time>
      </trkpt>
      <trkpt lat="48.12881" lon="6.48016">
        <ele>492.33</ele>
        <time>2012-04-15T08:26:13Z</time>
      </trkpt>
      <trkpt lat="48.12892" lon="6.48052">
        <ele>491.85</ele>
        <time>2012-04-15T08:26:26Z</time>
      </trkpt>
      <trkpt lat="48.12902" lon="6.48094">
        <ele>491.85</ele>
        <time>2012-04-15T08:26:40Z</time>
      </trkpt>
      <trkpt lat="48.12912" lon="6.48141">
        <ele>491.85</ele>
        <time>2012-04-15T08:26:53Z</time>
      </trkpt>
      <trkpt lat="48.12915" lon="6.48154">
        <ele>491.85</ele>
        <time>2012-04-15T08:26:56Z</time>
      </trkpt>
      <trkpt lat="48.12916" lon="6.48162">
        <ele>491.85</ele>
        <time>2012-04-15T08:26:58Z</time>
      </trkpt>
      <trkpt lat="48.12912" lon="6.48216">
        <ele>495.7</ele>
        <time>2012-04-15T08:27:10Z</time>
      </trkpt>
      <trkpt lat="48.12902" lon="6.48257">
        <ele>500.5</ele>
        <time>2012-04-15T08:27:21Z</time>
      </trkpt>
      <trkpt lat="48.12878" lon="6.48292">
        <ele>503.39</ele>
        <time>2012-04-15T08:27:34Z</time>
      </trkpt>
      <trkpt lat="48.12873" lon="6.48339">
        <ele>505.31</ele>
        <time>2012-04-15T08:27:48Z</time>
      </trkpt>
      <trkpt lat="48.12873" lon="6.48342">
        <ele>505.79</ele>
        <time>2012-04-15T08:27:49Z</time>
      </trkpt>
      <trkpt lat="48.1287" lon="6.48351">
        <ele>506.75</ele>
        <time>2012-04-15T08:27:58Z</time>
      </trkpt>
      <trkpt lat="48.12867" lon="6.48358">
        <ele>509.64</ele>
        <time>2012-04-15T08:28:09Z</time>
      </trkpt>
      <trkpt lat="48.12866" lon="6.48359">
        <ele>510.12</ele>
        <time>2012-04-15T08:28:13Z</time>
      </trkpt>
      <trkpt lat="48.12852" lon="6.48389">
        <ele>513</ele>
        <time>2012-04-15T08:28:26Z</time>
      </trkpt>
      <trkpt lat="48.12852" lon="6.4839">
        <ele>513.48</ele>
        <time>2012-04-15T08:28:27Z</time>
      </trkpt>
      <trkpt lat="48.12849" lon="6.48395">
        <ele>514.44</ele>
        <time>2012-04-15T08:28:43Z</time>
      </trkpt>
      <trkpt lat="48.12848" lon="6.48395">
        <ele>513.96</ele>
        <time>2012-04-15T08:28:50Z</time>
      </trkpt>
      <trkpt lat="48.12853" lon="6.48406">
        <ele>513</ele>
        <time>2012-04-15T08:28:55Z</time>
      </trkpt>
      <trkpt lat="48.12867" lon="6.48457">
        <ele>510.12</ele>
        <time>2012-04-15T08:29:07Z</time>
      </trkpt>
      <trkpt lat="48.12855" lon="6.48518">
        <ele>508.67</ele>
        <time>2012-04-15T08:29:20Z</time>
      </trkpt>
      <trkpt lat="48.12845" lon="6.48566">
        <ele>508.67</ele>
        <time>2012-04-15T08:29:31Z</time>
      </trkpt>
      <trkpt lat="48.12843" lon="6.48575">
        <ele>508.19</ele>
        <time>2012-04-15T08:29:33Z</time>
      </trkpt>
      <trkpt lat="48.12836" lon="6.48609">
        <ele>508.19</ele>
        <time>2012-04-15T08:29:40Z</time>
      </trkpt>
      <trkpt lat="48.12806" lon="6.4866">
        <ele>512.52</ele>
        <time>2012-04-15T08:29:54Z</time>
      </trkpt>
      <trkpt lat="48.12776" lon="6.48686">
        <ele>515.4</ele>
        <time>2012-04-15T08:30:04Z</time>
      </trkpt>
      <trkpt lat="48.12745" lon="6.48723">
        <ele>516.37</ele>
        <time>2012-04-15T08:30:14Z</time>
      </trkpt>
      <trkpt lat="48.12733" lon="6.48746">
        <ele>516.37</ele>
        <time>2012-04-15T08:30:19Z</time>
      </trkpt>
      <trkpt lat="48.1273" lon="6.48751">
        <ele>515.88</ele>
        <time>2012-04-15T08:30:20Z</time>
      </trkpt>
      <trkpt lat="48.1272" lon="6.48774">
        <ele>515.88</ele>
        <time>2012-04-15T08:30:24Z</time>
      </trkpt>
      <trkpt lat="48.127" lon="6.48832">
        <ele>515.4</ele>
        <time>2012-04-15T08:30:33Z</time>
      </trkpt>
      <trkpt lat="48.12694" lon="6.48869">
        <ele>514.44</ele>
        <time>2012-04-15T08:30:38Z</time>
      </trkpt>
      <trkpt lat="48.12693" lon="6.48884">
        <ele>513.96</ele>
        <time>2012-04-15T08:30:40Z</time>
      </trkpt>
      <trkpt lat="48.12692" lon="6.48907">
        <ele>514.92</ele>
        <time>2012-04-15T08:30:43Z</time>
      </trkpt>
      <trkpt lat="48.12693" lon="6.48935">
        <ele>515.4</ele>
        <time>2012-04-15T08:30:47Z</time>
      </trkpt>
      <trkpt lat="48.12697" lon="6.4896">
        <ele>515.4</ele>
        <time>2012-04-15T08:30:51Z</time>
      </trkpt>
      <trkpt lat="48.12699" lon="6.48965">
        <ele>515.88</ele>
        <time>2012-04-15T08:30:52Z</time>
      </trkpt>
      <trkpt lat="48.12702" lon="6.48972">
        <ele>515.88</ele>
        <time>2012-04-15T08:30:53Z</time>
      </trkpt>
      <trkpt lat="48.12711" lon="6.48989">
        <ele>515.88</ele>
        <time>2012-04-15T08:30:56Z</time>
      </trkpt>
      <trkpt lat="48.12715" lon="6.48994">
        <ele>516.37</ele>
        <time>2012-04-15T08:30:57Z</time>
      </trkpt>
      <trkpt lat="48.12722" lon="6.49005">
        <ele>516.37</ele>
        <time>2012-04-15T08:30:59Z</time>
      </trkpt>
      <trkpt lat="48.1274" lon="6.49034">
        <ele>515.88</ele>
        <time>2012-04-15T08:31:04Z</time>
      </trkpt>
      <trkpt lat="48.12744" lon="6.49039">
        <ele>515.88</ele>
        <time>2012-04-15T08:31:05Z</time>
      </trkpt>
      <trkpt lat="48.12758" lon="6.49068">
        <ele>514.92</ele>
        <time>2012-04-15T08:31:09Z</time>
      </trkpt>
      <trkpt lat="48.12762" lon="6.49076">
        <ele>514.44</ele>
        <time>2012-04-15T08:31:10Z</time>
      </trkpt>
      <trkpt lat="48.12785" lon="6.49114">
        <ele>512.52</ele>
        <time>2012-04-15T08:31:15Z</time>
      </trkpt>
      <trkpt lat="48.12826" lon="6.49185">
        <ele>508.19</ele>
        <time>2012-04-15T08:31:24Z</time>
      </trkpt>
      <trkpt lat="48.12879" lon="6.49288">
        <ele>501.46</ele>
        <time>2012-04-15T08:31:36Z</time>
      </trkpt>
      <trkpt lat="48.12884" lon="6.49296">
        <ele>500.98</ele>
        <time>2012-04-15T08:31:37Z</time>
      </trkpt>
      <trkpt lat="48.12889" lon="6.49305">
        <ele>500.5</ele>
        <time>2012-04-15T08:31:38Z</time>
      </trkpt>
      <trkpt lat="48.12938" lon="6.49402">
        <ele>497.62</ele>
        <time>2012-04-15T08:31:49Z</time>
      </trkpt>
      <trkpt lat="48.12952" lon="6.49444">
        <ele>496.66</ele>
        <time>2012-04-15T08:31:53Z</time>
      </trkpt>
      <trkpt lat="48.12954" lon="6.49455">
        <ele>496.66</ele>
        <time>2012-04-15T08:31:54Z</time>
      </trkpt>
      <trkpt lat="48.12955" lon="6.49467">
        <ele>496.18</ele>
        <time>2012-04-15T08:31:55Z</time>
      </trkpt>
      <trkpt lat="48.12955" lon="6.49479">
        <ele>495.7</ele>
        <time>2012-04-15T08:31:56Z</time>
      </trkpt>
      <trkpt lat="48.12955" lon="6.49491">
        <ele>495.22</ele>
        <time>2012-04-15T08:31:57Z</time>
      </trkpt>
      <trkpt lat="48.12953" lon="6.49529">
        <ele>493.77</ele>
        <time>2012-04-15T08:32:00Z</time>
      </trkpt>
      <trkpt lat="48.12945" lon="6.49566">
        <ele>492.33</ele>
        <time>2012-04-15T08:32:03Z</time>
      </trkpt>
      <trkpt lat="48.12942" lon="6.49578">
        <ele>492.33</ele>
        <time>2012-04-15T08:32:04Z</time>
      </trkpt>
      <trkpt lat="48.12939" lon="6.4959">
        <ele>491.85</ele>
        <time>2012-04-15T08:32:05Z</time>
      </trkpt>
      <trkpt lat="48.12937" lon="6.49601">
        <ele>491.37</ele>
        <time>2012-04-15T08:32:06Z</time>
      </trkpt>
      <trkpt lat="48.12936" lon="6.49613">
        <ele>490.89</ele>
        <time>2012-04-15T08:32:07Z</time>
      </trkpt>
      <trkpt lat="48.12935" lon="6.49634">
        <ele>490.41</ele>
        <time>2012-04-15T08:32:09Z</time>
      </trkpt>
      <trkpt lat="48.12936" lon="6.49644">
        <ele>489.93</ele>
        <time>2012-04-15T08:32:10Z</time>
      </trkpt>
      <trkpt lat="48.12943" lon="6.49675">
        <ele>488.97</ele>
        <time>2012-04-15T08:32:14Z</time>
      </trkpt>
      <trkpt lat="48.12945" lon="6.4968">
        <ele>488.97</ele>
        <time>2012-04-15T08:32:15Z</time>
      </trkpt>
      <trkpt lat="48.12946" lon="6.49683">
        <ele>488.49</ele>
        <time>2012-04-15T08:32:16Z</time>
      </trkpt>
      <trkpt lat="48.12946" lon="6.49685">
        <ele>488.49</ele>
        <time>2012-04-15T08:32:17Z</time>
      </trkpt>
      <trkpt lat="48.12945" lon="6.49687">
        <ele>488.97</ele>
        <time>2012-04-15T08:32:18Z</time>
      </trkpt>
      <trkpt lat="48.12943" lon="6.49687">
        <ele>488.97</ele>
        <time>2012-04-15T08:32:19Z</time>
      </trkpt>
      <trkpt lat="48.12941" lon="6.49686">
        <ele>488.97</ele>
        <time>2012-04-15T08:32:20Z</time>
      </trkpt>
      <trkpt lat="48.12938" lon="6.49685">
        <ele>488.97</ele>
        <time>2012-04-15T08:32:21Z</time>
      </trkpt>
      <trkpt lat="48.12937" lon="6.49684">
        <ele>488.97</ele>
        <time>2012-04-15T08:32:22Z</time>
      </trkpt>
      <trkpt lat="48.12935" lon="6.49683">
        <ele>489.45</ele>
        <time>2012-04-15T08:32:23Z</time>
      </trkpt>
      <trkpt lat="48.12933" lon="6.49682">
        <ele>489.45</ele>
        <time>2012-04-15T08:32:24Z</time>
      </trkpt>
      <trkpt lat="48.12925" lon="6.49675">
        <ele>491.37</ele>
        <time>2012-04-15T08:32:29Z</time>
      </trkpt>
      <trkpt lat="48.12923" lon="6.49677">
        <ele>491.37</ele>
        <time>2012-04-15T08:32:30Z</time>
      </trkpt>
      <trkpt lat="48.12921" lon="6.4968">
        <ele>491.85</ele>
        <time>2012-04-15T08:32:31Z</time>
      </trkpt>
      <trkpt lat="48.12919" lon="6.49683">
        <ele>492.33</ele>
        <time>2012-04-15T08:32:32Z</time>
      </trkpt>
      <trkpt lat="48.12917" lon="6.49686">
        <ele>492.81</ele>
        <time>2012-04-15T08:32:33Z</time>
      </trkpt>
      <trkpt lat="48.12914" lon="6.49689">
        <ele>493.29</ele>
        <time>2012-04-15T08:32:34Z</time>
      </trkpt>
      <trkpt lat="48.12911" lon="6.49693">
        <ele>493.77</ele>
        <time>2012-04-15T08:32:35Z</time>
      </trkpt>
      <trkpt lat="48.12888" lon="6.49707">
        <ele>496.18</ele>
        <time>2012-04-15T08:32:43Z</time>
      </trkpt>
      <trkpt lat="48.12887" lon="6.49706">
        <ele>496.66</ele>
        <time>2012-04-15T08:32:44Z</time>
      </trkpt>
      <trkpt lat="48.12885" lon="6.49707">
        <ele>497.62</ele>
        <time>2012-04-15T08:32:45Z</time>
      </trkpt>
      <trkpt lat="48.12882" lon="6.49709">
        <ele>500.98</ele>
        <time>2012-04-15T08:32:53Z</time>
      </trkpt>
      <trkpt lat="48.12881" lon="6.4971">
        <ele>502.43</ele>
        <time>2012-04-15T08:32:57Z</time>
      </trkpt>
      <trkpt lat="48.12879" lon="6.49712">
        <ele>502.91</ele>
        <time>2012-04-15T08:32:58Z</time>
      </trkpt>
      <trkpt lat="48.12878" lon="6.49714">
        <ele>503.39</ele>
        <time>2012-04-15T08:32:59Z</time>
      </trkpt>
      <trkpt lat="48.12877" lon="6.49715">
        <ele>503.87</ele>
        <time>2012-04-15T08:33:00Z</time>
      </trkpt>
      <trkpt lat="48.12875" lon="6.49716">
        <ele>504.35</ele>
        <time>2012-04-15T08:33:01Z</time>
      </trkpt>
      <trkpt lat="48.12873" lon="6.49715">
        <ele>504.83</ele>
        <time>2012-04-15T08:33:02Z</time>
      </trkpt>
      <trkpt lat="48.12871" lon="6.49714">
        <ele>504.83</ele>
        <time>2012-04-15T08:33:03Z</time>
      </trkpt>
      <trkpt lat="48.1287" lon="6.49715">
        <ele>505.79</ele>
        <time>2012-04-15T08:33:05Z</time>
      </trkpt>
      <trkpt lat="48.12869" lon="6.49716">
        <ele>505.79</ele>
        <time>2012-04-15T08:33:06Z</time>
      </trkpt>
      <trkpt lat="48.12868" lon="6.4972">
        <ele>506.75</ele>
        <time>2012-04-15T08:33:08Z</time>
      </trkpt>
      <trkpt lat="48.12866" lon="6.49721">
        <ele>508.19</ele>
        <time>2012-04-15T08:33:10Z</time>
      </trkpt>
      <trkpt lat="48.12862" lon="6.49725">
        <ele>510.12</ele>
        <time>2012-04-15T08:33:14Z</time>
      </trkpt>
      <trkpt lat="48.12861" lon="6.49727">
        <ele>510.6</ele>
        <time>2012-04-15T08:33:15Z</time>
      </trkpt>
      <trkpt lat="48.12859" lon="6.4973">
        <ele>511.08</ele>
        <time>2012-04-15T08:33:16Z</time>
      </trkpt>
      <trkpt lat="48.1285" lon="6.49742">
        <ele>511.56</ele>
        <time>2012-04-15T08:33:20Z</time>
      </trkpt>
      <trkpt lat="48.12844" lon="6.49747">
        <ele>511.08</ele>
        <time>2012-04-15T08:33:22Z</time>
      </trkpt>
      <trkpt lat="48.12839" lon="6.49749">
        <ele>511.08</ele>
        <time>2012-04-15T08:33:24Z</time>
      </trkpt>
      <trkpt lat="48.12829" lon="6.49766">
        <ele>510.6</ele>
        <time>2012-04-15T08:33:30Z</time>
      </trkpt>
      <trkpt lat="48.12819" lon="6.49783">
        <ele>510.12</ele>
        <time>2012-04-15T08:33:34Z</time>
      </trkpt>
      <trkpt lat="48.12813" lon="6.4981">
        <ele>512.52</ele>
        <time>2012-04-15T08:33:44Z</time>
      </trkpt>
      <trkpt lat="48.12809" lon="6.49812">
        <ele>515.4</ele>
        <time>2012-04-15T08:33:56Z</time>
      </trkpt>
      <trkpt lat="48.12808" lon="6.49814">
        <ele>515.88</ele>
        <time>2012-04-15T08:34:02Z</time>
      </trkpt>
      <trkpt lat="48.12805" lon="6.4982">
        <ele>518.77</ele>
        <time>2012-04-15T08:34:05Z</time>
      </trkpt>
      <trkpt lat="48.12803" lon="6.4983">
        <ele>523.58</ele>
        <time>2012-04-15T08:34:16Z</time>
      </trkpt>
      <trkpt lat="48.12798" lon="6.49831">
        <ele>526.46</ele>
        <time>2012-04-15T08:34:21Z</time>
      </trkpt>
      <trkpt lat="48.12791" lon="6.49861">
        <ele>527.42</ele>
        <time>2012-04-15T08:34:29Z</time>
      </trkpt>
      <trkpt lat="48.12784" lon="6.49877">
        <ele>527.9</ele>
        <time>2012-04-15T08:34:32Z</time>
      </trkpt>
      <trkpt lat="48.12764" lon="6.49919">
        <ele>525.98</ele>
        <time>2012-04-15T08:34:38Z</time>
      </trkpt>
      <trkpt lat="48.12745" lon="6.49945">
        <ele>522.61</ele>
        <time>2012-04-15T08:34:42Z</time>
      </trkpt>
      <trkpt lat="48.12736" lon="6.49958">
        <ele>521.17</ele>
        <time>2012-04-15T08:34:44Z</time>
      </trkpt>
      <trkpt lat="48.12728" lon="6.49972">
        <ele>520.21</ele>
        <time>2012-04-15T08:34:46Z</time>
      </trkpt>
      <trkpt lat="48.12713" lon="6.50011">
        <ele>516.85</ele>
        <time>2012-04-15T08:34:50Z</time>
      </trkpt>
      <trkpt lat="48.12689" lon="6.50095">
        <ele>507.23</ele>
        <time>2012-04-15T08:34:59Z</time>
      </trkpt>
      <trkpt lat="48.12686" lon="6.50103">
        <ele>505.79</ele>
        <time>2012-04-15T08:35:00Z</time>
      </trkpt>
      <trkpt lat="48.1268" lon="6.50123">
        <ele>503.39</ele>
        <time>2012-04-15T08:35:02Z</time>
      </trkpt>
      <trkpt lat="48.12673" lon="6.5014">
        <ele>499.06</ele>
        <time>2012-04-15T08:35:04Z</time>
      </trkpt>
      <trkpt lat="48.12665" lon="6.50159">
        <ele>488.97</ele>
        <time>2012-04-15T08:35:11Z</time>
      </trkpt>
      <trkpt lat="48.12663" lon="6.50161">
        <ele>487.53</ele>
        <time>2012-04-15T08:35:12Z</time>
      </trkpt>
      <trkpt lat="48.12663" lon="6.50163">
        <ele>486.08</ele>
        <time>2012-04-15T08:35:13Z</time>
      </trkpt>
      <trkpt lat="48.12662" lon="6.50165">
        <ele>485.12</ele>
        <time>2012-04-15T08:35:14Z</time>
      </trkpt>
      <trkpt lat="48.12661" lon="6.50168">
        <ele>483.68</ele>
        <time>2012-04-15T08:35:15Z</time>
      </trkpt>
      <trkpt lat="48.1266" lon="6.50172">
        <ele>482.72</ele>
        <time>2012-04-15T08:35:16Z</time>
      </trkpt>
      <trkpt lat="48.12654" lon="6.50187">
        <ele>481.28</ele>
        <time>2012-04-15T08:35:19Z</time>
      </trkpt>
      <trkpt lat="48.12652" lon="6.50193">
        <ele>481.28</ele>
        <time>2012-04-15T08:35:20Z</time>
      </trkpt>
      <trkpt lat="48.12649" lon="6.502">
        <ele>481.28</ele>
        <time>2012-04-15T08:35:21Z</time>
      </trkpt>
      <trkpt lat="48.12643" lon="6.50214">
        <ele>481.28</ele>
        <time>2012-04-15T08:35:23Z</time>
      </trkpt>
      <trkpt lat="48.12619" lon="6.50257">
        <ele>481.76</ele>
        <time>2012-04-15T08:35:30Z</time>
      </trkpt>
      <trkpt lat="48.12613" lon="6.5027">
        <ele>481.28</ele>
        <time>2012-04-15T08:35:32Z</time>
      </trkpt>
      <trkpt lat="48.12609" lon="6.50276">
        <ele>480.8</ele>
        <time>2012-04-15T08:35:33Z</time>
      </trkpt>
      <trkpt lat="48.12601" lon="6.50296">
        <ele>480.8</ele>
        <time>2012-04-15T08:35:36Z</time>
      </trkpt>
      <trkpt lat="48.12591" lon="6.5033">
        <ele>479.35</ele>
        <time>2012-04-15T08:35:40Z</time>
      </trkpt>
      <trkpt lat="48.12587" lon="6.5034">
        <ele>479.35</ele>
        <time>2012-04-15T08:35:41Z</time>
      </trkpt>
      <trkpt lat="48.12584" lon="6.50349">
        <ele>478.87</ele>
        <time>2012-04-15T08:35:42Z</time>
      </trkpt>
      <trkpt lat="48.12576" lon="6.5037">
        <ele>477.91</ele>
        <time>2012-04-15T08:35:44Z</time>
      </trkpt>
      <trkpt lat="48.12573" lon="6.50382">
        <ele>476.95</ele>
        <time>2012-04-15T08:35:45Z</time>
      </trkpt>
      <trkpt lat="48.12556" lon="6.5045">
        <ele>468.78</ele>
        <time>2012-04-15T08:35:50Z</time>
      </trkpt>
      <trkpt lat="48.12554" lon="6.50465">
        <ele>466.38</ele>
        <time>2012-04-15T08:35:51Z</time>
      </trkpt>
      <trkpt lat="48.12544" lon="6.50556">
        <ele>451</ele>
        <time>2012-04-15T08:35:58Z</time>
      </trkpt>
      <trkpt lat="48.12543" lon="6.50568">
        <ele>448.59</ele>
        <time>2012-04-15T08:35:59Z</time>
      </trkpt>
      <trkpt lat="48.12543" lon="6.5058">
        <ele>447.15</ele>
        <time>2012-04-15T08:36:00Z</time>
      </trkpt>
      <trkpt lat="48.12546" lon="6.50605">
        <ele>444.27</ele>
        <time>2012-04-15T08:36:02Z</time>
      </trkpt>
      <trkpt lat="48.12562" lon="6.5074">
        <ele>426.48</ele>
        <time>2012-04-15T08:36:11Z</time>
      </trkpt>
      <trkpt lat="48.12563" lon="6.50768">
        <ele>421.19</ele>
        <time>2012-04-15T08:36:14Z</time>
      </trkpt>
      <trkpt lat="48.12563" lon="6.50785">
        <ele>416.87</ele>
        <time>2012-04-15T08:36:17Z</time>
      </trkpt>
      <trkpt lat="48.12562" lon="6.50786">
        <ele>415.43</ele>
        <time>2012-04-15T08:36:18Z</time>
      </trkpt>
      <trkpt lat="48.1256" lon="6.50785">
        <ele>413.5</ele>
        <time>2012-04-15T08:36:20Z</time>
      </trkpt>
      <trkpt lat="48.12559" lon="6.50783">
        <ele>412.54</ele>
        <time>2012-04-15T08:36:21Z</time>
      </trkpt>
      <trkpt lat="48.12557" lon="6.5078">
        <ele>412.06</ele>
        <time>2012-04-15T08:36:22Z</time>
      </trkpt>
      <trkpt lat="48.12555" lon="6.50777">
        <ele>411.1</ele>
        <time>2012-04-15T08:36:23Z</time>
      </trkpt>
      <trkpt lat="48.12553" lon="6.50774">
        <ele>410.62</ele>
        <time>2012-04-15T08:36:24Z</time>
      </trkpt>
      <trkpt lat="48.12551" lon="6.50771">
        <ele>410.14</ele>
        <time>2012-04-15T08:36:25Z</time>
      </trkpt>
      <trkpt lat="48.12519" lon="6.50716">
        <ele>406.77</ele>
        <time>2012-04-15T08:36:37Z</time>
      </trkpt>
      <trkpt lat="48.12512" lon="6.50699">
        <ele>405.81</ele>
        <time>2012-04-15T08:36:40Z</time>
      </trkpt>
      <trkpt lat="48.12507" lon="6.50687">
        <ele>404.85</ele>
        <time>2012-04-15T08:36:42Z</time>
      </trkpt>
      <trkpt lat="48.12498" lon="6.50672">
        <ele>403.89</ele>
        <time>2012-04-15T08:36:45Z</time>
      </trkpt>
      <trkpt lat="48.12488" lon="6.50651">
        <ele>403.41</ele>
        <time>2012-04-15T08:36:49Z</time>
      </trkpt>
      <trkpt lat="48.1248" lon="6.50635">
        <ele>403.41</ele>
        <time>2012-04-15T08:36:52Z</time>
      </trkpt>
      <trkpt lat="48.12453" lon="6.50636">
        <ele>405.81</ele>
        <time>2012-04-15T08:37:00Z</time>
      </trkpt>
      <trkpt lat="48.12457" lon="6.50661">
        <ele>408.22</ele>
        <time>2012-04-15T08:37:04Z</time>
      </trkpt>
      <trkpt lat="48.12461" lon="6.50686">
        <ele>410.62</ele>
        <time>2012-04-15T08:37:08Z</time>
      </trkpt>
      <trkpt lat="48.12466" lon="6.50722">
        <ele>412.54</ele>
        <time>2012-04-15T08:37:13Z</time>
      </trkpt>
      <trkpt lat="48.12467" lon="6.50758">
        <ele>412.06</ele>
        <time>2012-04-15T08:37:18Z</time>
      </trkpt>
      <trkpt lat="48.12463" lon="6.50787">
        <ele>409.18</ele>
        <time>2012-04-15T08:37:22Z</time>
      </trkpt>
      <trkpt lat="48.12467" lon="6.50831">
        <ele>404.37</ele>
        <time>2012-04-15T08:37:29Z</time>
      </trkpt>
      <trkpt lat="48.12469" lon="6.50837">
        <ele>404.37</ele>
        <time>2012-04-15T08:37:30Z</time>
      </trkpt>
      <trkpt lat="48.12473" lon="6.5085">
        <ele>403.89</ele>
        <time>2012-04-15T08:37:32Z</time>
      </trkpt>
      <trkpt lat="48.12476" lon="6.50856">
        <ele>403.41</ele>
        <time>2012-04-15T08:37:33Z</time>
      </trkpt>
      <trkpt lat="48.12479" lon="6.50862">
        <ele>402.93</ele>
        <time>2012-04-15T08:37:34Z</time>
      </trkpt>
      <trkpt lat="48.12482" lon="6.50869">
        <ele>402.45</ele>
        <time>2012-04-15T08:37:35Z</time>
      </trkpt>
      <trkpt lat="48.12484" lon="6.50875">
        <ele>401.97</ele>
        <time>2012-04-15T08:37:36Z</time>
      </trkpt>
      <trkpt lat="48.12488" lon="6.5088">
        <ele>401.49</ele>
        <time>2012-04-15T08:37:37Z</time>
      </trkpt>
      <trkpt lat="48.12491" lon="6.50886">
        <ele>401.01</ele>
        <time>2012-04-15T08:37:38Z</time>
      </trkpt>
      <trkpt lat="48.12495" lon="6.50891">
        <ele>400.05</ele>
        <time>2012-04-15T08:37:39Z</time>
      </trkpt>
      <trkpt lat="48.125" lon="6.50895">
        <ele>399.57</ele>
        <time>2012-04-15T08:37:40Z</time>
      </trkpt>
      <trkpt lat="48.12546" lon="6.50939">
        <ele>397.16</ele>
        <time>2012-04-15T08:37:51Z</time>
      </trkpt>
      <trkpt lat="48.12564" lon="6.50952">
        <ele>397.16</ele>
        <time>2012-04-15T08:37:55Z</time>
      </trkpt>
      <trkpt lat="48.12568" lon="6.50956">
        <ele>397.16</ele>
        <time>2012-04-15T08:37:56Z</time>
      </trkpt>
      <trkpt lat="48.12621" lon="6.51008">
        <ele>398.12</ele>
        <time>2012-04-15T08:38:09Z</time>
      </trkpt>
      <trkpt lat="48.12636" lon="6.51029">
        <ele>397.64</ele>
        <time>2012-04-15T08:38:13Z</time>
      </trkpt>
      <trkpt lat="48.12639" lon="6.51034">
        <ele>398.12</ele>
        <time>2012-04-15T08:38:14Z</time>
      </trkpt>
      <trkpt lat="48.12656" lon="6.51063">
        <ele>397.64</ele>
        <time>2012-04-15T08:38:19Z</time>
      </trkpt>
      <trkpt lat="48.12671" lon="6.51091">
        <ele>398.12</ele>
        <time>2012-04-15T08:38:24Z</time>
      </trkpt>
      <trkpt lat="48.12677" lon="6.51102">
        <ele>397.64</ele>
        <time>2012-04-15T08:38:26Z</time>
      </trkpt>
      <trkpt lat="48.12685" lon="6.51129">
        <ele>396.68</ele>
        <time>2012-04-15T08:38:30Z</time>
      </trkpt>
      <trkpt lat="48.12682" lon="6.51155">
        <ele>396.2</ele>
        <time>2012-04-15T08:38:34Z</time>
      </trkpt>
      <trkpt lat="48.12669" lon="6.5117">
        <ele>396.2</ele>
        <time>2012-04-15T08:38:38Z</time>
      </trkpt>
      <trkpt lat="48.12635" lon="6.51195">
        <ele>397.16</ele>
        <time>2012-04-15T08:38:46Z</time>
      </trkpt>
      <trkpt lat="48.12622" lon="6.51205">
        <ele>397.64</ele>
        <time>2012-04-15T08:38:49Z</time>
      </trkpt>
      <trkpt lat="48.12566" lon="6.51255">
        <ele>395.24</ele>
        <time>2012-04-15T08:39:02Z</time>
      </trkpt>
      <trkpt lat="48.12547" lon="6.51265">
        <ele>395.24</ele>
        <time>2012-04-15T08:39:06Z</time>
      </trkpt>
      <trkpt lat="48.12529" lon="6.51276">
        <ele>395.24</ele>
        <time>2012-04-15T08:39:10Z</time>
      </trkpt>
      <trkpt lat="48.1251" lon="6.51282">
        <ele>395.72</ele>
        <time>2012-04-15T08:39:14Z</time>
      </trkpt>
      <trkpt lat="48.125" lon="6.51281">
        <ele>396.2</ele>
        <time>2012-04-15T08:39:16Z</time>
      </trkpt>
      <trkpt lat="48.12472" lon="6.51277">
        <ele>397.16</ele>
        <time>2012-04-15T08:39:21Z</time>
      </trkpt>
      <trkpt lat="48.12394" lon="6.51286">
        <ele>397.64</ele>
        <time>2012-04-15T08:39:35Z</time>
      </trkpt>
      <trkpt lat="48.12344" lon="6.513">
        <ele>400.05</ele>
        <time>2012-04-15T08:39:45Z</time>
      </trkpt>
      <trkpt lat="48.12302" lon="6.51327">
        <ele>401.01</ele>
        <time>2012-04-15T08:39:55Z</time>
      </trkpt>
      <trkpt lat="48.12246" lon="6.51371">
        <ele>399.57</ele>
        <time>2012-04-15T08:40:07Z</time>
      </trkpt>
      <trkpt lat="48.12178" lon="6.51431">
        <ele>396.68</ele>
        <time>2012-04-15T08:40:22Z</time>
      </trkpt>
      <trkpt lat="48.12162" lon="6.51439">
        <ele>395.72</ele>
        <time>2012-04-15T08:40:25Z</time>
      </trkpt>
      <trkpt lat="48.12157" lon="6.5144">
        <ele>395.72</ele>
        <time>2012-04-15T08:40:26Z</time>
      </trkpt>
      <trkpt lat="48.12147" lon="6.51441">
        <ele>395.72</ele>
        <time>2012-04-15T08:40:28Z</time>
      </trkpt>
      <trkpt lat="48.12141" lon="6.51441">
        <ele>396.2</ele>
        <time>2012-04-15T08:40:29Z</time>
      </trkpt>
      <trkpt lat="48.12131" lon="6.51437">
        <ele>396.2</ele>
        <time>2012-04-15T08:40:31Z</time>
      </trkpt>
      <trkpt lat="48.12104" lon="6.51416">
        <ele>395.72</ele>
        <time>2012-04-15T08:40:37Z</time>
      </trkpt>
      <trkpt lat="48.12067" lon="6.51383">
        <ele>394.76</ele>
        <time>2012-04-15T08:40:45Z</time>
      </trkpt>
      <trkpt lat="48.12063" lon="6.5138">
        <ele>394.76</ele>
        <time>2012-04-15T08:40:46Z</time>
      </trkpt>
      <trkpt lat="48.12059" lon="6.51377">
        <ele>394.28</ele>
        <time>2012-04-15T08:40:47Z</time>
      </trkpt>
      <trkpt lat="48.12056" lon="6.51374">
        <ele>394.28</ele>
        <time>2012-04-15T08:40:48Z</time>
      </trkpt>
      <trkpt lat="48.12052" lon="6.51372">
        <ele>394.28</ele>
        <time>2012-04-15T08:40:49Z</time>
      </trkpt>
      <trkpt lat="48.12048" lon="6.51371">
        <ele>394.28</ele>
        <time>2012-04-15T08:40:50Z</time>
      </trkpt>
      <trkpt lat="48.12045" lon="6.5137">
        <ele>394.28</ele>
        <time>2012-04-15T08:40:51Z</time>
      </trkpt>
      <trkpt lat="48.12041" lon="6.5137">
        <ele>394.28</ele>
        <time>2012-04-15T08:40:52Z</time>
      </trkpt>
      <trkpt lat="48.12029" lon="6.51374">
        <ele>394.76</ele>
        <time>2012-04-15T08:40:55Z</time>
      </trkpt>
      <trkpt lat="48.12024" lon="6.51377">
        <ele>394.76</ele>
        <time>2012-04-15T08:40:56Z</time>
      </trkpt>
      <trkpt lat="48.1202" lon="6.51382">
        <ele>394.28</ele>
        <time>2012-04-15T08:40:57Z</time>
      </trkpt>
      <trkpt lat="48.12016" lon="6.51386">
        <ele>394.28</ele>
        <time>2012-04-15T08:40:58Z</time>
      </trkpt>
      <trkpt lat="48.12012" lon="6.51391">
        <ele>393.8</ele>
        <time>2012-04-15T08:40:59Z</time>
      </trkpt>
      <trkpt lat="48.11998" lon="6.51409">
        <ele>393.32</ele>
        <time>2012-04-15T08:41:03Z</time>
      </trkpt>
      <trkpt lat="48.11992" lon="6.51464">
        <ele>393.8</ele>
        <time>2012-04-15T08:41:12Z</time>
      </trkpt>
      <trkpt lat="48.11994" lon="6.51471">
        <ele>394.28</ele>
        <time>2012-04-15T08:41:13Z</time>
      </trkpt>
      <trkpt lat="48.11999" lon="6.51484">
        <ele>394.28</ele>
        <time>2012-04-15T08:41:15Z</time>
      </trkpt>
      <trkpt lat="48.12014" lon="6.51505">
        <ele>394.28</ele>
        <time>2012-04-15T08:41:19Z</time>
      </trkpt>
      <trkpt lat="48.12041" lon="6.51529">
        <ele>394.76</ele>
        <time>2012-04-15T08:41:25Z</time>
      </trkpt>
      <trkpt lat="48.1206" lon="6.51546">
        <ele>396.68</ele>
        <time>2012-04-15T08:41:30Z</time>
      </trkpt>
      <trkpt lat="48.12068" lon="6.51552">
        <ele>397.16</ele>
        <time>2012-04-15T08:41:32Z</time>
      </trkpt>
      <trkpt lat="48.1209" lon="6.51569">
        <ele>399.57</ele>
        <time>2012-04-15T08:41:37Z</time>
      </trkpt>
      <trkpt lat="48.12101" lon="6.51581">
        <ele>400.53</ele>
        <time>2012-04-15T08:41:40Z</time>
      </trkpt>
      <trkpt lat="48.12111" lon="6.51595">
        <ele>401.49</ele>
        <time>2012-04-15T08:41:43Z</time>
      </trkpt>
      <trkpt lat="48.12113" lon="6.516">
        <ele>401.97</ele>
        <time>2012-04-15T08:41:44Z</time>
      </trkpt>
      <trkpt lat="48.12116" lon="6.51606">
        <ele>402.93</ele>
        <time>2012-04-15T08:41:45Z</time>
      </trkpt>
      <trkpt lat="48.12117" lon="6.51613">
        <ele>402.93</ele>
        <time>2012-04-15T08:41:46Z</time>
      </trkpt>
      <trkpt lat="48.12118" lon="6.5162">
        <ele>403.41</ele>
        <time>2012-04-15T08:41:47Z</time>
      </trkpt>
      <trkpt lat="48.12119" lon="6.51628">
        <ele>403.41</ele>
        <time>2012-04-15T08:41:48Z</time>
      </trkpt>
      <trkpt lat="48.12124" lon="6.51687">
        <ele>401.01</ele>
        <time>2012-04-15T08:41:56Z</time>
      </trkpt>
      <trkpt lat="48.12125" lon="6.51695">
        <ele>401.01</ele>
        <time>2012-04-15T08:41:57Z</time>
      </trkpt>
      <trkpt lat="48.12125" lon="6.51702">
        <ele>400.53</ele>
        <time>2012-04-15T08:41:58Z</time>
      </trkpt>
      <trkpt lat="48.12126" lon="6.51724">
        <ele>399.57</ele>
        <time>2012-04-15T08:42:01Z</time>
      </trkpt>
      <trkpt lat="48.12118" lon="6.5176">
        <ele>399.08</ele>
        <time>2012-04-15T08:42:07Z</time>
      </trkpt>
      <trkpt lat="48.12099" lon="6.51812">
        <ele>399.08</ele>
        <time>2012-04-15T08:42:15Z</time>
      </trkpt>
      <trkpt lat="48.12091" lon="6.51859">
        <ele>399.08</ele>
        <time>2012-04-15T08:42:22Z</time>
      </trkpt>
      <trkpt lat="48.12095" lon="6.51872">
        <ele>400.05</ele>
        <time>2012-04-15T08:42:24Z</time>
      </trkpt>
      <trkpt lat="48.12099" lon="6.51909">
        <ele>401.01</ele>
        <time>2012-04-15T08:42:28Z</time>
      </trkpt>
      <trkpt lat="48.12095" lon="6.51962">
        <ele>400.53</ele>
        <time>2012-04-15T08:42:33Z</time>
      </trkpt>
      <trkpt lat="48.12072" lon="6.52048">
        <ele>398.6</ele>
        <time>2012-04-15T08:42:41Z</time>
      </trkpt>
      <trkpt lat="48.12063" lon="6.52065">
        <ele>398.12</ele>
        <time>2012-04-15T08:42:43Z</time>
      </trkpt>
      <trkpt lat="48.12006" lon="6.52144">
        <ele>395.24</ele>
        <time>2012-04-15T08:42:54Z</time>
      </trkpt>
      <trkpt lat="48.12" lon="6.52159">
        <ele>395.24</ele>
        <time>2012-04-15T08:42:56Z</time>
      </trkpt>
      <trkpt lat="48.11974" lon="6.52208">
        <ele>396.2</ele>
        <time>2012-04-15T08:43:03Z</time>
      </trkpt>
      <trkpt lat="48.11946" lon="6.52252">
        <ele>395.24</ele>
        <time>2012-04-15T08:43:09Z</time>
      </trkpt>
      <trkpt lat="48.11911" lon="6.5234">
        <ele>389.95</ele>
        <time>2012-04-15T08:43:21Z</time>
      </trkpt>
      <trkpt lat="48.11898" lon="6.52377">
        <ele>387.07</ele>
        <time>2012-04-15T08:43:25Z</time>
      </trkpt>
      <trkpt lat="48.11895" lon="6.52382">
        <ele>387.07</ele>
        <time>2012-04-15T08:43:26Z</time>
      </trkpt>
      <trkpt lat="48.11891" lon="6.52386">
        <ele>386.59</ele>
        <time>2012-04-15T08:43:27Z</time>
      </trkpt>
      <trkpt lat="48.11889" lon="6.5239">
        <ele>386.11</ele>
        <time>2012-04-15T08:43:28Z</time>
      </trkpt>
      <trkpt lat="48.11887" lon="6.52393">
        <ele>385.63</ele>
        <time>2012-04-15T08:43:29Z</time>
      </trkpt>
      <trkpt lat="48.11885" lon="6.52397">
        <ele>385.15</ele>
        <time>2012-04-15T08:43:30Z</time>
      </trkpt>
      <trkpt lat="48.11883" lon="6.52403">
        <ele>384.18</ele>
        <time>2012-04-15T08:43:31Z</time>
      </trkpt>
      <trkpt lat="48.1188" lon="6.52409">
        <ele>383.7</ele>
        <time>2012-04-15T08:43:32Z</time>
      </trkpt>
      <trkpt lat="48.11877" lon="6.52416">
        <ele>382.74</ele>
        <time>2012-04-15T08:43:33Z</time>
      </trkpt>
      <trkpt lat="48.11827" lon="6.52489">
        <ele>374.09</ele>
        <time>2012-04-15T08:43:42Z</time>
      </trkpt>
      <trkpt lat="48.1182" lon="6.52496">
        <ele>372.65</ele>
        <time>2012-04-15T08:43:43Z</time>
      </trkpt>
      <trkpt lat="48.11815" lon="6.525">
        <ele>371.69</ele>
        <time>2012-04-15T08:43:44Z</time>
      </trkpt>
      <trkpt lat="48.11809" lon="6.52505">
        <ele>370.73</ele>
        <time>2012-04-15T08:43:45Z</time>
      </trkpt>
      <trkpt lat="48.11802" lon="6.52507">
        <ele>370.24</ele>
        <time>2012-04-15T08:43:46Z</time>
      </trkpt>
      <trkpt lat="48.11795" lon="6.52508">
        <ele>369.76</ele>
        <time>2012-04-15T08:43:47Z</time>
      </trkpt>
      <trkpt lat="48.11787" lon="6.52507">
        <ele>369.28</ele>
        <time>2012-04-15T08:43:48Z</time>
      </trkpt>
      <trkpt lat="48.11781" lon="6.52504">
        <ele>368.8</ele>
        <time>2012-04-15T08:43:49Z</time>
      </trkpt>
      <trkpt lat="48.11775" lon="6.52501">
        <ele>368.32</ele>
        <time>2012-04-15T08:43:50Z</time>
      </trkpt>
      <trkpt lat="48.11749" lon="6.52487">
        <ele>366.4</ele>
        <time>2012-04-15T08:43:55Z</time>
      </trkpt>
      <trkpt lat="48.11715" lon="6.5247">
        <ele>365.44</ele>
        <time>2012-04-15T08:44:02Z</time>
      </trkpt>
      <trkpt lat="48.11711" lon="6.52469">
        <ele>365.44</ele>
        <time>2012-04-15T08:44:03Z</time>
      </trkpt>
      <trkpt lat="48.11702" lon="6.52472">
        <ele>365.92</ele>
        <time>2012-04-15T08:44:07Z</time>
      </trkpt>
      <trkpt lat="48.11701" lon="6.52477">
        <ele>365.92</ele>
        <time>2012-04-15T08:44:08Z</time>
      </trkpt>
      <trkpt lat="48.11706" lon="6.52529">
        <ele>364</ele>
        <time>2012-04-15T08:44:16Z</time>
      </trkpt>
      <trkpt lat="48.11712" lon="6.52559">
        <ele>365.44</ele>
        <time>2012-04-15T08:44:21Z</time>
      </trkpt>
      <trkpt lat="48.11715" lon="6.52564">
        <ele>364.96</ele>
        <time>2012-04-15T08:44:22Z</time>
      </trkpt>
      <trkpt lat="48.11718" lon="6.52568">
        <ele>364.96</ele>
        <time>2012-04-15T08:44:23Z</time>
      </trkpt>
      <trkpt lat="48.11721" lon="6.52573">
        <ele>364.48</ele>
        <time>2012-04-15T08:44:24Z</time>
      </trkpt>
      <trkpt lat="48.11724" lon="6.52577">
        <ele>364</ele>
        <time>2012-04-15T08:44:25Z</time>
      </trkpt>
      <trkpt lat="48.11745" lon="6.52622">
        <ele>366.4</ele>
        <time>2012-04-15T08:44:37Z</time>
      </trkpt>
      <trkpt lat="48.11769" lon="6.52649">
        <ele>366.88</ele>
        <time>2012-04-15T08:44:50Z</time>
      </trkpt>
      <trkpt lat="48.11791" lon="6.52677">
        <ele>366.88</ele>
        <time>2012-04-15T08:45:01Z</time>
      </trkpt>
      <trkpt lat="48.11816" lon="6.52706">
        <ele>366.88</ele>
        <time>2012-04-15T08:45:14Z</time>
      </trkpt>
      <trkpt lat="48.11818" lon="6.52705">
        <ele>364</ele>
        <time>2012-04-15T08:45:41Z</time>
      </trkpt>
      <trkpt lat="48.1182" lon="6.52704">
        <ele>364</ele>
        <time>2012-04-15T08:46:07Z</time>
      </trkpt>
      <trkpt lat="48.1182" lon="6.52704">
        <ele>364.48</ele>
        <time>2012-04-15T08:46:26Z</time>
      </trkpt>
      <trkpt lat="48.1182" lon="6.52704">
        <ele>364</ele>
        <time>2012-04-15T08:46:47Z</time>
      </trkpt>
      <trkpt lat="48.1182" lon="6.52705">
        <ele>364</ele>
        <time>2012-04-15T08:47:08Z</time>
      </trkpt>
      <trkpt lat="48.11821" lon="6.52704">
        <ele>364.48</ele>
        <time>2012-04-15T08:47:33Z</time>
      </trkpt>
      <trkpt lat="48.11823" lon="6.52708">
        <ele>364</ele>
        <time>2012-04-15T08:47:54Z</time>
      </trkpt>
      <trkpt lat="48.11824" lon="6.52709">
        <ele>364</ele>
        <time>2012-04-15T08:47:55Z</time>
      </trkpt>
      <trkpt lat="48.11826" lon="6.5271">
        <ele>364</ele>
        <time>2012-04-15T08:47:56Z</time>
      </trkpt>
      <trkpt lat="48.11847" lon="6.52738">
        <ele>363.04</ele>
        <time>2012-04-15T08:48:04Z</time>
      </trkpt>
      <trkpt lat="48.11849" lon="6.52744">
        <ele>363.04</ele>
        <time>2012-04-15T08:48:05Z</time>
      </trkpt>
      <trkpt lat="48.1185" lon="6.52749">
        <ele>362.55</ele>
        <time>2012-04-15T08:48:06Z</time>
      </trkpt>
      <trkpt lat="48.11853" lon="6.52792">
        <ele>361.59</ele>
        <time>2012-04-15T08:48:16Z</time>
      </trkpt>
      <trkpt lat="48.11854" lon="6.52796">
        <ele>361.59</ele>
        <time>2012-04-15T08:48:17Z</time>
      </trkpt>
      <trkpt lat="48.11857" lon="6.52799">
        <ele>361.59</ele>
        <time>2012-04-15T08:48:18Z</time>
      </trkpt>
      <trkpt lat="48.1186" lon="6.52801">
        <ele>361.59</ele>
        <time>2012-04-15T08:48:19Z</time>
      </trkpt>
      <trkpt lat="48.11914" lon="6.52838">
        <ele>360.15</ele>
        <time>2012-04-15T08:48:31Z</time>
      </trkpt>
      <trkpt lat="48.1192" lon="6.52841">
        <ele>360.15</ele>
        <time>2012-04-15T08:48:32Z</time>
      </trkpt>
      <trkpt lat="48.11925" lon="6.52843">
        <ele>360.63</ele>
        <time>2012-04-15T08:48:33Z</time>
      </trkpt>
      <trkpt lat="48.11953" lon="6.52865">
        <ele>363.04</ele>
        <time>2012-04-15T08:48:39Z</time>
      </trkpt>
      <trkpt lat="48.11958" lon="6.52868">
        <ele>363.52</ele>
        <time>2012-04-15T08:48:40Z</time>
      </trkpt>
      <trkpt lat="48.12" lon="6.52906">
        <ele>362.55</ele>
        <time>2012-04-15T08:48:49Z</time>
      </trkpt>
      <trkpt lat="48.12083" lon="6.52999">
        <ele>357.27</ele>
        <time>2012-04-15T08:49:06Z</time>
      </trkpt>
      <trkpt lat="48.12135" lon="6.53066">
        <ele>358.71</ele>
        <time>2012-04-15T08:49:19Z</time>
      </trkpt>
      <trkpt lat="48.12189" lon="6.53136">
        <ele>361.59</ele>
        <time>2012-04-15T08:49:34Z</time>
      </trkpt>
      <trkpt lat="48.12265" lon="6.53241">
        <ele>356.79</ele>
        <time>2012-04-15T08:49:51Z</time>
      </trkpt>
      <trkpt lat="48.12308" lon="6.533">
        <ele>356.79</ele>
        <time>2012-04-15T08:50:02Z</time>
      </trkpt>
      <trkpt lat="48.12364" lon="6.53379">
        <ele>358.71</ele>
        <time>2012-04-15T08:50:18Z</time>
      </trkpt>
      <trkpt lat="48.12414" lon="6.53446">
        <ele>360.63</ele>
        <time>2012-04-15T08:50:32Z</time>
      </trkpt>
      <trkpt lat="48.1243" lon="6.53467">
        <ele>362.55</ele>
        <time>2012-04-15T08:50:41Z</time>
      </trkpt>
      <trkpt lat="48.12432" lon="6.53465">
        <ele>363.04</ele>
        <time>2012-04-15T08:50:42Z</time>
      </trkpt>
      <trkpt lat="48.12434" lon="6.53461">
        <ele>363.04</ele>
        <time>2012-04-15T08:50:43Z</time>
      </trkpt>
      <trkpt lat="48.12437" lon="6.53457">
        <ele>363.52</ele>
        <time>2012-04-15T08:50:44Z</time>
      </trkpt>
      <trkpt lat="48.12439" lon="6.53452">
        <ele>363.04</ele>
        <time>2012-04-15T08:50:45Z</time>
      </trkpt>
      <trkpt lat="48.1245" lon="6.53423">
        <ele>363.04</ele>
        <time>2012-04-15T08:50:51Z</time>
      </trkpt>
      <trkpt lat="48.12473" lon="6.53376">
        <ele>362.07</ele>
        <time>2012-04-15T08:50:59Z</time>
      </trkpt>
      <trkpt lat="48.12475" lon="6.53369">
        <ele>362.07</ele>
        <time>2012-04-15T08:51:00Z</time>
      </trkpt>
      <trkpt lat="48.1248" lon="6.53342">
        <ele>361.59</ele>
        <time>2012-04-15T08:51:03Z</time>
      </trkpt>
      <trkpt lat="48.12501" lon="6.53259">
        <ele>360.15</ele>
        <time>2012-04-15T08:51:13Z</time>
      </trkpt>
      <trkpt lat="48.12499" lon="6.53253">
        <ele>360.63</ele>
        <time>2012-04-15T08:51:14Z</time>
      </trkpt>
      <trkpt lat="48.12484" lon="6.53209">
        <ele>361.59</ele>
        <time>2012-04-15T08:51:20Z</time>
      </trkpt>
      <trkpt lat="48.12482" lon="6.53201">
        <ele>361.59</ele>
        <time>2012-04-15T08:51:21Z</time>
      </trkpt>
      <trkpt lat="48.12466" lon="6.53086">
        <ele>361.11</ele>
        <time>2012-04-15T08:51:34Z</time>
      </trkpt>
      <trkpt lat="48.12466" lon="6.5305">
        <ele>360.63</ele>
        <time>2012-04-15T08:51:38Z</time>
      </trkpt>
      <trkpt lat="48.12466" lon="6.53042">
        <ele>361.11</ele>
        <time>2012-04-15T08:51:39Z</time>
      </trkpt>
      <trkpt lat="48.12466" lon="6.53034">
        <ele>361.11</ele>
        <time>2012-04-15T08:51:40Z</time>
      </trkpt>
      <trkpt lat="48.12466" lon="6.5301">
        <ele>361.11</ele>
        <time>2012-04-15T08:51:43Z</time>
      </trkpt>
      <trkpt lat="48.12468" lon="6.52958">
        <ele>360.63</ele>
        <time>2012-04-15T08:51:49Z</time>
      </trkpt>
      <trkpt lat="48.1247" lon="6.5295">
        <ele>360.63</ele>
        <time>2012-04-15T08:51:50Z</time>
      </trkpt>
      <trkpt lat="48.12477" lon="6.52919">
        <ele>361.11</ele>
        <time>2012-04-15T08:51:54Z</time>
      </trkpt>
      <trkpt lat="48.12487" lon="6.52885">
        <ele>361.11</ele>
        <time>2012-04-15T08:51:59Z</time>
      </trkpt>
      <trkpt lat="48.12521" lon="6.52827">
        <ele>362.55</ele>
        <time>2012-04-15T08:52:12Z</time>
      </trkpt>
      <trkpt lat="48.12524" lon="6.52816">
        <ele>367.84</ele>
        <time>2012-04-15T08:52:41Z</time>
      </trkpt>
      <trkpt lat="48.12527" lon="6.52801">
        <ele>367.84</ele>
        <time>2012-04-15T08:52:45Z</time>
      </trkpt>
      <trkpt lat="48.12534" lon="6.52783">
        <ele>368.32</ele>
        <time>2012-04-15T08:52:48Z</time>
      </trkpt>
      <trkpt lat="48.12569" lon="6.52708">
        <ele>367.36</ele>
        <time>2012-04-15T08:52:58Z</time>
      </trkpt>
      <trkpt lat="48.12612" lon="6.52577">
        <ele>364</ele>
        <time>2012-04-15T08:53:12Z</time>
      </trkpt>
      <trkpt lat="48.12635" lon="6.52473">
        <ele>361.11</ele>
        <time>2012-04-15T08:53:23Z</time>
      </trkpt>
      <trkpt lat="48.12676" lon="6.52354">
        <ele>358.23</ele>
        <time>2012-04-15T08:53:36Z</time>
      </trkpt>
      <trkpt lat="48.12715" lon="6.52227">
        <ele>358.71</ele>
        <time>2012-04-15T08:53:51Z</time>
      </trkpt>
      <trkpt lat="48.12752" lon="6.52138">
        <ele>361.11</ele>
        <time>2012-04-15T08:54:04Z</time>
      </trkpt>
      <trkpt lat="48.12773" lon="6.52083">
        <ele>362.55</ele>
        <time>2012-04-15T08:54:11Z</time>
      </trkpt>
      <trkpt lat="48.12788" lon="6.51972">
        <ele>364.48</ele>
        <time>2012-04-15T08:54:24Z</time>
      </trkpt>
      <trkpt lat="48.12805" lon="6.51866">
        <ele>365.44</ele>
        <time>2012-04-15T08:54:37Z</time>
      </trkpt>
      <trkpt lat="48.12821" lon="6.51828">
        <ele>364.48</ele>
        <time>2012-04-15T08:54:42Z</time>
      </trkpt>
      <trkpt lat="48.12825" lon="6.51821">
        <ele>364.48</ele>
        <time>2012-04-15T08:54:43Z</time>
      </trkpt>
      <trkpt lat="48.1283" lon="6.51814">
        <ele>364</ele>
        <time>2012-04-15T08:54:44Z</time>
      </trkpt>
      <trkpt lat="48.12874" lon="6.51754">
        <ele>360.15</ele>
        <time>2012-04-15T08:54:53Z</time>
      </trkpt>
      <trkpt lat="48.1288" lon="6.51748">
        <ele>359.67</ele>
        <time>2012-04-15T08:54:54Z</time>
      </trkpt>
      <trkpt lat="48.12922" lon="6.51722">
        <ele>357.27</ele>
        <time>2012-04-15T08:55:00Z</time>
      </trkpt>
      <trkpt lat="48.12929" lon="6.51721">
        <ele>357.27</ele>
        <time>2012-04-15T08:55:01Z</time>
      </trkpt>
      <trkpt lat="48.12935" lon="6.51721">
        <ele>356.79</ele>
        <time>2012-04-15T08:55:02Z</time>
      </trkpt>
      <trkpt lat="48.1296" lon="6.51724">
        <ele>356.79</ele>
        <time>2012-04-15T08:55:10Z</time>
      </trkpt>
      <trkpt lat="48.1297" lon="6.51727">
        <ele>358.23</ele>
        <time>2012-04-15T08:55:22Z</time>
      </trkpt>
      <trkpt lat="48.12971" lon="6.51724">
        <ele>358.23</ele>
        <time>2012-04-15T08:55:31Z</time>
      </trkpt>
      <trkpt lat="48.12966" lon="6.51728">
        <ele>360.63</ele>
        <time>2012-04-15T08:55:36Z</time>
      </trkpt>
      <trkpt lat="48.12965" lon="6.51729">
        <ele>361.11</ele>
        <time>2012-04-15T08:55:37Z</time>
      </trkpt>
      <trkpt lat="48.12958" lon="6.51734">
        <ele>369.76</ele>
        <time>2012-04-15T08:55:48Z</time>
      </trkpt>
      <trkpt lat="48.12957" lon="6.51735">
        <ele>370.73</ele>
        <time>2012-04-15T08:55:49Z</time>
      </trkpt>
      <trkpt lat="48.12946" lon="6.51746">
        <ele>379.86</ele>
        <time>2012-04-15T08:56:02Z</time>
      </trkpt>
      <trkpt lat="48.12934" lon="6.51758">
        <ele>387.07</ele>
        <time>2012-04-15T08:56:14Z</time>
      </trkpt>
      <trkpt lat="48.12931" lon="6.51762">
        <ele>388.51</ele>
        <time>2012-04-15T08:56:17Z</time>
      </trkpt>
      <trkpt lat="48.1293" lon="6.51765">
        <ele>388.99</ele>
        <time>2012-04-15T08:56:18Z</time>
      </trkpt>
      <trkpt lat="48.12928" lon="6.51767">
        <ele>389.95</ele>
        <time>2012-04-15T08:56:19Z</time>
      </trkpt>
      <trkpt lat="48.12921" lon="6.51774">
        <ele>396.68</ele>
        <time>2012-04-15T08:56:29Z</time>
      </trkpt>
      <trkpt lat="48.12915" lon="6.51785">
        <ele>400.53</ele>
        <time>2012-04-15T08:56:39Z</time>
      </trkpt>
      <trkpt lat="48.12912" lon="6.51789">
        <ele>401.49</ele>
        <time>2012-04-15T08:56:49Z</time>
      </trkpt>
      <trkpt lat="48.12907" lon="6.51799">
        <ele>402.45</ele>
        <time>2012-04-15T08:56:59Z</time>
      </trkpt>
      <trkpt lat="48.12902" lon="6.51812">
        <ele>408.22</ele>
        <time>2012-04-15T08:57:13Z</time>
      </trkpt>
      <trkpt lat="48.12903" lon="6.51813">
        <ele>410.14</ele>
        <time>2012-04-15T08:57:28Z</time>
      </trkpt>
      <trkpt lat="48.12901" lon="6.51814">
        <ele>410.14</ele>
        <time>2012-04-15T08:57:36Z</time>
      </trkpt>
      <trkpt lat="48.129" lon="6.51815">
        <ele>410.62</ele>
        <time>2012-04-15T08:57:37Z</time>
      </trkpt>
      <trkpt lat="48.12881" lon="6.51843">
        <ele>418.79</ele>
        <time>2012-04-15T08:57:53Z</time>
      </trkpt>
      <trkpt lat="48.12875" lon="6.51854">
        <ele>420.71</ele>
        <time>2012-04-15T08:57:57Z</time>
      </trkpt>
      <trkpt lat="48.12874" lon="6.51857">
        <ele>421.19</ele>
        <time>2012-04-15T08:57:58Z</time>
      </trkpt>
      <trkpt lat="48.12872" lon="6.51859">
        <ele>422.16</ele>
        <time>2012-04-15T08:57:59Z</time>
      </trkpt>
      <trkpt lat="48.1287" lon="6.51862">
        <ele>422.64</ele>
        <time>2012-04-15T08:58:00Z</time>
      </trkpt>
      <trkpt lat="48.12868" lon="6.51865">
        <ele>423.6</ele>
        <time>2012-04-15T08:58:01Z</time>
      </trkpt>
      <trkpt lat="48.12861" lon="6.51879">
        <ele>426</ele>
        <time>2012-04-15T08:58:05Z</time>
      </trkpt>
      <trkpt lat="48.1286" lon="6.51882">
        <ele>426.48</ele>
        <time>2012-04-15T08:58:06Z</time>
      </trkpt>
      <trkpt lat="48.12859" lon="6.51886">
        <ele>427.44</ele>
        <time>2012-04-15T08:58:07Z</time>
      </trkpt>
      <trkpt lat="48.12847" lon="6.51924">
        <ele>427.44</ele>
        <time>2012-04-15T08:58:17Z</time>
      </trkpt>
      <trkpt lat="48.12837" lon="6.51963">
        <ele>421.68</ele>
        <time>2012-04-15T08:58:28Z</time>
      </trkpt>
      <trkpt lat="48.12834" lon="6.52024">
        <ele>420.71</ele>
        <time>2012-04-15T08:58:39Z</time>
      </trkpt>
      <trkpt lat="48.12835" lon="6.52038">
        <ele>420.71</ele>
        <time>2012-04-15T08:58:41Z</time>
      </trkpt>
      <trkpt lat="48.12834" lon="6.52045">
        <ele>420.71</ele>
        <time>2012-04-15T08:58:42Z</time>
      </trkpt>
      <trkpt lat="48.12832" lon="6.52052">
        <ele>420.71</ele>
        <time>2012-04-15T08:58:43Z</time>
      </trkpt>
      <trkpt lat="48.1282" lon="6.52088">
        <ele>420.71</ele>
        <time>2012-04-15T08:58:50Z</time>
      </trkpt>
      <trkpt lat="48.12818" lon="6.52092">
        <ele>420.71</ele>
        <time>2012-04-15T08:58:51Z</time>
      </trkpt>
      <trkpt lat="48.128" lon="6.52138">
        <ele>404.85</ele>
        <time>2012-04-15T08:59:01Z</time>
      </trkpt>
      <trkpt lat="48.12781" lon="6.5218">
        <ele>409.66</ele>
        <time>2012-04-15T08:59:13Z</time>
      </trkpt>
      <trkpt lat="48.12767" lon="6.52225">
        <ele>410.14</ele>
        <time>2012-04-15T08:59:24Z</time>
      </trkpt>
      <trkpt lat="48.12767" lon="6.52229">
        <ele>410.14</ele>
        <time>2012-04-15T08:59:25Z</time>
      </trkpt>
      <trkpt lat="48.12767" lon="6.52232">
        <ele>410.14</ele>
        <time>2012-04-15T08:59:26Z</time>
      </trkpt>
      <trkpt lat="48.12767" lon="6.52234">
        <ele>410.14</ele>
        <time>2012-04-15T08:59:27Z</time>
      </trkpt>
      <trkpt lat="48.12764" lon="6.5224">
        <ele>406.77</ele>
        <time>2012-04-15T08:59:37Z</time>
      </trkpt>
      <trkpt lat="48.12761" lon="6.52246">
        <ele>403.41</ele>
        <time>2012-04-15T08:59:42Z</time>
      </trkpt>
      <trkpt lat="48.12765" lon="6.52256">
        <ele>401.97</ele>
        <time>2012-04-15T08:59:46Z</time>
      </trkpt>
      <trkpt lat="48.12782" lon="6.52286">
        <ele>405.81</ele>
        <time>2012-04-15T08:59:56Z</time>
      </trkpt>
      <trkpt lat="48.12777" lon="6.52314">
        <ele>412.06</ele>
        <time>2012-04-15T09:00:06Z</time>
      </trkpt>
      <trkpt lat="48.12762" lon="6.52358">
        <ele>416.87</ele>
        <time>2012-04-15T09:00:19Z</time>
      </trkpt>
      <trkpt lat="48.12756" lon="6.52369">
        <ele>416.39</ele>
        <time>2012-04-15T09:00:23Z</time>
      </trkpt>
      <trkpt lat="48.12747" lon="6.52385">
        <ele>415.91</ele>
        <time>2012-04-15T09:00:28Z</time>
      </trkpt>
      <trkpt lat="48.12742" lon="6.52407">
        <ele>415.91</ele>
        <time>2012-04-15T09:00:35Z</time>
      </trkpt>
      <trkpt lat="48.12731" lon="6.52443">
        <ele>415.91</ele>
        <time>2012-04-15T09:00:43Z</time>
      </trkpt>
      <trkpt lat="48.12722" lon="6.52479">
        <ele>416.39</ele>
        <time>2012-04-15T09:00:49Z</time>
      </trkpt>
      <trkpt lat="48.1271" lon="6.52524">
        <ele>416.87</ele>
        <time>2012-04-15T09:00:56Z</time>
      </trkpt>
      <trkpt lat="48.12707" lon="6.52544">
        <ele>417.35</ele>
        <time>2012-04-15T09:00:59Z</time>
      </trkpt>
      <trkpt lat="48.12699" lon="6.52593">
        <ele>417.35</ele>
        <time>2012-04-15T09:01:07Z</time>
      </trkpt>
      <trkpt lat="48.12701" lon="6.52615">
        <ele>417.83</ele>
        <time>2012-04-15T09:01:10Z</time>
      </trkpt>
      <trkpt lat="48.12705" lon="6.52673">
        <ele>416.39</ele>
        <time>2012-04-15T09:01:18Z</time>
      </trkpt>
      <trkpt lat="48.12706" lon="6.52686">
        <ele>415.91</ele>
        <time>2012-04-15T09:01:20Z</time>
      </trkpt>
      <trkpt lat="48.12707" lon="6.52701">
        <ele>415.43</ele>
        <time>2012-04-15T09:01:22Z</time>
      </trkpt>
      <trkpt lat="48.12711" lon="6.52714">
        <ele>415.43</ele>
        <time>2012-04-15T09:01:24Z</time>
      </trkpt>
      <trkpt lat="48.12713" lon="6.52719">
        <ele>414.95</ele>
        <time>2012-04-15T09:01:25Z</time>
      </trkpt>
      <trkpt lat="48.12713" lon="6.52721">
        <ele>413.5</ele>
        <time>2012-04-15T09:01:26Z</time>
      </trkpt>
      <trkpt lat="48.12714" lon="6.52724">
        <ele>412.06</ele>
        <time>2012-04-15T09:01:27Z</time>
      </trkpt>
      <trkpt lat="48.12717" lon="6.52726">
        <ele>411.58</ele>
        <time>2012-04-15T09:01:28Z</time>
      </trkpt>
      <trkpt lat="48.12719" lon="6.52727">
        <ele>411.1</ele>
        <time>2012-04-15T09:01:29Z</time>
      </trkpt>
      <trkpt lat="48.12754" lon="6.52728">
        <ele>413.02</ele>
        <time>2012-04-15T09:01:40Z</time>
      </trkpt>
      <trkpt lat="48.12756" lon="6.52728">
        <ele>413.5</ele>
        <time>2012-04-15T09:01:41Z</time>
      </trkpt>
      <trkpt lat="48.12759" lon="6.52728">
        <ele>413.98</ele>
        <time>2012-04-15T09:01:42Z</time>
      </trkpt>
      <trkpt lat="48.12763" lon="6.52727">
        <ele>414.47</ele>
        <time>2012-04-15T09:01:43Z</time>
      </trkpt>
      <trkpt lat="48.12766" lon="6.52727">
        <ele>414.95</ele>
        <time>2012-04-15T09:01:44Z</time>
      </trkpt>
      <trkpt lat="48.12807" lon="6.52727">
        <ele>419.27</ele>
        <time>2012-04-15T09:01:58Z</time>
      </trkpt>
      <trkpt lat="48.12841" lon="6.52716">
        <ele>424.08</ele>
        <time>2012-04-15T09:02:09Z</time>
      </trkpt>
      <trkpt lat="48.12907" lon="6.52698">
        <ele>419.27</ele>
        <time>2012-04-15T09:02:22Z</time>
      </trkpt>
      <trkpt lat="48.12988" lon="6.52665">
        <ele>405.33</ele>
        <time>2012-04-15T09:02:37Z</time>
      </trkpt>
      <trkpt lat="48.13024" lon="6.52629">
        <ele>399.57</ele>
        <time>2012-04-15T09:02:45Z</time>
      </trkpt>
      <trkpt lat="48.13098" lon="6.52548">
        <ele>394.76</ele>
        <time>2012-04-15T09:03:03Z</time>
      </trkpt>
      <trkpt lat="48.13152" lon="6.52495">
        <ele>394.28</ele>
        <time>2012-04-15T09:03:16Z</time>
      </trkpt>
      <trkpt lat="48.13222" lon="6.52462">
        <ele>392.84</ele>
        <time>2012-04-15T09:03:30Z</time>
      </trkpt>
      <trkpt lat="48.13298" lon="6.5245">
        <ele>391.87</ele>
        <time>2012-04-15T09:03:45Z</time>
      </trkpt>
      <trkpt lat="48.13342" lon="6.52455">
        <ele>391.87</ele>
        <time>2012-04-15T09:03:54Z</time>
      </trkpt>
      <trkpt lat="48.13347" lon="6.52454">
        <ele>392.36</ele>
        <time>2012-04-15T09:03:55Z</time>
      </trkpt>
      <trkpt lat="48.13351" lon="6.52451">
        <ele>392.36</ele>
        <time>2012-04-15T09:03:56Z</time>
      </trkpt>
      <trkpt lat="48.13355" lon="6.52448">
        <ele>392.36</ele>
        <time>2012-04-15T09:03:57Z</time>
      </trkpt>
      <trkpt lat="48.13359" lon="6.52444">
        <ele>392.84</ele>
        <time>2012-04-15T09:03:58Z</time>
      </trkpt>
      <trkpt lat="48.13362" lon="6.5244">
        <ele>392.84</ele>
        <time>2012-04-15T09:03:59Z</time>
      </trkpt>
      <trkpt lat="48.13364" lon="6.52435">
        <ele>392.84</ele>
        <time>2012-04-15T09:04:00Z</time>
      </trkpt>
      <trkpt lat="48.1337" lon="6.52414">
        <ele>392.84</ele>
        <time>2012-04-15T09:04:04Z</time>
      </trkpt>
      <trkpt lat="48.13371" lon="6.52407">
        <ele>392.84</ele>
        <time>2012-04-15T09:04:05Z</time>
      </trkpt>
      <trkpt lat="48.13372" lon="6.52401">
        <ele>393.32</ele>
        <time>2012-04-15T09:04:06Z</time>
      </trkpt>
      <trkpt lat="48.13373" lon="6.52395">
        <ele>393.32</ele>
        <time>2012-04-15T09:04:07Z</time>
      </trkpt>
      <trkpt lat="48.13373" lon="6.52389">
        <ele>393.32</ele>
        <time>2012-04-15T09:04:08Z</time>
      </trkpt>
      <trkpt lat="48.13373" lon="6.52383">
        <ele>393.8</ele>
        <time>2012-04-15T09:04:09Z</time>
      </trkpt>
      <trkpt lat="48.13373" lon="6.52378">
        <ele>394.28</ele>
        <time>2012-04-15T09:04:10Z</time>
      </trkpt>
      <trkpt lat="48.13379" lon="6.52308">
        <ele>400.53</ele>
        <time>2012-04-15T09:04:22Z</time>
      </trkpt>
      <trkpt lat="48.13381" lon="6.52284">
        <ele>402.45</ele>
        <time>2012-04-15T09:04:26Z</time>
      </trkpt>
      <trkpt lat="48.13382" lon="6.52278">
        <ele>403.41</ele>
        <time>2012-04-15T09:04:27Z</time>
      </trkpt>
      <trkpt lat="48.13386" lon="6.52265">
        <ele>404.37</ele>
        <time>2012-04-15T09:04:29Z</time>
      </trkpt>
      <trkpt lat="48.13388" lon="6.52259">
        <ele>404.85</ele>
        <time>2012-04-15T09:04:30Z</time>
      </trkpt>
      <trkpt lat="48.13391" lon="6.52246">
        <ele>405.81</ele>
        <time>2012-04-15T09:04:32Z</time>
      </trkpt>
      <trkpt lat="48.13393" lon="6.5224">
        <ele>406.29</ele>
        <time>2012-04-15T09:04:33Z</time>
      </trkpt>
      <trkpt lat="48.13395" lon="6.52234">
        <ele>406.29</ele>
        <time>2012-04-15T09:04:34Z</time>
      </trkpt>
      <trkpt lat="48.13398" lon="6.52227">
        <ele>406.77</ele>
        <time>2012-04-15T09:04:35Z</time>
      </trkpt>
      <trkpt lat="48.134" lon="6.52221">
        <ele>406.77</ele>
        <time>2012-04-15T09:04:36Z</time>
      </trkpt>
      <trkpt lat="48.13405" lon="6.522">
        <ele>407.26</ele>
        <time>2012-04-15T09:04:39Z</time>
      </trkpt>
      <trkpt lat="48.13415" lon="6.5217">
        <ele>408.22</ele>
        <time>2012-04-15T09:04:43Z</time>
      </trkpt>
      <trkpt lat="48.13423" lon="6.52139">
        <ele>408.22</ele>
        <time>2012-04-15T09:04:47Z</time>
      </trkpt>
      <trkpt lat="48.13433" lon="6.52106">
        <ele>407.26</ele>
        <time>2012-04-15T09:04:51Z</time>
      </trkpt>
      <trkpt lat="48.13435" lon="6.52098">
        <ele>407.26</ele>
        <time>2012-04-15T09:04:52Z</time>
      </trkpt>
      <trkpt lat="48.13438" lon="6.52089">
        <ele>406.77</ele>
        <time>2012-04-15T09:04:53Z</time>
      </trkpt>
      <trkpt lat="48.13469" lon="6.52025">
        <ele>405.81</ele>
        <time>2012-04-15T09:05:02Z</time>
      </trkpt>
      <trkpt lat="48.13493" lon="6.51985">
        <ele>407.74</ele>
        <time>2012-04-15T09:05:09Z</time>
      </trkpt>
      <trkpt lat="48.13497" lon="6.5198">
        <ele>408.22</ele>
        <time>2012-04-15T09:05:10Z</time>
      </trkpt>
      <trkpt lat="48.13501" lon="6.51976">
        <ele>408.7</ele>
        <time>2012-04-15T09:05:11Z</time>
      </trkpt>
      <trkpt lat="48.13512" lon="6.51966">
        <ele>409.66</ele>
        <time>2012-04-15T09:05:14Z</time>
      </trkpt>
      <trkpt lat="48.13549" lon="6.51933">
        <ele>416.87</ele>
        <time>2012-04-15T09:05:25Z</time>
      </trkpt>
      <trkpt lat="48.1358" lon="6.51899">
        <ele>423.12</ele>
        <time>2012-04-15T09:05:36Z</time>
      </trkpt>
      <trkpt lat="48.13584" lon="6.51895">
        <ele>423.6</ele>
        <time>2012-04-15T09:05:37Z</time>
      </trkpt>
      <trkpt lat="48.13587" lon="6.51892">
        <ele>424.08</ele>
        <time>2012-04-15T09:05:38Z</time>
      </trkpt>
      <trkpt lat="48.1359" lon="6.51889">
        <ele>425.04</ele>
        <time>2012-04-15T09:05:39Z</time>
      </trkpt>
      <trkpt lat="48.13619" lon="6.51851">
        <ele>433.69</ele>
        <time>2012-04-15T09:05:51Z</time>
      </trkpt>
      <trkpt lat="48.13636" lon="6.5183">
        <ele>439.94</ele>
        <time>2012-04-15T09:05:58Z</time>
      </trkpt>
      <trkpt lat="48.13639" lon="6.51828">
        <ele>440.9</ele>
        <time>2012-04-15T09:05:59Z</time>
      </trkpt>
      <trkpt lat="48.13641" lon="6.51826">
        <ele>442.34</ele>
        <time>2012-04-15T09:06:00Z</time>
      </trkpt>
      <trkpt lat="48.13644" lon="6.51823">
        <ele>443.31</ele>
        <time>2012-04-15T09:06:01Z</time>
      </trkpt>
      <trkpt lat="48.13647" lon="6.51821">
        <ele>444.27</ele>
        <time>2012-04-15T09:06:02Z</time>
      </trkpt>
      <trkpt lat="48.1365" lon="6.51818">
        <ele>445.23</ele>
        <time>2012-04-15T09:06:03Z</time>
      </trkpt>
      <trkpt lat="48.13652" lon="6.51816">
        <ele>446.19</ele>
        <time>2012-04-15T09:06:04Z</time>
      </trkpt>
      <trkpt lat="48.13655" lon="6.51813">
        <ele>447.15</ele>
        <time>2012-04-15T09:06:05Z</time>
      </trkpt>
      <trkpt lat="48.13659" lon="6.51811">
        <ele>448.11</ele>
        <time>2012-04-15T09:06:06Z</time>
      </trkpt>
      <trkpt lat="48.13661" lon="6.51808">
        <ele>449.07</ele>
        <time>2012-04-15T09:06:07Z</time>
      </trkpt>
      <trkpt lat="48.13664" lon="6.51806">
        <ele>450.03</ele>
        <time>2012-04-15T09:06:08Z</time>
      </trkpt>
      <trkpt lat="48.13667" lon="6.51803">
        <ele>451</ele>
        <time>2012-04-15T09:06:09Z</time>
      </trkpt>
      <trkpt lat="48.13704" lon="6.51783">
        <ele>457.24</ele>
        <time>2012-04-15T09:06:19Z</time>
      </trkpt>
      <trkpt lat="48.13727" lon="6.51773">
        <ele>458.69</ele>
        <time>2012-04-15T09:06:25Z</time>
      </trkpt>
      <trkpt lat="48.13755" lon="6.5176">
        <ele>460.61</ele>
        <time>2012-04-15T09:06:32Z</time>
      </trkpt>
      <trkpt lat="48.1376" lon="6.51759">
        <ele>461.57</ele>
        <time>2012-04-15T09:06:33Z</time>
      </trkpt>
      <trkpt lat="48.13765" lon="6.51758">
        <ele>461.57</ele>
        <time>2012-04-15T09:06:34Z</time>
      </trkpt>
      <trkpt lat="48.13789" lon="6.51748">
        <ele>462.53</ele>
        <time>2012-04-15T09:06:39Z</time>
      </trkpt>
      <trkpt lat="48.13809" lon="6.51741">
        <ele>463.01</ele>
        <time>2012-04-15T09:06:43Z</time>
      </trkpt>
      <trkpt lat="48.1387" lon="6.51701">
        <ele>460.61</ele>
        <time>2012-04-15T09:06:55Z</time>
      </trkpt>
      <trkpt lat="48.13936" lon="6.51669">
        <ele>455.32</ele>
        <time>2012-04-15T09:07:06Z</time>
      </trkpt>
      <trkpt lat="48.13975" lon="6.51669">
        <ele>451.96</ele>
        <time>2012-04-15T09:07:13Z</time>
      </trkpt>
      <trkpt lat="48.14003" lon="6.51664">
        <ele>450.52</ele>
        <time>2012-04-15T09:07:18Z</time>
      </trkpt>
      <trkpt lat="48.14008" lon="6.51663">
        <ele>450.03</ele>
        <time>2012-04-15T09:07:19Z</time>
      </trkpt>
      <trkpt lat="48.14068" lon="6.51669">
        <ele>448.11</ele>
        <time>2012-04-15T09:07:30Z</time>
      </trkpt>
      <trkpt lat="48.14073" lon="6.51669">
        <ele>448.11</ele>
        <time>2012-04-15T09:07:31Z</time>
      </trkpt>
      <trkpt lat="48.14078" lon="6.51671">
        <ele>447.63</ele>
        <time>2012-04-15T09:07:32Z</time>
      </trkpt>
      <trkpt lat="48.14083" lon="6.51672">
        <ele>447.15</ele>
        <time>2012-04-15T09:07:33Z</time>
      </trkpt>
      <trkpt lat="48.14088" lon="6.51673">
        <ele>447.15</ele>
        <time>2012-04-15T09:07:34Z</time>
      </trkpt>
      <trkpt lat="48.14148" lon="6.5169">
        <ele>442.34</ele>
        <time>2012-04-15T09:07:45Z</time>
      </trkpt>
      <trkpt lat="48.14163" lon="6.51696">
        <ele>441.86</ele>
        <time>2012-04-15T09:07:48Z</time>
      </trkpt>
      <trkpt lat="48.14168" lon="6.51696">
        <ele>441.38</ele>
        <time>2012-04-15T09:07:49Z</time>
      </trkpt>
      <trkpt lat="48.14178" lon="6.51695">
        <ele>440.9</ele>
        <time>2012-04-15T09:07:51Z</time>
      </trkpt>
      <trkpt lat="48.14217" lon="6.5169">
        <ele>441.86</ele>
        <time>2012-04-15T09:08:01Z</time>
      </trkpt>
      <trkpt lat="48.14221" lon="6.5169">
        <ele>442.34</ele>
        <time>2012-04-15T09:08:02Z</time>
      </trkpt>
      <trkpt lat="48.14226" lon="6.51689">
        <ele>442.82</ele>
        <time>2012-04-15T09:08:03Z</time>
      </trkpt>
      <trkpt lat="48.1423" lon="6.51686">
        <ele>443.79</ele>
        <time>2012-04-15T09:08:04Z</time>
      </trkpt>
      <trkpt lat="48.14234" lon="6.51681">
        <ele>444.27</ele>
        <time>2012-04-15T09:08:05Z</time>
      </trkpt>
      <trkpt lat="48.14238" lon="6.51675">
        <ele>445.23</ele>
        <time>2012-04-15T09:08:06Z</time>
      </trkpt>
      <trkpt lat="48.14243" lon="6.51669">
        <ele>445.71</ele>
        <time>2012-04-15T09:08:07Z</time>
      </trkpt>
      <trkpt lat="48.14248" lon="6.51666">
        <ele>446.19</ele>
        <time>2012-04-15T09:08:08Z</time>
      </trkpt>
      <trkpt lat="48.14255" lon="6.51664">
        <ele>446.67</ele>
        <time>2012-04-15T09:08:09Z</time>
      </trkpt>
      <trkpt lat="48.14266" lon="6.5166">
        <ele>447.63</ele>
        <time>2012-04-15T09:08:11Z</time>
      </trkpt>
      <trkpt lat="48.14276" lon="6.51653">
        <ele>448.59</ele>
        <time>2012-04-15T09:08:13Z</time>
      </trkpt>
      <trkpt lat="48.14281" lon="6.5165">
        <ele>448.59</ele>
        <time>2012-04-15T09:08:14Z</time>
      </trkpt>
      <trkpt lat="48.14286" lon="6.51647">
        <ele>449.55</ele>
        <time>2012-04-15T09:08:15Z</time>
      </trkpt>
      <trkpt lat="48.14303" lon="6.51636">
        <ele>451.48</ele>
        <time>2012-04-15T09:08:19Z</time>
      </trkpt>
      <trkpt lat="48.14307" lon="6.51635">
        <ele>451.96</ele>
        <time>2012-04-15T09:08:20Z</time>
      </trkpt>
      <trkpt lat="48.14311" lon="6.51633">
        <ele>452.44</ele>
        <time>2012-04-15T09:08:21Z</time>
      </trkpt>
      <trkpt lat="48.14316" lon="6.51632">
        <ele>453.4</ele>
        <time>2012-04-15T09:08:22Z</time>
      </trkpt>
      <trkpt lat="48.14336" lon="6.51615">
        <ele>456.28</ele>
        <time>2012-04-15T09:08:26Z</time>
      </trkpt>
      <trkpt lat="48.14353" lon="6.51591">
        <ele>459.65</ele>
        <time>2012-04-15T09:08:30Z</time>
      </trkpt>
      <trkpt lat="48.1436" lon="6.51579">
        <ele>461.09</ele>
        <time>2012-04-15T09:08:32Z</time>
      </trkpt>
      <trkpt lat="48.14372" lon="6.51563">
        <ele>463.97</ele>
        <time>2012-04-15T09:08:35Z</time>
      </trkpt>
      <trkpt lat="48.14386" lon="6.51549">
        <ele>467.34</ele>
        <time>2012-04-15T09:08:38Z</time>
      </trkpt>
      <trkpt lat="48.14395" lon="6.51541">
        <ele>469.26</ele>
        <time>2012-04-15T09:08:40Z</time>
      </trkpt>
      <trkpt lat="48.14429" lon="6.51512">
        <ele>476.47</ele>
        <time>2012-04-15T09:08:47Z</time>
      </trkpt>
      <trkpt lat="48.14448" lon="6.51493">
        <ele>480.32</ele>
        <time>2012-04-15T09:08:51Z</time>
      </trkpt>
      <trkpt lat="48.14459" lon="6.51483">
        <ele>480.8</ele>
        <time>2012-04-15T09:08:53Z</time>
      </trkpt>
      <trkpt lat="48.14467" lon="6.51418">
        <ele>474.55</ele>
        <time>2012-04-15T09:08:59Z</time>
      </trkpt>
      <trkpt lat="48.14471" lon="6.51297">
        <ele>457.72</ele>
        <time>2012-04-15T09:09:08Z</time>
      </trkpt>
      <trkpt lat="48.14487" lon="6.5124">
        <ele>443.79</ele>
        <time>2012-04-15T09:09:16Z</time>
      </trkpt>
      <trkpt lat="48.14491" lon="6.5124">
        <ele>442.82</ele>
        <time>2012-04-15T09:09:17Z</time>
      </trkpt>
      <trkpt lat="48.14495" lon="6.51242">
        <ele>441.86</ele>
        <time>2012-04-15T09:09:18Z</time>
      </trkpt>
      <trkpt lat="48.14499" lon="6.51243">
        <ele>440.9</ele>
        <time>2012-04-15T09:09:19Z</time>
      </trkpt>
      <trkpt lat="48.14506" lon="6.51245">
        <ele>439.94</ele>
        <time>2012-04-15T09:09:21Z</time>
      </trkpt>
      <trkpt lat="48.14512" lon="6.51231">
        <ele>438.02</ele>
        <time>2012-04-15T09:09:26Z</time>
      </trkpt>
      <trkpt lat="48.14509" lon="6.51177">
        <ele>436.58</ele>
        <time>2012-04-15T09:09:38Z</time>
      </trkpt>
      <trkpt lat="48.14509" lon="6.51164">
        <ele>436.1</ele>
        <time>2012-04-15T09:09:41Z</time>
      </trkpt>
      <trkpt lat="48.14514" lon="6.51112">
        <ele>432.73</ele>
        <time>2012-04-15T09:09:51Z</time>
      </trkpt>
      <trkpt lat="48.14518" lon="6.51094">
        <ele>433.21</ele>
        <time>2012-04-15T09:09:55Z</time>
      </trkpt>
      <trkpt lat="48.14523" lon="6.51065">
        <ele>435.13</ele>
        <time>2012-04-15T09:10:01Z</time>
      </trkpt>
      <trkpt lat="48.14523" lon="6.51022">
        <ele>438.5</ele>
        <time>2012-04-15T09:10:10Z</time>
      </trkpt>
      <trkpt lat="48.14522" lon="6.50964">
        <ele>440.42</ele>
        <time>2012-04-15T09:10:20Z</time>
      </trkpt>
      <trkpt lat="48.14518" lon="6.50947">
        <ele>438.02</ele>
        <time>2012-04-15T09:10:23Z</time>
      </trkpt>
      <trkpt lat="48.14508" lon="6.50915">
        <ele>433.69</ele>
        <time>2012-04-15T09:10:29Z</time>
      </trkpt>
      <trkpt lat="48.14515" lon="6.50894">
        <ele>427.44</ele>
        <time>2012-04-15T09:10:34Z</time>
      </trkpt>
      <trkpt lat="48.14535" lon="6.50876">
        <ele>425.04</ele>
        <time>2012-04-15T09:10:41Z</time>
      </trkpt>
      <trkpt lat="48.14539" lon="6.50872">
        <ele>424.56</ele>
        <time>2012-04-15T09:10:42Z</time>
      </trkpt>
      <trkpt lat="48.14542" lon="6.50868">
        <ele>424.56</ele>
        <time>2012-04-15T09:10:43Z</time>
      </trkpt>
      <trkpt lat="48.14568" lon="6.50833">
        <ele>418.31</ele>
        <time>2012-04-15T09:10:51Z</time>
      </trkpt>
      <trkpt lat="48.1459" lon="6.50803">
        <ele>415.91</ele>
        <time>2012-04-15T09:10:58Z</time>
      </trkpt>
      <trkpt lat="48.14607" lon="6.50773">
        <ele>415.91</ele>
        <time>2012-04-15T09:11:04Z</time>
      </trkpt>
      <trkpt lat="48.14649" lon="6.50702">
        <ele>413.98</ele>
        <time>2012-04-15T09:11:19Z</time>
      </trkpt>
      <trkpt lat="48.14675" lon="6.50661">
        <ele>413.98</ele>
        <time>2012-04-15T09:11:28Z</time>
      </trkpt>
      <trkpt lat="48.14688" lon="6.50638">
        <ele>414.47</ele>
        <time>2012-04-15T09:11:32Z</time>
      </trkpt>
      <trkpt lat="48.14714" lon="6.50595">
        <ele>415.91</ele>
        <time>2012-04-15T09:11:41Z</time>
      </trkpt>
      <trkpt lat="48.14741" lon="6.50563">
        <ele>418.79</ele>
        <time>2012-04-15T09:11:49Z</time>
      </trkpt>
      <trkpt lat="48.14769" lon="6.50512">
        <ele>423.6</ele>
        <time>2012-04-15T09:11:59Z</time>
      </trkpt>
      <trkpt lat="48.14778" lon="6.50483">
        <ele>426</ele>
        <time>2012-04-15T09:12:04Z</time>
      </trkpt>
      <trkpt lat="48.14793" lon="6.50433">
        <ele>424.56</ele>
        <time>2012-04-15T09:12:13Z</time>
      </trkpt>
      <trkpt lat="48.14819" lon="6.50357">
        <ele>422.64</ele>
        <time>2012-04-15T09:12:25Z</time>
      </trkpt>
      <trkpt lat="48.14821" lon="6.50351">
        <ele>422.64</ele>
        <time>2012-04-15T09:12:26Z</time>
      </trkpt>
      <trkpt lat="48.14827" lon="6.50319">
        <ele>421.19</ele>
        <time>2012-04-15T09:12:31Z</time>
      </trkpt>
      <trkpt lat="48.14828" lon="6.50312">
        <ele>421.19</ele>
        <time>2012-04-15T09:12:32Z</time>
      </trkpt>
      <trkpt lat="48.1483" lon="6.50306">
        <ele>421.19</ele>
        <time>2012-04-15T09:12:33Z</time>
      </trkpt>
      <trkpt lat="48.14831" lon="6.503">
        <ele>420.71</ele>
        <time>2012-04-15T09:12:34Z</time>
      </trkpt>
      <trkpt lat="48.14832" lon="6.50293">
        <ele>420.23</ele>
        <time>2012-04-15T09:12:35Z</time>
      </trkpt>
      <trkpt lat="48.14833" lon="6.50287">
        <ele>420.23</ele>
        <time>2012-04-15T09:12:36Z</time>
      </trkpt>
      <trkpt lat="48.14838" lon="6.50268">
        <ele>418.79</ele>
        <time>2012-04-15T09:12:41Z</time>
      </trkpt>
      <trkpt lat="48.14845" lon="6.50263">
        <ele>413.98</ele>
        <time>2012-04-15T09:12:44Z</time>
      </trkpt>
      <trkpt lat="48.1486" lon="6.50289">
        <ele>404.85</ele>
        <time>2012-04-15T09:12:58Z</time>
      </trkpt>
      <trkpt lat="48.14865" lon="6.5032">
        <ele>403.89</ele>
        <time>2012-04-15T09:13:10Z</time>
      </trkpt>
      <trkpt lat="48.14867" lon="6.5037">
        <ele>404.85</ele>
        <time>2012-04-15T09:13:24Z</time>
      </trkpt>
      <trkpt lat="48.14868" lon="6.50379">
        <ele>405.33</ele>
        <time>2012-04-15T09:13:26Z</time>
      </trkpt>
      <trkpt lat="48.14878" lon="6.50439">
        <ele>406.77</ele>
        <time>2012-04-15T09:13:38Z</time>
      </trkpt>
      <trkpt lat="48.14888" lon="6.50472">
        <ele>407.26</ele>
        <time>2012-04-15T09:13:44Z</time>
      </trkpt>
      <trkpt lat="48.14889" lon="6.50478">
        <ele>407.26</ele>
        <time>2012-04-15T09:13:45Z</time>
      </trkpt>
      <trkpt lat="48.14889" lon="6.50483">
        <ele>407.26</ele>
        <time>2012-04-15T09:13:46Z</time>
      </trkpt>
      <trkpt lat="48.14889" lon="6.50489">
        <ele>407.26</ele>
        <time>2012-04-15T09:13:47Z</time>
      </trkpt>
      <trkpt lat="48.1489" lon="6.50495">
        <ele>406.77</ele>
        <time>2012-04-15T09:13:48Z</time>
      </trkpt>
      <trkpt lat="48.14891" lon="6.50501">
        <ele>406.29</ele>
        <time>2012-04-15T09:13:49Z</time>
      </trkpt>
      <trkpt lat="48.14896" lon="6.50524">
        <ele>405.81</ele>
        <time>2012-04-15T09:13:53Z</time>
      </trkpt>
      <trkpt lat="48.14898" lon="6.50529">
        <ele>405.33</ele>
        <time>2012-04-15T09:13:54Z</time>
      </trkpt>
      <trkpt lat="48.14899" lon="6.50534">
        <ele>405.33</ele>
        <time>2012-04-15T09:13:55Z</time>
      </trkpt>
      <trkpt lat="48.149" lon="6.50539">
        <ele>404.85</ele>
        <time>2012-04-15T09:13:56Z</time>
      </trkpt>
      <trkpt lat="48.14902" lon="6.50545">
        <ele>404.85</ele>
        <time>2012-04-15T09:13:57Z</time>
      </trkpt>
      <trkpt lat="48.14917" lon="6.50587">
        <ele>406.29</ele>
        <time>2012-04-15T09:14:05Z</time>
      </trkpt>
      <trkpt lat="48.14919" lon="6.50592">
        <ele>406.77</ele>
        <time>2012-04-15T09:14:06Z</time>
      </trkpt>
      <trkpt lat="48.1492" lon="6.50597">
        <ele>406.77</ele>
        <time>2012-04-15T09:14:07Z</time>
      </trkpt>
      <trkpt lat="48.1494" lon="6.50649">
        <ele>408.22</ele>
        <time>2012-04-15T09:14:18Z</time>
      </trkpt>
      <trkpt lat="48.14949" lon="6.50677">
        <ele>409.18</ele>
        <time>2012-04-15T09:14:23Z</time>
      </trkpt>
      <trkpt lat="48.14951" lon="6.50682">
        <ele>409.18</ele>
        <time>2012-04-15T09:14:24Z</time>
      </trkpt>
      <trkpt lat="48.14952" lon="6.50687">
        <ele>409.18</ele>
        <time>2012-04-15T09:14:25Z</time>
      </trkpt>
      <trkpt lat="48.14961" lon="6.50723">
        <ele>411.58</ele>
        <time>2012-04-15T09:14:34Z</time>
      </trkpt>
      <trkpt lat="48.14954" lon="6.50767">
        <ele>416.87</ele>
        <time>2012-04-15T09:14:43Z</time>
      </trkpt>
      <trkpt lat="48.14946" lon="6.50832">
        <ele>418.31</ele>
        <time>2012-04-15T09:14:54Z</time>
      </trkpt>
      <trkpt lat="48.14938" lon="6.50878">
        <ele>417.83</ele>
        <time>2012-04-15T09:15:03Z</time>
      </trkpt>
      <trkpt lat="48.14938" lon="6.50883">
        <ele>417.83</ele>
        <time>2012-04-15T09:15:04Z</time>
      </trkpt>
      <trkpt lat="48.14938" lon="6.50887">
        <ele>417.83</ele>
        <time>2012-04-15T09:15:05Z</time>
      </trkpt>
      <trkpt lat="48.14933" lon="6.50913">
        <ele>418.31</ele>
        <time>2012-04-15T09:15:13Z</time>
      </trkpt>
      <trkpt lat="48.14934" lon="6.50917">
        <ele>418.31</ele>
        <time>2012-04-15T09:15:15Z</time>
      </trkpt>
      <trkpt lat="48.14935" lon="6.50922">
        <ele>417.83</ele>
        <time>2012-04-15T09:15:28Z</time>
      </trkpt>
      <trkpt lat="48.14934" lon="6.50926">
        <ele>418.31</ele>
        <time>2012-04-15T09:15:48Z</time>
      </trkpt>
      <trkpt lat="48.14934" lon="6.50927">
        <ele>418.31</ele>
        <time>2012-04-15T09:16:15Z</time>
      </trkpt>
      <trkpt lat="48.14933" lon="6.50927">
        <ele>417.83</ele>
        <time>2012-04-15T09:16:35Z</time>
      </trkpt>
      <trkpt lat="48.1493" lon="6.50927">
        <ele>415.43</ele>
        <time>2012-04-15T09:17:00Z</time>
      </trkpt>
      <trkpt lat="48.14928" lon="6.50926">
        <ele>414.47</ele>
        <time>2012-04-15T09:17:23Z</time>
      </trkpt>
      <trkpt lat="48.14928" lon="6.50926">
        <ele>414.47</ele>
        <time>2012-04-15T09:17:51Z</time>
      </trkpt>
      <trkpt lat="48.14927" lon="6.50926">
        <ele>414.95</ele>
        <time>2012-04-15T09:18:17Z</time>
      </trkpt>
      <trkpt lat="48.14926" lon="6.50926">
        <ele>414.95</ele>
        <time>2012-04-15T09:18:38Z</time>
      </trkpt>
      <trkpt lat="48.14926" lon="6.50925">
        <ele>414.47</ele>
        <time>2012-04-15T09:18:59Z</time>
      </trkpt>
      <trkpt lat="48.14928" lon="6.50928">
        <ele>413.98</ele>
        <time>2012-04-15T09:19:03Z</time>
      </trkpt>
      <trkpt lat="48.1493" lon="6.50929">
        <ele>413.98</ele>
        <time>2012-04-15T09:19:04Z</time>
      </trkpt>
      <trkpt lat="48.14933" lon="6.50931">
        <ele>413.98</ele>
        <time>2012-04-15T09:19:05Z</time>
      </trkpt>
      <trkpt lat="48.14939" lon="6.50937">
        <ele>413.5</ele>
        <time>2012-04-15T09:19:07Z</time>
      </trkpt>
      <trkpt lat="48.14944" lon="6.5094">
        <ele>413.5</ele>
        <time>2012-04-15T09:19:08Z</time>
      </trkpt>
      <trkpt lat="48.14993" lon="6.50991">
        <ele>413.98</ele>
        <time>2012-04-15T09:19:16Z</time>
      </trkpt>
      <trkpt lat="48.15" lon="6.50997">
        <ele>413.5</ele>
        <time>2012-04-15T09:19:17Z</time>
      </trkpt>
      <trkpt lat="48.15024" lon="6.51008">
        <ele>413.5</ele>
        <time>2012-04-15T09:19:20Z</time>
      </trkpt>
      <trkpt lat="48.15116" lon="6.51037">
        <ele>415.91</ele>
        <time>2012-04-15T09:19:33Z</time>
      </trkpt>
      <trkpt lat="48.15122" lon="6.51042">
        <ele>415.91</ele>
        <time>2012-04-15T09:19:34Z</time>
      </trkpt>
      <trkpt lat="48.15128" lon="6.51046">
        <ele>415.91</ele>
        <time>2012-04-15T09:19:35Z</time>
      </trkpt>
      <trkpt lat="48.1515" lon="6.51064">
        <ele>415.43</ele>
        <time>2012-04-15T09:19:39Z</time>
      </trkpt>
      <trkpt lat="48.15224" lon="6.51125">
        <ele>411.58</ele>
        <time>2012-04-15T09:19:52Z</time>
      </trkpt>
      <trkpt lat="48.15231" lon="6.51128">
        <ele>410.14</ele>
        <time>2012-04-15T09:19:53Z</time>
      </trkpt>
      <trkpt lat="48.15244" lon="6.51134">
        <ele>408.22</ele>
        <time>2012-04-15T09:19:55Z</time>
      </trkpt>
      <trkpt lat="48.1525" lon="6.51137">
        <ele>406.77</ele>
        <time>2012-04-15T09:19:56Z</time>
      </trkpt>
      <trkpt lat="48.15267" lon="6.51146">
        <ele>404.37</ele>
        <time>2012-04-15T09:19:59Z</time>
      </trkpt>
      <trkpt lat="48.15272" lon="6.51148">
        <ele>403.89</ele>
        <time>2012-04-15T09:20:00Z</time>
      </trkpt>
      <trkpt lat="48.15277" lon="6.5115">
        <ele>403.89</ele>
        <time>2012-04-15T09:20:01Z</time>
      </trkpt>
      <trkpt lat="48.15284" lon="6.5115">
        <ele>403.41</ele>
        <time>2012-04-15T09:20:02Z</time>
      </trkpt>
      <trkpt lat="48.1529" lon="6.51149">
        <ele>403.41</ele>
        <time>2012-04-15T09:20:03Z</time>
      </trkpt>
      <trkpt lat="48.15312" lon="6.51149">
        <ele>402.93</ele>
        <time>2012-04-15T09:20:06Z</time>
      </trkpt>
      <trkpt lat="48.15321" lon="6.51151">
        <ele>402.93</ele>
        <time>2012-04-15T09:20:07Z</time>
      </trkpt>
      <trkpt lat="48.15345" lon="6.51158">
        <ele>401.97</ele>
        <time>2012-04-15T09:20:10Z</time>
      </trkpt>
      <trkpt lat="48.15353" lon="6.51159">
        <ele>401.49</ele>
        <time>2012-04-15T09:20:11Z</time>
      </trkpt>
      <trkpt lat="48.15359" lon="6.5116">
        <ele>401.49</ele>
        <time>2012-04-15T09:20:12Z</time>
      </trkpt>
      <trkpt lat="48.15362" lon="6.51159">
        <ele>401.01</ele>
        <time>2012-04-15T09:20:13Z</time>
      </trkpt>
      <trkpt lat="48.15364" lon="6.51159">
        <ele>400.53</ele>
        <time>2012-04-15T09:20:14Z</time>
      </trkpt>
      <trkpt lat="48.15366" lon="6.51158">
        <ele>400.53</ele>
        <time>2012-04-15T09:20:15Z</time>
      </trkpt>
      <trkpt lat="48.15368" lon="6.51156">
        <ele>400.53</ele>
        <time>2012-04-15T09:20:16Z</time>
      </trkpt>
      <trkpt lat="48.15369" lon="6.51151">
        <ele>400.05</ele>
        <time>2012-04-15T09:20:17Z</time>
      </trkpt>
      <trkpt lat="48.15371" lon="6.51147">
        <ele>400.05</ele>
        <time>2012-04-15T09:20:18Z</time>
      </trkpt>
      <trkpt lat="48.15374" lon="6.51142">
        <ele>400.05</ele>
        <time>2012-04-15T09:20:19Z</time>
      </trkpt>
      <trkpt lat="48.15379" lon="6.51137">
        <ele>400.05</ele>
        <time>2012-04-15T09:20:20Z</time>
      </trkpt>
      <trkpt lat="48.15384" lon="6.51132">
        <ele>399.57</ele>
        <time>2012-04-15T09:20:21Z</time>
      </trkpt>
      <trkpt lat="48.15389" lon="6.51125">
        <ele>399.57</ele>
        <time>2012-04-15T09:20:22Z</time>
      </trkpt>
      <trkpt lat="48.15393" lon="6.51117">
        <ele>399.08</ele>
        <time>2012-04-15T09:20:23Z</time>
      </trkpt>
      <trkpt lat="48.15398" lon="6.51108">
        <ele>399.08</ele>
        <time>2012-04-15T09:20:24Z</time>
      </trkpt>
      <trkpt lat="48.15402" lon="6.51099">
        <ele>399.08</ele>
        <time>2012-04-15T09:20:25Z</time>
      </trkpt>
      <trkpt lat="48.15405" lon="6.5109">
        <ele>399.08</ele>
        <time>2012-04-15T09:20:26Z</time>
      </trkpt>
      <trkpt lat="48.15414" lon="6.51062">
        <ele>398.6</ele>
        <time>2012-04-15T09:20:29Z</time>
      </trkpt>
      <trkpt lat="48.1542" lon="6.51036">
        <ele>397.64</ele>
        <time>2012-04-15T09:20:32Z</time>
      </trkpt>
      <trkpt lat="48.15421" lon="6.51028">
        <ele>397.16</ele>
        <time>2012-04-15T09:20:33Z</time>
      </trkpt>
      <trkpt lat="48.15425" lon="6.51004">
        <ele>397.16</ele>
        <time>2012-04-15T09:20:36Z</time>
      </trkpt>
      <trkpt lat="48.15429" lon="6.5099">
        <ele>395.72</ele>
        <time>2012-04-15T09:20:38Z</time>
      </trkpt>
      <trkpt lat="48.1543" lon="6.50983">
        <ele>394.76</ele>
        <time>2012-04-15T09:20:39Z</time>
      </trkpt>
      <trkpt lat="48.15434" lon="6.50922">
        <ele>384.66</ele>
        <time>2012-04-15T09:20:49Z</time>
      </trkpt>
      <trkpt lat="48.15431" lon="6.50916">
        <ele>383.7</ele>
        <time>2012-04-15T09:20:50Z</time>
      </trkpt>
      <trkpt lat="48.15428" lon="6.50912">
        <ele>382.74</ele>
        <time>2012-04-15T09:20:51Z</time>
      </trkpt>
      <trkpt lat="48.15425" lon="6.50909">
        <ele>382.26</ele>
        <time>2012-04-15T09:20:52Z</time>
      </trkpt>
      <trkpt lat="48.15421" lon="6.50906">
        <ele>382.26</ele>
        <time>2012-04-15T09:20:53Z</time>
      </trkpt>
      <trkpt lat="48.15417" lon="6.50904">
        <ele>382.74</ele>
        <time>2012-04-15T09:20:54Z</time>
      </trkpt>
      <trkpt lat="48.15397" lon="6.50893">
        <ele>387.07</ele>
        <time>2012-04-15T09:21:00Z</time>
      </trkpt>
      <trkpt lat="48.1536" lon="6.50871">
        <ele>400.05</ele>
        <time>2012-04-15T09:21:12Z</time>
      </trkpt>
      <trkpt lat="48.15336" lon="6.50844">
        <ele>410.62</ele>
        <time>2012-04-15T09:21:22Z</time>
      </trkpt>
      <trkpt lat="48.15308" lon="6.50816">
        <ele>422.64</ele>
        <time>2012-04-15T09:21:34Z</time>
      </trkpt>
      <trkpt lat="48.15281" lon="6.50788">
        <ele>432.25</ele>
        <time>2012-04-15T09:21:45Z</time>
      </trkpt>
      <trkpt lat="48.15251" lon="6.50761">
        <ele>428.89</ele>
        <time>2012-04-15T09:21:54Z</time>
      </trkpt>
      <trkpt lat="48.15221" lon="6.50707">
        <ele>418.79</ele>
        <time>2012-04-15T09:22:08Z</time>
      </trkpt>
      <trkpt lat="48.15211" lon="6.50669">
        <ele>415.43</ele>
        <time>2012-04-15T09:22:20Z</time>
      </trkpt>
      <trkpt lat="48.15205" lon="6.5063">
        <ele>415.43</ele>
        <time>2012-04-15T09:22:30Z</time>
      </trkpt>
      <trkpt lat="48.15204" lon="6.50599">
        <ele>414.95</ele>
        <time>2012-04-15T09:22:35Z</time>
      </trkpt>
      <trkpt lat="48.15204" lon="6.50593">
        <ele>413.98</ele>
        <time>2012-04-15T09:22:36Z</time>
      </trkpt>
      <trkpt lat="48.15204" lon="6.50587">
        <ele>413.98</ele>
        <time>2012-04-15T09:22:37Z</time>
      </trkpt>
      <trkpt lat="48.15204" lon="6.50582">
        <ele>413.02</ele>
        <time>2012-04-15T09:22:38Z</time>
      </trkpt>
      <trkpt lat="48.15205" lon="6.50578">
        <ele>413.02</ele>
        <time>2012-04-15T09:22:39Z</time>
      </trkpt>
      <trkpt lat="48.15207" lon="6.50573">
        <ele>413.02</ele>
        <time>2012-04-15T09:22:40Z</time>
      </trkpt>
      <trkpt lat="48.15209" lon="6.50569">
        <ele>413.02</ele>
        <time>2012-04-15T09:22:41Z</time>
      </trkpt>
      <trkpt lat="48.15212" lon="6.50564">
        <ele>412.54</ele>
        <time>2012-04-15T09:22:42Z</time>
      </trkpt>
      <trkpt lat="48.15215" lon="6.50561">
        <ele>412.54</ele>
        <time>2012-04-15T09:22:43Z</time>
      </trkpt>
      <trkpt lat="48.15217" lon="6.50557">
        <ele>412.06</ele>
        <time>2012-04-15T09:22:44Z</time>
      </trkpt>
      <trkpt lat="48.15219" lon="6.50554">
        <ele>411.58</ele>
        <time>2012-04-15T09:22:45Z</time>
      </trkpt>
      <trkpt lat="48.15222" lon="6.5055">
        <ele>411.58</ele>
        <time>2012-04-15T09:22:46Z</time>
      </trkpt>
      <trkpt lat="48.15231" lon="6.5053">
        <ele>409.66</ele>
        <time>2012-04-15T09:22:50Z</time>
      </trkpt>
      <trkpt lat="48.15237" lon="6.50474">
        <ele>409.18</ele>
        <time>2012-04-15T09:23:00Z</time>
      </trkpt>
      <trkpt lat="48.15235" lon="6.5045">
        <ele>410.14</ele>
        <time>2012-04-15T09:23:04Z</time>
      </trkpt>
      <trkpt lat="48.15234" lon="6.50444">
        <ele>409.66</ele>
        <time>2012-04-15T09:23:05Z</time>
      </trkpt>
      <trkpt lat="48.15233" lon="6.50438">
        <ele>409.66</ele>
        <time>2012-04-15T09:23:06Z</time>
      </trkpt>
      <trkpt lat="48.15231" lon="6.50431">
        <ele>409.18</ele>
        <time>2012-04-15T09:23:07Z</time>
      </trkpt>
      <trkpt lat="48.1523" lon="6.50425">
        <ele>409.18</ele>
        <time>2012-04-15T09:23:08Z</time>
      </trkpt>
      <trkpt lat="48.15229" lon="6.50419">
        <ele>409.18</ele>
        <time>2012-04-15T09:23:09Z</time>
      </trkpt>
      <trkpt lat="48.1522" lon="6.50387">
        <ele>410.62</ele>
        <time>2012-04-15T09:23:14Z</time>
      </trkpt>
      <trkpt lat="48.15209" lon="6.50335">
        <ele>414.47</ele>
        <time>2012-04-15T09:23:23Z</time>
      </trkpt>
      <trkpt lat="48.15207" lon="6.5027">
        <ele>418.31</ele>
        <time>2012-04-15T09:23:34Z</time>
      </trkpt>
      <trkpt lat="48.15213" lon="6.50238">
        <ele>417.83</ele>
        <time>2012-04-15T09:23:40Z</time>
      </trkpt>
      <trkpt lat="48.15214" lon="6.50232">
        <ele>417.83</ele>
        <time>2012-04-15T09:23:41Z</time>
      </trkpt>
      <trkpt lat="48.15215" lon="6.50225">
        <ele>417.35</ele>
        <time>2012-04-15T09:23:42Z</time>
      </trkpt>
      <trkpt lat="48.15216" lon="6.50218">
        <ele>417.35</ele>
        <time>2012-04-15T09:23:43Z</time>
      </trkpt>
      <trkpt lat="48.15217" lon="6.50212">
        <ele>416.87</ele>
        <time>2012-04-15T09:23:44Z</time>
      </trkpt>
      <trkpt lat="48.15217" lon="6.50206">
        <ele>416.87</ele>
        <time>2012-04-15T09:23:45Z</time>
      </trkpt>
      <trkpt lat="48.15218" lon="6.502">
        <ele>416.39</ele>
        <time>2012-04-15T09:23:46Z</time>
      </trkpt>
      <trkpt lat="48.15218" lon="6.50194">
        <ele>415.91</ele>
        <time>2012-04-15T09:23:47Z</time>
      </trkpt>
      <trkpt lat="48.15221" lon="6.50153">
        <ele>411.58</ele>
        <time>2012-04-15T09:23:53Z</time>
      </trkpt>
      <trkpt lat="48.15216" lon="6.50105">
        <ele>404.85</ele>
        <time>2012-04-15T09:24:02Z</time>
      </trkpt>
      <trkpt lat="48.15212" lon="6.50105">
        <ele>404.85</ele>
        <time>2012-04-15T09:24:03Z</time>
      </trkpt>
      <trkpt lat="48.15209" lon="6.50107">
        <ele>404.85</ele>
        <time>2012-04-15T09:24:04Z</time>
      </trkpt>
      <trkpt lat="48.15205" lon="6.50108">
        <ele>405.33</ele>
        <time>2012-04-15T09:24:05Z</time>
      </trkpt>
      <trkpt lat="48.15202" lon="6.50111">
        <ele>405.81</ele>
        <time>2012-04-15T09:24:06Z</time>
      </trkpt>
      <trkpt lat="48.15199" lon="6.50115">
        <ele>405.81</ele>
        <time>2012-04-15T09:24:07Z</time>
      </trkpt>
      <trkpt lat="48.1518" lon="6.50147">
        <ele>405.81</ele>
        <time>2012-04-15T09:24:14Z</time>
      </trkpt>
      <trkpt lat="48.15177" lon="6.50153">
        <ele>405.81</ele>
        <time>2012-04-15T09:24:15Z</time>
      </trkpt>
      <trkpt lat="48.15173" lon="6.50159">
        <ele>405.81</ele>
        <time>2012-04-15T09:24:16Z</time>
      </trkpt>
      <trkpt lat="48.1517" lon="6.50164">
        <ele>406.29</ele>
        <time>2012-04-15T09:24:17Z</time>
      </trkpt>
      <trkpt lat="48.15166" lon="6.5017">
        <ele>406.29</ele>
        <time>2012-04-15T09:24:18Z</time>
      </trkpt>
      <trkpt lat="48.15163" lon="6.50176">
        <ele>406.29</ele>
        <time>2012-04-15T09:24:19Z</time>
      </trkpt>
      <trkpt lat="48.15142" lon="6.50216">
        <ele>405.81</ele>
        <time>2012-04-15T09:24:25Z</time>
      </trkpt>
      <trkpt lat="48.15129" lon="6.50235">
        <ele>405.33</ele>
        <time>2012-04-15T09:24:28Z</time>
      </trkpt>
      <trkpt lat="48.15119" lon="6.50244">
        <ele>405.33</ele>
        <time>2012-04-15T09:24:30Z</time>
      </trkpt>
      <trkpt lat="48.15099" lon="6.50254">
        <ele>403.41</ele>
        <time>2012-04-15T09:24:33Z</time>
      </trkpt>
      <trkpt lat="48.15092" lon="6.50255">
        <ele>402.93</ele>
        <time>2012-04-15T09:24:34Z</time>
      </trkpt>
      <trkpt lat="48.15085" lon="6.50255">
        <ele>402.45</ele>
        <time>2012-04-15T09:24:35Z</time>
      </trkpt>
      <trkpt lat="48.15078" lon="6.50254">
        <ele>402.45</ele>
        <time>2012-04-15T09:24:36Z</time>
      </trkpt>
      <trkpt lat="48.15071" lon="6.50252">
        <ele>401.97</ele>
        <time>2012-04-15T09:24:37Z</time>
      </trkpt>
      <trkpt lat="48.15064" lon="6.5025">
        <ele>401.49</ele>
        <time>2012-04-15T09:24:38Z</time>
      </trkpt>
      <trkpt lat="48.15056" lon="6.50247">
        <ele>401.49</ele>
        <time>2012-04-15T09:24:39Z</time>
      </trkpt>
      <trkpt lat="48.15041" lon="6.50242">
        <ele>401.01</ele>
        <time>2012-04-15T09:24:41Z</time>
      </trkpt>
      <trkpt lat="48.15035" lon="6.50239">
        <ele>400.53</ele>
        <time>2012-04-15T09:24:42Z</time>
      </trkpt>
      <trkpt lat="48.1503" lon="6.50234">
        <ele>400.53</ele>
        <time>2012-04-15T09:24:43Z</time>
      </trkpt>
      <trkpt lat="48.15024" lon="6.50229">
        <ele>400.05</ele>
        <time>2012-04-15T09:24:44Z</time>
      </trkpt>
      <trkpt lat="48.15019" lon="6.50224">
        <ele>399.57</ele>
        <time>2012-04-15T09:24:45Z</time>
      </trkpt>
      <trkpt lat="48.15015" lon="6.50218">
        <ele>399.08</ele>
        <time>2012-04-15T09:24:46Z</time>
      </trkpt>
      <trkpt lat="48.1501" lon="6.5021">
        <ele>398.6</ele>
        <time>2012-04-15T09:24:47Z</time>
      </trkpt>
      <trkpt lat="48.15007" lon="6.50203">
        <ele>398.12</ele>
        <time>2012-04-15T09:24:48Z</time>
      </trkpt>
      <trkpt lat="48.15004" lon="6.50195">
        <ele>397.64</ele>
        <time>2012-04-15T09:24:49Z</time>
      </trkpt>
      <trkpt lat="48.15001" lon="6.50186">
        <ele>397.16</ele>
        <time>2012-04-15T09:24:50Z</time>
      </trkpt>
      <trkpt lat="48.14981" lon="6.50108">
        <ele>394.76</ele>
        <time>2012-04-15T09:24:59Z</time>
      </trkpt>
      <trkpt lat="48.14973" lon="6.50085">
        <ele>394.28</ele>
        <time>2012-04-15T09:25:02Z</time>
      </trkpt>
      <trkpt lat="48.1497" lon="6.50078">
        <ele>394.28</ele>
        <time>2012-04-15T09:25:03Z</time>
      </trkpt>
      <trkpt lat="48.14943" lon="6.50019">
        <ele>398.12</ele>
        <time>2012-04-15T09:25:12Z</time>
      </trkpt>
      <trkpt lat="48.14939" lon="6.50003">
        <ele>398.6</ele>
        <time>2012-04-15T09:25:14Z</time>
      </trkpt>
      <trkpt lat="48.14929" lon="6.49935">
        <ele>400.53</ele>
        <time>2012-04-15T09:25:22Z</time>
      </trkpt>
      <trkpt lat="48.1493" lon="6.49928">
        <ele>400.53</ele>
        <time>2012-04-15T09:25:23Z</time>
      </trkpt>
      <trkpt lat="48.14931" lon="6.4992">
        <ele>400.53</ele>
        <time>2012-04-15T09:25:24Z</time>
      </trkpt>
      <trkpt lat="48.14933" lon="6.49913">
        <ele>400.05</ele>
        <time>2012-04-15T09:25:25Z</time>
      </trkpt>
      <trkpt lat="48.14935" lon="6.49905">
        <ele>399.57</ele>
        <time>2012-04-15T09:25:26Z</time>
      </trkpt>
      <trkpt lat="48.14938" lon="6.49898">
        <ele>398.6</ele>
        <time>2012-04-15T09:25:27Z</time>
      </trkpt>
      <trkpt lat="48.14941" lon="6.4989">
        <ele>398.12</ele>
        <time>2012-04-15T09:25:28Z</time>
      </trkpt>
      <trkpt lat="48.14952" lon="6.49857">
        <ele>397.16</ele>
        <time>2012-04-15T09:25:33Z</time>
      </trkpt>
      <trkpt lat="48.14954" lon="6.4985">
        <ele>397.16</ele>
        <time>2012-04-15T09:25:34Z</time>
      </trkpt>
      <trkpt lat="48.14956" lon="6.49844">
        <ele>397.16</ele>
        <time>2012-04-15T09:25:35Z</time>
      </trkpt>
      <trkpt lat="48.1497" lon="6.49814">
        <ele>397.64</ele>
        <time>2012-04-15T09:25:40Z</time>
      </trkpt>
      <trkpt lat="48.14973" lon="6.49809">
        <ele>397.64</ele>
        <time>2012-04-15T09:25:41Z</time>
      </trkpt>
      <trkpt lat="48.14978" lon="6.49796">
        <ele>398.12</ele>
        <time>2012-04-15T09:25:43Z</time>
      </trkpt>
      <trkpt lat="48.1498" lon="6.49789">
        <ele>398.12</ele>
        <time>2012-04-15T09:25:44Z</time>
      </trkpt>
      <trkpt lat="48.14983" lon="6.49783">
        <ele>398.12</ele>
        <time>2012-04-15T09:25:45Z</time>
      </trkpt>
      <trkpt lat="48.14984" lon="6.49777">
        <ele>398.6</ele>
        <time>2012-04-15T09:25:46Z</time>
      </trkpt>
      <trkpt lat="48.14985" lon="6.49773">
        <ele>398.6</ele>
        <time>2012-04-15T09:25:47Z</time>
      </trkpt>
      <trkpt lat="48.14987" lon="6.49767">
        <ele>398.12</ele>
        <time>2012-04-15T09:25:48Z</time>
      </trkpt>
      <trkpt lat="48.14987" lon="6.49761">
        <ele>396.68</ele>
        <time>2012-04-15T09:25:49Z</time>
      </trkpt>
      <trkpt lat="48.14987" lon="6.49754">
        <ele>395.72</ele>
        <time>2012-04-15T09:25:50Z</time>
      </trkpt>
      <trkpt lat="48.14987" lon="6.49747">
        <ele>394.76</ele>
        <time>2012-04-15T09:25:51Z</time>
      </trkpt>
      <trkpt lat="48.14985" lon="6.4974">
        <ele>394.28</ele>
        <time>2012-04-15T09:25:52Z</time>
      </trkpt>
      <trkpt lat="48.14984" lon="6.49733">
        <ele>393.8</ele>
        <time>2012-04-15T09:25:53Z</time>
      </trkpt>
      <trkpt lat="48.14981" lon="6.49725">
        <ele>393.8</ele>
        <time>2012-04-15T09:25:54Z</time>
      </trkpt>
      <trkpt lat="48.14971" lon="6.49704">
        <ele>393.32</ele>
        <time>2012-04-15T09:25:57Z</time>
      </trkpt>
      <trkpt lat="48.14954" lon="6.49677">
        <ele>392.84</ele>
        <time>2012-04-15T09:26:01Z</time>
      </trkpt>
      <trkpt lat="48.14909" lon="6.49607">
        <ele>391.39</ele>
        <time>2012-04-15T09:26:12Z</time>
      </trkpt>
      <trkpt lat="48.14898" lon="6.49576">
        <ele>391.39</ele>
        <time>2012-04-15T09:26:16Z</time>
      </trkpt>
      <trkpt lat="48.14894" lon="6.49563">
        <ele>391.87</ele>
        <time>2012-04-15T09:26:18Z</time>
      </trkpt>
      <trkpt lat="48.14863" lon="6.49484">
        <ele>393.32</ele>
        <time>2012-04-15T09:26:30Z</time>
      </trkpt>
      <trkpt lat="48.14853" lon="6.49452">
        <ele>392.36</ele>
        <time>2012-04-15T09:26:35Z</time>
      </trkpt>
      <trkpt lat="48.14852" lon="6.49446">
        <ele>392.36</ele>
        <time>2012-04-15T09:26:36Z</time>
      </trkpt>
      <trkpt lat="48.14851" lon="6.4944">
        <ele>391.87</ele>
        <time>2012-04-15T09:26:37Z</time>
      </trkpt>
      <trkpt lat="48.14842" lon="6.49384">
        <ele>390.91</ele>
        <time>2012-04-15T09:26:48Z</time>
      </trkpt>
      <trkpt lat="48.14837" lon="6.49355">
        <ele>391.39</ele>
        <time>2012-04-15T09:26:59Z</time>
      </trkpt>
      <trkpt lat="48.14837" lon="6.49353">
        <ele>391.87</ele>
        <time>2012-04-15T09:27:00Z</time>
      </trkpt>
      <trkpt lat="48.14836" lon="6.49351">
        <ele>391.87</ele>
        <time>2012-04-15T09:27:01Z</time>
      </trkpt>
      <trkpt lat="48.14836" lon="6.4935">
        <ele>392.36</ele>
        <time>2012-04-15T09:27:02Z</time>
      </trkpt>
      <trkpt lat="48.14835" lon="6.49348">
        <ele>392.84</ele>
        <time>2012-04-15T09:27:03Z</time>
      </trkpt>
      <trkpt lat="48.14835" lon="6.49346">
        <ele>393.32</ele>
        <time>2012-04-15T09:27:04Z</time>
      </trkpt>
      <trkpt lat="48.14836" lon="6.49339">
        <ele>394.76</ele>
        <time>2012-04-15T09:27:07Z</time>
      </trkpt>
      <trkpt lat="48.14836" lon="6.49337">
        <ele>395.24</ele>
        <time>2012-04-15T09:27:08Z</time>
      </trkpt>
      <trkpt lat="48.14836" lon="6.49334">
        <ele>395.24</ele>
        <time>2012-04-15T09:27:09Z</time>
      </trkpt>
      <trkpt lat="48.14836" lon="6.49332">
        <ele>395.72</ele>
        <time>2012-04-15T09:27:10Z</time>
      </trkpt>
      <trkpt lat="48.14835" lon="6.49329">
        <ele>396.2</ele>
        <time>2012-04-15T09:27:11Z</time>
      </trkpt>
      <trkpt lat="48.14835" lon="6.49327">
        <ele>396.68</ele>
        <time>2012-04-15T09:27:12Z</time>
      </trkpt>
      <trkpt lat="48.14836" lon="6.49325">
        <ele>397.16</ele>
        <time>2012-04-15T09:27:13Z</time>
      </trkpt>
      <trkpt lat="48.14836" lon="6.49323">
        <ele>397.64</ele>
        <time>2012-04-15T09:27:14Z</time>
      </trkpt>
      <trkpt lat="48.14836" lon="6.49321">
        <ele>398.12</ele>
        <time>2012-04-15T09:27:15Z</time>
      </trkpt>
      <trkpt lat="48.14837" lon="6.49319">
        <ele>398.6</ele>
        <time>2012-04-15T09:27:16Z</time>
      </trkpt>
      <trkpt lat="48.14837" lon="6.49317">
        <ele>398.6</ele>
        <time>2012-04-15T09:27:17Z</time>
      </trkpt>
      <trkpt lat="48.14838" lon="6.49314">
        <ele>398.6</ele>
        <time>2012-04-15T09:27:18Z</time>
      </trkpt>
      <trkpt lat="48.14838" lon="6.49312">
        <ele>399.08</ele>
        <time>2012-04-15T09:27:19Z</time>
      </trkpt>
      <trkpt lat="48.14838" lon="6.49309">
        <ele>399.08</ele>
        <time>2012-04-15T09:27:20Z</time>
      </trkpt>
      <trkpt lat="48.14838" lon="6.49307">
        <ele>399.57</ele>
        <time>2012-04-15T09:27:21Z</time>
      </trkpt>
      <trkpt lat="48.14839" lon="6.49304">
        <ele>399.57</ele>
        <time>2012-04-15T09:27:22Z</time>
      </trkpt>
      <trkpt lat="48.14839" lon="6.49302">
        <ele>399.57</ele>
        <time>2012-04-15T09:27:23Z</time>
      </trkpt>
      <trkpt lat="48.14843" lon="6.49282">
        <ele>401.97</ele>
        <time>2012-04-15T09:27:33Z</time>
      </trkpt>
      <trkpt lat="48.14844" lon="6.49276">
        <ele>403.89</ele>
        <time>2012-04-15T09:27:36Z</time>
      </trkpt>
      <trkpt lat="48.14844" lon="6.49273">
        <ele>404.37</ele>
        <time>2012-04-15T09:27:38Z</time>
      </trkpt>
      <trkpt lat="48.14844" lon="6.49271">
        <ele>404.85</ele>
        <time>2012-04-15T09:27:39Z</time>
      </trkpt>
      <trkpt lat="48.1485" lon="6.49252">
        <ele>408.22</ele>
        <time>2012-04-15T09:27:49Z</time>
      </trkpt>
      <trkpt lat="48.14857" lon="6.49224">
        <ele>413.02</ele>
        <time>2012-04-15T09:28:03Z</time>
      </trkpt>
      <trkpt lat="48.14858" lon="6.4922">
        <ele>413.02</ele>
        <time>2012-04-15T09:28:05Z</time>
      </trkpt>
      <trkpt lat="48.14859" lon="6.49218">
        <ele>413.02</ele>
        <time>2012-04-15T09:28:06Z</time>
      </trkpt>
      <trkpt lat="48.1486" lon="6.49216">
        <ele>413.02</ele>
        <time>2012-04-15T09:28:07Z</time>
      </trkpt>
      <trkpt lat="48.14861" lon="6.49214">
        <ele>413.5</ele>
        <time>2012-04-15T09:28:08Z</time>
      </trkpt>
      <trkpt lat="48.14861" lon="6.49211">
        <ele>413.5</ele>
        <time>2012-04-15T09:28:09Z</time>
      </trkpt>
      <trkpt lat="48.14862" lon="6.49209">
        <ele>413.98</ele>
        <time>2012-04-15T09:28:10Z</time>
      </trkpt>
      <trkpt lat="48.14862" lon="6.49207">
        <ele>413.98</ele>
        <time>2012-04-15T09:28:11Z</time>
      </trkpt>
      <trkpt lat="48.14863" lon="6.49205">
        <ele>413.98</ele>
        <time>2012-04-15T09:28:12Z</time>
      </trkpt>
      <trkpt lat="48.14863" lon="6.49203">
        <ele>413.98</ele>
        <time>2012-04-15T09:28:13Z</time>
      </trkpt>
      <trkpt lat="48.14866" lon="6.49187">
        <ele>416.39</ele>
        <time>2012-04-15T09:28:21Z</time>
      </trkpt>
      <trkpt lat="48.14866" lon="6.49186">
        <ele>416.39</ele>
        <time>2012-04-15T09:28:22Z</time>
      </trkpt>
      <trkpt lat="48.14866" lon="6.49184">
        <ele>416.87</ele>
        <time>2012-04-15T09:28:23Z</time>
      </trkpt>
      <trkpt lat="48.14873" lon="6.4915">
        <ele>420.71</ele>
        <time>2012-04-15T09:28:37Z</time>
      </trkpt>
      <trkpt lat="48.14879" lon="6.49097">
        <ele>422.64</ele>
        <time>2012-04-15T09:28:46Z</time>
      </trkpt>
      <trkpt lat="48.14882" lon="6.49076">
        <ele>422.16</ele>
        <time>2012-04-15T09:28:48Z</time>
      </trkpt>
      <trkpt lat="48.14884" lon="6.49044">
        <ele>421.68</ele>
        <time>2012-04-15T09:28:51Z</time>
      </trkpt>
      <trkpt lat="48.14887" lon="6.49035">
        <ele>420.71</ele>
        <time>2012-04-15T09:28:52Z</time>
      </trkpt>
      <trkpt lat="48.14891" lon="6.49029">
        <ele>420.23</ele>
        <time>2012-04-15T09:28:53Z</time>
      </trkpt>
      <trkpt lat="48.14895" lon="6.49024">
        <ele>419.75</ele>
        <time>2012-04-15T09:28:54Z</time>
      </trkpt>
      <trkpt lat="48.149" lon="6.49021">
        <ele>419.27</ele>
        <time>2012-04-15T09:28:55Z</time>
      </trkpt>
      <trkpt lat="48.14908" lon="6.49014">
        <ele>418.79</ele>
        <time>2012-04-15T09:28:57Z</time>
      </trkpt>
      <trkpt lat="48.14911" lon="6.4901">
        <ele>418.31</ele>
        <time>2012-04-15T09:28:58Z</time>
      </trkpt>
      <trkpt lat="48.14913" lon="6.49007">
        <ele>418.31</ele>
        <time>2012-04-15T09:28:59Z</time>
      </trkpt>
      <trkpt lat="48.14916" lon="6.49005">
        <ele>418.31</ele>
        <time>2012-04-15T09:29:00Z</time>
      </trkpt>
      <trkpt lat="48.1492" lon="6.49005">
        <ele>418.79</ele>
        <time>2012-04-15T09:29:01Z</time>
      </trkpt>
      <trkpt lat="48.14923" lon="6.49005">
        <ele>418.79</ele>
        <time>2012-04-15T09:29:02Z</time>
      </trkpt>
      <trkpt lat="48.14926" lon="6.49004">
        <ele>418.79</ele>
        <time>2012-04-15T09:29:03Z</time>
      </trkpt>
      <trkpt lat="48.14958" lon="6.48987">
        <ele>423.12</ele>
        <time>2012-04-15T09:29:16Z</time>
      </trkpt>
      <trkpt lat="48.1497" lon="6.48954">
        <ele>427.44</ele>
        <time>2012-04-15T09:29:26Z</time>
      </trkpt>
      <trkpt lat="48.1498" lon="6.48904">
        <ele>427.92</ele>
        <time>2012-04-15T09:29:32Z</time>
      </trkpt>
      <trkpt lat="48.14985" lon="6.48892">
        <ele>427.44</ele>
        <time>2012-04-15T09:29:33Z</time>
      </trkpt>
      <trkpt lat="48.14991" lon="6.48881">
        <ele>427.44</ele>
        <time>2012-04-15T09:29:34Z</time>
      </trkpt>
      <trkpt lat="48.14998" lon="6.48872">
        <ele>427.44</ele>
        <time>2012-04-15T09:29:35Z</time>
      </trkpt>
      <trkpt lat="48.15005" lon="6.48866">
        <ele>427.44</ele>
        <time>2012-04-15T09:29:36Z</time>
      </trkpt>
      <trkpt lat="48.15012" lon="6.48862">
        <ele>427.44</ele>
        <time>2012-04-15T09:29:37Z</time>
      </trkpt>
      <trkpt lat="48.1502" lon="6.48862">
        <ele>427.44</ele>
        <time>2012-04-15T09:29:38Z</time>
      </trkpt>
      <trkpt lat="48.15028" lon="6.48862">
        <ele>426.96</ele>
        <time>2012-04-15T09:29:39Z</time>
      </trkpt>
      <trkpt lat="48.15034" lon="6.48862">
        <ele>426.96</ele>
        <time>2012-04-15T09:29:40Z</time>
      </trkpt>
      <trkpt lat="48.1504" lon="6.4886">
        <ele>426.96</ele>
        <time>2012-04-15T09:29:41Z</time>
      </trkpt>
      <trkpt lat="48.15045" lon="6.48856">
        <ele>426.96</ele>
        <time>2012-04-15T09:29:42Z</time>
      </trkpt>
      <trkpt lat="48.15049" lon="6.48851">
        <ele>426.96</ele>
        <time>2012-04-15T09:29:43Z</time>
      </trkpt>
      <trkpt lat="48.15052" lon="6.48846">
        <ele>426.96</ele>
        <time>2012-04-15T09:29:44Z</time>
      </trkpt>
      <trkpt lat="48.15055" lon="6.48839">
        <ele>428.4</ele>
        <time>2012-04-15T09:29:46Z</time>
      </trkpt>
      <trkpt lat="48.15087" lon="6.48802">
        <ele>433.69</ele>
        <time>2012-04-15T09:29:57Z</time>
      </trkpt>
      <trkpt lat="48.15111" lon="6.48793">
        <ele>433.69</ele>
        <time>2012-04-15T09:30:03Z</time>
      </trkpt>
      <trkpt lat="48.15116" lon="6.48791">
        <ele>433.69</ele>
        <time>2012-04-15T09:30:04Z</time>
      </trkpt>
      <trkpt lat="48.1513" lon="6.48783">
        <ele>434.17</ele>
        <time>2012-04-15T09:30:07Z</time>
      </trkpt>
      <trkpt lat="48.1515" lon="6.48768">
        <ele>434.17</ele>
        <time>2012-04-15T09:30:11Z</time>
      </trkpt>
      <trkpt lat="48.15167" lon="6.48759">
        <ele>434.17</ele>
        <time>2012-04-15T09:30:14Z</time>
      </trkpt>
      <trkpt lat="48.15173" lon="6.48758">
        <ele>434.17</ele>
        <time>2012-04-15T09:30:15Z</time>
      </trkpt>
      <trkpt lat="48.15189" lon="6.48755">
        <ele>434.65</ele>
        <time>2012-04-15T09:30:18Z</time>
      </trkpt>
      <trkpt lat="48.15193" lon="6.48755">
        <ele>435.13</ele>
        <time>2012-04-15T09:30:19Z</time>
      </trkpt>
      <trkpt lat="48.15198" lon="6.48754">
        <ele>435.13</ele>
        <time>2012-04-15T09:30:20Z</time>
      </trkpt>
      <trkpt lat="48.15203" lon="6.48754">
        <ele>435.61</ele>
        <time>2012-04-15T09:30:21Z</time>
      </trkpt>
      <trkpt lat="48.15208" lon="6.48752">
        <ele>435.61</ele>
        <time>2012-04-15T09:30:22Z</time>
      </trkpt>
      <trkpt lat="48.15213" lon="6.4875">
        <ele>436.1</ele>
        <time>2012-04-15T09:30:23Z</time>
      </trkpt>
      <trkpt lat="48.15218" lon="6.48749">
        <ele>436.1</ele>
        <time>2012-04-15T09:30:24Z</time>
      </trkpt>
      <trkpt lat="48.15222" lon="6.48748">
        <ele>436.58</ele>
        <time>2012-04-15T09:30:25Z</time>
      </trkpt>
      <trkpt lat="48.15224" lon="6.48747">
        <ele>436.58</ele>
        <time>2012-04-15T09:30:26Z</time>
      </trkpt>
      <trkpt lat="48.15226" lon="6.48747">
        <ele>437.06</ele>
        <time>2012-04-15T09:30:27Z</time>
      </trkpt>
      <trkpt lat="48.15245" lon="6.48739">
        <ele>437.06</ele>
        <time>2012-04-15T09:30:37Z</time>
      </trkpt>
      <trkpt lat="48.15274" lon="6.48726">
        <ele>441.38</ele>
        <time>2012-04-15T09:30:46Z</time>
      </trkpt>
      <trkpt lat="48.15276" lon="6.48723">
        <ele>441.86</ele>
        <time>2012-04-15T09:30:47Z</time>
      </trkpt>
      <trkpt lat="48.15279" lon="6.4872">
        <ele>442.82</ele>
        <time>2012-04-15T09:30:48Z</time>
      </trkpt>
      <trkpt lat="48.15302" lon="6.48708">
        <ele>449.07</ele>
        <time>2012-04-15T09:31:00Z</time>
      </trkpt>
      <trkpt lat="48.15305" lon="6.48702">
        <ele>445.71</ele>
        <time>2012-04-15T09:31:09Z</time>
      </trkpt>
      <trkpt lat="48.1531" lon="6.487">
        <ele>443.79</ele>
        <time>2012-04-15T09:31:15Z</time>
      </trkpt>
      <trkpt lat="48.15313" lon="6.487">
        <ele>444.27</ele>
        <time>2012-04-15T09:31:16Z</time>
      </trkpt>
      <trkpt lat="48.15315" lon="6.48699">
        <ele>444.27</ele>
        <time>2012-04-15T09:31:17Z</time>
      </trkpt>
      <trkpt lat="48.15318" lon="6.48699">
        <ele>444.27</ele>
        <time>2012-04-15T09:31:18Z</time>
      </trkpt>
      <trkpt lat="48.1532" lon="6.48698">
        <ele>445.23</ele>
        <time>2012-04-15T09:31:19Z</time>
      </trkpt>
      <trkpt lat="48.15323" lon="6.48697">
        <ele>445.71</ele>
        <time>2012-04-15T09:31:20Z</time>
      </trkpt>
      <trkpt lat="48.15362" lon="6.48692">
        <ele>454.36</ele>
        <time>2012-04-15T09:31:34Z</time>
      </trkpt>
      <trkpt lat="48.15388" lon="6.4869">
        <ele>457.24</ele>
        <time>2012-04-15T09:31:45Z</time>
      </trkpt>
      <trkpt lat="48.15393" lon="6.48688">
        <ele>458.69</ele>
        <time>2012-04-15T09:31:48Z</time>
      </trkpt>
      <trkpt lat="48.15393" lon="6.48686">
        <ele>459.17</ele>
        <time>2012-04-15T09:31:49Z</time>
      </trkpt>
      <trkpt lat="48.15393" lon="6.48685">
        <ele>459.17</ele>
        <time>2012-04-15T09:31:50Z</time>
      </trkpt>
      <trkpt lat="48.15393" lon="6.48683">
        <ele>459.17</ele>
        <time>2012-04-15T09:31:51Z</time>
      </trkpt>
      <trkpt lat="48.15393" lon="6.4868">
        <ele>458.69</ele>
        <time>2012-04-15T09:31:52Z</time>
      </trkpt>
      <trkpt lat="48.15394" lon="6.48677">
        <ele>458.69</ele>
        <time>2012-04-15T09:31:53Z</time>
      </trkpt>
      <trkpt lat="48.15394" lon="6.48674">
        <ele>458.69</ele>
        <time>2012-04-15T09:31:54Z</time>
      </trkpt>
      <trkpt lat="48.15394" lon="6.48671">
        <ele>458.69</ele>
        <time>2012-04-15T09:31:55Z</time>
      </trkpt>
      <trkpt lat="48.15393" lon="6.48669">
        <ele>458.69</ele>
        <time>2012-04-15T09:31:56Z</time>
      </trkpt>
      <trkpt lat="48.15393" lon="6.48666">
        <ele>458.69</ele>
        <time>2012-04-15T09:31:57Z</time>
      </trkpt>
      <trkpt lat="48.15392" lon="6.48663">
        <ele>458.69</ele>
        <time>2012-04-15T09:31:58Z</time>
      </trkpt>
      <trkpt lat="48.15392" lon="6.48638">
        <ele>457.24</ele>
        <time>2012-04-15T09:32:06Z</time>
      </trkpt>
      <trkpt lat="48.15392" lon="6.48634">
        <ele>456.76</ele>
        <time>2012-04-15T09:32:07Z</time>
      </trkpt>
      <trkpt lat="48.15392" lon="6.4863">
        <ele>457.24</ele>
        <time>2012-04-15T09:32:08Z</time>
      </trkpt>
      <trkpt lat="48.15392" lon="6.48627">
        <ele>456.76</ele>
        <time>2012-04-15T09:32:09Z</time>
      </trkpt>
      <trkpt lat="48.15391" lon="6.48624">
        <ele>456.76</ele>
        <time>2012-04-15T09:32:10Z</time>
      </trkpt>
      <trkpt lat="48.1539" lon="6.4858">
        <ele>450.52</ele>
        <time>2012-04-15T09:32:23Z</time>
      </trkpt>
      <trkpt lat="48.15389" lon="6.48579">
        <ele>450.52</ele>
        <time>2012-04-15T09:32:32Z</time>
      </trkpt>
      <trkpt lat="48.1539" lon="6.48577">
        <ele>450.03</ele>
        <time>2012-04-15T09:32:33Z</time>
      </trkpt>
      <trkpt lat="48.15391" lon="6.48574">
        <ele>450.03</ele>
        <time>2012-04-15T09:32:34Z</time>
      </trkpt>
      <trkpt lat="48.15391" lon="6.4857">
        <ele>450.52</ele>
        <time>2012-04-15T09:32:35Z</time>
      </trkpt>
      <trkpt lat="48.15389" lon="6.48565">
        <ele>450.52</ele>
        <time>2012-04-15T09:32:36Z</time>
      </trkpt>
      <trkpt lat="48.15387" lon="6.48561">
        <ele>451.48</ele>
        <time>2012-04-15T09:32:37Z</time>
      </trkpt>
      <trkpt lat="48.15385" lon="6.48558">
        <ele>452.44</ele>
        <time>2012-04-15T09:32:38Z</time>
      </trkpt>
      <trkpt lat="48.15384" lon="6.48555">
        <ele>452.92</ele>
        <time>2012-04-15T09:32:39Z</time>
      </trkpt>
      <trkpt lat="48.15382" lon="6.48548">
        <ele>454.36</ele>
        <time>2012-04-15T09:32:43Z</time>
      </trkpt>
      <trkpt lat="48.15376" lon="6.48544">
        <ele>452.92</ele>
        <time>2012-04-15T09:32:55Z</time>
      </trkpt>
      <trkpt lat="48.15377" lon="6.48541">
        <ele>449.55</ele>
        <time>2012-04-15T09:33:15Z</time>
      </trkpt>
      <trkpt lat="48.15377" lon="6.48539">
        <ele>449.07</ele>
        <time>2012-04-15T09:33:34Z</time>
      </trkpt>
      <trkpt lat="48.1538" lon="6.48536">
        <ele>447.63</ele>
        <time>2012-04-15T09:33:56Z</time>
      </trkpt>
      <trkpt lat="48.1538" lon="6.48534">
        <ele>447.63</ele>
        <time>2012-04-15T09:33:57Z</time>
      </trkpt>
      <trkpt lat="48.15388" lon="6.4851">
        <ele>446.19</ele>
        <time>2012-04-15T09:34:05Z</time>
      </trkpt>
      <trkpt lat="48.15389" lon="6.48507">
        <ele>446.19</ele>
        <time>2012-04-15T09:34:06Z</time>
      </trkpt>
      <trkpt lat="48.15391" lon="6.48504">
        <ele>445.71</ele>
        <time>2012-04-15T09:34:07Z</time>
      </trkpt>
      <trkpt lat="48.15392" lon="6.485">
        <ele>444.75</ele>
        <time>2012-04-15T09:34:08Z</time>
      </trkpt>
      <trkpt lat="48.15394" lon="6.48495">
        <ele>443.79</ele>
        <time>2012-04-15T09:34:09Z</time>
      </trkpt>
      <trkpt lat="48.15422" lon="6.48445">
        <ele>433.21</ele>
        <time>2012-04-15T09:34:21Z</time>
      </trkpt>
      <trkpt lat="48.15444" lon="6.48413">
        <ele>429.37</ele>
        <time>2012-04-15T09:34:32Z</time>
      </trkpt>
      <trkpt lat="48.15469" lon="6.48393">
        <ele>436.1</ele>
        <time>2012-04-15T09:34:44Z</time>
      </trkpt>
      <trkpt lat="48.15488" lon="6.48383">
        <ele>450.03</ele>
        <time>2012-04-15T09:34:58Z</time>
      </trkpt>
      <trkpt lat="48.15493" lon="6.4838">
        <ele>452.44</ele>
        <time>2012-04-15T09:35:01Z</time>
      </trkpt>
      <trkpt lat="48.15513" lon="6.48364">
        <ele>460.13</ele>
        <time>2012-04-15T09:35:16Z</time>
      </trkpt>
      <trkpt lat="48.15517" lon="6.48362">
        <ele>461.09</ele>
        <time>2012-04-15T09:35:19Z</time>
      </trkpt>
      <trkpt lat="48.15522" lon="6.48358">
        <ele>463.49</ele>
        <time>2012-04-15T09:35:23Z</time>
      </trkpt>
      <trkpt lat="48.15544" lon="6.48345">
        <ele>469.74</ele>
        <time>2012-04-15T09:35:39Z</time>
      </trkpt>
      <trkpt lat="48.15547" lon="6.48343">
        <ele>470.22</ele>
        <time>2012-04-15T09:35:41Z</time>
      </trkpt>
      <trkpt lat="48.15555" lon="6.48339">
        <ele>472.14</ele>
        <time>2012-04-15T09:35:47Z</time>
      </trkpt>
      <trkpt lat="48.15558" lon="6.48335">
        <ele>473.11</ele>
        <time>2012-04-15T09:35:50Z</time>
      </trkpt>
      <trkpt lat="48.15563" lon="6.48329">
        <ele>475.03</ele>
        <time>2012-04-15T09:35:54Z</time>
      </trkpt>
      <trkpt lat="48.15566" lon="6.48324">
        <ele>475.99</ele>
        <time>2012-04-15T09:35:57Z</time>
      </trkpt>
      <trkpt lat="48.15582" lon="6.48301">
        <ele>478.87</ele>
        <time>2012-04-15T09:36:12Z</time>
      </trkpt>
      <trkpt lat="48.15584" lon="6.48299">
        <ele>479.84</ele>
        <time>2012-04-15T09:36:14Z</time>
      </trkpt>
      <trkpt lat="48.15595" lon="6.48294">
        <ele>482.24</ele>
        <time>2012-04-15T09:36:21Z</time>
      </trkpt>
      <trkpt lat="48.1562" lon="6.48284">
        <ele>489.93</ele>
        <time>2012-04-15T09:36:36Z</time>
      </trkpt>
      <trkpt lat="48.1563" lon="6.48278">
        <ele>490.41</ele>
        <time>2012-04-15T09:36:41Z</time>
      </trkpt>
      <trkpt lat="48.15646" lon="6.48254">
        <ele>491.85</ele>
        <time>2012-04-15T09:36:53Z</time>
      </trkpt>
      <trkpt lat="48.15663" lon="6.48235">
        <ele>495.7</ele>
        <time>2012-04-15T09:37:02Z</time>
      </trkpt>
      <trkpt lat="48.15689" lon="6.48211">
        <ele>494.74</ele>
        <time>2012-04-15T09:37:13Z</time>
      </trkpt>
      <trkpt lat="48.15713" lon="6.48186">
        <ele>497.62</ele>
        <time>2012-04-15T09:37:25Z</time>
      </trkpt>
      <trkpt lat="48.15731" lon="6.48155">
        <ele>493.77</ele>
        <time>2012-04-15T09:37:34Z</time>
      </trkpt>
      <trkpt lat="48.15732" lon="6.48138">
        <ele>494.26</ele>
        <time>2012-04-15T09:37:38Z</time>
      </trkpt>
      <trkpt lat="48.15722" lon="6.48084">
        <ele>492.33</ele>
        <time>2012-04-15T09:37:51Z</time>
      </trkpt>
      <trkpt lat="48.15717" lon="6.48076">
        <ele>492.33</ele>
        <time>2012-04-15T09:37:55Z</time>
      </trkpt>
      <trkpt lat="48.15715" lon="6.48073">
        <ele>492.33</ele>
        <time>2012-04-15T09:37:57Z</time>
      </trkpt>
      <trkpt lat="48.15698" lon="6.48051">
        <ele>493.77</ele>
        <time>2012-04-15T09:38:08Z</time>
      </trkpt>
      <trkpt lat="48.15676" lon="6.48026">
        <ele>496.66</ele>
        <time>2012-04-15T09:38:19Z</time>
      </trkpt>
      <trkpt lat="48.15659" lon="6.48002">
        <ele>499.06</ele>
        <time>2012-04-15T09:38:30Z</time>
      </trkpt>
      <trkpt lat="48.15648" lon="6.47991">
        <ele>500.5</ele>
        <time>2012-04-15T09:38:35Z</time>
      </trkpt>
      <trkpt lat="48.15634" lon="6.47977">
        <ele>501.95</ele>
        <time>2012-04-15T09:38:42Z</time>
      </trkpt>
      <trkpt lat="48.15608" lon="6.47952">
        <ele>504.83</ele>
        <time>2012-04-15T09:38:54Z</time>
      </trkpt>
      <trkpt lat="48.15598" lon="6.47925">
        <ele>504.83</ele>
        <time>2012-04-15T09:39:02Z</time>
      </trkpt>
      <trkpt lat="48.156" lon="6.47918">
        <ele>504.35</ele>
        <time>2012-04-15T09:39:03Z</time>
      </trkpt>
      <trkpt lat="48.15601" lon="6.47911">
        <ele>504.35</ele>
        <time>2012-04-15T09:39:04Z</time>
      </trkpt>
      <trkpt lat="48.15602" lon="6.47902">
        <ele>503.87</ele>
        <time>2012-04-15T09:39:05Z</time>
      </trkpt>
      <trkpt lat="48.15603" lon="6.47887">
        <ele>502.91</ele>
        <time>2012-04-15T09:39:07Z</time>
      </trkpt>
      <trkpt lat="48.15606" lon="6.47832">
        <ele>499.54</ele>
        <time>2012-04-15T09:39:13Z</time>
      </trkpt>
      <trkpt lat="48.15609" lon="6.47807">
        <ele>497.62</ele>
        <time>2012-04-15T09:39:16Z</time>
      </trkpt>
      <trkpt lat="48.15609" lon="6.47799">
        <ele>497.14</ele>
        <time>2012-04-15T09:39:17Z</time>
      </trkpt>
      <trkpt lat="48.15609" lon="6.47792">
        <ele>495.7</ele>
        <time>2012-04-15T09:39:18Z</time>
      </trkpt>
      <trkpt lat="48.15612" lon="6.47784">
        <ele>494.74</ele>
        <time>2012-04-15T09:39:19Z</time>
      </trkpt>
      <trkpt lat="48.15616" lon="6.47779">
        <ele>491.37</ele>
        <time>2012-04-15T09:39:20Z</time>
      </trkpt>
      <trkpt lat="48.1562" lon="6.47772">
        <ele>489.45</ele>
        <time>2012-04-15T09:39:21Z</time>
      </trkpt>
      <trkpt lat="48.15624" lon="6.47765">
        <ele>488.49</ele>
        <time>2012-04-15T09:39:22Z</time>
      </trkpt>
      <trkpt lat="48.15627" lon="6.47757">
        <ele>488.01</ele>
        <time>2012-04-15T09:39:23Z</time>
      </trkpt>
      <trkpt lat="48.1563" lon="6.4775">
        <ele>487.53</ele>
        <time>2012-04-15T09:39:24Z</time>
      </trkpt>
      <trkpt lat="48.15633" lon="6.47743">
        <ele>486.56</ele>
        <time>2012-04-15T09:39:25Z</time>
      </trkpt>
      <trkpt lat="48.15636" lon="6.47736">
        <ele>485.6</ele>
        <time>2012-04-15T09:39:26Z</time>
      </trkpt>
      <trkpt lat="48.15642" lon="6.47726">
        <ele>484.16</ele>
        <time>2012-04-15T09:39:28Z</time>
      </trkpt>
      <trkpt lat="48.15645" lon="6.47723">
        <ele>483.68</ele>
        <time>2012-04-15T09:39:29Z</time>
      </trkpt>
      <trkpt lat="48.15648" lon="6.4772">
        <ele>483.68</ele>
        <time>2012-04-15T09:39:30Z</time>
      </trkpt>
      <trkpt lat="48.15651" lon="6.47718">
        <ele>483.68</ele>
        <time>2012-04-15T09:39:31Z</time>
      </trkpt>
      <trkpt lat="48.15654" lon="6.47716">
        <ele>483.2</ele>
        <time>2012-04-15T09:39:32Z</time>
      </trkpt>
      <trkpt lat="48.15657" lon="6.47715">
        <ele>483.2</ele>
        <time>2012-04-15T09:39:33Z</time>
      </trkpt>
      <trkpt lat="48.15661" lon="6.47713">
        <ele>483.2</ele>
        <time>2012-04-15T09:39:34Z</time>
      </trkpt>
      <trkpt lat="48.15687" lon="6.47697">
        <ele>483.2</ele>
        <time>2012-04-15T09:39:41Z</time>
      </trkpt>
      <trkpt lat="48.15696" lon="6.47695">
        <ele>483.68</ele>
        <time>2012-04-15T09:39:43Z</time>
      </trkpt>
      <trkpt lat="48.15736" lon="6.47683">
        <ele>484.64</ele>
        <time>2012-04-15T09:39:51Z</time>
      </trkpt>
      <trkpt lat="48.15812" lon="6.47659">
        <ele>487.53</ele>
        <time>2012-04-15T09:40:04Z</time>
      </trkpt>
      <trkpt lat="48.15835" lon="6.47658">
        <ele>488.97</ele>
        <time>2012-04-15T09:40:08Z</time>
      </trkpt>
      <trkpt lat="48.15853" lon="6.47659">
        <ele>490.41</ele>
        <time>2012-04-15T09:40:11Z</time>
      </trkpt>
      <trkpt lat="48.15875" lon="6.4763">
        <ele>491.37</ele>
        <time>2012-04-15T09:40:18Z</time>
      </trkpt>
      <trkpt lat="48.1588" lon="6.47571">
        <ele>486.56</ele>
        <time>2012-04-15T09:40:28Z</time>
      </trkpt>
      <trkpt lat="48.1587" lon="6.47532">
        <ele>485.12</ele>
        <time>2012-04-15T09:40:35Z</time>
      </trkpt>
      <trkpt lat="48.15868" lon="6.47528">
        <ele>485.12</ele>
        <time>2012-04-15T09:40:36Z</time>
      </trkpt>
      <trkpt lat="48.15865" lon="6.47523">
        <ele>484.64</ele>
        <time>2012-04-15T09:40:37Z</time>
      </trkpt>
      <trkpt lat="48.15863" lon="6.47518">
        <ele>484.64</ele>
        <time>2012-04-15T09:40:38Z</time>
      </trkpt>
      <trkpt lat="48.15861" lon="6.47513">
        <ele>485.12</ele>
        <time>2012-04-15T09:40:39Z</time>
      </trkpt>
      <trkpt lat="48.15858" lon="6.47508">
        <ele>485.12</ele>
        <time>2012-04-15T09:40:40Z</time>
      </trkpt>
      <trkpt lat="48.15857" lon="6.47502">
        <ele>485.12</ele>
        <time>2012-04-15T09:40:41Z</time>
      </trkpt>
      <trkpt lat="48.15855" lon="6.47496">
        <ele>485.6</ele>
        <time>2012-04-15T09:40:42Z</time>
      </trkpt>
      <trkpt lat="48.15854" lon="6.47491">
        <ele>486.08</ele>
        <time>2012-04-15T09:40:43Z</time>
      </trkpt>
      <trkpt lat="48.15839" lon="6.47434">
        <ele>487.53</ele>
        <time>2012-04-15T09:40:54Z</time>
      </trkpt>
      <trkpt lat="48.15815" lon="6.47397">
        <ele>488.97</ele>
        <time>2012-04-15T09:41:05Z</time>
      </trkpt>
      <trkpt lat="48.1579" lon="6.47378">
        <ele>488.97</ele>
        <time>2012-04-15T09:41:15Z</time>
      </trkpt>
      <trkpt lat="48.15781" lon="6.47335">
        <ele>488.01</ele>
        <time>2012-04-15T09:41:27Z</time>
      </trkpt>
      <trkpt lat="48.1578" lon="6.47321">
        <ele>487.05</ele>
        <time>2012-04-15T09:41:31Z</time>
      </trkpt>
      <trkpt lat="48.15781" lon="6.47317">
        <ele>487.05</ele>
        <time>2012-04-15T09:41:32Z</time>
      </trkpt>
      <trkpt lat="48.15781" lon="6.47313">
        <ele>487.05</ele>
        <time>2012-04-15T09:41:33Z</time>
      </trkpt>
      <trkpt lat="48.15781" lon="6.47309">
        <ele>487.05</ele>
        <time>2012-04-15T09:41:34Z</time>
      </trkpt>
      <trkpt lat="48.15781" lon="6.47305">
        <ele>487.05</ele>
        <time>2012-04-15T09:41:35Z</time>
      </trkpt>
      <trkpt lat="48.15782" lon="6.47301">
        <ele>487.53</ele>
        <time>2012-04-15T09:41:36Z</time>
      </trkpt>
      <trkpt lat="48.15782" lon="6.47296">
        <ele>488.01</ele>
        <time>2012-04-15T09:41:37Z</time>
      </trkpt>
      <trkpt lat="48.15789" lon="6.47241">
        <ele>487.05</ele>
        <time>2012-04-15T09:41:49Z</time>
      </trkpt>
      <trkpt lat="48.15791" lon="6.47204">
        <ele>488.49</ele>
        <time>2012-04-15T09:41:59Z</time>
      </trkpt>
      <trkpt lat="48.15798" lon="6.4716">
        <ele>489.45</ele>
        <time>2012-04-15T09:42:10Z</time>
      </trkpt>
      <trkpt lat="48.15799" lon="6.47141">
        <ele>489.93</ele>
        <time>2012-04-15T09:42:14Z</time>
      </trkpt>
      <trkpt lat="48.15796" lon="6.47091">
        <ele>491.37</ele>
        <time>2012-04-15T09:42:25Z</time>
      </trkpt>
      <trkpt lat="48.15786" lon="6.47025">
        <ele>491.85</ele>
        <time>2012-04-15T09:42:36Z</time>
      </trkpt>
      <trkpt lat="48.15782" lon="6.46998">
        <ele>491.85</ele>
        <time>2012-04-15T09:42:40Z</time>
      </trkpt>
      <trkpt lat="48.15771" lon="6.46938">
        <ele>493.29</ele>
        <time>2012-04-15T09:42:50Z</time>
      </trkpt>
      <trkpt lat="48.15769" lon="6.46918">
        <ele>493.29</ele>
        <time>2012-04-15T09:42:54Z</time>
      </trkpt>
      <trkpt lat="48.15763" lon="6.46886">
        <ele>494.74</ele>
        <time>2012-04-15T09:43:01Z</time>
      </trkpt>
      <trkpt lat="48.15764" lon="6.4688">
        <ele>494.74</ele>
        <time>2012-04-15T09:43:03Z</time>
      </trkpt>
      <trkpt lat="48.15777" lon="6.46868">
        <ele>496.18</ele>
        <time>2012-04-15T09:43:13Z</time>
      </trkpt>
      <trkpt lat="48.15782" lon="6.46873">
        <ele>496.66</ele>
        <time>2012-04-15T09:43:15Z</time>
      </trkpt>
      <trkpt lat="48.15802" lon="6.46892">
        <ele>497.14</ele>
        <time>2012-04-15T09:43:21Z</time>
      </trkpt>
      <trkpt lat="48.15808" lon="6.46896">
        <ele>495.22</ele>
        <time>2012-04-15T09:43:28Z</time>
      </trkpt>
      <trkpt lat="48.15821" lon="6.46891">
        <ele>492.33</ele>
        <time>2012-04-15T09:43:33Z</time>
      </trkpt>
      <trkpt lat="48.15833" lon="6.46879">
        <ele>490.41</ele>
        <time>2012-04-15T09:43:37Z</time>
      </trkpt>
      <trkpt lat="48.15851" lon="6.46897">
        <ele>487.53</ele>
        <time>2012-04-15T09:43:44Z</time>
      </trkpt>
      <trkpt lat="48.15866" lon="6.46888">
        <ele>485.12</ele>
        <time>2012-04-15T09:43:48Z</time>
      </trkpt>
      <trkpt lat="48.15878" lon="6.4688">
        <ele>483.2</ele>
        <time>2012-04-15T09:43:50Z</time>
      </trkpt>
      <trkpt lat="48.15895" lon="6.46875">
        <ele>477.43</ele>
        <time>2012-04-15T09:43:57Z</time>
      </trkpt>
      <trkpt lat="48.15908" lon="6.4687">
        <ele>474.07</ele>
        <time>2012-04-15T09:44:02Z</time>
      </trkpt>
      <trkpt lat="48.15923" lon="6.46888">
        <ele>470.7</ele>
        <time>2012-04-15T09:44:07Z</time>
      </trkpt>
      <trkpt lat="48.15927" lon="6.46899">
        <ele>470.22</ele>
        <time>2012-04-15T09:44:12Z</time>
      </trkpt>
      <trkpt lat="48.15929" lon="6.46917">
        <ele>472.63</ele>
        <time>2012-04-15T09:44:20Z</time>
      </trkpt>
      <trkpt lat="48.15937" lon="6.4694">
        <ele>466.38</ele>
        <time>2012-04-15T09:44:29Z</time>
      </trkpt>
      <trkpt lat="48.15937" lon="6.46951">
        <ele>462.53</ele>
        <time>2012-04-15T09:44:36Z</time>
      </trkpt>
      <trkpt lat="48.15936" lon="6.4695">
        <ele>459.65</ele>
        <time>2012-04-15T09:44:51Z</time>
      </trkpt>
      <trkpt lat="48.15939" lon="6.46956">
        <ele>458.69</ele>
        <time>2012-04-15T09:44:53Z</time>
      </trkpt>
      <trkpt lat="48.15942" lon="6.46959">
        <ele>458.21</ele>
        <time>2012-04-15T09:44:54Z</time>
      </trkpt>
      <trkpt lat="48.15945" lon="6.46962">
        <ele>457.24</ele>
        <time>2012-04-15T09:44:55Z</time>
      </trkpt>
      <trkpt lat="48.15948" lon="6.46963">
        <ele>456.76</ele>
        <time>2012-04-15T09:44:56Z</time>
      </trkpt>
      <trkpt lat="48.15949" lon="6.46963">
        <ele>456.28</ele>
        <time>2012-04-15T09:44:57Z</time>
      </trkpt>
      <trkpt lat="48.1595" lon="6.46966">
        <ele>454.36</ele>
        <time>2012-04-15T09:45:09Z</time>
      </trkpt>
      <trkpt lat="48.15958" lon="6.46969">
        <ele>452.44</ele>
        <time>2012-04-15T09:45:23Z</time>
      </trkpt>
      <trkpt lat="48.1596" lon="6.4697">
        <ele>452.44</ele>
        <time>2012-04-15T09:45:24Z</time>
      </trkpt>
      <trkpt lat="48.15963" lon="6.46971">
        <ele>451.96</ele>
        <time>2012-04-15T09:45:25Z</time>
      </trkpt>
      <trkpt lat="48.15972" lon="6.46974">
        <ele>451.48</ele>
        <time>2012-04-15T09:45:30Z</time>
      </trkpt>
      <trkpt lat="48.15974" lon="6.46973">
        <ele>451.96</ele>
        <time>2012-04-15T09:45:31Z</time>
      </trkpt>
      <trkpt lat="48.15976" lon="6.46972">
        <ele>452.44</ele>
        <time>2012-04-15T09:45:32Z</time>
      </trkpt>
      <trkpt lat="48.15978" lon="6.46972">
        <ele>452.92</ele>
        <time>2012-04-15T09:45:33Z</time>
      </trkpt>
      <trkpt lat="48.15979" lon="6.46971">
        <ele>453.88</ele>
        <time>2012-04-15T09:45:34Z</time>
      </trkpt>
      <trkpt lat="48.15981" lon="6.46971">
        <ele>454.36</ele>
        <time>2012-04-15T09:45:35Z</time>
      </trkpt>
      <trkpt lat="48.15984" lon="6.46971">
        <ele>455.32</ele>
        <time>2012-04-15T09:45:36Z</time>
      </trkpt>
      <trkpt lat="48.15986" lon="6.46971">
        <ele>456.28</ele>
        <time>2012-04-15T09:45:37Z</time>
      </trkpt>
      <trkpt lat="48.15987" lon="6.4697">
        <ele>457.24</ele>
        <time>2012-04-15T09:45:38Z</time>
      </trkpt>
      <trkpt lat="48.15989" lon="6.4697">
        <ele>457.72</ele>
        <time>2012-04-15T09:45:39Z</time>
      </trkpt>
      <trkpt lat="48.16003" lon="6.46966">
        <ele>465.42</ele>
        <time>2012-04-15T09:45:49Z</time>
      </trkpt>
      <trkpt lat="48.16006" lon="6.46963">
        <ele>470.7</ele>
        <time>2012-04-15T09:45:58Z</time>
      </trkpt>
      <trkpt lat="48.16011" lon="6.46961">
        <ele>477.43</ele>
        <time>2012-04-15T09:46:09Z</time>
      </trkpt>
      <trkpt lat="48.16011" lon="6.4696">
        <ele>477.91</ele>
        <time>2012-04-15T09:46:11Z</time>
      </trkpt>
      <trkpt lat="48.16012" lon="6.46959">
        <ele>477.43</ele>
        <time>2012-04-15T09:46:12Z</time>
      </trkpt>
      <trkpt lat="48.16014" lon="6.46959">
        <ele>477.91</ele>
        <time>2012-04-15T09:46:13Z</time>
      </trkpt>
      <trkpt lat="48.16024" lon="6.46958">
        <ele>478.87</ele>
        <time>2012-04-15T09:46:21Z</time>
      </trkpt>
      <trkpt lat="48.16032" lon="6.46956">
        <ele>477.91</ele>
        <time>2012-04-15T09:46:26Z</time>
      </trkpt>
      <trkpt lat="48.16035" lon="6.46956">
        <ele>477.43</ele>
        <time>2012-04-15T09:46:27Z</time>
      </trkpt>
      <trkpt lat="48.16038" lon="6.46954">
        <ele>476.95</ele>
        <time>2012-04-15T09:46:28Z</time>
      </trkpt>
      <trkpt lat="48.16051" lon="6.46947">
        <ele>472.63</ele>
        <time>2012-04-15T09:46:34Z</time>
      </trkpt>
      <trkpt lat="48.16056" lon="6.46941">
        <ele>466.38</ele>
        <time>2012-04-15T09:46:45Z</time>
      </trkpt>
      <trkpt lat="48.16058" lon="6.46942">
        <ele>462.05</ele>
        <time>2012-04-15T09:46:58Z</time>
      </trkpt>
      <trkpt lat="48.16065" lon="6.46933">
        <ele>444.75</ele>
        <time>2012-04-15T09:47:13Z</time>
      </trkpt>
      <trkpt lat="48.16065" lon="6.46931">
        <ele>440.42</ele>
        <time>2012-04-15T09:47:28Z</time>
      </trkpt>
      <trkpt lat="48.16064" lon="6.4693">
        <ele>438.98</ele>
        <time>2012-04-15T09:47:42Z</time>
      </trkpt>
      <trkpt lat="48.16067" lon="6.46912">
        <ele>426.48</ele>
        <time>2012-04-15T09:47:53Z</time>
      </trkpt>
      <trkpt lat="48.16068" lon="6.46911">
        <ele>425.52</ele>
        <time>2012-04-15T09:47:54Z</time>
      </trkpt>
      <trkpt lat="48.16069" lon="6.46911">
        <ele>424.56</ele>
        <time>2012-04-15T09:47:55Z</time>
      </trkpt>
      <trkpt lat="48.1607" lon="6.46909">
        <ele>424.08</ele>
        <time>2012-04-15T09:47:56Z</time>
      </trkpt>
      <trkpt lat="48.16075" lon="6.469">
        <ele>420.23</ele>
        <time>2012-04-15T09:48:09Z</time>
      </trkpt>
      <trkpt lat="48.16076" lon="6.469">
        <ele>418.31</ele>
        <time>2012-04-15T09:48:23Z</time>
      </trkpt>
      <trkpt lat="48.16077" lon="6.46897">
        <ele>417.83</ele>
        <time>2012-04-15T09:48:24Z</time>
      </trkpt>
      <trkpt lat="48.16078" lon="6.46894">
        <ele>416.87</ele>
        <time>2012-04-15T09:48:25Z</time>
      </trkpt>
      <trkpt lat="48.16079" lon="6.46891">
        <ele>416.39</ele>
        <time>2012-04-15T09:48:26Z</time>
      </trkpt>
      <trkpt lat="48.1608" lon="6.4689">
        <ele>415.91</ele>
        <time>2012-04-15T09:48:27Z</time>
      </trkpt>
      <trkpt lat="48.16082" lon="6.46889">
        <ele>415.91</ele>
        <time>2012-04-15T09:48:28Z</time>
      </trkpt>
      <trkpt lat="48.16091" lon="6.46884">
        <ele>415.43</ele>
        <time>2012-04-15T09:48:33Z</time>
      </trkpt>
      <trkpt lat="48.16092" lon="6.46882">
        <ele>415.43</ele>
        <time>2012-04-15T09:48:34Z</time>
      </trkpt>
      <trkpt lat="48.16094" lon="6.46881">
        <ele>415.91</ele>
        <time>2012-04-15T09:48:35Z</time>
      </trkpt>
      <trkpt lat="48.16095" lon="6.46881">
        <ele>415.91</ele>
        <time>2012-04-15T09:48:36Z</time>
      </trkpt>
      <trkpt lat="48.16096" lon="6.46881">
        <ele>416.39</ele>
        <time>2012-04-15T09:48:37Z</time>
      </trkpt>
      <trkpt lat="48.16098" lon="6.4688">
        <ele>416.87</ele>
        <time>2012-04-15T09:48:38Z</time>
      </trkpt>
      <trkpt lat="48.16124" lon="6.46863">
        <ele>415.43</ele>
        <time>2012-04-15T09:48:48Z</time>
      </trkpt>
      <trkpt lat="48.16126" lon="6.46861">
        <ele>414.95</ele>
        <time>2012-04-15T09:48:50Z</time>
      </trkpt>
      <trkpt lat="48.16129" lon="6.46857">
        <ele>414.95</ele>
        <time>2012-04-15T09:49:03Z</time>
      </trkpt>
      <trkpt lat="48.1613" lon="6.46854">
        <ele>415.43</ele>
        <time>2012-04-15T09:49:20Z</time>
      </trkpt>
      <trkpt lat="48.16132" lon="6.46853">
        <ele>415.43</ele>
        <time>2012-04-15T09:49:21Z</time>
      </trkpt>
      <trkpt lat="48.16157" lon="6.46834">
        <ele>413.98</ele>
        <time>2012-04-15T09:49:31Z</time>
      </trkpt>
      <trkpt lat="48.1617" lon="6.4683">
        <ele>414.95</ele>
        <time>2012-04-15T09:49:40Z</time>
      </trkpt>
      <trkpt lat="48.1617" lon="6.46829">
        <ele>414.47</ele>
        <time>2012-04-15T09:49:41Z</time>
      </trkpt>
      <trkpt lat="48.16169" lon="6.46826">
        <ele>412.54</ele>
        <time>2012-04-15T09:49:44Z</time>
      </trkpt>
      <trkpt lat="48.16168" lon="6.46823">
        <ele>412.54</ele>
        <time>2012-04-15T09:49:45Z</time>
      </trkpt>
      <trkpt lat="48.16173" lon="6.46812">
        <ele>409.18</ele>
        <time>2012-04-15T09:49:52Z</time>
      </trkpt>
      <trkpt lat="48.16188" lon="6.468">
        <ele>410.62</ele>
        <time>2012-04-15T09:50:01Z</time>
      </trkpt>
      <trkpt lat="48.16212" lon="6.46769">
        <ele>415.43</ele>
        <time>2012-04-15T09:50:14Z</time>
      </trkpt>
      <trkpt lat="48.1622" lon="6.4676">
        <ele>417.83</ele>
        <time>2012-04-15T09:50:20Z</time>
      </trkpt>
      <trkpt lat="48.16235" lon="6.46757">
        <ele>418.79</ele>
        <time>2012-04-15T09:50:26Z</time>
      </trkpt>
      <trkpt lat="48.16281" lon="6.46751">
        <ele>413.5</ele>
        <time>2012-04-15T09:50:36Z</time>
      </trkpt>
      <trkpt lat="48.16303" lon="6.46756">
        <ele>402.93</ele>
        <time>2012-04-15T09:50:45Z</time>
      </trkpt>
      <trkpt lat="48.16305" lon="6.46757">
        <ele>401.97</ele>
        <time>2012-04-15T09:50:46Z</time>
      </trkpt>
      <trkpt lat="48.16309" lon="6.46756">
        <ele>401.01</ele>
        <time>2012-04-15T09:50:47Z</time>
      </trkpt>
      <trkpt lat="48.16311" lon="6.46752">
        <ele>400.53</ele>
        <time>2012-04-15T09:50:48Z</time>
      </trkpt>
      <trkpt lat="48.16312" lon="6.46747">
        <ele>399.57</ele>
        <time>2012-04-15T09:50:49Z</time>
      </trkpt>
      <trkpt lat="48.16312" lon="6.46742">
        <ele>398.12</ele>
        <time>2012-04-15T09:50:50Z</time>
      </trkpt>
      <trkpt lat="48.16313" lon="6.46725">
        <ele>394.28</ele>
        <time>2012-04-15T09:50:53Z</time>
      </trkpt>
      <trkpt lat="48.16313" lon="6.46711">
        <ele>390.91</ele>
        <time>2012-04-15T09:50:55Z</time>
      </trkpt>
      <trkpt lat="48.16312" lon="6.46681">
        <ele>384.18</ele>
        <time>2012-04-15T09:50:59Z</time>
      </trkpt>
      <trkpt lat="48.16301" lon="6.46621">
        <ele>379.86</ele>
        <time>2012-04-15T09:51:07Z</time>
      </trkpt>
      <trkpt lat="48.16265" lon="6.46541">
        <ele>376.01</ele>
        <time>2012-04-15T09:51:22Z</time>
      </trkpt>
      <trkpt lat="48.16263" lon="6.46537">
        <ele>376.01</ele>
        <time>2012-04-15T09:51:23Z</time>
      </trkpt>
      <trkpt lat="48.16244" lon="6.46507">
        <ele>376.01</ele>
        <time>2012-04-15T09:51:29Z</time>
      </trkpt>
      <trkpt lat="48.16242" lon="6.46501">
        <ele>376.01</ele>
        <time>2012-04-15T09:51:30Z</time>
      </trkpt>
      <trkpt lat="48.16236" lon="6.4649">
        <ele>375.53</ele>
        <time>2012-04-15T09:51:32Z</time>
      </trkpt>
      <trkpt lat="48.16233" lon="6.46483">
        <ele>375.05</ele>
        <time>2012-04-15T09:51:33Z</time>
      </trkpt>
      <trkpt lat="48.1623" lon="6.46477">
        <ele>375.05</ele>
        <time>2012-04-15T09:51:34Z</time>
      </trkpt>
      <trkpt lat="48.16225" lon="6.46465">
        <ele>374.09</ele>
        <time>2012-04-15T09:51:36Z</time>
      </trkpt>
      <trkpt lat="48.16223" lon="6.46459">
        <ele>373.61</ele>
        <time>2012-04-15T09:51:37Z</time>
      </trkpt>
      <trkpt lat="48.16221" lon="6.46453">
        <ele>372.65</ele>
        <time>2012-04-15T09:51:38Z</time>
      </trkpt>
      <trkpt lat="48.16219" lon="6.46446">
        <ele>372.17</ele>
        <time>2012-04-15T09:51:39Z</time>
      </trkpt>
      <trkpt lat="48.16218" lon="6.4644">
        <ele>371.69</ele>
        <time>2012-04-15T09:51:40Z</time>
      </trkpt>
      <trkpt lat="48.16218" lon="6.46434">
        <ele>370.73</ele>
        <time>2012-04-15T09:51:41Z</time>
      </trkpt>
      <trkpt lat="48.16218" lon="6.46428">
        <ele>370.24</ele>
        <time>2012-04-15T09:51:42Z</time>
      </trkpt>
      <trkpt lat="48.1622" lon="6.46423">
        <ele>369.76</ele>
        <time>2012-04-15T09:51:43Z</time>
      </trkpt>
      <trkpt lat="48.16221" lon="6.46416">
        <ele>369.76</ele>
        <time>2012-04-15T09:51:44Z</time>
      </trkpt>
      <trkpt lat="48.16222" lon="6.4641">
        <ele>368.8</ele>
        <time>2012-04-15T09:51:45Z</time>
      </trkpt>
      <trkpt lat="48.16228" lon="6.46356">
        <ele>367.36</ele>
        <time>2012-04-15T09:51:53Z</time>
      </trkpt>
      <trkpt lat="48.1623" lon="6.4634">
        <ele>366.88</ele>
        <time>2012-04-15T09:51:55Z</time>
      </trkpt>
      <trkpt lat="48.16231" lon="6.46331">
        <ele>365.92</ele>
        <time>2012-04-15T09:51:56Z</time>
      </trkpt>
      <trkpt lat="48.16232" lon="6.46323">
        <ele>364.96</ele>
        <time>2012-04-15T09:51:57Z</time>
      </trkpt>
      <trkpt lat="48.16232" lon="6.46314">
        <ele>364.48</ele>
        <time>2012-04-15T09:51:58Z</time>
      </trkpt>
      <trkpt lat="48.16232" lon="6.46305">
        <ele>364</ele>
        <time>2012-04-15T09:51:59Z</time>
      </trkpt>
      <trkpt lat="48.16232" lon="6.46191">
        <ele>356.31</ele>
        <time>2012-04-15T09:52:11Z</time>
      </trkpt>
      <trkpt lat="48.16248" lon="6.46013">
        <ele>351.5</ele>
        <time>2012-04-15T09:52:28Z</time>
      </trkpt>
      <trkpt lat="48.1625" lon="6.45969">
        <ele>349.58</ele>
        <time>2012-04-15T09:52:32Z</time>
      </trkpt>
      <trkpt lat="48.16249" lon="6.45959">
        <ele>348.62</ele>
        <time>2012-04-15T09:52:33Z</time>
      </trkpt>
      <trkpt lat="48.16248" lon="6.45949">
        <ele>348.13</ele>
        <time>2012-04-15T09:52:34Z</time>
      </trkpt>
      <trkpt lat="48.16249" lon="6.4594">
        <ele>347.17</ele>
        <time>2012-04-15T09:52:35Z</time>
      </trkpt>
      <trkpt lat="48.16249" lon="6.4593">
        <ele>346.69</ele>
        <time>2012-04-15T09:52:36Z</time>
      </trkpt>
      <trkpt lat="48.16249" lon="6.45919">
        <ele>346.21</ele>
        <time>2012-04-15T09:52:37Z</time>
      </trkpt>
      <trkpt lat="48.16249" lon="6.45909">
        <ele>346.21</ele>
        <time>2012-04-15T09:52:38Z</time>
      </trkpt>
      <trkpt lat="48.16234" lon="6.45781">
        <ele>341.41</ele>
        <time>2012-04-15T09:52:50Z</time>
      </trkpt>
      <trkpt lat="48.16225" lon="6.4573">
        <ele>339.96</ele>
        <time>2012-04-15T09:52:55Z</time>
      </trkpt>
      <trkpt lat="48.16225" lon="6.45678">
        <ele>339</ele>
        <time>2012-04-15T09:53:00Z</time>
      </trkpt>
      <trkpt lat="48.16226" lon="6.4567">
        <ele>339</ele>
        <time>2012-04-15T09:53:01Z</time>
      </trkpt>
      <trkpt lat="48.16228" lon="6.45662">
        <ele>338.52</ele>
        <time>2012-04-15T09:53:02Z</time>
      </trkpt>
      <trkpt lat="48.1623" lon="6.45656">
        <ele>338.04</ele>
        <time>2012-04-15T09:53:03Z</time>
      </trkpt>
      <trkpt lat="48.16232" lon="6.4565">
        <ele>337.56</ele>
        <time>2012-04-15T09:53:04Z</time>
      </trkpt>
      <trkpt lat="48.16234" lon="6.45647">
        <ele>337.08</ele>
        <time>2012-04-15T09:53:05Z</time>
      </trkpt>
      <trkpt lat="48.16236" lon="6.45644">
        <ele>337.08</ele>
        <time>2012-04-15T09:53:06Z</time>
      </trkpt>
      <trkpt lat="48.16238" lon="6.45642">
        <ele>337.08</ele>
        <time>2012-04-15T09:53:07Z</time>
      </trkpt>
      <trkpt lat="48.16239" lon="6.45639">
        <ele>336.6</ele>
        <time>2012-04-15T09:53:08Z</time>
      </trkpt>
      <trkpt lat="48.16237" lon="6.45633">
        <ele>336.6</ele>
        <time>2012-04-15T09:53:10Z</time>
      </trkpt>
      <trkpt lat="48.16227" lon="6.45624">
        <ele>336.12</ele>
        <time>2012-04-15T09:53:13Z</time>
      </trkpt>
      <trkpt lat="48.16223" lon="6.45624">
        <ele>336.12</ele>
        <time>2012-04-15T09:53:14Z</time>
      </trkpt>
      <trkpt lat="48.16167" lon="6.45621">
        <ele>335.64</ele>
        <time>2012-04-15T09:53:25Z</time>
      </trkpt>
      <trkpt lat="48.16101" lon="6.4563">
        <ele>338.52</ele>
        <time>2012-04-15T09:53:36Z</time>
      </trkpt>
      <trkpt lat="48.16046" lon="6.4564">
        <ele>336.6</ele>
        <time>2012-04-15T09:53:44Z</time>
      </trkpt>
      <trkpt lat="48.16024" lon="6.45639">
        <ele>335.16</ele>
        <time>2012-04-15T09:53:47Z</time>
      </trkpt>
      <trkpt lat="48.16018" lon="6.45636">
        <ele>335.16</ele>
        <time>2012-04-15T09:53:48Z</time>
      </trkpt>
      <trkpt lat="48.15979" lon="6.45615">
        <ele>334.68</ele>
        <time>2012-04-15T09:53:54Z</time>
      </trkpt>
      <trkpt lat="48.15974" lon="6.45612">
        <ele>334.68</ele>
        <time>2012-04-15T09:53:55Z</time>
      </trkpt>
      <trkpt lat="48.15959" lon="6.45599">
        <ele>335.16</ele>
        <time>2012-04-15T09:53:58Z</time>
      </trkpt>
      <trkpt lat="48.15954" lon="6.45595">
        <ele>335.64</ele>
        <time>2012-04-15T09:53:59Z</time>
      </trkpt>
      <trkpt lat="48.15949" lon="6.45591">
        <ele>335.64</ele>
        <time>2012-04-15T09:54:00Z</time>
      </trkpt>
      <trkpt lat="48.15921" lon="6.45569">
        <ele>336.12</ele>
        <time>2012-04-15T09:54:06Z</time>
      </trkpt>
      <trkpt lat="48.15917" lon="6.45564">
        <ele>336.12</ele>
        <time>2012-04-15T09:54:07Z</time>
      </trkpt>
      <trkpt lat="48.1587" lon="6.45528">
        <ele>336.12</ele>
        <time>2012-04-15T09:54:16Z</time>
      </trkpt>
      <trkpt lat="48.15865" lon="6.45524">
        <ele>336.12</ele>
        <time>2012-04-15T09:54:17Z</time>
      </trkpt>
      <trkpt lat="48.15859" lon="6.45521">
        <ele>336.12</ele>
        <time>2012-04-15T09:54:18Z</time>
      </trkpt>
      <trkpt lat="48.15854" lon="6.45517">
        <ele>336.6</ele>
        <time>2012-04-15T09:54:19Z</time>
      </trkpt>
      <trkpt lat="48.15849" lon="6.45513">
        <ele>336.6</ele>
        <time>2012-04-15T09:54:20Z</time>
      </trkpt>
      <trkpt lat="48.15782" lon="6.45461">
        <ele>338.52</ele>
        <time>2012-04-15T09:54:33Z</time>
      </trkpt>
      <trkpt lat="48.15741" lon="6.45427">
        <ele>340.44</ele>
        <time>2012-04-15T09:54:41Z</time>
      </trkpt>
      <trkpt lat="48.15678" lon="6.45374">
        <ele>341.89</ele>
        <time>2012-04-15T09:54:54Z</time>
      </trkpt>
      <trkpt lat="48.15636" lon="6.4535">
        <ele>342.37</ele>
        <time>2012-04-15T09:55:02Z</time>
      </trkpt>
      <trkpt lat="48.15631" lon="6.45347">
        <ele>342.85</ele>
        <time>2012-04-15T09:55:03Z</time>
      </trkpt>
      <trkpt lat="48.15626" lon="6.45345">
        <ele>342.85</ele>
        <time>2012-04-15T09:55:04Z</time>
      </trkpt>
      <trkpt lat="48.15593" lon="6.45323">
        <ele>344.29</ele>
        <time>2012-04-15T09:55:11Z</time>
      </trkpt>
      <trkpt lat="48.15588" lon="6.4532">
        <ele>344.29</ele>
        <time>2012-04-15T09:55:12Z</time>
      </trkpt>
      <trkpt lat="48.15585" lon="6.45316">
        <ele>344.29</ele>
        <time>2012-04-15T09:55:13Z</time>
      </trkpt>
      <trkpt lat="48.15573" lon="6.45303">
        <ele>345.73</ele>
        <time>2012-04-15T09:55:16Z</time>
      </trkpt>
      <trkpt lat="48.15566" lon="6.45294">
        <ele>346.69</ele>
        <time>2012-04-15T09:55:18Z</time>
      </trkpt>
      <trkpt lat="48.15563" lon="6.4529">
        <ele>347.17</ele>
        <time>2012-04-15T09:55:19Z</time>
      </trkpt>
      <trkpt lat="48.15529" lon="6.4526">
        <ele>351.5</ele>
        <time>2012-04-15T09:55:29Z</time>
      </trkpt>
      <trkpt lat="48.15526" lon="6.45256">
        <ele>351.98</ele>
        <time>2012-04-15T09:55:31Z</time>
      </trkpt>
      <trkpt lat="48.15525" lon="6.45254">
        <ele>352.46</ele>
        <time>2012-04-15T09:55:32Z</time>
      </trkpt>
      <trkpt lat="48.15522" lon="6.4525">
        <ele>352.46</ele>
        <time>2012-04-15T09:55:43Z</time>
      </trkpt>
      <trkpt lat="48.15522" lon="6.45245">
        <ele>352.94</ele>
        <time>2012-04-15T09:55:56Z</time>
      </trkpt>
      <trkpt lat="48.15541" lon="6.45203">
        <ele>353.42</ele>
        <time>2012-04-15T09:56:05Z</time>
      </trkpt>
      <trkpt lat="48.15552" lon="6.45178">
        <ele>350.06</ele>
        <time>2012-04-15T09:56:14Z</time>
      </trkpt>
      <trkpt lat="48.15553" lon="6.45173">
        <ele>348.13</ele>
        <time>2012-04-15T09:56:26Z</time>
      </trkpt>
      <trkpt lat="48.15564" lon="6.45143">
        <ele>346.69</ele>
        <time>2012-04-15T09:56:36Z</time>
      </trkpt>
      <trkpt lat="48.15564" lon="6.45141">
        <ele>346.69</ele>
        <time>2012-04-15T09:56:37Z</time>
      </trkpt>
      <trkpt lat="48.15564" lon="6.45139">
        <ele>347.17</ele>
        <time>2012-04-15T09:56:38Z</time>
      </trkpt>
      <trkpt lat="48.15565" lon="6.45137">
        <ele>347.17</ele>
        <time>2012-04-15T09:56:39Z</time>
      </trkpt>
      <trkpt lat="48.15566" lon="6.45135">
        <ele>347.65</ele>
        <time>2012-04-15T09:56:40Z</time>
      </trkpt>
      <trkpt lat="48.15569" lon="6.45135">
        <ele>347.65</ele>
        <time>2012-04-15T09:56:41Z</time>
      </trkpt>
      <trkpt lat="48.15571" lon="6.45135">
        <ele>347.65</ele>
        <time>2012-04-15T09:56:42Z</time>
      </trkpt>
      <trkpt lat="48.15574" lon="6.45134">
        <ele>348.13</ele>
        <time>2012-04-15T09:56:43Z</time>
      </trkpt>
      <trkpt lat="48.15577" lon="6.45132">
        <ele>348.13</ele>
        <time>2012-04-15T09:56:44Z</time>
      </trkpt>
      <trkpt lat="48.1558" lon="6.45129">
        <ele>348.13</ele>
        <time>2012-04-15T09:56:45Z</time>
      </trkpt>
      <trkpt lat="48.1562" lon="6.45103">
        <ele>349.58</ele>
        <time>2012-04-15T09:56:58Z</time>
      </trkpt>
      <trkpt lat="48.15661" lon="6.45078">
        <ele>352.46</ele>
        <time>2012-04-15T09:57:12Z</time>
      </trkpt>
      <trkpt lat="48.15703" lon="6.4504">
        <ele>351.98</ele>
        <time>2012-04-15T09:57:29Z</time>
      </trkpt>
      <trkpt lat="48.15704" lon="6.45035">
        <ele>351.98</ele>
        <time>2012-04-15T09:57:30Z</time>
      </trkpt>
      <trkpt lat="48.15703" lon="6.45031">
        <ele>351.98</ele>
        <time>2012-04-15T09:57:31Z</time>
      </trkpt>
      <trkpt lat="48.15702" lon="6.45026">
        <ele>351.98</ele>
        <time>2012-04-15T09:57:32Z</time>
      </trkpt>
      <trkpt lat="48.15701" lon="6.45022">
        <ele>351.98</ele>
        <time>2012-04-15T09:57:33Z</time>
      </trkpt>
      <trkpt lat="48.15699" lon="6.45019">
        <ele>351.5</ele>
        <time>2012-04-15T09:57:34Z</time>
      </trkpt>
      <trkpt lat="48.15663" lon="6.44975">
        <ele>353.42</ele>
        <time>2012-04-15T09:57:49Z</time>
      </trkpt>
      <trkpt lat="48.15625" lon="6.4494">
        <ele>355.83</ele>
        <time>2012-04-15T09:58:04Z</time>
      </trkpt>
      <trkpt lat="48.15578" lon="6.44902">
        <ele>355.34</ele>
        <time>2012-04-15T09:58:19Z</time>
      </trkpt>
      <trkpt lat="48.15535" lon="6.44871">
        <ele>356.31</ele>
        <time>2012-04-15T09:58:33Z</time>
      </trkpt>
      <trkpt lat="48.1549" lon="6.44856">
        <ele>353.9</ele>
        <time>2012-04-15T09:58:46Z</time>
      </trkpt>
      <trkpt lat="48.15434" lon="6.44851">
        <ele>353.9</ele>
        <time>2012-04-15T09:59:00Z</time>
      </trkpt>
      <trkpt lat="48.15387" lon="6.44849">
        <ele>354.38</ele>
        <time>2012-04-15T09:59:12Z</time>
      </trkpt>
      <trkpt lat="48.15371" lon="6.44847">
        <ele>354.38</ele>
        <time>2012-04-15T09:59:15Z</time>
      </trkpt>
      <trkpt lat="48.15366" lon="6.44844">
        <ele>353.9</ele>
        <time>2012-04-15T09:59:16Z</time>
      </trkpt>
      <trkpt lat="48.15362" lon="6.44839">
        <ele>353.9</ele>
        <time>2012-04-15T09:59:17Z</time>
      </trkpt>
      <trkpt lat="48.1536" lon="6.44833">
        <ele>353.42</ele>
        <time>2012-04-15T09:59:18Z</time>
      </trkpt>
      <trkpt lat="48.15358" lon="6.44826">
        <ele>352.94</ele>
        <time>2012-04-15T09:59:19Z</time>
      </trkpt>
      <trkpt lat="48.15357" lon="6.44819">
        <ele>352.46</ele>
        <time>2012-04-15T09:59:20Z</time>
      </trkpt>
      <trkpt lat="48.15355" lon="6.44812">
        <ele>352.46</ele>
        <time>2012-04-15T09:59:21Z</time>
      </trkpt>
      <trkpt lat="48.15353" lon="6.44805">
        <ele>352.46</ele>
        <time>2012-04-15T09:59:22Z</time>
      </trkpt>
      <trkpt lat="48.15349" lon="6.44799">
        <ele>352.46</ele>
        <time>2012-04-15T09:59:23Z</time>
      </trkpt>
      <trkpt lat="48.1531" lon="6.44709">
        <ele>350.54</ele>
        <time>2012-04-15T09:59:36Z</time>
      </trkpt>
      <trkpt lat="48.1529" lon="6.44668">
        <ele>351.5</ele>
        <time>2012-04-15T09:59:43Z</time>
      </trkpt>
      <trkpt lat="48.15246" lon="6.4461">
        <ele>354.86</ele>
        <time>2012-04-15T09:59:57Z</time>
      </trkpt>
      <trkpt lat="48.15201" lon="6.44566">
        <ele>358.71</ele>
        <time>2012-04-15T10:00:11Z</time>
      </trkpt>
      <trkpt lat="48.15153" lon="6.44497">
        <ele>361.59</ele>
        <time>2012-04-15T10:00:28Z</time>
      </trkpt>
      <trkpt lat="48.15118" lon="6.44456">
        <ele>366.4</ele>
        <time>2012-04-15T10:00:42Z</time>
      </trkpt>
      <trkpt lat="48.15092" lon="6.44442">
        <ele>371.21</ele>
        <time>2012-04-15T10:00:56Z</time>
      </trkpt>
      <trkpt lat="48.15087" lon="6.4444">
        <ele>372.17</ele>
        <time>2012-04-15T10:00:59Z</time>
      </trkpt>
      <trkpt lat="48.15063" lon="6.44418">
        <ele>377.45</ele>
        <time>2012-04-15T10:01:12Z</time>
      </trkpt>
      <trkpt lat="48.15046" lon="6.44394">
        <ele>382.26</ele>
        <time>2012-04-15T10:01:23Z</time>
      </trkpt>
      <trkpt lat="48.15046" lon="6.44392">
        <ele>382.74</ele>
        <time>2012-04-15T10:01:24Z</time>
      </trkpt>
      <trkpt lat="48.15047" lon="6.4439">
        <ele>383.22</ele>
        <time>2012-04-15T10:01:26Z</time>
      </trkpt>
      <trkpt lat="48.15048" lon="6.44389">
        <ele>383.22</ele>
        <time>2012-04-15T10:01:27Z</time>
      </trkpt>
      <trkpt lat="48.1505" lon="6.44388">
        <ele>383.7</ele>
        <time>2012-04-15T10:01:28Z</time>
      </trkpt>
      <trkpt lat="48.15053" lon="6.44386">
        <ele>384.18</ele>
        <time>2012-04-15T10:01:29Z</time>
      </trkpt>
      <trkpt lat="48.15056" lon="6.44386">
        <ele>384.66</ele>
        <time>2012-04-15T10:01:30Z</time>
      </trkpt>
      <trkpt lat="48.15058" lon="6.44385">
        <ele>385.15</ele>
        <time>2012-04-15T10:01:31Z</time>
      </trkpt>
      <trkpt lat="48.15061" lon="6.44383">
        <ele>386.11</ele>
        <time>2012-04-15T10:01:32Z</time>
      </trkpt>
      <trkpt lat="48.15064" lon="6.44382">
        <ele>386.59</ele>
        <time>2012-04-15T10:01:33Z</time>
      </trkpt>
      <trkpt lat="48.15066" lon="6.4438">
        <ele>387.07</ele>
        <time>2012-04-15T10:01:34Z</time>
      </trkpt>
      <trkpt lat="48.15087" lon="6.44346">
        <ele>390.43</ele>
        <time>2012-04-15T10:01:44Z</time>
      </trkpt>
      <trkpt lat="48.15107" lon="6.44278">
        <ele>397.64</ele>
        <time>2012-04-15T10:01:57Z</time>
      </trkpt>
      <trkpt lat="48.151" lon="6.44238">
        <ele>401.49</ele>
        <time>2012-04-15T10:02:04Z</time>
      </trkpt>
      <trkpt lat="48.15094" lon="6.44218">
        <ele>402.45</ele>
        <time>2012-04-15T10:02:07Z</time>
      </trkpt>
      <trkpt lat="48.15092" lon="6.44211">
        <ele>402.45</ele>
        <time>2012-04-15T10:02:08Z</time>
      </trkpt>
      <trkpt lat="48.1509" lon="6.44205">
        <ele>402.93</ele>
        <time>2012-04-15T10:02:09Z</time>
      </trkpt>
      <trkpt lat="48.15075" lon="6.4416">
        <ele>405.81</ele>
        <time>2012-04-15T10:02:16Z</time>
      </trkpt>
      <trkpt lat="48.15065" lon="6.44088">
        <ele>408.7</ele>
        <time>2012-04-15T10:02:27Z</time>
      </trkpt>
      <trkpt lat="48.15065" lon="6.44062">
        <ele>411.1</ele>
        <time>2012-04-15T10:02:31Z</time>
      </trkpt>
      <trkpt lat="48.15066" lon="6.44055">
        <ele>411.58</ele>
        <time>2012-04-15T10:02:32Z</time>
      </trkpt>
      <trkpt lat="48.15068" lon="6.44049">
        <ele>412.54</ele>
        <time>2012-04-15T10:02:33Z</time>
      </trkpt>
      <trkpt lat="48.15071" lon="6.44045">
        <ele>413.02</ele>
        <time>2012-04-15T10:02:34Z</time>
      </trkpt>
      <trkpt lat="48.15076" lon="6.44043">
        <ele>413.5</ele>
        <time>2012-04-15T10:02:35Z</time>
      </trkpt>
      <trkpt lat="48.1508" lon="6.44042">
        <ele>413.98</ele>
        <time>2012-04-15T10:02:36Z</time>
      </trkpt>
      <trkpt lat="48.15084" lon="6.44044">
        <ele>414.47</ele>
        <time>2012-04-15T10:02:37Z</time>
      </trkpt>
      <trkpt lat="48.15088" lon="6.44045">
        <ele>415.43</ele>
        <time>2012-04-15T10:02:38Z</time>
      </trkpt>
      <trkpt lat="48.15091" lon="6.44047">
        <ele>415.91</ele>
        <time>2012-04-15T10:02:39Z</time>
      </trkpt>
      <trkpt lat="48.15108" lon="6.4405">
        <ele>418.79</ele>
        <time>2012-04-15T10:02:43Z</time>
      </trkpt>
      <trkpt lat="48.15112" lon="6.4405">
        <ele>419.75</ele>
        <time>2012-04-15T10:02:44Z</time>
      </trkpt>
      <trkpt lat="48.15117" lon="6.44049">
        <ele>420.71</ele>
        <time>2012-04-15T10:02:45Z</time>
      </trkpt>
      <trkpt lat="48.15121" lon="6.44047">
        <ele>421.68</ele>
        <time>2012-04-15T10:02:46Z</time>
      </trkpt>
      <trkpt lat="48.15124" lon="6.44043">
        <ele>422.16</ele>
        <time>2012-04-15T10:02:47Z</time>
      </trkpt>
      <trkpt lat="48.15128" lon="6.44039">
        <ele>422.64</ele>
        <time>2012-04-15T10:02:48Z</time>
      </trkpt>
      <trkpt lat="48.1513" lon="6.44034">
        <ele>423.12</ele>
        <time>2012-04-15T10:02:49Z</time>
      </trkpt>
      <trkpt lat="48.15132" lon="6.44028">
        <ele>423.6</ele>
        <time>2012-04-15T10:02:50Z</time>
      </trkpt>
      <trkpt lat="48.15133" lon="6.44022">
        <ele>424.56</ele>
        <time>2012-04-15T10:02:51Z</time>
      </trkpt>
      <trkpt lat="48.15133" lon="6.44016">
        <ele>425.04</ele>
        <time>2012-04-15T10:02:52Z</time>
      </trkpt>
      <trkpt lat="48.15133" lon="6.4401">
        <ele>425.52</ele>
        <time>2012-04-15T10:02:53Z</time>
      </trkpt>
      <trkpt lat="48.15132" lon="6.44004">
        <ele>426</ele>
        <time>2012-04-15T10:02:54Z</time>
      </trkpt>
      <trkpt lat="48.15133" lon="6.43998">
        <ele>426.48</ele>
        <time>2012-04-15T10:02:55Z</time>
      </trkpt>
      <trkpt lat="48.15133" lon="6.43991">
        <ele>426.48</ele>
        <time>2012-04-15T10:02:56Z</time>
      </trkpt>
      <trkpt lat="48.15133" lon="6.43983">
        <ele>426.96</ele>
        <time>2012-04-15T10:02:57Z</time>
      </trkpt>
      <trkpt lat="48.15134" lon="6.43976">
        <ele>426.96</ele>
        <time>2012-04-15T10:02:58Z</time>
      </trkpt>
      <trkpt lat="48.15136" lon="6.4397">
        <ele>426.96</ele>
        <time>2012-04-15T10:02:59Z</time>
      </trkpt>
      <trkpt lat="48.15139" lon="6.43965">
        <ele>426.96</ele>
        <time>2012-04-15T10:03:00Z</time>
      </trkpt>
      <trkpt lat="48.15143" lon="6.43961">
        <ele>426.96</ele>
        <time>2012-04-15T10:03:01Z</time>
      </trkpt>
      <trkpt lat="48.15148" lon="6.43959">
        <ele>426.96</ele>
        <time>2012-04-15T10:03:02Z</time>
      </trkpt>
      <trkpt lat="48.15157" lon="6.43952">
        <ele>426.96</ele>
        <time>2012-04-15T10:03:04Z</time>
      </trkpt>
      <trkpt lat="48.15161" lon="6.43948">
        <ele>426.96</ele>
        <time>2012-04-15T10:03:05Z</time>
      </trkpt>
      <trkpt lat="48.15166" lon="6.43943">
        <ele>426.48</ele>
        <time>2012-04-15T10:03:06Z</time>
      </trkpt>
      <trkpt lat="48.15171" lon="6.43938">
        <ele>426</ele>
        <time>2012-04-15T10:03:07Z</time>
      </trkpt>
      <trkpt lat="48.15175" lon="6.43931">
        <ele>426</ele>
        <time>2012-04-15T10:03:08Z</time>
      </trkpt>
      <trkpt lat="48.15178" lon="6.43924">
        <ele>426</ele>
        <time>2012-04-15T10:03:09Z</time>
      </trkpt>
      <trkpt lat="48.15181" lon="6.43917">
        <ele>426</ele>
        <time>2012-04-15T10:03:10Z</time>
      </trkpt>
      <trkpt lat="48.15184" lon="6.43911">
        <ele>426</ele>
        <time>2012-04-15T10:03:11Z</time>
      </trkpt>
      <trkpt lat="48.15194" lon="6.43889">
        <ele>426.48</ele>
        <time>2012-04-15T10:03:14Z</time>
      </trkpt>
      <trkpt lat="48.15201" lon="6.43876">
        <ele>426.96</ele>
        <time>2012-04-15T10:03:16Z</time>
      </trkpt>
      <trkpt lat="48.15204" lon="6.43869">
        <ele>426.96</ele>
        <time>2012-04-15T10:03:17Z</time>
      </trkpt>
      <trkpt lat="48.15206" lon="6.43862">
        <ele>427.44</ele>
        <time>2012-04-15T10:03:18Z</time>
      </trkpt>
      <trkpt lat="48.15208" lon="6.43855">
        <ele>427.44</ele>
        <time>2012-04-15T10:03:19Z</time>
      </trkpt>
      <trkpt lat="48.1521" lon="6.43848">
        <ele>427.92</ele>
        <time>2012-04-15T10:03:20Z</time>
      </trkpt>
      <trkpt lat="48.15215" lon="6.43819">
        <ele>429.37</ele>
        <time>2012-04-15T10:03:24Z</time>
      </trkpt>
      <trkpt lat="48.15215" lon="6.43812">
        <ele>429.85</ele>
        <time>2012-04-15T10:03:25Z</time>
      </trkpt>
      <trkpt lat="48.15215" lon="6.43805">
        <ele>430.33</ele>
        <time>2012-04-15T10:03:26Z</time>
      </trkpt>
      <trkpt lat="48.15215" lon="6.43786">
        <ele>430.33</ele>
        <time>2012-04-15T10:03:29Z</time>
      </trkpt>
      <trkpt lat="48.15214" lon="6.43779">
        <ele>430.33</ele>
        <time>2012-04-15T10:03:30Z</time>
      </trkpt>
      <trkpt lat="48.15214" lon="6.43773">
        <ele>429.85</ele>
        <time>2012-04-15T10:03:31Z</time>
      </trkpt>
      <trkpt lat="48.15213" lon="6.43767">
        <ele>429.85</ele>
        <time>2012-04-15T10:03:32Z</time>
      </trkpt>
      <trkpt lat="48.15214" lon="6.4376">
        <ele>429.37</ele>
        <time>2012-04-15T10:03:33Z</time>
      </trkpt>
      <trkpt lat="48.15215" lon="6.43753">
        <ele>428.89</ele>
        <time>2012-04-15T10:03:34Z</time>
      </trkpt>
      <trkpt lat="48.15217" lon="6.43746">
        <ele>428.89</ele>
        <time>2012-04-15T10:03:35Z</time>
      </trkpt>
      <trkpt lat="48.15218" lon="6.43739">
        <ele>428.4</ele>
        <time>2012-04-15T10:03:36Z</time>
      </trkpt>
      <trkpt lat="48.1522" lon="6.43731">
        <ele>428.4</ele>
        <time>2012-04-15T10:03:37Z</time>
      </trkpt>
      <trkpt lat="48.15222" lon="6.43724">
        <ele>428.4</ele>
        <time>2012-04-15T10:03:38Z</time>
      </trkpt>
      <trkpt lat="48.15246" lon="6.4365">
        <ele>427.92</ele>
        <time>2012-04-15T10:03:48Z</time>
      </trkpt>
      <trkpt lat="48.15254" lon="6.43627">
        <ele>427.92</ele>
        <time>2012-04-15T10:03:51Z</time>
      </trkpt>
      <trkpt lat="48.1526" lon="6.43604">
        <ele>427.92</ele>
        <time>2012-04-15T10:03:54Z</time>
      </trkpt>
      <trkpt lat="48.15261" lon="6.43596">
        <ele>427.92</ele>
        <time>2012-04-15T10:03:55Z</time>
      </trkpt>
      <trkpt lat="48.15262" lon="6.43588">
        <ele>427.92</ele>
        <time>2012-04-15T10:03:56Z</time>
      </trkpt>
      <trkpt lat="48.15263" lon="6.4358">
        <ele>428.4</ele>
        <time>2012-04-15T10:03:57Z</time>
      </trkpt>
      <trkpt lat="48.15264" lon="6.43571">
        <ele>428.4</ele>
        <time>2012-04-15T10:03:58Z</time>
      </trkpt>
      <trkpt lat="48.15265" lon="6.43563">
        <ele>428.4</ele>
        <time>2012-04-15T10:03:59Z</time>
      </trkpt>
      <trkpt lat="48.15266" lon="6.43555">
        <ele>428.4</ele>
        <time>2012-04-15T10:04:00Z</time>
      </trkpt>
      <trkpt lat="48.15268" lon="6.43547">
        <ele>428.89</ele>
        <time>2012-04-15T10:04:01Z</time>
      </trkpt>
      <trkpt lat="48.1528" lon="6.43467">
        <ele>430.81</ele>
        <time>2012-04-15T10:04:11Z</time>
      </trkpt>
      <trkpt lat="48.15289" lon="6.43412">
        <ele>434.65</ele>
        <time>2012-04-15T10:04:19Z</time>
      </trkpt>
      <trkpt lat="48.1529" lon="6.43405">
        <ele>435.13</ele>
        <time>2012-04-15T10:04:20Z</time>
      </trkpt>
      <trkpt lat="48.15292" lon="6.43396">
        <ele>434.65</ele>
        <time>2012-04-15T10:04:21Z</time>
      </trkpt>
      <trkpt lat="48.15295" lon="6.43372">
        <ele>435.13</ele>
        <time>2012-04-15T10:04:24Z</time>
      </trkpt>
      <trkpt lat="48.153" lon="6.43328">
        <ele>434.17</ele>
        <time>2012-04-15T10:04:32Z</time>
      </trkpt>
      <trkpt lat="48.15314" lon="6.43264">
        <ele>430.81</ele>
        <time>2012-04-15T10:04:43Z</time>
      </trkpt>
      <trkpt lat="48.15318" lon="6.432">
        <ele>425.52</ele>
        <time>2012-04-15T10:04:56Z</time>
      </trkpt>
      <trkpt lat="48.15337" lon="6.43177">
        <ele>412.06</ele>
        <time>2012-04-15T10:05:07Z</time>
      </trkpt>
      <trkpt lat="48.15339" lon="6.43175">
        <ele>412.06</ele>
        <time>2012-04-15T10:05:08Z</time>
      </trkpt>
      <trkpt lat="48.15341" lon="6.43174">
        <ele>412.06</ele>
        <time>2012-04-15T10:05:09Z</time>
      </trkpt>
      <trkpt lat="48.15343" lon="6.43173">
        <ele>412.54</ele>
        <time>2012-04-15T10:05:10Z</time>
      </trkpt>
      <trkpt lat="48.15345" lon="6.43172">
        <ele>412.54</ele>
        <time>2012-04-15T10:05:11Z</time>
      </trkpt>
      <trkpt lat="48.15347" lon="6.4317">
        <ele>412.54</ele>
        <time>2012-04-15T10:05:12Z</time>
      </trkpt>
      <trkpt lat="48.15349" lon="6.43169">
        <ele>413.02</ele>
        <time>2012-04-15T10:05:13Z</time>
      </trkpt>
      <trkpt lat="48.15351" lon="6.43168">
        <ele>413.02</ele>
        <time>2012-04-15T10:05:14Z</time>
      </trkpt>
      <trkpt lat="48.15353" lon="6.43167">
        <ele>413.5</ele>
        <time>2012-04-15T10:05:15Z</time>
      </trkpt>
      <trkpt lat="48.15355" lon="6.43166">
        <ele>413.98</ele>
        <time>2012-04-15T10:05:16Z</time>
      </trkpt>
      <trkpt lat="48.15356" lon="6.43165">
        <ele>414.47</ele>
        <time>2012-04-15T10:05:17Z</time>
      </trkpt>
      <trkpt lat="48.15358" lon="6.43164">
        <ele>414.95</ele>
        <time>2012-04-15T10:05:18Z</time>
      </trkpt>
      <trkpt lat="48.1536" lon="6.43164">
        <ele>415.91</ele>
        <time>2012-04-15T10:05:19Z</time>
      </trkpt>
      <trkpt lat="48.15362" lon="6.43162">
        <ele>416.39</ele>
        <time>2012-04-15T10:05:20Z</time>
      </trkpt>
      <trkpt lat="48.15364" lon="6.43161">
        <ele>417.35</ele>
        <time>2012-04-15T10:05:21Z</time>
      </trkpt>
      <trkpt lat="48.15366" lon="6.4316">
        <ele>418.31</ele>
        <time>2012-04-15T10:05:22Z</time>
      </trkpt>
      <trkpt lat="48.15367" lon="6.43159">
        <ele>418.79</ele>
        <time>2012-04-15T10:05:23Z</time>
      </trkpt>
      <trkpt lat="48.15369" lon="6.43157">
        <ele>419.27</ele>
        <time>2012-04-15T10:05:24Z</time>
      </trkpt>
      <trkpt lat="48.15371" lon="6.43155">
        <ele>420.23</ele>
        <time>2012-04-15T10:05:25Z</time>
      </trkpt>
      <trkpt lat="48.15373" lon="6.43154">
        <ele>420.71</ele>
        <time>2012-04-15T10:05:26Z</time>
      </trkpt>
      <trkpt lat="48.15375" lon="6.43153">
        <ele>421.68</ele>
        <time>2012-04-15T10:05:27Z</time>
      </trkpt>
      <trkpt lat="48.15377" lon="6.43152">
        <ele>422.64</ele>
        <time>2012-04-15T10:05:28Z</time>
      </trkpt>
      <trkpt lat="48.15378" lon="6.4315">
        <ele>423.12</ele>
        <time>2012-04-15T10:05:29Z</time>
      </trkpt>
      <trkpt lat="48.1538" lon="6.43147">
        <ele>424.08</ele>
        <time>2012-04-15T10:05:30Z</time>
      </trkpt>
      <trkpt lat="48.15394" lon="6.43139">
        <ele>430.81</ele>
        <time>2012-04-15T10:05:37Z</time>
      </trkpt>
      <trkpt lat="48.15395" lon="6.43138">
        <ele>431.77</ele>
        <time>2012-04-15T10:05:38Z</time>
      </trkpt>
      <trkpt lat="48.15407" lon="6.43129">
        <ele>438.02</ele>
        <time>2012-04-15T10:05:44Z</time>
      </trkpt>
      <trkpt lat="48.15409" lon="6.43127">
        <ele>438.98</ele>
        <time>2012-04-15T10:05:45Z</time>
      </trkpt>
      <trkpt lat="48.15411" lon="6.43126">
        <ele>439.94</ele>
        <time>2012-04-15T10:05:46Z</time>
      </trkpt>
      <trkpt lat="48.15413" lon="6.43125">
        <ele>441.38</ele>
        <time>2012-04-15T10:05:47Z</time>
      </trkpt>
      <trkpt lat="48.15414" lon="6.43124">
        <ele>442.34</ele>
        <time>2012-04-15T10:05:48Z</time>
      </trkpt>
      <trkpt lat="48.15416" lon="6.43123">
        <ele>443.79</ele>
        <time>2012-04-15T10:05:49Z</time>
      </trkpt>
      <trkpt lat="48.15418" lon="6.43122">
        <ele>445.71</ele>
        <time>2012-04-15T10:05:50Z</time>
      </trkpt>
      <trkpt lat="48.15442" lon="6.43109">
        <ele>461.09</ele>
        <time>2012-04-15T10:06:02Z</time>
      </trkpt>
      <trkpt lat="48.15465" lon="6.43095">
        <ele>460.13</ele>
        <time>2012-04-15T10:06:12Z</time>
      </trkpt>
      <trkpt lat="48.15496" lon="6.43086">
        <ele>459.17</ele>
        <time>2012-04-15T10:06:24Z</time>
      </trkpt>
      <trkpt lat="48.15525" lon="6.43081">
        <ele>459.17</ele>
        <time>2012-04-15T10:06:37Z</time>
      </trkpt>
      <trkpt lat="48.1554" lon="6.43078">
        <ele>462.53</ele>
        <time>2012-04-15T10:06:45Z</time>
      </trkpt>
      <trkpt lat="48.15562" lon="6.43077">
        <ele>467.82</ele>
        <time>2012-04-15T10:06:56Z</time>
      </trkpt>
      <trkpt lat="48.15576" lon="6.43077">
        <ele>470.22</ele>
        <time>2012-04-15T10:07:04Z</time>
      </trkpt>
      <trkpt lat="48.15598" lon="6.43072">
        <ele>468.78</ele>
        <time>2012-04-15T10:07:15Z</time>
      </trkpt>
      <trkpt lat="48.15608" lon="6.4307">
        <ele>468.3</ele>
        <time>2012-04-15T10:07:20Z</time>
      </trkpt>
      <trkpt lat="48.15618" lon="6.43065">
        <ele>468.78</ele>
        <time>2012-04-15T10:07:25Z</time>
      </trkpt>
      <trkpt lat="48.15636" lon="6.43048">
        <ele>474.55</ele>
        <time>2012-04-15T10:07:37Z</time>
      </trkpt>
      <trkpt lat="48.1565" lon="6.4304">
        <ele>477.91</ele>
        <time>2012-04-15T10:07:45Z</time>
      </trkpt>
      <trkpt lat="48.15655" lon="6.43029">
        <ele>478.87</ele>
        <time>2012-04-15T10:07:50Z</time>
      </trkpt>
      <trkpt lat="48.15666" lon="6.43021">
        <ele>480.8</ele>
        <time>2012-04-15T10:07:56Z</time>
      </trkpt>
      <trkpt lat="48.15693" lon="6.43007">
        <ele>483.68</ele>
        <time>2012-04-15T10:08:09Z</time>
      </trkpt>
      <trkpt lat="48.1572" lon="6.42985">
        <ele>485.6</ele>
        <time>2012-04-15T10:08:23Z</time>
      </trkpt>
      <trkpt lat="48.15742" lon="6.42963">
        <ele>487.05</ele>
        <time>2012-04-15T10:08:35Z</time>
      </trkpt>
      <trkpt lat="48.15757" lon="6.42928">
        <ele>483.68</ele>
        <time>2012-04-15T10:08:47Z</time>
      </trkpt>
      <trkpt lat="48.15763" lon="6.42891">
        <ele>480.32</ele>
        <time>2012-04-15T10:08:59Z</time>
      </trkpt>
      <trkpt lat="48.15752" lon="6.42845">
        <ele>476.47</ele>
        <time>2012-04-15T10:09:13Z</time>
      </trkpt>
      <trkpt lat="48.15745" lon="6.428">
        <ele>474.07</ele>
        <time>2012-04-15T10:09:25Z</time>
      </trkpt>
      <trkpt lat="48.15756" lon="6.42762">
        <ele>474.07</ele>
        <time>2012-04-15T10:09:36Z</time>
      </trkpt>
      <trkpt lat="48.15774" lon="6.42763">
        <ele>475.51</ele>
        <time>2012-04-15T10:09:46Z</time>
      </trkpt>
      <trkpt lat="48.15794" lon="6.42787">
        <ele>479.84</ele>
        <time>2012-04-15T10:09:59Z</time>
      </trkpt>
      <trkpt lat="48.15814" lon="6.42808">
        <ele>482.72</ele>
        <time>2012-04-15T10:10:09Z</time>
      </trkpt>
      <trkpt lat="48.15821" lon="6.42829">
        <ele>483.2</ele>
        <time>2012-04-15T10:10:16Z</time>
      </trkpt>
      <trkpt lat="48.15824" lon="6.42849">
        <ele>483.2</ele>
        <time>2012-04-15T10:10:22Z</time>
      </trkpt>
      <trkpt lat="48.15844" lon="6.42881">
        <ele>482.72</ele>
        <time>2012-04-15T10:10:33Z</time>
      </trkpt>
      <trkpt lat="48.15872" lon="6.42872">
        <ele>480.32</ele>
        <time>2012-04-15T10:10:44Z</time>
      </trkpt>
      <trkpt lat="48.15903" lon="6.42845">
        <ele>473.11</ele>
        <time>2012-04-15T10:10:56Z</time>
      </trkpt>
      <trkpt lat="48.15915" lon="6.42833">
        <ele>470.7</ele>
        <time>2012-04-15T10:11:01Z</time>
      </trkpt>
      <trkpt lat="48.15925" lon="6.42821">
        <ele>467.34</ele>
        <time>2012-04-15T10:11:12Z</time>
      </trkpt>
      <trkpt lat="48.15925" lon="6.4282">
        <ele>463.97</ele>
        <time>2012-04-15T10:11:29Z</time>
      </trkpt>
      <trkpt lat="48.15926" lon="6.42819">
        <ele>463.49</ele>
        <time>2012-04-15T10:11:46Z</time>
      </trkpt>
      <trkpt lat="48.15926" lon="6.42819">
        <ele>462.53</ele>
        <time>2012-04-15T10:12:04Z</time>
      </trkpt>
      <trkpt lat="48.15926" lon="6.42819">
        <ele>461.09</ele>
        <time>2012-04-15T10:12:31Z</time>
      </trkpt>
      <trkpt lat="48.15927" lon="6.42817">
        <ele>460.13</ele>
        <time>2012-04-15T10:12:53Z</time>
      </trkpt>
      <trkpt lat="48.15939" lon="6.42804">
        <ele>458.69</ele>
        <time>2012-04-15T10:13:00Z</time>
      </trkpt>
      <trkpt lat="48.15995" lon="6.42742">
        <ele>455.8</ele>
        <time>2012-04-15T10:13:13Z</time>
      </trkpt>
      <trkpt lat="48.16001" lon="6.42738">
        <ele>455.8</ele>
        <time>2012-04-15T10:13:14Z</time>
      </trkpt>
      <trkpt lat="48.16007" lon="6.42735">
        <ele>455.8</ele>
        <time>2012-04-15T10:13:15Z</time>
      </trkpt>
      <trkpt lat="48.16023" lon="6.42728">
        <ele>455.32</ele>
        <time>2012-04-15T10:13:18Z</time>
      </trkpt>
      <trkpt lat="48.16027" lon="6.42727">
        <ele>455.32</ele>
        <time>2012-04-15T10:13:19Z</time>
      </trkpt>
      <trkpt lat="48.16032" lon="6.42728">
        <ele>455.32</ele>
        <time>2012-04-15T10:13:20Z</time>
      </trkpt>
      <trkpt lat="48.16036" lon="6.42729">
        <ele>455.8</ele>
        <time>2012-04-15T10:13:21Z</time>
      </trkpt>
      <trkpt lat="48.1604" lon="6.4273">
        <ele>455.8</ele>
        <time>2012-04-15T10:13:22Z</time>
      </trkpt>
      <trkpt lat="48.16045" lon="6.4273">
        <ele>455.8</ele>
        <time>2012-04-15T10:13:23Z</time>
      </trkpt>
      <trkpt lat="48.1605" lon="6.42731">
        <ele>456.28</ele>
        <time>2012-04-15T10:13:24Z</time>
      </trkpt>
      <trkpt lat="48.16064" lon="6.42734">
        <ele>457.72</ele>
        <time>2012-04-15T10:13:27Z</time>
      </trkpt>
      <trkpt lat="48.16068" lon="6.42735">
        <ele>458.21</ele>
        <time>2012-04-15T10:13:28Z</time>
      </trkpt>
      <trkpt lat="48.16072" lon="6.42738">
        <ele>459.17</ele>
        <time>2012-04-15T10:13:29Z</time>
      </trkpt>
      <trkpt lat="48.16076" lon="6.4274">
        <ele>459.65</ele>
        <time>2012-04-15T10:13:30Z</time>
      </trkpt>
      <trkpt lat="48.1608" lon="6.42744">
        <ele>460.61</ele>
        <time>2012-04-15T10:13:31Z</time>
      </trkpt>
      <trkpt lat="48.16083" lon="6.42747">
        <ele>461.57</ele>
        <time>2012-04-15T10:13:32Z</time>
      </trkpt>
      <trkpt lat="48.16087" lon="6.42751">
        <ele>462.05</ele>
        <time>2012-04-15T10:13:33Z</time>
      </trkpt>
      <trkpt lat="48.16091" lon="6.42755">
        <ele>463.01</ele>
        <time>2012-04-15T10:13:34Z</time>
      </trkpt>
      <trkpt lat="48.16095" lon="6.42759">
        <ele>463.49</ele>
        <time>2012-04-15T10:13:35Z</time>
      </trkpt>
      <trkpt lat="48.16098" lon="6.42764">
        <ele>464.45</ele>
        <time>2012-04-15T10:13:36Z</time>
      </trkpt>
      <trkpt lat="48.16102" lon="6.42768">
        <ele>464.93</ele>
        <time>2012-04-15T10:13:37Z</time>
      </trkpt>
      <trkpt lat="48.16131" lon="6.42799">
        <ele>467.82</ele>
        <time>2012-04-15T10:13:44Z</time>
      </trkpt>
      <trkpt lat="48.16136" lon="6.42803">
        <ele>468.3</ele>
        <time>2012-04-15T10:13:45Z</time>
      </trkpt>
      <trkpt lat="48.1614" lon="6.42807">
        <ele>468.3</ele>
        <time>2012-04-15T10:13:46Z</time>
      </trkpt>
      <trkpt lat="48.1616" lon="6.42819">
        <ele>467.82</ele>
        <time>2012-04-15T10:13:50Z</time>
      </trkpt>
      <trkpt lat="48.16166" lon="6.42821">
        <ele>467.34</ele>
        <time>2012-04-15T10:13:51Z</time>
      </trkpt>
      <trkpt lat="48.1625" lon="6.42829">
        <ele>463.97</ele>
        <time>2012-04-15T10:14:06Z</time>
      </trkpt>
      <trkpt lat="48.16255" lon="6.42829">
        <ele>463.97</ele>
        <time>2012-04-15T10:14:07Z</time>
      </trkpt>
      <trkpt lat="48.16277" lon="6.42832">
        <ele>463.49</ele>
        <time>2012-04-15T10:14:11Z</time>
      </trkpt>
      <trkpt lat="48.16289" lon="6.42836">
        <ele>463.49</ele>
        <time>2012-04-15T10:14:13Z</time>
      </trkpt>
      <trkpt lat="48.16294" lon="6.42837">
        <ele>463.49</ele>
        <time>2012-04-15T10:14:14Z</time>
      </trkpt>
      <trkpt lat="48.163" lon="6.42837">
        <ele>463.49</ele>
        <time>2012-04-15T10:14:15Z</time>
      </trkpt>
      <trkpt lat="48.16306" lon="6.42834">
        <ele>463.49</ele>
        <time>2012-04-15T10:14:16Z</time>
      </trkpt>
      <trkpt lat="48.16311" lon="6.4283">
        <ele>463.49</ele>
        <time>2012-04-15T10:14:17Z</time>
      </trkpt>
      <trkpt lat="48.16316" lon="6.42825">
        <ele>463.49</ele>
        <time>2012-04-15T10:14:18Z</time>
      </trkpt>
      <trkpt lat="48.16321" lon="6.42819">
        <ele>463.49</ele>
        <time>2012-04-15T10:14:19Z</time>
      </trkpt>
      <trkpt lat="48.16326" lon="6.42813">
        <ele>463.01</ele>
        <time>2012-04-15T10:14:20Z</time>
      </trkpt>
      <trkpt lat="48.16332" lon="6.42807">
        <ele>462.53</ele>
        <time>2012-04-15T10:14:21Z</time>
      </trkpt>
      <trkpt lat="48.16338" lon="6.42801">
        <ele>462.53</ele>
        <time>2012-04-15T10:14:22Z</time>
      </trkpt>
      <trkpt lat="48.16345" lon="6.42796">
        <ele>462.05</ele>
        <time>2012-04-15T10:14:23Z</time>
      </trkpt>
      <trkpt lat="48.16352" lon="6.42792">
        <ele>462.05</ele>
        <time>2012-04-15T10:14:24Z</time>
      </trkpt>
      <trkpt lat="48.16359" lon="6.42789">
        <ele>461.57</ele>
        <time>2012-04-15T10:14:25Z</time>
      </trkpt>
      <trkpt lat="48.16367" lon="6.42787">
        <ele>461.09</ele>
        <time>2012-04-15T10:14:26Z</time>
      </trkpt>
      <trkpt lat="48.16375" lon="6.42785">
        <ele>461.09</ele>
        <time>2012-04-15T10:14:27Z</time>
      </trkpt>
      <trkpt lat="48.1639" lon="6.42779">
        <ele>460.13</ele>
        <time>2012-04-15T10:14:29Z</time>
      </trkpt>
      <trkpt lat="48.16397" lon="6.42773">
        <ele>459.65</ele>
        <time>2012-04-15T10:14:30Z</time>
      </trkpt>
      <trkpt lat="48.16403" lon="6.42764">
        <ele>459.17</ele>
        <time>2012-04-15T10:14:31Z</time>
      </trkpt>
      <trkpt lat="48.16407" lon="6.42754">
        <ele>458.69</ele>
        <time>2012-04-15T10:14:32Z</time>
      </trkpt>
      <trkpt lat="48.16411" lon="6.42743">
        <ele>458.21</ele>
        <time>2012-04-15T10:14:33Z</time>
      </trkpt>
      <trkpt lat="48.16416" lon="6.42733">
        <ele>457.72</ele>
        <time>2012-04-15T10:14:34Z</time>
      </trkpt>
      <trkpt lat="48.16424" lon="6.42712">
        <ele>457.24</ele>
        <time>2012-04-15T10:14:36Z</time>
      </trkpt>
      <trkpt lat="48.16426" lon="6.427">
        <ele>457.24</ele>
        <time>2012-04-15T10:14:37Z</time>
      </trkpt>
      <trkpt lat="48.16428" lon="6.42657">
        <ele>456.28</ele>
        <time>2012-04-15T10:14:41Z</time>
      </trkpt>
      <trkpt lat="48.16428" lon="6.42646">
        <ele>455.8</ele>
        <time>2012-04-15T10:14:42Z</time>
      </trkpt>
      <trkpt lat="48.16431" lon="6.42636">
        <ele>455.8</ele>
        <time>2012-04-15T10:14:43Z</time>
      </trkpt>
      <trkpt lat="48.16434" lon="6.42627">
        <ele>455.8</ele>
        <time>2012-04-15T10:14:44Z</time>
      </trkpt>
      <trkpt lat="48.16437" lon="6.42619">
        <ele>455.8</ele>
        <time>2012-04-15T10:14:45Z</time>
      </trkpt>
      <trkpt lat="48.16446" lon="6.42599">
        <ele>455.8</ele>
        <time>2012-04-15T10:14:48Z</time>
      </trkpt>
      <trkpt lat="48.1646" lon="6.42567">
        <ele>456.28</ele>
        <time>2012-04-15T10:14:54Z</time>
      </trkpt>
      <trkpt lat="48.16473" lon="6.42533">
        <ele>457.24</ele>
        <time>2012-04-15T10:15:00Z</time>
      </trkpt>
      <trkpt lat="48.16478" lon="6.42522">
        <ele>457.24</ele>
        <time>2012-04-15T10:15:02Z</time>
      </trkpt>
      <trkpt lat="48.1648" lon="6.42516">
        <ele>457.24</ele>
        <time>2012-04-15T10:15:03Z</time>
      </trkpt>
      <trkpt lat="48.16483" lon="6.4251">
        <ele>457.24</ele>
        <time>2012-04-15T10:15:04Z</time>
      </trkpt>
      <trkpt lat="48.16487" lon="6.42504">
        <ele>457.24</ele>
        <time>2012-04-15T10:15:05Z</time>
      </trkpt>
      <trkpt lat="48.16491" lon="6.42498">
        <ele>457.24</ele>
        <time>2012-04-15T10:15:06Z</time>
      </trkpt>
      <trkpt lat="48.16539" lon="6.42446">
        <ele>458.21</ele>
        <time>2012-04-15T10:15:16Z</time>
      </trkpt>
      <trkpt lat="48.16543" lon="6.42441">
        <ele>458.69</ele>
        <time>2012-04-15T10:15:17Z</time>
      </trkpt>
      <trkpt lat="48.16548" lon="6.42435">
        <ele>459.17</ele>
        <time>2012-04-15T10:15:18Z</time>
      </trkpt>
      <trkpt lat="48.1656" lon="6.42419">
        <ele>460.61</ele>
        <time>2012-04-15T10:15:21Z</time>
      </trkpt>
      <trkpt lat="48.16576" lon="6.42391">
        <ele>461.57</ele>
        <time>2012-04-15T10:15:25Z</time>
      </trkpt>
      <trkpt lat="48.16579" lon="6.42382">
        <ele>461.09</ele>
        <time>2012-04-15T10:15:26Z</time>
      </trkpt>
      <trkpt lat="48.16582" lon="6.42374">
        <ele>461.09</ele>
        <time>2012-04-15T10:15:27Z</time>
      </trkpt>
      <trkpt lat="48.16586" lon="6.42367">
        <ele>461.09</ele>
        <time>2012-04-15T10:15:28Z</time>
      </trkpt>
      <trkpt lat="48.16591" lon="6.42361">
        <ele>461.09</ele>
        <time>2012-04-15T10:15:29Z</time>
      </trkpt>
      <trkpt lat="48.16597" lon="6.42357">
        <ele>461.09</ele>
        <time>2012-04-15T10:15:30Z</time>
      </trkpt>
      <trkpt lat="48.16602" lon="6.42352">
        <ele>460.61</ele>
        <time>2012-04-15T10:15:31Z</time>
      </trkpt>
      <trkpt lat="48.16607" lon="6.42347">
        <ele>460.61</ele>
        <time>2012-04-15T10:15:32Z</time>
      </trkpt>
      <trkpt lat="48.16609" lon="6.42342">
        <ele>460.13</ele>
        <time>2012-04-15T10:15:33Z</time>
      </trkpt>
      <trkpt lat="48.16612" lon="6.42339">
        <ele>459.65</ele>
        <time>2012-04-15T10:15:34Z</time>
      </trkpt>
      <trkpt lat="48.16615" lon="6.42338">
        <ele>459.65</ele>
        <time>2012-04-15T10:15:35Z</time>
      </trkpt>
      <trkpt lat="48.16617" lon="6.42339">
        <ele>459.65</ele>
        <time>2012-04-15T10:15:36Z</time>
      </trkpt>
      <trkpt lat="48.16631" lon="6.42333">
        <ele>461.09</ele>
        <time>2012-04-15T10:15:41Z</time>
      </trkpt>
      <trkpt lat="48.16642" lon="6.42316">
        <ele>461.09</ele>
        <time>2012-04-15T10:15:44Z</time>
      </trkpt>
      <trkpt lat="48.16665" lon="6.42277">
        <ele>458.21</ele>
        <time>2012-04-15T10:15:52Z</time>
      </trkpt>
      <trkpt lat="48.16673" lon="6.42252">
        <ele>456.76</ele>
        <time>2012-04-15T10:15:58Z</time>
      </trkpt>
      <trkpt lat="48.16679" lon="6.4225">
        <ele>456.76</ele>
        <time>2012-04-15T10:15:59Z</time>
      </trkpt>
      <trkpt lat="48.16725" lon="6.42234">
        <ele>456.76</ele>
        <time>2012-04-15T10:16:05Z</time>
      </trkpt>
      <trkpt lat="48.1677" lon="6.42244">
        <ele>458.21</ele>
        <time>2012-04-15T10:16:11Z</time>
      </trkpt>
      <trkpt lat="48.1678" lon="6.42255">
        <ele>458.69</ele>
        <time>2012-04-15T10:16:13Z</time>
      </trkpt>
      <trkpt lat="48.16805" lon="6.42286">
        <ele>460.13</ele>
        <time>2012-04-15T10:16:19Z</time>
      </trkpt>
      <trkpt lat="48.16819" lon="6.42311">
        <ele>459.65</ele>
        <time>2012-04-15T10:16:23Z</time>
      </trkpt>
      <trkpt lat="48.16829" lon="6.42341">
        <ele>458.69</ele>
        <time>2012-04-15T10:16:27Z</time>
      </trkpt>
      <trkpt lat="48.16838" lon="6.4237">
        <ele>456.76</ele>
        <time>2012-04-15T10:16:31Z</time>
      </trkpt>
      <trkpt lat="48.16851" lon="6.42408">
        <ele>454.36</ele>
        <time>2012-04-15T10:16:37Z</time>
      </trkpt>
      <trkpt lat="48.16872" lon="6.4245">
        <ele>451</ele>
        <time>2012-04-15T10:16:48Z</time>
      </trkpt>
      <trkpt lat="48.16874" lon="6.42458">
        <ele>441.38</ele>
        <time>2012-04-15T10:17:06Z</time>
      </trkpt>
      <trkpt lat="48.16875" lon="6.4246">
        <ele>436.1</ele>
        <time>2012-04-15T10:17:27Z</time>
      </trkpt>
      <trkpt lat="48.16875" lon="6.4246">
        <ele>435.13</ele>
        <time>2012-04-15T10:17:50Z</time>
      </trkpt>
      <trkpt lat="48.16875" lon="6.4246">
        <ele>435.13</ele>
        <time>2012-04-15T10:18:11Z</time>
      </trkpt>
      <trkpt lat="48.16876" lon="6.4246">
        <ele>433.69</ele>
        <time>2012-04-15T10:18:28Z</time>
      </trkpt>
      <trkpt lat="48.16876" lon="6.42459">
        <ele>433.69</ele>
        <time>2012-04-15T10:18:50Z</time>
      </trkpt>
      <trkpt lat="48.16876" lon="6.42459">
        <ele>433.69</ele>
        <time>2012-04-15T10:19:03Z</time>
      </trkpt>
      <trkpt lat="48.16876" lon="6.42459">
        <ele>433.69</ele>
        <time>2012-04-15T10:19:25Z</time>
      </trkpt>
      <trkpt lat="48.16876" lon="6.4246">
        <ele>432.73</ele>
        <time>2012-04-15T10:19:31Z</time>
      </trkpt>
      <trkpt lat="48.16879" lon="6.42442">
        <ele>432.73</ele>
        <time>2012-04-15T10:19:36Z</time>
      </trkpt>
      <trkpt lat="48.16881" lon="6.42429">
        <ele>433.69</ele>
        <time>2012-04-15T10:19:38Z</time>
      </trkpt>
      <trkpt lat="48.16883" lon="6.42412">
        <ele>435.13</ele>
        <time>2012-04-15T10:19:40Z</time>
      </trkpt>
      <trkpt lat="48.16898" lon="6.42326">
        <ele>440.42</ele>
        <time>2012-04-15T10:19:48Z</time>
      </trkpt>
      <trkpt lat="48.16899" lon="6.42316">
        <ele>440.42</ele>
        <time>2012-04-15T10:19:49Z</time>
      </trkpt>
      <trkpt lat="48.169" lon="6.42307">
        <ele>440.9</ele>
        <time>2012-04-15T10:19:50Z</time>
      </trkpt>
      <trkpt lat="48.16901" lon="6.42297">
        <ele>441.38</ele>
        <time>2012-04-15T10:19:51Z</time>
      </trkpt>
      <trkpt lat="48.16902" lon="6.42287">
        <ele>441.86</ele>
        <time>2012-04-15T10:19:52Z</time>
      </trkpt>
      <trkpt lat="48.16904" lon="6.42268">
        <ele>442.34</ele>
        <time>2012-04-15T10:19:54Z</time>
      </trkpt>
      <trkpt lat="48.16906" lon="6.42259">
        <ele>442.82</ele>
        <time>2012-04-15T10:19:55Z</time>
      </trkpt>
      <trkpt lat="48.16914" lon="6.42184">
        <ele>443.79</ele>
        <time>2012-04-15T10:20:02Z</time>
      </trkpt>
      <trkpt lat="48.16912" lon="6.42169">
        <ele>443.31</ele>
        <time>2012-04-15T10:20:04Z</time>
      </trkpt>
      <trkpt lat="48.16909" lon="6.42163">
        <ele>442.82</ele>
        <time>2012-04-15T10:20:05Z</time>
      </trkpt>
      <trkpt lat="48.16906" lon="6.42159">
        <ele>442.82</ele>
        <time>2012-04-15T10:20:06Z</time>
      </trkpt>
      <trkpt lat="48.16903" lon="6.42153">
        <ele>442.82</ele>
        <time>2012-04-15T10:20:07Z</time>
      </trkpt>
      <trkpt lat="48.16898" lon="6.42149">
        <ele>442.82</ele>
        <time>2012-04-15T10:20:08Z</time>
      </trkpt>
      <trkpt lat="48.16891" lon="6.42145">
        <ele>443.31</ele>
        <time>2012-04-15T10:20:09Z</time>
      </trkpt>
      <trkpt lat="48.16883" lon="6.42141">
        <ele>443.31</ele>
        <time>2012-04-15T10:20:10Z</time>
      </trkpt>
      <trkpt lat="48.16848" lon="6.42132">
        <ele>442.82</ele>
        <time>2012-04-15T10:20:15Z</time>
      </trkpt>
      <trkpt lat="48.16842" lon="6.4213">
        <ele>442.82</ele>
        <time>2012-04-15T10:20:16Z</time>
      </trkpt>
      <trkpt lat="48.16825" lon="6.4212">
        <ele>442.34</ele>
        <time>2012-04-15T10:20:19Z</time>
      </trkpt>
      <trkpt lat="48.1682" lon="6.42118">
        <ele>442.34</ele>
        <time>2012-04-15T10:20:20Z</time>
      </trkpt>
      <trkpt lat="48.16806" lon="6.42116">
        <ele>441.86</ele>
        <time>2012-04-15T10:20:23Z</time>
      </trkpt>
      <trkpt lat="48.16802" lon="6.42114">
        <ele>441.86</ele>
        <time>2012-04-15T10:20:24Z</time>
      </trkpt>
      <trkpt lat="48.16798" lon="6.42112">
        <ele>441.38</ele>
        <time>2012-04-15T10:20:25Z</time>
      </trkpt>
      <trkpt lat="48.16795" lon="6.42112">
        <ele>440.9</ele>
        <time>2012-04-15T10:20:26Z</time>
      </trkpt>
      <trkpt lat="48.16793" lon="6.42112">
        <ele>440.42</ele>
        <time>2012-04-15T10:20:27Z</time>
      </trkpt>
      <trkpt lat="48.16791" lon="6.42111">
        <ele>439.94</ele>
        <time>2012-04-15T10:20:28Z</time>
      </trkpt>
      <trkpt lat="48.16769" lon="6.42107">
        <ele>438.5</ele>
        <time>2012-04-15T10:20:38Z</time>
      </trkpt>
      <trkpt lat="48.16766" lon="6.42105">
        <ele>438.02</ele>
        <time>2012-04-15T10:20:39Z</time>
      </trkpt>
      <trkpt lat="48.16764" lon="6.42103">
        <ele>438.02</ele>
        <time>2012-04-15T10:20:40Z</time>
      </trkpt>
      <trkpt lat="48.16762" lon="6.42103">
        <ele>438.5</ele>
        <time>2012-04-15T10:20:41Z</time>
      </trkpt>
      <trkpt lat="48.16759" lon="6.42102">
        <ele>438.02</ele>
        <time>2012-04-15T10:20:42Z</time>
      </trkpt>
      <trkpt lat="48.16755" lon="6.42102">
        <ele>438.02</ele>
        <time>2012-04-15T10:20:43Z</time>
      </trkpt>
      <trkpt lat="48.16751" lon="6.42101">
        <ele>438.02</ele>
        <time>2012-04-15T10:20:44Z</time>
      </trkpt>
      <trkpt lat="48.16747" lon="6.42099">
        <ele>437.54</ele>
        <time>2012-04-15T10:20:45Z</time>
      </trkpt>
      <trkpt lat="48.16744" lon="6.42098">
        <ele>438.02</ele>
        <time>2012-04-15T10:20:46Z</time>
      </trkpt>
      <trkpt lat="48.16725" lon="6.42089">
        <ele>434.17</ele>
        <time>2012-04-15T10:20:52Z</time>
      </trkpt>
      <trkpt lat="48.16734" lon="6.42086">
        <ele>431.29</ele>
        <time>2012-04-15T10:20:57Z</time>
      </trkpt>
      <trkpt lat="48.16739" lon="6.42085">
        <ele>429.85</ele>
        <time>2012-04-15T10:20:58Z</time>
      </trkpt>
      <trkpt lat="48.16814" lon="6.42063">
        <ele>413.5</ele>
        <time>2012-04-15T10:21:10Z</time>
      </trkpt>
      <trkpt lat="48.16879" lon="6.42045">
        <ele>404.37</ele>
        <time>2012-04-15T10:21:19Z</time>
      </trkpt>
      <trkpt lat="48.16885" lon="6.42041">
        <ele>402.93</ele>
        <time>2012-04-15T10:21:20Z</time>
      </trkpt>
      <trkpt lat="48.1689" lon="6.42039">
        <ele>401.49</ele>
        <time>2012-04-15T10:21:21Z</time>
      </trkpt>
      <trkpt lat="48.16895" lon="6.42039">
        <ele>400.05</ele>
        <time>2012-04-15T10:21:22Z</time>
      </trkpt>
      <trkpt lat="48.16899" lon="6.42037">
        <ele>398.6</ele>
        <time>2012-04-15T10:21:23Z</time>
      </trkpt>
      <trkpt lat="48.16903" lon="6.42034">
        <ele>397.64</ele>
        <time>2012-04-15T10:21:24Z</time>
      </trkpt>
      <trkpt lat="48.16906" lon="6.42029">
        <ele>395.72</ele>
        <time>2012-04-15T10:21:25Z</time>
      </trkpt>
      <trkpt lat="48.16907" lon="6.42023">
        <ele>392.84</ele>
        <time>2012-04-15T10:21:26Z</time>
      </trkpt>
      <trkpt lat="48.16907" lon="6.42018">
        <ele>388.99</ele>
        <time>2012-04-15T10:21:27Z</time>
      </trkpt>
      <trkpt lat="48.16905" lon="6.42011">
        <ele>387.55</ele>
        <time>2012-04-15T10:21:28Z</time>
      </trkpt>
      <trkpt lat="48.16902" lon="6.42005">
        <ele>386.11</ele>
        <time>2012-04-15T10:21:29Z</time>
      </trkpt>
      <trkpt lat="48.16891" lon="6.41939">
        <ele>375.53</ele>
        <time>2012-04-15T10:21:41Z</time>
      </trkpt>
      <trkpt lat="48.16891" lon="6.41934">
        <ele>375.05</ele>
        <time>2012-04-15T10:21:42Z</time>
      </trkpt>
      <trkpt lat="48.1689" lon="6.41926">
        <ele>373.13</ele>
        <time>2012-04-15T10:21:52Z</time>
      </trkpt>
      <trkpt lat="48.16893" lon="6.41923">
        <ele>367.58984375</ele>
      </trkpt>
    </trkseg>
  </trk>
</gpx>